<?xml version="1.0" encoding="UTF-8" standalone="no" ?>
<gpx xmlns="http://www.topografix.com/GPX/1/1" xmlns:xsi="http://www.w3.org/2001/XMLSchema-instance" xsi:schemaLocation="http://www.topografix.com/GPX/1/1 http://www.topografix.com/GPX/1/1/gpx.xsd" version="1.1" creator="VisuGPX - https://www.visugpx.com">
  <metadata>
    <name>Rando VICDESSOS-10-06-2017</name>
    <desc><![CDATA[vicdessos]]></desc>
  </metadata>
  <trk>
    <name><![CDATA[Rando VICDESSOS-10-06-2017_1]]></name>
    <trkseg>
      <trkpt lat="42.76846" lon="1.4987">
        <ele>722</ele>
        <time>2017-06-10T09:53:27Z</time>
      </trkpt>
      <trkpt lat="42.76847" lon="1.49873">
        <ele>722</ele>
        <time>2017-06-10T09:53:27Z</time>
      </trkpt>
      <trkpt lat="42.76847" lon="1.49878">
        <ele>722</ele>
        <time>2017-06-10T09:53:27Z</time>
      </trkpt>
      <trkpt lat="42.76849" lon="1.49882">
        <ele>717.26966775767</ele>
        <time>2017-06-10T09:53:27Z</time>
      </trkpt>
      <trkpt lat="42.7685" lon="1.49886">
        <ele>717.26966775767</ele>
        <time>2017-06-10T09:53:27Z</time>
      </trkpt>
      <trkpt lat="42.76852" lon="1.49891">
        <ele>717.26966775767</ele>
        <time>2017-06-10T09:53:43Z</time>
      </trkpt>
      <trkpt lat="42.76854" lon="1.49897">
        <ele>721.82288943803</ele>
        <time>2017-06-10T09:53:43Z</time>
      </trkpt>
      <trkpt lat="42.76852" lon="1.49901">
        <ele>721.82288943803</ele>
        <time>2017-06-10T09:53:43Z</time>
      </trkpt>
      <trkpt lat="42.7685" lon="1.49907">
        <ele>721.82288943803</ele>
        <time>2017-06-10T09:53:43Z</time>
      </trkpt>
      <trkpt lat="42.76848" lon="1.49912">
        <ele>723.77288679749</ele>
        <time>2017-06-10T09:53:59Z</time>
      </trkpt>
      <trkpt lat="42.76847" lon="1.49917">
        <ele>723.77288679749</ele>
        <time>2017-06-10T09:53:59Z</time>
      </trkpt>
      <trkpt lat="42.76848" lon="1.49923">
        <ele>723.77288679749</ele>
        <time>2017-06-10T09:53:59Z</time>
      </trkpt>
      <trkpt lat="42.76846" lon="1.4993">
        <ele>725.94639582967</ele>
        <time>2017-06-10T09:53:59Z</time>
      </trkpt>
      <trkpt lat="42.76848" lon="1.49932">
        <ele>725.94639582967</ele>
        <time>2017-06-10T09:54:15Z</time>
      </trkpt>
      <trkpt lat="42.76848" lon="1.4994">
        <ele>725.94639582967</ele>
        <time>2017-06-10T09:54:15Z</time>
      </trkpt>
      <trkpt lat="42.7685" lon="1.4995">
        <ele>730.18366138065</ele>
        <time>2017-06-10T09:54:15Z</time>
      </trkpt>
      <trkpt lat="42.76848" lon="1.49956">
        <ele>730.18366138065</ele>
        <time>2017-06-10T09:54:15Z</time>
      </trkpt>
      <trkpt lat="42.76847" lon="1.49958">
        <ele>730.18366138065</ele>
        <time>2017-06-10T09:54:51Z</time>
      </trkpt>
      <trkpt lat="42.76847" lon="1.49961">
        <ele>730.18366138065</ele>
        <time>2017-06-10T09:54:51Z</time>
      </trkpt>
      <trkpt lat="42.76847" lon="1.49965">
        <ele>731.79821619197</ele>
        <time>2017-06-10T09:54:51Z</time>
      </trkpt>
      <trkpt lat="42.76847" lon="1.49969">
        <ele>731.79821619197</ele>
        <time>2017-06-10T09:54:51Z</time>
      </trkpt>
      <trkpt lat="42.76845" lon="1.49973">
        <ele>731.79821619197</ele>
        <time>2017-06-10T09:54:51Z</time>
      </trkpt>
      <trkpt lat="42.76844" lon="1.49978">
        <ele>732.08834400654</ele>
        <time>2017-06-10T09:55:07Z</time>
      </trkpt>
      <trkpt lat="42.76841" lon="1.49984">
        <ele>732.08834400654</ele>
        <time>2017-06-10T09:55:07Z</time>
      </trkpt>
      <trkpt lat="42.7684" lon="1.49989">
        <ele>732.08834400654</ele>
        <time>2017-06-10T09:55:07Z</time>
      </trkpt>
      <trkpt lat="42.76841" lon="1.49996">
        <ele>731.43417395777</ele>
        <time>2017-06-10T09:55:07Z</time>
      </trkpt>
      <trkpt lat="42.76841" lon="1.50002">
        <ele>731.43417395777</ele>
        <time>2017-06-10T09:55:23Z</time>
      </trkpt>
      <trkpt lat="42.76843" lon="1.50008">
        <ele>730.45447527722</ele>
        <time>2017-06-10T09:55:23Z</time>
      </trkpt>
      <trkpt lat="42.76846" lon="1.50013">
        <ele>730.45447527722</ele>
        <time>2017-06-10T09:55:23Z</time>
      </trkpt>
      <trkpt lat="42.7685" lon="1.50019">
        <ele>730.40533130044</ele>
        <time>2017-06-10T09:55:23Z</time>
      </trkpt>
      <trkpt lat="42.76859" lon="1.50029">
        <ele>731.33172830163</ele>
        <time>2017-06-10T09:56:35Z</time>
      </trkpt>
      <trkpt lat="42.7686" lon="1.50029">
        <ele>731.33172830163</ele>
        <time>2017-06-10T09:56:35Z</time>
      </trkpt>
      <trkpt lat="42.7686" lon="1.50029">
        <ele>731.33172830163</ele>
        <time>2017-06-10T09:56:35Z</time>
      </trkpt>
      <trkpt lat="42.76862" lon="1.5003">
        <ele>731.33172830163</ele>
        <time>2017-06-10T09:56:35Z</time>
      </trkpt>
      <trkpt lat="42.76864" lon="1.50029">
        <ele>731.33172830163</ele>
        <time>2017-06-10T09:56:35Z</time>
      </trkpt>
      <trkpt lat="42.76866" lon="1.50027">
        <ele>731.33172830163</ele>
        <time>2017-06-10T09:56:55Z</time>
      </trkpt>
      <trkpt lat="42.76868" lon="1.50027">
        <ele>731.49352212615</ele>
        <time>2017-06-10T09:56:55Z</time>
      </trkpt>
      <trkpt lat="42.76871" lon="1.5003">
        <ele>731.49352212615</ele>
        <time>2017-06-10T09:56:55Z</time>
      </trkpt>
      <trkpt lat="42.76875" lon="1.5003">
        <ele>731.49352212615</ele>
        <time>2017-06-10T09:56:55Z</time>
      </trkpt>
      <trkpt lat="42.76876" lon="1.5003">
        <ele>731.49352212615</ele>
        <time>2017-06-10T09:56:55Z</time>
      </trkpt>
      <trkpt lat="42.76876" lon="1.5003">
        <ele>732.820100597</ele>
        <time>2017-06-10T09:58:27Z</time>
      </trkpt>
      <trkpt lat="42.76874" lon="1.5003">
        <ele>732.820100597</ele>
        <time>2017-06-10T09:58:27Z</time>
      </trkpt>
      <trkpt lat="42.76874" lon="1.5003">
        <ele>732.820100597</ele>
        <time>2017-06-10T09:58:27Z</time>
      </trkpt>
      <trkpt lat="42.76872" lon="1.50032">
        <ele>732.820100597</ele>
        <time>2017-06-10T09:58:27Z</time>
      </trkpt>
      <trkpt lat="42.76866" lon="1.50031">
        <ele>731.0749371734</ele>
        <time>2017-06-10T09:58:27Z</time>
      </trkpt>
      <trkpt lat="42.76858" lon="1.50027">
        <ele>731.0749371734</ele>
        <time>2017-06-10T09:58:43Z</time>
      </trkpt>
      <trkpt lat="42.7685" lon="1.50024">
        <ele>729.41258084321</ele>
        <time>2017-06-10T09:58:43Z</time>
      </trkpt>
      <trkpt lat="42.76846" lon="1.50021">
        <ele>729.41258084321</ele>
        <time>2017-06-10T09:58:43Z</time>
      </trkpt>
      <trkpt lat="42.76845" lon="1.5002">
        <ele>729.41258084321</ele>
        <time>2017-06-10T09:58:43Z</time>
      </trkpt>
      <trkpt lat="42.76847" lon="1.50022">
        <ele>729.41258084321</ele>
        <time>2017-06-10T09:59:43Z</time>
      </trkpt>
      <trkpt lat="42.76847" lon="1.50022">
        <ele>729.41258084321</ele>
        <time>2017-06-10T09:59:43Z</time>
      </trkpt>
      <trkpt lat="42.76847" lon="1.50022">
        <ele>729.41258084321</ele>
        <time>2017-06-10T09:59:43Z</time>
      </trkpt>
      <trkpt lat="42.7685" lon="1.50027">
        <ele>727.87827101248</ele>
        <time>2017-06-10T09:59:43Z</time>
      </trkpt>
      <trkpt lat="42.76854" lon="1.50031">
        <ele>727.87827101248</ele>
        <time>2017-06-10T09:59:43Z</time>
      </trkpt>
      <trkpt lat="42.76858" lon="1.50036">
        <ele>726.0124711484</ele>
        <time>2017-06-10T09:59:59Z</time>
      </trkpt>
      <trkpt lat="42.76865" lon="1.50039">
        <ele>726.0124711484</ele>
        <time>2017-06-10T09:59:59Z</time>
      </trkpt>
      <trkpt lat="42.7687" lon="1.50041">
        <ele>724.69513301727</ele>
        <time>2017-06-10T09:59:59Z</time>
      </trkpt>
      <trkpt lat="42.76875" lon="1.50042">
        <ele>724.69513301727</ele>
        <time>2017-06-10T09:59:59Z</time>
      </trkpt>
      <trkpt lat="42.76881" lon="1.50042">
        <ele>722.93622033626</ele>
        <time>2017-06-10T10:00:15Z</time>
      </trkpt>
      <trkpt lat="42.76887" lon="1.50042">
        <ele>722.93622033626</ele>
        <time>2017-06-10T10:00:15Z</time>
      </trkpt>
      <trkpt lat="42.76893" lon="1.50045">
        <ele>722.06320911907</ele>
        <time>2017-06-10T10:00:15Z</time>
      </trkpt>
      <trkpt lat="42.76896" lon="1.50044">
        <ele>722.06320911907</ele>
        <time>2017-06-10T10:00:15Z</time>
      </trkpt>
      <trkpt lat="42.76901" lon="1.50042">
        <ele>722.06320911907</ele>
        <time>2017-06-10T10:00:31Z</time>
      </trkpt>
      <trkpt lat="42.76903" lon="1.5004">
        <ele>722.29617551985</ele>
        <time>2017-06-10T10:00:31Z</time>
      </trkpt>
      <trkpt lat="42.76908" lon="1.50039">
        <ele>722.29617551985</ele>
        <time>2017-06-10T10:00:31Z</time>
      </trkpt>
      <trkpt lat="42.76913" lon="1.50037">
        <ele>722.60042317387</ele>
        <time>2017-06-10T10:00:31Z</time>
      </trkpt>
      <trkpt lat="42.76915" lon="1.50035">
        <ele>722.60042317387</ele>
        <time>2017-06-10T10:00:47Z</time>
      </trkpt>
      <trkpt lat="42.76919" lon="1.50035">
        <ele>722.60042317387</ele>
        <time>2017-06-10T10:00:47Z</time>
      </trkpt>
      <trkpt lat="42.76926" lon="1.50033">
        <ele>723.27049658427</ele>
        <time>2017-06-10T10:00:47Z</time>
      </trkpt>
      <trkpt lat="42.76932" lon="1.50029">
        <ele>723.27049658427</ele>
        <time>2017-06-10T10:00:47Z</time>
      </trkpt>
      <trkpt lat="42.76939" lon="1.50032">
        <ele>724.11877007049</ele>
        <time>2017-06-10T10:01:03Z</time>
      </trkpt>
      <trkpt lat="42.76942" lon="1.50034">
        <ele>724.11877007049</ele>
        <time>2017-06-10T10:01:03Z</time>
      </trkpt>
      <trkpt lat="42.76947" lon="1.50033">
        <ele>724.11877007049</ele>
        <time>2017-06-10T10:01:03Z</time>
      </trkpt>
      <trkpt lat="42.76955" lon="1.5003">
        <ele>724.68852445494</ele>
        <time>2017-06-10T10:01:03Z</time>
      </trkpt>
      <trkpt lat="42.76963" lon="1.50028">
        <ele>724.68852445494</ele>
        <time>2017-06-10T10:01:23Z</time>
      </trkpt>
      <trkpt lat="42.76966" lon="1.5003">
        <ele>725.15253039504</ele>
        <time>2017-06-10T10:01:23Z</time>
      </trkpt>
      <trkpt lat="42.76967" lon="1.50034">
        <ele>725.15253039504</ele>
        <time>2017-06-10T10:01:23Z</time>
      </trkpt>
      <trkpt lat="42.76969" lon="1.50034">
        <ele>725.15253039504</ele>
        <time>2017-06-10T10:01:23Z</time>
      </trkpt>
      <trkpt lat="42.76972" lon="1.50035">
        <ele>725.23561020114</ele>
        <time>2017-06-10T10:01:23Z</time>
      </trkpt>
      <trkpt lat="42.76976" lon="1.50035">
        <ele>725.23561020114</ele>
        <time>2017-06-10T10:01:39Z</time>
      </trkpt>
      <trkpt lat="42.76984" lon="1.50029">
        <ele>725.25551982177</ele>
        <time>2017-06-10T10:01:39Z</time>
      </trkpt>
      <trkpt lat="42.76986" lon="1.50028">
        <ele>725.25551982177</ele>
        <time>2017-06-10T10:01:39Z</time>
      </trkpt>
      <trkpt lat="42.7699" lon="1.50028">
        <ele>725.25551982177</ele>
        <time>2017-06-10T10:01:39Z</time>
      </trkpt>
      <trkpt lat="42.76997" lon="1.50027">
        <ele>725.07614626245</ele>
        <time>2017-06-10T10:01:55Z</time>
      </trkpt>
      <trkpt lat="42.76998" lon="1.50027">
        <ele>725.07614626245</ele>
        <time>2017-06-10T10:01:55Z</time>
      </trkpt>
      <trkpt lat="42.77003" lon="1.50028">
        <ele>725.07614626245</ele>
        <time>2017-06-10T10:01:55Z</time>
      </trkpt>
      <trkpt lat="42.77008" lon="1.50029">
        <ele>724.15519561208</ele>
        <time>2017-06-10T10:01:55Z</time>
      </trkpt>
      <trkpt lat="42.77012" lon="1.50029">
        <ele>724.15519561208</ele>
        <time>2017-06-10T10:02:11Z</time>
      </trkpt>
      <trkpt lat="42.77017" lon="1.50029">
        <ele>723.52446460992</ele>
        <time>2017-06-10T10:02:11Z</time>
      </trkpt>
      <trkpt lat="42.77023" lon="1.50027">
        <ele>723.52446460992</ele>
        <time>2017-06-10T10:02:11Z</time>
      </trkpt>
      <trkpt lat="42.77028" lon="1.50027">
        <ele>722.60497127749</ele>
        <time>2017-06-10T10:02:11Z</time>
      </trkpt>
      <trkpt lat="42.77033" lon="1.50026">
        <ele>722.60497127749</ele>
        <time>2017-06-10T10:02:27Z</time>
      </trkpt>
      <trkpt lat="42.77037" lon="1.50028">
        <ele>722.60497127749</ele>
        <time>2017-06-10T10:02:27Z</time>
      </trkpt>
      <trkpt lat="42.77041" lon="1.50032">
        <ele>721.27822069802</ele>
        <time>2017-06-10T10:02:27Z</time>
      </trkpt>
      <trkpt lat="42.77045" lon="1.50034">
        <ele>721.27822069802</ele>
        <time>2017-06-10T10:02:27Z</time>
      </trkpt>
      <trkpt lat="42.77047" lon="1.50032">
        <ele>721.27822069802</ele>
        <time>2017-06-10T10:02:43Z</time>
      </trkpt>
      <trkpt lat="42.77049" lon="1.50034">
        <ele>719.98977570176</ele>
        <time>2017-06-10T10:02:43Z</time>
      </trkpt>
      <trkpt lat="42.77053" lon="1.50034">
        <ele>719.98977570176</ele>
        <time>2017-06-10T10:02:43Z</time>
      </trkpt>
      <trkpt lat="42.77057" lon="1.50032">
        <ele>719.98977570176</ele>
        <time>2017-06-10T10:02:43Z</time>
      </trkpt>
      <trkpt lat="42.77067" lon="1.50028">
        <ele>718.87816665562</ele>
        <time>2017-06-10T10:03:43Z</time>
      </trkpt>
      <trkpt lat="42.77065" lon="1.50034">
        <ele>718.87816665562</ele>
        <time>2017-06-10T10:03:43Z</time>
      </trkpt>
      <trkpt lat="42.77061" lon="1.50039">
        <ele>717.79471682087</ele>
        <time>2017-06-10T10:03:43Z</time>
      </trkpt>
      <trkpt lat="42.77059" lon="1.50045">
        <ele>717.79471682087</ele>
        <time>2017-06-10T10:03:43Z</time>
      </trkpt>
      <trkpt lat="42.77057" lon="1.50051">
        <ele>717.44579258927</ele>
        <time>2017-06-10T10:03:43Z</time>
      </trkpt>
      <trkpt lat="42.77055" lon="1.50054">
        <ele>717.44579258927</ele>
        <time>2017-06-10T10:04:03Z</time>
      </trkpt>
      <trkpt lat="42.77053" lon="1.5006">
        <ele>717.44579258927</ele>
        <time>2017-06-10T10:04:03Z</time>
      </trkpt>
      <trkpt lat="42.77053" lon="1.50063">
        <ele>716.65714690671</ele>
        <time>2017-06-10T10:04:03Z</time>
      </trkpt>
      <trkpt lat="42.77053" lon="1.50064">
        <ele>716.65714690671</ele>
        <time>2017-06-10T10:04:03Z</time>
      </trkpt>
      <trkpt lat="42.77053" lon="1.50069">
        <ele>716.65714690671</ele>
        <time>2017-06-10T10:04:03Z</time>
      </trkpt>
      <trkpt lat="42.77053" lon="1.50073">
        <ele>716.65714690671</ele>
        <time>2017-06-10T10:04:23Z</time>
      </trkpt>
      <trkpt lat="42.77053" lon="1.50075">
        <ele>716.65714690671</ele>
        <time>2017-06-10T10:04:23Z</time>
      </trkpt>
      <trkpt lat="42.77054" lon="1.50078">
        <ele>715.60066737676</ele>
        <time>2017-06-10T10:04:23Z</time>
      </trkpt>
      <trkpt lat="42.77055" lon="1.50084">
        <ele>715.60066737676</ele>
        <time>2017-06-10T10:04:23Z</time>
      </trkpt>
      <trkpt lat="42.77056" lon="1.50088">
        <ele>715.60066737676</ele>
        <time>2017-06-10T10:04:23Z</time>
      </trkpt>
      <trkpt lat="42.77057" lon="1.50089">
        <ele>715.60066737676</ele>
        <time>2017-06-10T10:04:39Z</time>
      </trkpt>
      <trkpt lat="42.77058" lon="1.50094">
        <ele>713.86579387458</ele>
        <time>2017-06-10T10:04:39Z</time>
      </trkpt>
      <trkpt lat="42.7706" lon="1.50102">
        <ele>713.86579387458</ele>
        <time>2017-06-10T10:04:39Z</time>
      </trkpt>
      <trkpt lat="42.77063" lon="1.50113">
        <ele>712.94648219748</ele>
        <time>2017-06-10T10:04:39Z</time>
      </trkpt>
      <trkpt lat="42.77065" lon="1.50119">
        <ele>712.94648219748</ele>
        <time>2017-06-10T10:04:55Z</time>
      </trkpt>
      <trkpt lat="42.77068" lon="1.50126">
        <ele>712.36495795853</ele>
        <time>2017-06-10T10:04:55Z</time>
      </trkpt>
      <trkpt lat="42.77071" lon="1.50133">
        <ele>712.36495795853</ele>
        <time>2017-06-10T10:04:55Z</time>
      </trkpt>
      <trkpt lat="42.77073" lon="1.50141">
        <ele>711.22613867418</ele>
        <time>2017-06-10T10:04:55Z</time>
      </trkpt>
      <trkpt lat="42.77075" lon="1.50149">
        <ele>711.22613867418</ele>
        <time>2017-06-10T10:05:11Z</time>
      </trkpt>
      <trkpt lat="42.77076" lon="1.50157">
        <ele>710.74982567499</ele>
        <time>2017-06-10T10:05:11Z</time>
      </trkpt>
      <trkpt lat="42.7708" lon="1.50162">
        <ele>710.74982567499</ele>
        <time>2017-06-10T10:05:11Z</time>
      </trkpt>
      <trkpt lat="42.77082" lon="1.50167">
        <ele>710.30591049749</ele>
        <time>2017-06-10T10:05:11Z</time>
      </trkpt>
      <trkpt lat="42.77087" lon="1.50172">
        <ele>710.30591049749</ele>
        <time>2017-06-10T10:05:27Z</time>
      </trkpt>
      <trkpt lat="42.77091" lon="1.50177">
        <ele>709.74650895461</ele>
        <time>2017-06-10T10:05:27Z</time>
      </trkpt>
      <trkpt lat="42.77094" lon="1.50181">
        <ele>709.74650895461</ele>
        <time>2017-06-10T10:05:27Z</time>
      </trkpt>
      <trkpt lat="42.77098" lon="1.50185">
        <ele>709.23216765173</ele>
        <time>2017-06-10T10:05:27Z</time>
      </trkpt>
      <trkpt lat="42.771" lon="1.5019">
        <ele>709.23216765173</ele>
        <time>2017-06-10T10:05:43Z</time>
      </trkpt>
      <trkpt lat="42.77102" lon="1.50196">
        <ele>709.23216765173</ele>
        <time>2017-06-10T10:05:43Z</time>
      </trkpt>
      <trkpt lat="42.77105" lon="1.50198">
        <ele>708.46277711137</ele>
        <time>2017-06-10T10:05:43Z</time>
      </trkpt>
      <trkpt lat="42.7711" lon="1.50201">
        <ele>708.46277711137</ele>
        <time>2017-06-10T10:05:43Z</time>
      </trkpt>
      <trkpt lat="42.77115" lon="1.50206">
        <ele>708.21212103163</ele>
        <time>2017-06-10T10:05:59Z</time>
      </trkpt>
      <trkpt lat="42.77119" lon="1.5021">
        <ele>708.21212103163</ele>
        <time>2017-06-10T10:05:59Z</time>
      </trkpt>
      <trkpt lat="42.77125" lon="1.50214">
        <ele>708.44476421233</ele>
        <time>2017-06-10T10:05:59Z</time>
      </trkpt>
      <trkpt lat="42.77131" lon="1.50219">
        <ele>708.44476421233</ele>
        <time>2017-06-10T10:05:59Z</time>
      </trkpt>
      <trkpt lat="42.77136" lon="1.50223">
        <ele>708.67197798902</ele>
        <time>2017-06-10T10:06:15Z</time>
      </trkpt>
      <trkpt lat="42.7714" lon="1.50226">
        <ele>708.67197798902</ele>
        <time>2017-06-10T10:06:15Z</time>
      </trkpt>
      <trkpt lat="42.77143" lon="1.50228">
        <ele>708.67197798902</ele>
        <time>2017-06-10T10:06:15Z</time>
      </trkpt>
      <trkpt lat="42.77147" lon="1.5023">
        <ele>708.44040409293</ele>
        <time>2017-06-10T10:06:15Z</time>
      </trkpt>
      <trkpt lat="42.77151" lon="1.50232">
        <ele>708.44040409293</ele>
        <time>2017-06-10T10:06:31Z</time>
      </trkpt>
      <trkpt lat="42.77155" lon="1.50235">
        <ele>708.44040409293</ele>
        <time>2017-06-10T10:06:31Z</time>
      </trkpt>
      <trkpt lat="42.7716" lon="1.50237">
        <ele>708.38981555097</ele>
        <time>2017-06-10T10:06:31Z</time>
      </trkpt>
      <trkpt lat="42.77165" lon="1.5024">
        <ele>708.38981555097</ele>
        <time>2017-06-10T10:06:31Z</time>
      </trkpt>
      <trkpt lat="42.7717" lon="1.50242">
        <ele>708.05379983087</ele>
        <time>2017-06-10T10:06:47Z</time>
      </trkpt>
      <trkpt lat="42.77175" lon="1.50243">
        <ele>708.05379983087</ele>
        <time>2017-06-10T10:06:47Z</time>
      </trkpt>
      <trkpt lat="42.7718" lon="1.50245">
        <ele>707.30532348872</ele>
        <time>2017-06-10T10:06:47Z</time>
      </trkpt>
      <trkpt lat="42.77184" lon="1.50249">
        <ele>707.30532348872</ele>
        <time>2017-06-10T10:06:47Z</time>
      </trkpt>
      <trkpt lat="42.77188" lon="1.50253">
        <ele>706.78197508019</ele>
        <time>2017-06-10T10:07:03Z</time>
      </trkpt>
      <trkpt lat="42.77192" lon="1.50255">
        <ele>706.78197508019</ele>
        <time>2017-06-10T10:07:03Z</time>
      </trkpt>
      <trkpt lat="42.77197" lon="1.50258">
        <ele>706.01660493047</ele>
        <time>2017-06-10T10:07:03Z</time>
      </trkpt>
      <trkpt lat="42.77202" lon="1.5026">
        <ele>706.01660493047</ele>
        <time>2017-06-10T10:07:03Z</time>
      </trkpt>
      <trkpt lat="42.77205" lon="1.5026">
        <ele>706.01660493047</ele>
        <time>2017-06-10T10:07:19Z</time>
      </trkpt>
      <trkpt lat="42.77209" lon="1.50262">
        <ele>704.58131561347</ele>
        <time>2017-06-10T10:07:19Z</time>
      </trkpt>
      <trkpt lat="42.77213" lon="1.50265">
        <ele>704.58131561347</ele>
        <time>2017-06-10T10:07:19Z</time>
      </trkpt>
      <trkpt lat="42.77218" lon="1.50268">
        <ele>703.28332194971</ele>
        <time>2017-06-10T10:07:19Z</time>
      </trkpt>
      <trkpt lat="42.77222" lon="1.50272">
        <ele>703.28332194971</ele>
        <time>2017-06-10T10:07:35Z</time>
      </trkpt>
      <trkpt lat="42.77225" lon="1.50275">
        <ele>703.28332194971</ele>
        <time>2017-06-10T10:07:35Z</time>
      </trkpt>
      <trkpt lat="42.77229" lon="1.50279">
        <ele>701.96590012977</ele>
        <time>2017-06-10T10:07:35Z</time>
      </trkpt>
      <trkpt lat="42.77232" lon="1.50283">
        <ele>701.96590012977</ele>
        <time>2017-06-10T10:07:35Z</time>
      </trkpt>
      <trkpt lat="42.77236" lon="1.50286">
        <ele>701.2300554646</ele>
        <time>2017-06-10T10:07:51Z</time>
      </trkpt>
      <trkpt lat="42.77241" lon="1.5029">
        <ele>701.2300554646</ele>
        <time>2017-06-10T10:07:51Z</time>
      </trkpt>
      <trkpt lat="42.77246" lon="1.50294">
        <ele>701.47568428072</ele>
        <time>2017-06-10T10:07:51Z</time>
      </trkpt>
      <trkpt lat="42.77249" lon="1.50298">
        <ele>701.47568428072</ele>
        <time>2017-06-10T10:07:51Z</time>
      </trkpt>
      <trkpt lat="42.77254" lon="1.50303">
        <ele>702.17689232038</ele>
        <time>2017-06-10T10:08:07Z</time>
      </trkpt>
      <trkpt lat="42.77256" lon="1.50305">
        <ele>702.17689232038</ele>
        <time>2017-06-10T10:08:07Z</time>
      </trkpt>
      <trkpt lat="42.77259" lon="1.50308">
        <ele>702.17689232038</ele>
        <time>2017-06-10T10:08:07Z</time>
      </trkpt>
      <trkpt lat="42.77265" lon="1.50312">
        <ele>702.70294337151</ele>
        <time>2017-06-10T10:08:07Z</time>
      </trkpt>
      <trkpt lat="42.77268" lon="1.50314">
        <ele>702.70294337151</ele>
        <time>2017-06-10T10:08:23Z</time>
      </trkpt>
      <trkpt lat="42.77272" lon="1.50314">
        <ele>702.70294337151</ele>
        <time>2017-06-10T10:08:23Z</time>
      </trkpt>
      <trkpt lat="42.77276" lon="1.50317">
        <ele>702.77143061401</ele>
        <time>2017-06-10T10:08:23Z</time>
      </trkpt>
      <trkpt lat="42.77281" lon="1.5032">
        <ele>702.77143061401</ele>
        <time>2017-06-10T10:08:23Z</time>
      </trkpt>
      <trkpt lat="42.77286" lon="1.50322">
        <ele>702.71315700427</ele>
        <time>2017-06-10T10:08:39Z</time>
      </trkpt>
      <trkpt lat="42.77291" lon="1.50327">
        <ele>702.71315700427</ele>
        <time>2017-06-10T10:08:39Z</time>
      </trkpt>
      <trkpt lat="42.77296" lon="1.50331">
        <ele>702.39134426163</ele>
        <time>2017-06-10T10:08:39Z</time>
      </trkpt>
      <trkpt lat="42.77302" lon="1.50335">
        <ele>702.39134426163</ele>
        <time>2017-06-10T10:08:39Z</time>
      </trkpt>
      <trkpt lat="42.77306" lon="1.5034">
        <ele>702.41344828685</ele>
        <time>2017-06-10T10:08:55Z</time>
      </trkpt>
      <trkpt lat="42.77311" lon="1.50344">
        <ele>702.41344828685</ele>
        <time>2017-06-10T10:08:55Z</time>
      </trkpt>
      <trkpt lat="42.77315" lon="1.50347">
        <ele>702.45919653792</ele>
        <time>2017-06-10T10:08:55Z</time>
      </trkpt>
      <trkpt lat="42.7732" lon="1.5035">
        <ele>702.45919653792</ele>
        <time>2017-06-10T10:08:55Z</time>
      </trkpt>
      <trkpt lat="42.77323" lon="1.50353">
        <ele>702.45919653792</ele>
        <time>2017-06-10T10:09:11Z</time>
      </trkpt>
      <trkpt lat="42.77325" lon="1.50355">
        <ele>702.38025218751</ele>
        <time>2017-06-10T10:09:11Z</time>
      </trkpt>
      <trkpt lat="42.77328" lon="1.50358">
        <ele>702.38025218751</ele>
        <time>2017-06-10T10:09:11Z</time>
      </trkpt>
      <trkpt lat="42.77331" lon="1.5036">
        <ele>702.38025218751</ele>
        <time>2017-06-10T10:09:11Z</time>
      </trkpt>
      <trkpt lat="42.77329" lon="1.5036">
        <ele>702.38025218751</ele>
        <time>2017-06-10T10:09:35Z</time>
      </trkpt>
      <trkpt lat="42.77328" lon="1.50361">
        <ele>702.38025218751</ele>
        <time>2017-06-10T10:09:35Z</time>
      </trkpt>
      <trkpt lat="42.77331" lon="1.50362">
        <ele>702.33182004756</ele>
        <time>2017-06-10T10:09:35Z</time>
      </trkpt>
      <trkpt lat="42.77336" lon="1.50367">
        <ele>702.33182004756</ele>
        <time>2017-06-10T10:09:35Z</time>
      </trkpt>
      <trkpt lat="42.77342" lon="1.50371">
        <ele>702.89282577689</ele>
        <time>2017-06-10T10:09:35Z</time>
      </trkpt>
      <trkpt lat="42.77347" lon="1.50376">
        <ele>702.89282577689</ele>
        <time>2017-06-10T10:09:51Z</time>
      </trkpt>
      <trkpt lat="42.77351" lon="1.50381">
        <ele>703.2878118741</ele>
        <time>2017-06-10T10:09:51Z</time>
      </trkpt>
      <trkpt lat="42.77355" lon="1.50386">
        <ele>703.2878118741</ele>
        <time>2017-06-10T10:09:51Z</time>
      </trkpt>
      <trkpt lat="42.77359" lon="1.5039">
        <ele>703.67312140046</ele>
        <time>2017-06-10T10:09:51Z</time>
      </trkpt>
      <trkpt lat="42.77364" lon="1.50395">
        <ele>703.67312140046</ele>
        <time>2017-06-10T10:10:07Z</time>
      </trkpt>
      <trkpt lat="42.77369" lon="1.50399">
        <ele>704.19282891987</ele>
        <time>2017-06-10T10:10:07Z</time>
      </trkpt>
      <trkpt lat="42.77373" lon="1.50403">
        <ele>704.19282891987</ele>
        <time>2017-06-10T10:10:07Z</time>
      </trkpt>
      <trkpt lat="42.77377" lon="1.50408">
        <ele>704.69001461662</ele>
        <time>2017-06-10T10:10:07Z</time>
      </trkpt>
      <trkpt lat="42.77381" lon="1.50412">
        <ele>704.69001461662</ele>
        <time>2017-06-10T10:10:23Z</time>
      </trkpt>
      <trkpt lat="42.77386" lon="1.50416">
        <ele>705.16451632092</ele>
        <time>2017-06-10T10:10:23Z</time>
      </trkpt>
      <trkpt lat="42.7739" lon="1.50421">
        <ele>705.16451632092</ele>
        <time>2017-06-10T10:10:23Z</time>
      </trkpt>
      <trkpt lat="42.77395" lon="1.50426">
        <ele>705.61621483282</ele>
        <time>2017-06-10T10:10:23Z</time>
      </trkpt>
      <trkpt lat="42.77397" lon="1.50431">
        <ele>705.61621483282</ele>
        <time>2017-06-10T10:10:39Z</time>
      </trkpt>
      <trkpt lat="42.77401" lon="1.50436">
        <ele>705.75618490406</ele>
        <time>2017-06-10T10:10:39Z</time>
      </trkpt>
      <trkpt lat="42.77406" lon="1.50439">
        <ele>705.75618490406</ele>
        <time>2017-06-10T10:10:39Z</time>
      </trkpt>
      <trkpt lat="42.7741" lon="1.50444">
        <ele>705.75117495846</ele>
        <time>2017-06-10T10:10:39Z</time>
      </trkpt>
      <trkpt lat="42.77413" lon="1.50449">
        <ele>705.75117495846</ele>
        <time>2017-06-10T10:10:55Z</time>
      </trkpt>
      <trkpt lat="42.77416" lon="1.50453">
        <ele>705.75117495846</ele>
        <time>2017-06-10T10:10:55Z</time>
      </trkpt>
      <trkpt lat="42.77419" lon="1.50456">
        <ele>706.04432230126</ele>
        <time>2017-06-10T10:10:55Z</time>
      </trkpt>
      <trkpt lat="42.77423" lon="1.5046">
        <ele>706.04432230126</ele>
        <time>2017-06-10T10:10:55Z</time>
      </trkpt>
      <trkpt lat="42.77426" lon="1.50463">
        <ele>706.04432230126</ele>
        <time>2017-06-10T10:11:11Z</time>
      </trkpt>
      <trkpt lat="42.77428" lon="1.50465">
        <ele>706.46780404352</ele>
        <time>2017-06-10T10:11:11Z</time>
      </trkpt>
      <trkpt lat="42.7743" lon="1.50469">
        <ele>706.46780404352</ele>
        <time>2017-06-10T10:11:11Z</time>
      </trkpt>
      <trkpt lat="42.77435" lon="1.50473">
        <ele>706.57756419932</ele>
        <time>2017-06-10T10:11:11Z</time>
      </trkpt>
      <trkpt lat="42.77441" lon="1.50476">
        <ele>706.57756419932</ele>
        <time>2017-06-10T10:11:27Z</time>
      </trkpt>
      <trkpt lat="42.77446" lon="1.50479">
        <ele>707.26119088937</ele>
        <time>2017-06-10T10:11:27Z</time>
      </trkpt>
      <trkpt lat="42.7745" lon="1.50482">
        <ele>707.26119088937</ele>
        <time>2017-06-10T10:11:27Z</time>
      </trkpt>
      <trkpt lat="42.77453" lon="1.50487">
        <ele>707.60879043321</ele>
        <time>2017-06-10T10:11:27Z</time>
      </trkpt>
      <trkpt lat="42.77456" lon="1.50492">
        <ele>707.60879043321</ele>
        <time>2017-06-10T10:11:43Z</time>
      </trkpt>
      <trkpt lat="42.7746" lon="1.50497">
        <ele>708.22040180146</ele>
        <time>2017-06-10T10:11:43Z</time>
      </trkpt>
      <trkpt lat="42.77462" lon="1.50503">
        <ele>708.22040180146</ele>
        <time>2017-06-10T10:11:43Z</time>
      </trkpt>
      <trkpt lat="42.77465" lon="1.50508">
        <ele>708.93026607008</ele>
        <time>2017-06-10T10:11:43Z</time>
      </trkpt>
      <trkpt lat="42.77469" lon="1.50513">
        <ele>708.93026607008</ele>
        <time>2017-06-10T10:11:59Z</time>
      </trkpt>
      <trkpt lat="42.77472" lon="1.50518">
        <ele>709.44041461283</ele>
        <time>2017-06-10T10:11:59Z</time>
      </trkpt>
      <trkpt lat="42.77475" lon="1.50524">
        <ele>709.44041461283</ele>
        <time>2017-06-10T10:11:59Z</time>
      </trkpt>
      <trkpt lat="42.77478" lon="1.5053">
        <ele>710.62879803712</ele>
        <time>2017-06-10T10:11:59Z</time>
      </trkpt>
      <trkpt lat="42.77482" lon="1.50535">
        <ele>710.62879803712</ele>
        <time>2017-06-10T10:12:15Z</time>
      </trkpt>
      <trkpt lat="42.77486" lon="1.5054">
        <ele>711.86522271012</ele>
        <time>2017-06-10T10:12:15Z</time>
      </trkpt>
      <trkpt lat="42.77488" lon="1.50545">
        <ele>711.86522271012</ele>
        <time>2017-06-10T10:12:15Z</time>
      </trkpt>
      <trkpt lat="42.77492" lon="1.50549">
        <ele>712.85402927001</ele>
        <time>2017-06-10T10:12:15Z</time>
      </trkpt>
      <trkpt lat="42.775" lon="1.50564">
        <ele>714.04299332689</ele>
        <time>2017-06-10T10:13:43Z</time>
      </trkpt>
      <trkpt lat="42.775" lon="1.50564">
        <ele>714.04299332689</ele>
        <time>2017-06-10T10:13:43Z</time>
      </trkpt>
      <trkpt lat="42.775" lon="1.50564">
        <ele>714.04299332689</ele>
        <time>2017-06-10T10:13:43Z</time>
      </trkpt>
      <trkpt lat="42.775" lon="1.50564">
        <ele>714.04299332689</ele>
        <time>2017-06-10T10:13:43Z</time>
      </trkpt>
      <trkpt lat="42.77502" lon="1.50567">
        <ele>714.04299332689</ele>
        <time>2017-06-10T10:13:43Z</time>
      </trkpt>
      <trkpt lat="42.77506" lon="1.50571">
        <ele>714.04299332689</ele>
        <time>2017-06-10T10:13:59Z</time>
      </trkpt>
      <trkpt lat="42.77508" lon="1.50576">
        <ele>714.69287335564</ele>
        <time>2017-06-10T10:13:59Z</time>
      </trkpt>
      <trkpt lat="42.77511" lon="1.50581">
        <ele>714.69287335564</ele>
        <time>2017-06-10T10:13:59Z</time>
      </trkpt>
      <trkpt lat="42.77513" lon="1.50586">
        <ele>715.12974162535</ele>
        <time>2017-06-10T10:13:59Z</time>
      </trkpt>
      <trkpt lat="42.77515" lon="1.50593">
        <ele>715.12974162535</ele>
        <time>2017-06-10T10:14:15Z</time>
      </trkpt>
      <trkpt lat="42.77519" lon="1.506">
        <ele>715.51220824312</ele>
        <time>2017-06-10T10:14:15Z</time>
      </trkpt>
      <trkpt lat="42.77522" lon="1.50609">
        <ele>715.51220824312</ele>
        <time>2017-06-10T10:14:15Z</time>
      </trkpt>
      <trkpt lat="42.77523" lon="1.50616">
        <ele>716.42017221829</ele>
        <time>2017-06-10T10:14:15Z</time>
      </trkpt>
      <trkpt lat="42.77523" lon="1.50621">
        <ele>716.42017221829</ele>
        <time>2017-06-10T10:14:31Z</time>
      </trkpt>
      <trkpt lat="42.77523" lon="1.50626">
        <ele>716.42017221829</ele>
        <time>2017-06-10T10:14:31Z</time>
      </trkpt>
      <trkpt lat="42.77524" lon="1.50632">
        <ele>717.23566218353</ele>
        <time>2017-06-10T10:14:31Z</time>
      </trkpt>
      <trkpt lat="42.77525" lon="1.50638">
        <ele>717.23566218353</ele>
        <time>2017-06-10T10:14:31Z</time>
      </trkpt>
      <trkpt lat="42.77527" lon="1.50644">
        <ele>717.67487981029</ele>
        <time>2017-06-10T10:14:47Z</time>
      </trkpt>
      <trkpt lat="42.77529" lon="1.5065">
        <ele>717.67487981029</ele>
        <time>2017-06-10T10:14:47Z</time>
      </trkpt>
      <trkpt lat="42.77529" lon="1.50655">
        <ele>717.67487981029</ele>
        <time>2017-06-10T10:14:47Z</time>
      </trkpt>
      <trkpt lat="42.7753" lon="1.50658">
        <ele>717.76449526302</ele>
        <time>2017-06-10T10:14:47Z</time>
      </trkpt>
      <trkpt lat="42.77531" lon="1.5066">
        <ele>717.76449526302</ele>
        <time>2017-06-10T10:15:03Z</time>
      </trkpt>
      <trkpt lat="42.77532" lon="1.50665">
        <ele>717.76449526302</ele>
        <time>2017-06-10T10:15:03Z</time>
      </trkpt>
      <trkpt lat="42.7754" lon="1.50674">
        <ele>718.97272442733</ele>
        <time>2017-06-10T10:15:03Z</time>
      </trkpt>
      <trkpt lat="42.77541" lon="1.50678">
        <ele>718.97272442733</ele>
        <time>2017-06-10T10:15:03Z</time>
      </trkpt>
      <trkpt lat="42.77542" lon="1.50684">
        <ele>718.97272442733</ele>
        <time>2017-06-10T10:15:19Z</time>
      </trkpt>
      <trkpt lat="42.77544" lon="1.50692">
        <ele>720.20460987746</ele>
        <time>2017-06-10T10:15:19Z</time>
      </trkpt>
      <trkpt lat="42.77546" lon="1.507">
        <ele>720.20460987746</ele>
        <time>2017-06-10T10:15:19Z</time>
      </trkpt>
      <trkpt lat="42.77548" lon="1.50708">
        <ele>721.45540170368</ele>
        <time>2017-06-10T10:15:19Z</time>
      </trkpt>
      <trkpt lat="42.77549" lon="1.50716">
        <ele>721.45540170368</ele>
        <time>2017-06-10T10:15:35Z</time>
      </trkpt>
      <trkpt lat="42.77549" lon="1.50723">
        <ele>722.5764800121</ele>
        <time>2017-06-10T10:15:35Z</time>
      </trkpt>
      <trkpt lat="42.7755" lon="1.50729">
        <ele>722.5764800121</ele>
        <time>2017-06-10T10:15:35Z</time>
      </trkpt>
      <trkpt lat="42.77551" lon="1.50735">
        <ele>723.5748403018</ele>
        <time>2017-06-10T10:15:35Z</time>
      </trkpt>
      <trkpt lat="42.77554" lon="1.50741">
        <ele>723.5748403018</ele>
        <time>2017-06-10T10:15:51Z</time>
      </trkpt>
      <trkpt lat="42.77556" lon="1.50746">
        <ele>724.60161762038</ele>
        <time>2017-06-10T10:15:51Z</time>
      </trkpt>
      <trkpt lat="42.77558" lon="1.5075">
        <ele>724.60161762038</ele>
        <time>2017-06-10T10:15:51Z</time>
      </trkpt>
      <trkpt lat="42.77562" lon="1.50754">
        <ele>724.60161762038</ele>
        <time>2017-06-10T10:15:51Z</time>
      </trkpt>
      <trkpt lat="42.77564" lon="1.50759">
        <ele>724.78724981673</ele>
        <time>2017-06-10T10:16:07Z</time>
      </trkpt>
      <trkpt lat="42.77569" lon="1.50766">
        <ele>724.78724981673</ele>
        <time>2017-06-10T10:16:07Z</time>
      </trkpt>
      <trkpt lat="42.77571" lon="1.50773">
        <ele>724.33818777806</ele>
        <time>2017-06-10T10:16:07Z</time>
      </trkpt>
      <trkpt lat="42.77577" lon="1.50779">
        <ele>724.33818777806</ele>
        <time>2017-06-10T10:16:07Z</time>
      </trkpt>
      <trkpt lat="42.77579" lon="1.50783">
        <ele>724.16858141365</ele>
        <time>2017-06-10T10:16:23Z</time>
      </trkpt>
      <trkpt lat="42.7758" lon="1.50789">
        <ele>724.16858141365</ele>
        <time>2017-06-10T10:16:23Z</time>
      </trkpt>
      <trkpt lat="42.77582" lon="1.50799">
        <ele>723.97088007833</ele>
        <time>2017-06-10T10:16:23Z</time>
      </trkpt>
      <trkpt lat="42.77586" lon="1.50805">
        <ele>723.97088007833</ele>
        <time>2017-06-10T10:16:23Z</time>
      </trkpt>
      <trkpt lat="42.77589" lon="1.50808">
        <ele>723.31612309404</ele>
        <time>2017-06-10T10:16:39Z</time>
      </trkpt>
      <trkpt lat="42.77591" lon="1.50814">
        <ele>723.31612309404</ele>
        <time>2017-06-10T10:16:39Z</time>
      </trkpt>
      <trkpt lat="42.77593" lon="1.5082">
        <ele>722.52921532777</ele>
        <time>2017-06-10T10:16:39Z</time>
      </trkpt>
      <trkpt lat="42.77595" lon="1.50826">
        <ele>722.52921532777</ele>
        <time>2017-06-10T10:16:39Z</time>
      </trkpt>
      <trkpt lat="42.77598" lon="1.50832">
        <ele>722.34406418289</ele>
        <time>2017-06-10T10:16:55Z</time>
      </trkpt>
      <trkpt lat="42.77601" lon="1.50838">
        <ele>722.34406418289</ele>
        <time>2017-06-10T10:16:55Z</time>
      </trkpt>
      <trkpt lat="42.77604" lon="1.50844">
        <ele>721.70876049871</ele>
        <time>2017-06-10T10:16:55Z</time>
      </trkpt>
      <trkpt lat="42.77606" lon="1.50851">
        <ele>721.70876049871</ele>
        <time>2017-06-10T10:16:55Z</time>
      </trkpt>
      <trkpt lat="42.77609" lon="1.50857">
        <ele>721.09181672483</ele>
        <time>2017-06-10T10:17:11Z</time>
      </trkpt>
      <trkpt lat="42.77612" lon="1.50862">
        <ele>721.09181672483</ele>
        <time>2017-06-10T10:17:11Z</time>
      </trkpt>
      <trkpt lat="42.77615" lon="1.50866">
        <ele>720.20638652893</ele>
        <time>2017-06-10T10:17:11Z</time>
      </trkpt>
      <trkpt lat="42.77617" lon="1.5087">
        <ele>720.20638652893</ele>
        <time>2017-06-10T10:17:11Z</time>
      </trkpt>
      <trkpt lat="42.77618" lon="1.50873">
        <ele>720.20638652893</ele>
        <time>2017-06-10T10:17:27Z</time>
      </trkpt>
      <trkpt lat="42.7762" lon="1.50876">
        <ele>720.20638652893</ele>
        <time>2017-06-10T10:17:27Z</time>
      </trkpt>
      <trkpt lat="42.77623" lon="1.50882">
        <ele>719.36410431191</ele>
        <time>2017-06-10T10:17:27Z</time>
      </trkpt>
      <trkpt lat="42.77627" lon="1.5089">
        <ele>719.36410431191</ele>
        <time>2017-06-10T10:17:27Z</time>
      </trkpt>
      <trkpt lat="42.7763" lon="1.50899">
        <ele>718.70937298489</ele>
        <time>2017-06-10T10:17:43Z</time>
      </trkpt>
      <trkpt lat="42.77634" lon="1.50907">
        <ele>718.70937298489</ele>
        <time>2017-06-10T10:17:43Z</time>
      </trkpt>
      <trkpt lat="42.77638" lon="1.50915">
        <ele>718.51955968351</ele>
        <time>2017-06-10T10:17:43Z</time>
      </trkpt>
      <trkpt lat="42.77641" lon="1.50923">
        <ele>718.51955968351</ele>
        <time>2017-06-10T10:17:43Z</time>
      </trkpt>
      <trkpt lat="42.77644" lon="1.50931">
        <ele>718.90615209844</ele>
        <time>2017-06-10T10:17:59Z</time>
      </trkpt>
      <trkpt lat="42.77645" lon="1.50937">
        <ele>718.90615209844</ele>
        <time>2017-06-10T10:17:59Z</time>
      </trkpt>
      <trkpt lat="42.77648" lon="1.50943">
        <ele>719.1059941256</ele>
        <time>2017-06-10T10:17:59Z</time>
      </trkpt>
      <trkpt lat="42.77652" lon="1.50948">
        <ele>719.1059941256</ele>
        <time>2017-06-10T10:17:59Z</time>
      </trkpt>
      <trkpt lat="42.77654" lon="1.50953">
        <ele>718.55669765948</ele>
        <time>2017-06-10T10:18:15Z</time>
      </trkpt>
      <trkpt lat="42.77657" lon="1.5096">
        <ele>718.55669765948</ele>
        <time>2017-06-10T10:18:15Z</time>
      </trkpt>
      <trkpt lat="42.77661" lon="1.50964">
        <ele>717.74818280416</ele>
        <time>2017-06-10T10:18:15Z</time>
      </trkpt>
      <trkpt lat="42.77663" lon="1.5097">
        <ele>717.74818280416</ele>
        <time>2017-06-10T10:18:15Z</time>
      </trkpt>
      <trkpt lat="42.77666" lon="1.50975">
        <ele>716.41440514719</ele>
        <time>2017-06-10T10:18:31Z</time>
      </trkpt>
      <trkpt lat="42.77668" lon="1.50981">
        <ele>716.41440514719</ele>
        <time>2017-06-10T10:18:31Z</time>
      </trkpt>
      <trkpt lat="42.7767" lon="1.50987">
        <ele>714.88678819931</ele>
        <time>2017-06-10T10:18:31Z</time>
      </trkpt>
      <trkpt lat="42.77671" lon="1.50992">
        <ele>714.88678819931</ele>
        <time>2017-06-10T10:18:31Z</time>
      </trkpt>
      <trkpt lat="42.77674" lon="1.50995">
        <ele>714.88678819931</ele>
        <time>2017-06-10T10:18:47Z</time>
      </trkpt>
      <trkpt lat="42.77677" lon="1.51">
        <ele>713.32875642115</ele>
        <time>2017-06-10T10:18:47Z</time>
      </trkpt>
      <trkpt lat="42.77681" lon="1.51005">
        <ele>713.32875642115</ele>
        <time>2017-06-10T10:18:47Z</time>
      </trkpt>
      <trkpt lat="42.77684" lon="1.51009">
        <ele>711.89174205238</ele>
        <time>2017-06-10T10:18:47Z</time>
      </trkpt>
      <trkpt lat="42.77686" lon="1.51013">
        <ele>711.89174205238</ele>
        <time>2017-06-10T10:19:03Z</time>
      </trkpt>
      <trkpt lat="42.77689" lon="1.51018">
        <ele>711.89174205238</ele>
        <time>2017-06-10T10:19:03Z</time>
      </trkpt>
      <trkpt lat="42.7769" lon="1.51022">
        <ele>711.00386709728</ele>
        <time>2017-06-10T10:19:03Z</time>
      </trkpt>
      <trkpt lat="42.77687" lon="1.51027">
        <ele>711.00386709728</ele>
        <time>2017-06-10T10:19:03Z</time>
      </trkpt>
      <trkpt lat="42.77686" lon="1.51032">
        <ele>711.00386709728</ele>
        <time>2017-06-10T10:19:19Z</time>
      </trkpt>
      <trkpt lat="42.77686" lon="1.51038">
        <ele>710.62783163485</ele>
        <time>2017-06-10T10:19:19Z</time>
      </trkpt>
      <trkpt lat="42.77686" lon="1.51042">
        <ele>710.62783163485</ele>
        <time>2017-06-10T10:19:19Z</time>
      </trkpt>
      <trkpt lat="42.77685" lon="1.51046">
        <ele>710.62783163485</ele>
        <time>2017-06-10T10:19:19Z</time>
      </trkpt>
      <trkpt lat="42.77681" lon="1.5105">
        <ele>709.5746530344</ele>
        <time>2017-06-10T10:19:43Z</time>
      </trkpt>
      <trkpt lat="42.77681" lon="1.51052">
        <ele>709.5746530344</ele>
        <time>2017-06-10T10:19:43Z</time>
      </trkpt>
      <trkpt lat="42.77679" lon="1.51055">
        <ele>709.5746530344</ele>
        <time>2017-06-10T10:19:43Z</time>
      </trkpt>
      <trkpt lat="42.77677" lon="1.51052">
        <ele>709.5746530344</ele>
        <time>2017-06-10T10:19:43Z</time>
      </trkpt>
      <trkpt lat="42.77671" lon="1.51049">
        <ele>709.3385602083</ele>
        <time>2017-06-10T10:19:43Z</time>
      </trkpt>
      <trkpt lat="42.77667" lon="1.51048">
        <ele>709.3385602083</ele>
        <time>2017-06-10T10:19:59Z</time>
      </trkpt>
      <trkpt lat="42.77662" lon="1.51048">
        <ele>709.3385602083</ele>
        <time>2017-06-10T10:19:59Z</time>
      </trkpt>
      <trkpt lat="42.7766" lon="1.51048">
        <ele>708.41936675094</ele>
        <time>2017-06-10T10:19:59Z</time>
      </trkpt>
      <trkpt lat="42.77656" lon="1.5105">
        <ele>708.41936675094</ele>
        <time>2017-06-10T10:19:59Z</time>
      </trkpt>
      <trkpt lat="42.77652" lon="1.51053">
        <ele>708.41936675094</ele>
        <time>2017-06-10T10:20:15Z</time>
      </trkpt>
      <trkpt lat="42.7765" lon="1.51059">
        <ele>707.30239323402</ele>
        <time>2017-06-10T10:20:15Z</time>
      </trkpt>
      <trkpt lat="42.77647" lon="1.51061">
        <ele>707.30239323402</ele>
        <time>2017-06-10T10:20:15Z</time>
      </trkpt>
      <trkpt lat="42.77644" lon="1.51063">
        <ele>707.30239323402</ele>
        <time>2017-06-10T10:20:15Z</time>
      </trkpt>
      <trkpt lat="42.77639" lon="1.51063">
        <ele>706.14954696618</ele>
        <time>2017-06-10T10:20:31Z</time>
      </trkpt>
      <trkpt lat="42.77634" lon="1.51072">
        <ele>706.14954696618</ele>
        <time>2017-06-10T10:20:31Z</time>
      </trkpt>
      <trkpt lat="42.77629" lon="1.51081">
        <ele>704.96673949097</ele>
        <time>2017-06-10T10:20:31Z</time>
      </trkpt>
      <trkpt lat="42.77624" lon="1.51083">
        <ele>704.96673949097</ele>
        <time>2017-06-10T10:20:31Z</time>
      </trkpt>
      <trkpt lat="42.77621" lon="1.51087">
        <ele>703.47121354811</ele>
        <time>2017-06-10T10:20:51Z</time>
      </trkpt>
      <trkpt lat="42.77617" lon="1.51094">
        <ele>703.47121354811</ele>
        <time>2017-06-10T10:20:51Z</time>
      </trkpt>
      <trkpt lat="42.77615" lon="1.51091">
        <ele>702.98700672702</ele>
        <time>2017-06-10T10:20:51Z</time>
      </trkpt>
      <trkpt lat="42.77616" lon="1.51093">
        <ele>702.98700672702</ele>
        <time>2017-06-10T10:20:51Z</time>
      </trkpt>
      <trkpt lat="42.77613" lon="1.51096">
        <ele>702.98700672702</ele>
        <time>2017-06-10T10:20:51Z</time>
      </trkpt>
      <trkpt lat="42.7761" lon="1.51102">
        <ele>701.85570155163</ele>
        <time>2017-06-10T10:21:11Z</time>
      </trkpt>
      <trkpt lat="42.77609" lon="1.51109">
        <ele>701.85570155163</ele>
        <time>2017-06-10T10:21:11Z</time>
      </trkpt>
      <trkpt lat="42.7761" lon="1.5111">
        <ele>701.85570155163</ele>
        <time>2017-06-10T10:21:11Z</time>
      </trkpt>
      <trkpt lat="42.77609" lon="1.51114">
        <ele>700.41589090321</ele>
        <time>2017-06-10T10:21:11Z</time>
      </trkpt>
      <trkpt lat="42.77607" lon="1.51117">
        <ele>700.41589090321</ele>
        <time>2017-06-10T10:21:11Z</time>
      </trkpt>
      <trkpt lat="42.77606" lon="1.51122">
        <ele>700.41589090321</ele>
        <time>2017-06-10T10:22:15Z</time>
      </trkpt>
      <trkpt lat="42.77607" lon="1.51123">
        <ele>700.41589090321</ele>
        <time>2017-06-10T10:22:15Z</time>
      </trkpt>
      <trkpt lat="42.77608" lon="1.51124">
        <ele>698.83794831187</ele>
        <time>2017-06-10T10:22:15Z</time>
      </trkpt>
      <trkpt lat="42.77613" lon="1.51126">
        <ele>698.83794831187</ele>
        <time>2017-06-10T10:22:15Z</time>
      </trkpt>
      <trkpt lat="42.77617" lon="1.51129">
        <ele>696.99179005653</ele>
        <time>2017-06-10T10:22:15Z</time>
      </trkpt>
      <trkpt lat="42.77622" lon="1.51131">
        <ele>696.99179005653</ele>
        <time>2017-06-10T10:22:31Z</time>
      </trkpt>
      <trkpt lat="42.77626" lon="1.51132">
        <ele>695.18987694376</ele>
        <time>2017-06-10T10:22:31Z</time>
      </trkpt>
      <trkpt lat="42.7763" lon="1.51134">
        <ele>695.18987694376</ele>
        <time>2017-06-10T10:22:31Z</time>
      </trkpt>
      <trkpt lat="42.77635" lon="1.51138">
        <ele>693.28913985177</ele>
        <time>2017-06-10T10:22:31Z</time>
      </trkpt>
      <trkpt lat="42.77639" lon="1.51142">
        <ele>693.28913985177</ele>
        <time>2017-06-10T10:22:47Z</time>
      </trkpt>
      <trkpt lat="42.77644" lon="1.51145">
        <ele>691.15718061877</ele>
        <time>2017-06-10T10:22:47Z</time>
      </trkpt>
      <trkpt lat="42.77648" lon="1.5115">
        <ele>691.15718061877</ele>
        <time>2017-06-10T10:22:47Z</time>
      </trkpt>
      <trkpt lat="42.77651" lon="1.51156">
        <ele>689.68065882503</ele>
        <time>2017-06-10T10:22:47Z</time>
      </trkpt>
      <trkpt lat="42.77654" lon="1.51162">
        <ele>689.68065882503</ele>
        <time>2017-06-10T10:23:03Z</time>
      </trkpt>
      <trkpt lat="42.77657" lon="1.51168">
        <ele>688.23799167646</ele>
        <time>2017-06-10T10:23:03Z</time>
      </trkpt>
      <trkpt lat="42.7766" lon="1.51172">
        <ele>688.23799167646</ele>
        <time>2017-06-10T10:23:03Z</time>
      </trkpt>
      <trkpt lat="42.77663" lon="1.51177">
        <ele>686.82949732597</ele>
        <time>2017-06-10T10:23:03Z</time>
      </trkpt>
      <trkpt lat="42.77665" lon="1.51184">
        <ele>686.82949732597</ele>
        <time>2017-06-10T10:23:19Z</time>
      </trkpt>
      <trkpt lat="42.77668" lon="1.51191">
        <ele>685.7434807887</ele>
        <time>2017-06-10T10:23:19Z</time>
      </trkpt>
      <trkpt lat="42.77668" lon="1.51198">
        <ele>685.7434807887</ele>
        <time>2017-06-10T10:23:19Z</time>
      </trkpt>
      <trkpt lat="42.77672" lon="1.51204">
        <ele>685.10192774491</ele>
        <time>2017-06-10T10:23:19Z</time>
      </trkpt>
      <trkpt lat="42.77676" lon="1.51211">
        <ele>685.10192774491</ele>
        <time>2017-06-10T10:23:35Z</time>
      </trkpt>
      <trkpt lat="42.77679" lon="1.51218">
        <ele>684.29592562899</ele>
        <time>2017-06-10T10:23:35Z</time>
      </trkpt>
      <trkpt lat="42.77679" lon="1.51226">
        <ele>684.29592562899</ele>
        <time>2017-06-10T10:23:35Z</time>
      </trkpt>
      <trkpt lat="42.77681" lon="1.51234">
        <ele>684.05867842119</ele>
        <time>2017-06-10T10:23:35Z</time>
      </trkpt>
      <trkpt lat="42.77683" lon="1.51238">
        <ele>684.05867842119</ele>
        <time>2017-06-10T10:23:51Z</time>
      </trkpt>
      <trkpt lat="42.77683" lon="1.51244">
        <ele>684.05867842119</ele>
        <time>2017-06-10T10:23:51Z</time>
      </trkpt>
      <trkpt lat="42.77685" lon="1.51251">
        <ele>683.7707990224</ele>
        <time>2017-06-10T10:23:51Z</time>
      </trkpt>
      <trkpt lat="42.77688" lon="1.51258">
        <ele>683.7707990224</ele>
        <time>2017-06-10T10:23:51Z</time>
      </trkpt>
      <trkpt lat="42.77692" lon="1.51265">
        <ele>684.29959870284</ele>
        <time>2017-06-10T10:24:07Z</time>
      </trkpt>
      <trkpt lat="42.77693" lon="1.51272">
        <ele>684.29959870284</ele>
        <time>2017-06-10T10:24:07Z</time>
      </trkpt>
      <trkpt lat="42.77693" lon="1.51278">
        <ele>684.14047438103</ele>
        <time>2017-06-10T10:24:07Z</time>
      </trkpt>
      <trkpt lat="42.77693" lon="1.51284">
        <ele>684.14047438103</ele>
        <time>2017-06-10T10:24:07Z</time>
      </trkpt>
      <trkpt lat="42.77695" lon="1.5129">
        <ele>683.91881737179</ele>
        <time>2017-06-10T10:24:23Z</time>
      </trkpt>
      <trkpt lat="42.77695" lon="1.51296">
        <ele>683.91881737179</ele>
        <time>2017-06-10T10:24:23Z</time>
      </trkpt>
      <trkpt lat="42.77696" lon="1.51302">
        <ele>683.49362405559</ele>
        <time>2017-06-10T10:24:23Z</time>
      </trkpt>
      <trkpt lat="42.77698" lon="1.51308">
        <ele>683.49362405559</ele>
        <time>2017-06-10T10:24:23Z</time>
      </trkpt>
      <trkpt lat="42.77698" lon="1.51316">
        <ele>683.45534197108</ele>
        <time>2017-06-10T10:24:39Z</time>
      </trkpt>
      <trkpt lat="42.77698" lon="1.51323">
        <ele>683.45534197108</ele>
        <time>2017-06-10T10:24:39Z</time>
      </trkpt>
      <trkpt lat="42.77698" lon="1.51328">
        <ele>683.45534197108</ele>
        <time>2017-06-10T10:24:39Z</time>
      </trkpt>
      <trkpt lat="42.77697" lon="1.51336">
        <ele>683.0528959968</ele>
        <time>2017-06-10T10:24:39Z</time>
      </trkpt>
      <trkpt lat="42.77698" lon="1.51343">
        <ele>683.0528959968</ele>
        <time>2017-06-10T10:24:55Z</time>
      </trkpt>
      <trkpt lat="42.77697" lon="1.51352">
        <ele>683.1766249358</ele>
        <time>2017-06-10T10:24:55Z</time>
      </trkpt>
      <trkpt lat="42.77697" lon="1.51359">
        <ele>683.1766249358</ele>
        <time>2017-06-10T10:24:55Z</time>
      </trkpt>
      <trkpt lat="42.77699" lon="1.51365">
        <ele>683.35294257907</ele>
        <time>2017-06-10T10:24:55Z</time>
      </trkpt>
      <trkpt lat="42.77702" lon="1.51368">
        <ele>683.35294257907</ele>
        <time>2017-06-10T10:25:11Z</time>
      </trkpt>
      <trkpt lat="42.77705" lon="1.51373">
        <ele>683.35294257907</ele>
        <time>2017-06-10T10:25:11Z</time>
      </trkpt>
      <trkpt lat="42.77708" lon="1.51378">
        <ele>683.28700526062</ele>
        <time>2017-06-10T10:25:11Z</time>
      </trkpt>
      <trkpt lat="42.77711" lon="1.51385">
        <ele>683.28700526062</ele>
        <time>2017-06-10T10:25:11Z</time>
      </trkpt>
      <trkpt lat="42.77714" lon="1.51392">
        <ele>684.29154318528</ele>
        <time>2017-06-10T10:25:27Z</time>
      </trkpt>
      <trkpt lat="42.77716" lon="1.51399">
        <ele>684.29154318528</ele>
        <time>2017-06-10T10:25:27Z</time>
      </trkpt>
      <trkpt lat="42.7772" lon="1.51405">
        <ele>685.56227642737</ele>
        <time>2017-06-10T10:25:27Z</time>
      </trkpt>
      <trkpt lat="42.7772" lon="1.51413">
        <ele>685.56227642737</ele>
        <time>2017-06-10T10:25:27Z</time>
      </trkpt>
      <trkpt lat="42.77721" lon="1.5142">
        <ele>687.07384460107</ele>
        <time>2017-06-10T10:25:43Z</time>
      </trkpt>
      <trkpt lat="42.77722" lon="1.51426">
        <ele>687.07384460107</ele>
        <time>2017-06-10T10:25:43Z</time>
      </trkpt>
      <trkpt lat="42.77724" lon="1.51433">
        <ele>688.51388393277</ele>
        <time>2017-06-10T10:25:43Z</time>
      </trkpt>
      <trkpt lat="42.77724" lon="1.5144">
        <ele>688.51388393277</ele>
        <time>2017-06-10T10:25:43Z</time>
      </trkpt>
      <trkpt lat="42.77723" lon="1.51447">
        <ele>690.16967581625</ele>
        <time>2017-06-10T10:25:59Z</time>
      </trkpt>
      <trkpt lat="42.77723" lon="1.51452">
        <ele>690.16967581625</ele>
        <time>2017-06-10T10:25:59Z</time>
      </trkpt>
      <trkpt lat="42.77723" lon="1.51457">
        <ele>690.16967581625</ele>
        <time>2017-06-10T10:25:59Z</time>
      </trkpt>
      <trkpt lat="42.77722" lon="1.51464">
        <ele>691.29807279043</ele>
        <time>2017-06-10T10:25:59Z</time>
      </trkpt>
      <trkpt lat="42.77723" lon="1.5147">
        <ele>691.29807279043</ele>
        <time>2017-06-10T10:26:15Z</time>
      </trkpt>
      <trkpt lat="42.77723" lon="1.51477">
        <ele>691.932635398</ele>
        <time>2017-06-10T10:26:15Z</time>
      </trkpt>
      <trkpt lat="42.77723" lon="1.51482">
        <ele>691.932635398</ele>
        <time>2017-06-10T10:26:15Z</time>
      </trkpt>
      <trkpt lat="42.77723" lon="1.51487">
        <ele>691.932635398</ele>
        <time>2017-06-10T10:26:15Z</time>
      </trkpt>
      <trkpt lat="42.77723" lon="1.51493">
        <ele>692.53826483837</ele>
        <time>2017-06-10T10:26:31Z</time>
      </trkpt>
      <trkpt lat="42.77722" lon="1.51499">
        <ele>692.53826483837</ele>
        <time>2017-06-10T10:26:31Z</time>
      </trkpt>
      <trkpt lat="42.77721" lon="1.51504">
        <ele>692.53826483837</ele>
        <time>2017-06-10T10:26:31Z</time>
      </trkpt>
      <trkpt lat="42.77721" lon="1.51511">
        <ele>692.96943735092</ele>
        <time>2017-06-10T10:26:31Z</time>
      </trkpt>
      <trkpt lat="42.7772" lon="1.51518">
        <ele>692.96943735092</ele>
        <time>2017-06-10T10:26:47Z</time>
      </trkpt>
      <trkpt lat="42.77717" lon="1.51524">
        <ele>693.52424014857</ele>
        <time>2017-06-10T10:26:47Z</time>
      </trkpt>
      <trkpt lat="42.77716" lon="1.5153">
        <ele>693.52424014857</ele>
        <time>2017-06-10T10:26:47Z</time>
      </trkpt>
      <trkpt lat="42.77714" lon="1.51537">
        <ele>694.04628082902</ele>
        <time>2017-06-10T10:26:47Z</time>
      </trkpt>
      <trkpt lat="42.77713" lon="1.51544">
        <ele>694.04628082902</ele>
        <time>2017-06-10T10:27:07Z</time>
      </trkpt>
      <trkpt lat="42.77711" lon="1.51551">
        <ele>694.82318327533</ele>
        <time>2017-06-10T10:27:07Z</time>
      </trkpt>
      <trkpt lat="42.77711" lon="1.51552">
        <ele>694.82318327533</ele>
        <time>2017-06-10T10:27:07Z</time>
      </trkpt>
      <trkpt lat="42.77709" lon="1.51555">
        <ele>694.82318327533</ele>
        <time>2017-06-10T10:27:07Z</time>
      </trkpt>
      <trkpt lat="42.77708" lon="1.51559">
        <ele>694.82318327533</ele>
        <time>2017-06-10T10:27:07Z</time>
      </trkpt>
      <trkpt lat="42.77708" lon="1.51567">
        <ele>695.83260882749</ele>
        <time>2017-06-10T10:27:23Z</time>
      </trkpt>
      <trkpt lat="42.77706" lon="1.51575">
        <ele>695.83260882749</ele>
        <time>2017-06-10T10:27:23Z</time>
      </trkpt>
      <trkpt lat="42.77705" lon="1.51583">
        <ele>697.05331493806</ele>
        <time>2017-06-10T10:27:23Z</time>
      </trkpt>
      <trkpt lat="42.77703" lon="1.51589">
        <ele>697.05331493806</ele>
        <time>2017-06-10T10:27:23Z</time>
      </trkpt>
      <trkpt lat="42.77701" lon="1.51596">
        <ele>697.60046949387</ele>
        <time>2017-06-10T10:27:39Z</time>
      </trkpt>
      <trkpt lat="42.777" lon="1.51603">
        <ele>697.60046949387</ele>
        <time>2017-06-10T10:27:39Z</time>
      </trkpt>
      <trkpt lat="42.777" lon="1.51612">
        <ele>698.81791187873</ele>
        <time>2017-06-10T10:27:39Z</time>
      </trkpt>
      <trkpt lat="42.77699" lon="1.51618">
        <ele>698.81791187873</ele>
        <time>2017-06-10T10:27:39Z</time>
      </trkpt>
      <trkpt lat="42.77698" lon="1.51624">
        <ele>699.78733137663</ele>
        <time>2017-06-10T10:27:55Z</time>
      </trkpt>
      <trkpt lat="42.77698" lon="1.51631">
        <ele>699.78733137663</ele>
        <time>2017-06-10T10:27:55Z</time>
      </trkpt>
      <trkpt lat="42.77697" lon="1.51638">
        <ele>701.24391512487</ele>
        <time>2017-06-10T10:27:55Z</time>
      </trkpt>
      <trkpt lat="42.77694" lon="1.51646">
        <ele>701.24391512487</ele>
        <time>2017-06-10T10:27:55Z</time>
      </trkpt>
      <trkpt lat="42.77694" lon="1.51654">
        <ele>702.85882198638</ele>
        <time>2017-06-10T10:28:11Z</time>
      </trkpt>
      <trkpt lat="42.77692" lon="1.51662">
        <ele>702.85882198638</ele>
        <time>2017-06-10T10:28:11Z</time>
      </trkpt>
      <trkpt lat="42.7769" lon="1.51668">
        <ele>704.47116215327</ele>
        <time>2017-06-10T10:28:11Z</time>
      </trkpt>
      <trkpt lat="42.77691" lon="1.51672">
        <ele>704.47116215327</ele>
        <time>2017-06-10T10:28:11Z</time>
      </trkpt>
      <trkpt lat="42.77694" lon="1.51678">
        <ele>704.47116215327</ele>
        <time>2017-06-10T10:28:27Z</time>
      </trkpt>
      <trkpt lat="42.77696" lon="1.5168">
        <ele>705.35555817235</ele>
        <time>2017-06-10T10:28:27Z</time>
      </trkpt>
      <trkpt lat="42.77697" lon="1.51682">
        <ele>705.35555817235</ele>
        <time>2017-06-10T10:28:27Z</time>
      </trkpt>
      <trkpt lat="42.777" lon="1.51691">
        <ele>705.35555817235</ele>
        <time>2017-06-10T10:28:27Z</time>
      </trkpt>
      <trkpt lat="42.77703" lon="1.51701">
        <ele>706.42731790519</ele>
        <time>2017-06-10T10:28:43Z</time>
      </trkpt>
      <trkpt lat="42.77706" lon="1.51709">
        <ele>706.42731790519</ele>
        <time>2017-06-10T10:28:43Z</time>
      </trkpt>
      <trkpt lat="42.77708" lon="1.51717">
        <ele>707.38123127427</ele>
        <time>2017-06-10T10:28:43Z</time>
      </trkpt>
      <trkpt lat="42.7771" lon="1.51724">
        <ele>707.38123127427</ele>
        <time>2017-06-10T10:28:43Z</time>
      </trkpt>
      <trkpt lat="42.77711" lon="1.51731">
        <ele>708.36730779468</ele>
        <time>2017-06-10T10:28:59Z</time>
      </trkpt>
      <trkpt lat="42.7771" lon="1.51738">
        <ele>708.36730779468</ele>
        <time>2017-06-10T10:28:59Z</time>
      </trkpt>
      <trkpt lat="42.77709" lon="1.51745">
        <ele>709.2363576151</ele>
        <time>2017-06-10T10:28:59Z</time>
      </trkpt>
      <trkpt lat="42.77712" lon="1.51751">
        <ele>709.2363576151</ele>
        <time>2017-06-10T10:28:59Z</time>
      </trkpt>
      <trkpt lat="42.77714" lon="1.51757">
        <ele>709.27416285542</ele>
        <time>2017-06-10T10:29:15Z</time>
      </trkpt>
      <trkpt lat="42.77714" lon="1.51764">
        <ele>709.27416285542</ele>
        <time>2017-06-10T10:29:15Z</time>
      </trkpt>
      <trkpt lat="42.77713" lon="1.51773">
        <ele>708.97431684586</ele>
        <time>2017-06-10T10:29:15Z</time>
      </trkpt>
      <trkpt lat="42.77714" lon="1.51779">
        <ele>708.97431684586</ele>
        <time>2017-06-10T10:29:15Z</time>
      </trkpt>
      <trkpt lat="42.77715" lon="1.51787">
        <ele>708.21877065143</ele>
        <time>2017-06-10T10:29:31Z</time>
      </trkpt>
      <trkpt lat="42.77714" lon="1.51794">
        <ele>708.21877065143</ele>
        <time>2017-06-10T10:29:31Z</time>
      </trkpt>
      <trkpt lat="42.77713" lon="1.51799">
        <ele>707.1877503938</ele>
        <time>2017-06-10T10:29:31Z</time>
      </trkpt>
      <trkpt lat="42.77714" lon="1.51807">
        <ele>707.1877503938</ele>
        <time>2017-06-10T10:29:31Z</time>
      </trkpt>
      <trkpt lat="42.77712" lon="1.51813">
        <ele>705.76088020459</ele>
        <time>2017-06-10T10:29:47Z</time>
      </trkpt>
      <trkpt lat="42.77711" lon="1.51821">
        <ele>705.76088020459</ele>
        <time>2017-06-10T10:29:47Z</time>
      </trkpt>
      <trkpt lat="42.77709" lon="1.51826">
        <ele>704.83658726044</ele>
        <time>2017-06-10T10:29:47Z</time>
      </trkpt>
      <trkpt lat="42.77706" lon="1.51832">
        <ele>704.83658726044</ele>
        <time>2017-06-10T10:29:47Z</time>
      </trkpt>
      <trkpt lat="42.77704" lon="1.51842">
        <ele>703.66072126536</ele>
        <time>2017-06-10T10:30:03Z</time>
      </trkpt>
      <trkpt lat="42.77703" lon="1.51848">
        <ele>703.66072126536</ele>
        <time>2017-06-10T10:30:03Z</time>
      </trkpt>
      <trkpt lat="42.77702" lon="1.51854">
        <ele>702.25583113153</ele>
        <time>2017-06-10T10:30:03Z</time>
      </trkpt>
      <trkpt lat="42.77702" lon="1.51861">
        <ele>702.25583113153</ele>
        <time>2017-06-10T10:30:03Z</time>
      </trkpt>
      <trkpt lat="42.77699" lon="1.5187">
        <ele>700.7875849562</ele>
        <time>2017-06-10T10:30:19Z</time>
      </trkpt>
      <trkpt lat="42.777" lon="1.51876">
        <ele>700.7875849562</ele>
        <time>2017-06-10T10:30:19Z</time>
      </trkpt>
      <trkpt lat="42.77701" lon="1.51882">
        <ele>700.7875849562</ele>
        <time>2017-06-10T10:30:19Z</time>
      </trkpt>
      <trkpt lat="42.77702" lon="1.51886">
        <ele>698.97733108701</ele>
        <time>2017-06-10T10:30:19Z</time>
      </trkpt>
      <trkpt lat="42.77702" lon="1.51894">
        <ele>698.97733108701</ele>
        <time>2017-06-10T10:30:35Z</time>
      </trkpt>
      <trkpt lat="42.777" lon="1.51903">
        <ele>697.14428223324</ele>
        <time>2017-06-10T10:30:35Z</time>
      </trkpt>
      <trkpt lat="42.77701" lon="1.51909">
        <ele>697.14428223324</ele>
        <time>2017-06-10T10:30:35Z</time>
      </trkpt>
      <trkpt lat="42.777" lon="1.51917">
        <ele>695.58424073959</ele>
        <time>2017-06-10T10:30:35Z</time>
      </trkpt>
      <trkpt lat="42.777" lon="1.51925">
        <ele>695.58424073959</ele>
        <time>2017-06-10T10:30:51Z</time>
      </trkpt>
      <trkpt lat="42.77699" lon="1.51934">
        <ele>693.84991732795</ele>
        <time>2017-06-10T10:30:51Z</time>
      </trkpt>
      <trkpt lat="42.777" lon="1.51943">
        <ele>693.84991732795</ele>
        <time>2017-06-10T10:30:51Z</time>
      </trkpt>
      <trkpt lat="42.77701" lon="1.51949">
        <ele>692.3919834929</ele>
        <time>2017-06-10T10:30:51Z</time>
      </trkpt>
      <trkpt lat="42.77702" lon="1.51957">
        <ele>692.3919834929</ele>
        <time>2017-06-10T10:31:07Z</time>
      </trkpt>
      <trkpt lat="42.77702" lon="1.51962">
        <ele>690.90660804647</ele>
        <time>2017-06-10T10:31:07Z</time>
      </trkpt>
      <trkpt lat="42.77702" lon="1.51968">
        <ele>690.90660804647</ele>
        <time>2017-06-10T10:31:07Z</time>
      </trkpt>
      <trkpt lat="42.77703" lon="1.51975">
        <ele>689.83283800463</ele>
        <time>2017-06-10T10:31:07Z</time>
      </trkpt>
      <trkpt lat="42.77704" lon="1.51982">
        <ele>689.83283800463</ele>
        <time>2017-06-10T10:31:23Z</time>
      </trkpt>
      <trkpt lat="42.77708" lon="1.51988">
        <ele>688.85567564592</ele>
        <time>2017-06-10T10:31:23Z</time>
      </trkpt>
      <trkpt lat="42.7771" lon="1.51994">
        <ele>688.85567564592</ele>
        <time>2017-06-10T10:31:23Z</time>
      </trkpt>
      <trkpt lat="42.77711" lon="1.52001">
        <ele>687.10645860163</ele>
        <time>2017-06-10T10:31:23Z</time>
      </trkpt>
      <trkpt lat="42.77714" lon="1.52008">
        <ele>687.10645860163</ele>
        <time>2017-06-10T10:31:39Z</time>
      </trkpt>
      <trkpt lat="42.77716" lon="1.52016">
        <ele>685.51174264083</ele>
        <time>2017-06-10T10:31:39Z</time>
      </trkpt>
      <trkpt lat="42.77718" lon="1.52022">
        <ele>685.51174264083</ele>
        <time>2017-06-10T10:31:39Z</time>
      </trkpt>
      <trkpt lat="42.77721" lon="1.52029">
        <ele>683.63248474317</ele>
        <time>2017-06-10T10:31:39Z</time>
      </trkpt>
      <trkpt lat="42.77721" lon="1.52036">
        <ele>683.63248474317</ele>
        <time>2017-06-10T10:31:55Z</time>
      </trkpt>
      <trkpt lat="42.77722" lon="1.52042">
        <ele>682.07136429409</ele>
        <time>2017-06-10T10:31:55Z</time>
      </trkpt>
      <trkpt lat="42.77724" lon="1.52048">
        <ele>682.07136429409</ele>
        <time>2017-06-10T10:31:55Z</time>
      </trkpt>
      <trkpt lat="42.77728" lon="1.52054">
        <ele>680.66522734309</ele>
        <time>2017-06-10T10:31:55Z</time>
      </trkpt>
      <trkpt lat="42.77733" lon="1.52057">
        <ele>680.66522734309</ele>
        <time>2017-06-10T10:32:15Z</time>
      </trkpt>
      <trkpt lat="42.77735" lon="1.52061">
        <ele>680.66522734309</ele>
        <time>2017-06-10T10:32:15Z</time>
      </trkpt>
      <trkpt lat="42.77736" lon="1.52062">
        <ele>679.55057629568</ele>
        <time>2017-06-10T10:32:15Z</time>
      </trkpt>
      <trkpt lat="42.77738" lon="1.52066">
        <ele>679.55057629568</ele>
        <time>2017-06-10T10:32:15Z</time>
      </trkpt>
      <trkpt lat="42.77742" lon="1.5207">
        <ele>677.98828138917</ele>
        <time>2017-06-10T10:32:15Z</time>
      </trkpt>
      <trkpt lat="42.77746" lon="1.52077">
        <ele>677.98828138917</ele>
        <time>2017-06-10T10:32:31Z</time>
      </trkpt>
      <trkpt lat="42.77751" lon="1.52084">
        <ele>677.60042402625</ele>
        <time>2017-06-10T10:32:31Z</time>
      </trkpt>
      <trkpt lat="42.77754" lon="1.5209">
        <ele>677.60042402625</ele>
        <time>2017-06-10T10:32:31Z</time>
      </trkpt>
      <trkpt lat="42.77759" lon="1.52095">
        <ele>677.00429146014</ele>
        <time>2017-06-10T10:32:31Z</time>
      </trkpt>
      <trkpt lat="42.77763" lon="1.52102">
        <ele>677.00429146014</ele>
        <time>2017-06-10T10:32:47Z</time>
      </trkpt>
      <trkpt lat="42.77766" lon="1.52108">
        <ele>676.64854827305</ele>
        <time>2017-06-10T10:32:47Z</time>
      </trkpt>
      <trkpt lat="42.77769" lon="1.52114">
        <ele>676.64854827305</ele>
        <time>2017-06-10T10:32:47Z</time>
      </trkpt>
      <trkpt lat="42.77771" lon="1.5212">
        <ele>676.51578370609</ele>
        <time>2017-06-10T10:32:47Z</time>
      </trkpt>
      <trkpt lat="42.77774" lon="1.52125">
        <ele>676.51578370609</ele>
        <time>2017-06-10T10:33:03Z</time>
      </trkpt>
      <trkpt lat="42.77776" lon="1.52131">
        <ele>676.44502835102</ele>
        <time>2017-06-10T10:33:03Z</time>
      </trkpt>
      <trkpt lat="42.7778" lon="1.52135">
        <ele>676.44502835102</ele>
        <time>2017-06-10T10:33:03Z</time>
      </trkpt>
      <trkpt lat="42.77783" lon="1.52139">
        <ele>676.44502835102</ele>
        <time>2017-06-10T10:33:03Z</time>
      </trkpt>
      <trkpt lat="42.77786" lon="1.52141">
        <ele>675.99864789288</ele>
        <time>2017-06-10T10:33:19Z</time>
      </trkpt>
      <trkpt lat="42.77791" lon="1.52145">
        <ele>675.99864789288</ele>
        <time>2017-06-10T10:33:19Z</time>
      </trkpt>
      <trkpt lat="42.77794" lon="1.52151">
        <ele>675.78090314615</ele>
        <time>2017-06-10T10:33:19Z</time>
      </trkpt>
      <trkpt lat="42.77797" lon="1.52158">
        <ele>675.78090314615</ele>
        <time>2017-06-10T10:33:19Z</time>
      </trkpt>
      <trkpt lat="42.77801" lon="1.52161">
        <ele>675.19805730908</ele>
        <time>2017-06-10T10:33:35Z</time>
      </trkpt>
      <trkpt lat="42.77807" lon="1.52165">
        <ele>675.19805730908</ele>
        <time>2017-06-10T10:33:35Z</time>
      </trkpt>
      <trkpt lat="42.7781" lon="1.52169">
        <ele>674.70971967433</ele>
        <time>2017-06-10T10:33:35Z</time>
      </trkpt>
      <trkpt lat="42.77813" lon="1.52175">
        <ele>674.70971967433</ele>
        <time>2017-06-10T10:33:35Z</time>
      </trkpt>
      <trkpt lat="42.77818" lon="1.52176">
        <ele>673.4444032727</ele>
        <time>2017-06-10T10:33:51Z</time>
      </trkpt>
      <trkpt lat="42.77822" lon="1.52178">
        <ele>673.4444032727</ele>
        <time>2017-06-10T10:33:51Z</time>
      </trkpt>
      <trkpt lat="42.77823" lon="1.52185">
        <ele>672.18197725218</ele>
        <time>2017-06-10T10:33:51Z</time>
      </trkpt>
      <trkpt lat="42.77824" lon="1.52192">
        <ele>672.18197725218</ele>
        <time>2017-06-10T10:33:51Z</time>
      </trkpt>
      <trkpt lat="42.77825" lon="1.52197">
        <ele>671.35672767105</ele>
        <time>2017-06-10T10:34:07Z</time>
      </trkpt>
      <trkpt lat="42.77827" lon="1.52205">
        <ele>671.35672767105</ele>
        <time>2017-06-10T10:34:07Z</time>
      </trkpt>
      <trkpt lat="42.7783" lon="1.5221">
        <ele>669.78452444279</ele>
        <time>2017-06-10T10:34:07Z</time>
      </trkpt>
      <trkpt lat="42.77831" lon="1.52218">
        <ele>669.78452444279</ele>
        <time>2017-06-10T10:34:07Z</time>
      </trkpt>
      <trkpt lat="42.77832" lon="1.52223">
        <ele>667.95547484789</ele>
        <time>2017-06-10T10:34:23Z</time>
      </trkpt>
      <trkpt lat="42.77835" lon="1.5223">
        <ele>667.95547484789</ele>
        <time>2017-06-10T10:34:23Z</time>
      </trkpt>
      <trkpt lat="42.77834" lon="1.52238">
        <ele>667.62133778167</ele>
        <time>2017-06-10T10:34:23Z</time>
      </trkpt>
      <trkpt lat="42.77835" lon="1.52243">
        <ele>667.62133778167</ele>
        <time>2017-06-10T10:34:23Z</time>
      </trkpt>
      <trkpt lat="42.77837" lon="1.52247">
        <ele>667.62133778167</ele>
        <time>2017-06-10T10:34:39Z</time>
      </trkpt>
      <trkpt lat="42.77838" lon="1.5225">
        <ele>667.23048385263</ele>
        <time>2017-06-10T10:34:39Z</time>
      </trkpt>
      <trkpt lat="42.77839" lon="1.52257">
        <ele>667.23048385263</ele>
        <time>2017-06-10T10:34:39Z</time>
      </trkpt>
      <trkpt lat="42.77841" lon="1.52263">
        <ele>666.93058412789</ele>
        <time>2017-06-10T10:34:39Z</time>
      </trkpt>
      <trkpt lat="42.77842" lon="1.5227">
        <ele>666.93058412789</ele>
        <time>2017-06-10T10:34:55Z</time>
      </trkpt>
      <trkpt lat="42.77841" lon="1.52278">
        <ele>667.14637174086</ele>
        <time>2017-06-10T10:34:55Z</time>
      </trkpt>
      <trkpt lat="42.77842" lon="1.52286">
        <ele>667.14637174086</ele>
        <time>2017-06-10T10:34:55Z</time>
      </trkpt>
      <trkpt lat="42.77845" lon="1.52292">
        <ele>667.54932823595</ele>
        <time>2017-06-10T10:34:55Z</time>
      </trkpt>
      <trkpt lat="42.77845" lon="1.523">
        <ele>667.54932823595</ele>
        <time>2017-06-10T10:35:11Z</time>
      </trkpt>
      <trkpt lat="42.77845" lon="1.52308">
        <ele>668.41094960858</ele>
        <time>2017-06-10T10:35:11Z</time>
      </trkpt>
      <trkpt lat="42.77846" lon="1.52315">
        <ele>668.41094960858</ele>
        <time>2017-06-10T10:35:11Z</time>
      </trkpt>
      <trkpt lat="42.77848" lon="1.52323">
        <ele>669.40503084487</ele>
        <time>2017-06-10T10:35:11Z</time>
      </trkpt>
      <trkpt lat="42.7785" lon="1.5233">
        <ele>669.40503084487</ele>
        <time>2017-06-10T10:35:27Z</time>
      </trkpt>
      <trkpt lat="42.77851" lon="1.52336">
        <ele>670.6612799753</ele>
        <time>2017-06-10T10:35:27Z</time>
      </trkpt>
      <trkpt lat="42.77853" lon="1.52338">
        <ele>670.6612799753</ele>
        <time>2017-06-10T10:35:27Z</time>
      </trkpt>
      <trkpt lat="42.77855" lon="1.5234">
        <ele>670.6612799753</ele>
        <time>2017-06-10T10:35:27Z</time>
      </trkpt>
      <trkpt lat="42.77857" lon="1.52345">
        <ele>671.43447652171</ele>
        <time>2017-06-10T10:35:43Z</time>
      </trkpt>
      <trkpt lat="42.7786" lon="1.52349">
        <ele>671.43447652171</ele>
        <time>2017-06-10T10:35:43Z</time>
      </trkpt>
      <trkpt lat="42.77864" lon="1.52356">
        <ele>672.47662659612</ele>
        <time>2017-06-10T10:35:43Z</time>
      </trkpt>
      <trkpt lat="42.77868" lon="1.52361">
        <ele>672.47662659612</ele>
        <time>2017-06-10T10:35:43Z</time>
      </trkpt>
      <trkpt lat="42.77872" lon="1.52366">
        <ele>673.33087961511</ele>
        <time>2017-06-10T10:35:59Z</time>
      </trkpt>
      <trkpt lat="42.77876" lon="1.52373">
        <ele>673.33087961511</ele>
        <time>2017-06-10T10:35:59Z</time>
      </trkpt>
      <trkpt lat="42.77875" lon="1.52382">
        <ele>674.4391799661</ele>
        <time>2017-06-10T10:35:59Z</time>
      </trkpt>
      <trkpt lat="42.77879" lon="1.5239">
        <ele>674.4391799661</ele>
        <time>2017-06-10T10:35:59Z</time>
      </trkpt>
      <trkpt lat="42.77881" lon="1.52392">
        <ele>675.63390135234</ele>
        <time>2017-06-10T10:36:15Z</time>
      </trkpt>
      <trkpt lat="42.77882" lon="1.52396">
        <ele>675.63390135234</ele>
        <time>2017-06-10T10:36:15Z</time>
      </trkpt>
      <trkpt lat="42.77881" lon="1.52403">
        <ele>675.63390135234</ele>
        <time>2017-06-10T10:36:15Z</time>
      </trkpt>
      <trkpt lat="42.77881" lon="1.5241">
        <ele>677.48010780824</ele>
        <time>2017-06-10T10:36:15Z</time>
      </trkpt>
      <trkpt lat="42.77882" lon="1.52417">
        <ele>677.48010780824</ele>
        <time>2017-06-10T10:36:31Z</time>
      </trkpt>
      <trkpt lat="42.77882" lon="1.52423">
        <ele>678.91437788817</ele>
        <time>2017-06-10T10:36:31Z</time>
      </trkpt>
      <trkpt lat="42.77881" lon="1.5243">
        <ele>678.91437788817</ele>
        <time>2017-06-10T10:36:31Z</time>
      </trkpt>
      <trkpt lat="42.77881" lon="1.52439">
        <ele>680.53787281404</ele>
        <time>2017-06-10T10:36:31Z</time>
      </trkpt>
      <trkpt lat="42.77881" lon="1.52445">
        <ele>680.53787281404</ele>
        <time>2017-06-10T10:36:47Z</time>
      </trkpt>
      <trkpt lat="42.77881" lon="1.52451">
        <ele>682.0424920013</ele>
        <time>2017-06-10T10:36:47Z</time>
      </trkpt>
      <trkpt lat="42.77881" lon="1.52457">
        <ele>682.0424920013</ele>
        <time>2017-06-10T10:36:47Z</time>
      </trkpt>
      <trkpt lat="42.77882" lon="1.52462">
        <ele>682.0424920013</ele>
        <time>2017-06-10T10:36:47Z</time>
      </trkpt>
      <trkpt lat="42.77882" lon="1.52468">
        <ele>683.14320777644</ele>
        <time>2017-06-10T10:37:03Z</time>
      </trkpt>
      <trkpt lat="42.77883" lon="1.52474">
        <ele>683.14320777644</ele>
        <time>2017-06-10T10:37:03Z</time>
      </trkpt>
      <trkpt lat="42.77884" lon="1.52481">
        <ele>684.15362209254</ele>
        <time>2017-06-10T10:37:03Z</time>
      </trkpt>
      <trkpt lat="42.77883" lon="1.5249">
        <ele>684.15362209254</ele>
        <time>2017-06-10T10:37:03Z</time>
      </trkpt>
      <trkpt lat="42.77884" lon="1.52499">
        <ele>684.64411591194</ele>
        <time>2017-06-10T10:37:19Z</time>
      </trkpt>
      <trkpt lat="42.77883" lon="1.52512">
        <ele>685.37109867066</ele>
        <time>2017-06-10T10:37:19Z</time>
      </trkpt>
      <trkpt lat="42.77882" lon="1.52519">
        <ele>685.37109867066</ele>
        <time>2017-06-10T10:37:19Z</time>
      </trkpt>
      <trkpt lat="42.77884" lon="1.52524">
        <ele>685.37109867066</ele>
        <time>2017-06-10T10:37:19Z</time>
      </trkpt>
      <trkpt lat="42.77886" lon="1.52527">
        <ele>685.44964847738</ele>
        <time>2017-06-10T10:37:39Z</time>
      </trkpt>
      <trkpt lat="42.77887" lon="1.5253">
        <ele>685.44964847738</ele>
        <time>2017-06-10T10:37:39Z</time>
      </trkpt>
      <trkpt lat="42.77887" lon="1.52533">
        <ele>685.44964847738</ele>
        <time>2017-06-10T10:37:39Z</time>
      </trkpt>
      <trkpt lat="42.77885" lon="1.52538">
        <ele>686.22345487923</ele>
        <time>2017-06-10T10:37:39Z</time>
      </trkpt>
      <trkpt lat="42.77887" lon="1.52544">
        <ele>686.22345487923</ele>
        <time>2017-06-10T10:37:39Z</time>
      </trkpt>
      <trkpt lat="42.77888" lon="1.52552">
        <ele>686.91811066996</ele>
        <time>2017-06-10T10:37:55Z</time>
      </trkpt>
      <trkpt lat="42.77887" lon="1.52561">
        <ele>686.91811066996</ele>
        <time>2017-06-10T10:37:55Z</time>
      </trkpt>
      <trkpt lat="42.77886" lon="1.52571">
        <ele>686.96054269431</ele>
        <time>2017-06-10T10:37:55Z</time>
      </trkpt>
      <trkpt lat="42.77885" lon="1.52582">
        <ele>686.96054269431</ele>
        <time>2017-06-10T10:37:55Z</time>
      </trkpt>
      <trkpt lat="42.77885" lon="1.52593">
        <ele>687.11871521465</ele>
        <time>2017-06-10T10:38:11Z</time>
      </trkpt>
      <trkpt lat="42.77886" lon="1.526">
        <ele>687.11871521465</ele>
        <time>2017-06-10T10:38:11Z</time>
      </trkpt>
      <trkpt lat="42.77887" lon="1.52604">
        <ele>687.11871521465</ele>
        <time>2017-06-10T10:38:11Z</time>
      </trkpt>
      <trkpt lat="42.77889" lon="1.5261">
        <ele>687.38340336483</ele>
        <time>2017-06-10T10:38:11Z</time>
      </trkpt>
      <trkpt lat="42.77889" lon="1.52616">
        <ele>687.38340336483</ele>
        <time>2017-06-10T10:38:27Z</time>
      </trkpt>
      <trkpt lat="42.7789" lon="1.52624">
        <ele>687.31352760369</ele>
        <time>2017-06-10T10:38:27Z</time>
      </trkpt>
      <trkpt lat="42.77893" lon="1.52631">
        <ele>687.31352760369</ele>
        <time>2017-06-10T10:38:27Z</time>
      </trkpt>
      <trkpt lat="42.77895" lon="1.52638">
        <ele>687.07788637236</ele>
        <time>2017-06-10T10:38:27Z</time>
      </trkpt>
      <trkpt lat="42.77897" lon="1.52645">
        <ele>687.07788637236</ele>
        <time>2017-06-10T10:38:43Z</time>
      </trkpt>
      <trkpt lat="42.77898" lon="1.52651">
        <ele>687.26576386876</ele>
        <time>2017-06-10T10:38:43Z</time>
      </trkpt>
      <trkpt lat="42.77899" lon="1.52658">
        <ele>687.26576386876</ele>
        <time>2017-06-10T10:38:43Z</time>
      </trkpt>
      <trkpt lat="42.77901" lon="1.52664">
        <ele>687.12504738152</ele>
        <time>2017-06-10T10:38:43Z</time>
      </trkpt>
      <trkpt lat="42.77905" lon="1.52669">
        <ele>687.12504738152</ele>
        <time>2017-06-10T10:38:59Z</time>
      </trkpt>
      <trkpt lat="42.77908" lon="1.52673">
        <ele>686.68042426681</ele>
        <time>2017-06-10T10:38:59Z</time>
      </trkpt>
      <trkpt lat="42.77909" lon="1.52676">
        <ele>686.68042426681</ele>
        <time>2017-06-10T10:38:59Z</time>
      </trkpt>
      <trkpt lat="42.77908" lon="1.52682">
        <ele>686.68042426681</ele>
        <time>2017-06-10T10:38:59Z</time>
      </trkpt>
      <trkpt lat="42.7791" lon="1.52686">
        <ele>685.66746264112</ele>
        <time>2017-06-10T10:39:15Z</time>
      </trkpt>
      <trkpt lat="42.77913" lon="1.52689">
        <ele>685.66746264112</ele>
        <time>2017-06-10T10:39:15Z</time>
      </trkpt>
      <trkpt lat="42.77915" lon="1.52693">
        <ele>685.66746264112</ele>
        <time>2017-06-10T10:39:15Z</time>
      </trkpt>
      <trkpt lat="42.77916" lon="1.52697">
        <ele>684.70747154475</ele>
        <time>2017-06-10T10:39:15Z</time>
      </trkpt>
      <trkpt lat="42.77917" lon="1.52704">
        <ele>684.70747154475</ele>
        <time>2017-06-10T10:39:31Z</time>
      </trkpt>
      <trkpt lat="42.77918" lon="1.52711">
        <ele>683.65545787352</ele>
        <time>2017-06-10T10:39:31Z</time>
      </trkpt>
      <trkpt lat="42.77919" lon="1.52719">
        <ele>683.65545787352</ele>
        <time>2017-06-10T10:39:31Z</time>
      </trkpt>
      <trkpt lat="42.77919" lon="1.52726">
        <ele>682.66559141591</ele>
        <time>2017-06-10T10:39:31Z</time>
      </trkpt>
      <trkpt lat="42.77917" lon="1.52735">
        <ele>682.66559141591</ele>
        <time>2017-06-10T10:39:47Z</time>
      </trkpt>
      <trkpt lat="42.77914" lon="1.52742">
        <ele>680.87178218861</ele>
        <time>2017-06-10T10:39:47Z</time>
      </trkpt>
      <trkpt lat="42.77911" lon="1.52749">
        <ele>680.87178218861</ele>
        <time>2017-06-10T10:39:47Z</time>
      </trkpt>
      <trkpt lat="42.77912" lon="1.52754">
        <ele>679.49137954452</ele>
        <time>2017-06-10T10:39:47Z</time>
      </trkpt>
      <trkpt lat="42.77916" lon="1.52757">
        <ele>679.49137954452</ele>
        <time>2017-06-10T10:40:03Z</time>
      </trkpt>
      <trkpt lat="42.77919" lon="1.52761">
        <ele>679.49137954452</ele>
        <time>2017-06-10T10:40:03Z</time>
      </trkpt>
      <trkpt lat="42.7792" lon="1.52767">
        <ele>678.06591680067</ele>
        <time>2017-06-10T10:40:03Z</time>
      </trkpt>
      <trkpt lat="42.77921" lon="1.52774">
        <ele>678.06591680067</ele>
        <time>2017-06-10T10:40:03Z</time>
      </trkpt>
      <trkpt lat="42.77922" lon="1.52781">
        <ele>677.17949111347</ele>
        <time>2017-06-10T10:40:19Z</time>
      </trkpt>
      <trkpt lat="42.77924" lon="1.52789">
        <ele>677.17949111347</ele>
        <time>2017-06-10T10:40:19Z</time>
      </trkpt>
      <trkpt lat="42.77925" lon="1.52799">
        <ele>676.5070835808</ele>
        <time>2017-06-10T10:40:19Z</time>
      </trkpt>
      <trkpt lat="42.77925" lon="1.52807">
        <ele>676.5070835808</ele>
        <time>2017-06-10T10:40:19Z</time>
      </trkpt>
      <trkpt lat="42.77928" lon="1.52812">
        <ele>676.17924793253</ele>
        <time>2017-06-10T10:40:35Z</time>
      </trkpt>
      <trkpt lat="42.77931" lon="1.52816">
        <ele>676.17924793253</ele>
        <time>2017-06-10T10:40:35Z</time>
      </trkpt>
      <trkpt lat="42.77935" lon="1.52819">
        <ele>676.17924793253</ele>
        <time>2017-06-10T10:40:35Z</time>
      </trkpt>
      <trkpt lat="42.77936" lon="1.52823">
        <ele>675.45127281662</ele>
        <time>2017-06-10T10:40:35Z</time>
      </trkpt>
      <trkpt lat="42.77938" lon="1.52829">
        <ele>675.45127281662</ele>
        <time>2017-06-10T10:40:51Z</time>
      </trkpt>
      <trkpt lat="42.7794" lon="1.52836">
        <ele>674.93123220636</ele>
        <time>2017-06-10T10:40:51Z</time>
      </trkpt>
      <trkpt lat="42.77943" lon="1.52843">
        <ele>674.93123220636</ele>
        <time>2017-06-10T10:40:51Z</time>
      </trkpt>
      <trkpt lat="42.77945" lon="1.5285">
        <ele>674.74956943176</ele>
        <time>2017-06-10T10:40:51Z</time>
      </trkpt>
      <trkpt lat="42.77945" lon="1.52859">
        <ele>674.74956943176</ele>
        <time>2017-06-10T10:41:07Z</time>
      </trkpt>
      <trkpt lat="42.77949" lon="1.52865">
        <ele>675.1702628905</ele>
        <time>2017-06-10T10:41:07Z</time>
      </trkpt>
      <trkpt lat="42.77951" lon="1.52872">
        <ele>675.1702628905</ele>
        <time>2017-06-10T10:41:07Z</time>
      </trkpt>
      <trkpt lat="42.77952" lon="1.52878">
        <ele>674.99505421623</ele>
        <time>2017-06-10T10:41:07Z</time>
      </trkpt>
      <trkpt lat="42.77954" lon="1.52885">
        <ele>674.99505421623</ele>
        <time>2017-06-10T10:41:23Z</time>
      </trkpt>
      <trkpt lat="42.77955" lon="1.5289">
        <ele>674.99505421623</ele>
        <time>2017-06-10T10:41:23Z</time>
      </trkpt>
      <trkpt lat="42.77955" lon="1.52895">
        <ele>674.7005614919</ele>
        <time>2017-06-10T10:41:23Z</time>
      </trkpt>
      <trkpt lat="42.77959" lon="1.529">
        <ele>674.7005614919</ele>
        <time>2017-06-10T10:41:23Z</time>
      </trkpt>
      <trkpt lat="42.77962" lon="1.52906">
        <ele>674.7286869115</ele>
        <time>2017-06-10T10:41:39Z</time>
      </trkpt>
      <trkpt lat="42.77965" lon="1.52914">
        <ele>674.7286869115</ele>
        <time>2017-06-10T10:41:39Z</time>
      </trkpt>
      <trkpt lat="42.77966" lon="1.52922">
        <ele>675.34381987103</ele>
        <time>2017-06-10T10:41:39Z</time>
      </trkpt>
      <trkpt lat="42.77967" lon="1.52929">
        <ele>675.34381987103</ele>
        <time>2017-06-10T10:41:39Z</time>
      </trkpt>
      <trkpt lat="42.77969" lon="1.52933">
        <ele>676.06869472914</ele>
        <time>2017-06-10T10:41:55Z</time>
      </trkpt>
      <trkpt lat="42.77974" lon="1.52935">
        <ele>676.06869472914</ele>
        <time>2017-06-10T10:41:55Z</time>
      </trkpt>
      <trkpt lat="42.77976" lon="1.52937">
        <ele>676.06869472914</ele>
        <time>2017-06-10T10:41:55Z</time>
      </trkpt>
      <trkpt lat="42.77978" lon="1.52939">
        <ele>676.4607722199</ele>
        <time>2017-06-10T10:41:55Z</time>
      </trkpt>
      <trkpt lat="42.7798" lon="1.5294">
        <ele>676.4607722199</ele>
        <time>2017-06-10T10:42:15Z</time>
      </trkpt>
      <trkpt lat="42.77981" lon="1.52942">
        <ele>676.4607722199</ele>
        <time>2017-06-10T10:42:15Z</time>
      </trkpt>
      <trkpt lat="42.77981" lon="1.52945">
        <ele>676.4607722199</ele>
        <time>2017-06-10T10:42:15Z</time>
      </trkpt>
      <trkpt lat="42.77984" lon="1.52949">
        <ele>675.82271203929</ele>
        <time>2017-06-10T10:42:15Z</time>
      </trkpt>
      <trkpt lat="42.77988" lon="1.52953">
        <ele>675.82271203929</ele>
        <time>2017-06-10T10:42:15Z</time>
      </trkpt>
      <trkpt lat="42.7799" lon="1.52957">
        <ele>675.82271203929</ele>
        <time>2017-06-10T10:42:31Z</time>
      </trkpt>
      <trkpt lat="42.77992" lon="1.52963">
        <ele>675.52882900777</ele>
        <time>2017-06-10T10:42:31Z</time>
      </trkpt>
      <trkpt lat="42.77997" lon="1.52965">
        <ele>675.52882900777</ele>
        <time>2017-06-10T10:42:31Z</time>
      </trkpt>
      <trkpt lat="42.78002" lon="1.52966">
        <ele>675.12216593274</ele>
        <time>2017-06-10T10:42:31Z</time>
      </trkpt>
      <trkpt lat="42.78006" lon="1.52969">
        <ele>675.12216593274</ele>
        <time>2017-06-10T10:42:47Z</time>
      </trkpt>
      <trkpt lat="42.78008" lon="1.52976">
        <ele>674.46785470835</ele>
        <time>2017-06-10T10:42:47Z</time>
      </trkpt>
      <trkpt lat="42.78008" lon="1.52982">
        <ele>674.46785470835</ele>
        <time>2017-06-10T10:42:47Z</time>
      </trkpt>
      <trkpt lat="42.78008" lon="1.5299">
        <ele>673.72983161698</ele>
        <time>2017-06-10T10:42:47Z</time>
      </trkpt>
      <trkpt lat="42.7801" lon="1.53">
        <ele>673.72983161698</ele>
        <time>2017-06-10T10:43:03Z</time>
      </trkpt>
      <trkpt lat="42.78011" lon="1.53008">
        <ele>673.06020253949</ele>
        <time>2017-06-10T10:43:03Z</time>
      </trkpt>
      <trkpt lat="42.78012" lon="1.53017">
        <ele>673.06020253949</ele>
        <time>2017-06-10T10:43:03Z</time>
      </trkpt>
      <trkpt lat="42.78012" lon="1.53024">
        <ele>672.8879054705</ele>
        <time>2017-06-10T10:43:03Z</time>
      </trkpt>
      <trkpt lat="42.78015" lon="1.53031">
        <ele>672.8879054705</ele>
        <time>2017-06-10T10:43:23Z</time>
      </trkpt>
      <trkpt lat="42.78017" lon="1.53035">
        <ele>673.32072605693</ele>
        <time>2017-06-10T10:43:23Z</time>
      </trkpt>
      <trkpt lat="42.78019" lon="1.53037">
        <ele>673.32072605693</ele>
        <time>2017-06-10T10:43:23Z</time>
      </trkpt>
      <trkpt lat="42.78022" lon="1.53039">
        <ele>673.32072605693</ele>
        <time>2017-06-10T10:43:23Z</time>
      </trkpt>
      <trkpt lat="42.78024" lon="1.53042">
        <ele>673.7362547649</ele>
        <time>2017-06-10T10:43:23Z</time>
      </trkpt>
      <trkpt lat="42.78025" lon="1.5305">
        <ele>673.7362547649</ele>
        <time>2017-06-10T10:43:39Z</time>
      </trkpt>
      <trkpt lat="42.78026" lon="1.53058">
        <ele>673.55783107932</ele>
        <time>2017-06-10T10:43:39Z</time>
      </trkpt>
      <trkpt lat="42.78027" lon="1.53065">
        <ele>673.55783107932</ele>
        <time>2017-06-10T10:43:39Z</time>
      </trkpt>
      <trkpt lat="42.78025" lon="1.53072">
        <ele>673.83802767051</ele>
        <time>2017-06-10T10:43:39Z</time>
      </trkpt>
      <trkpt lat="42.7803" lon="1.5308">
        <ele>673.83802767051</ele>
        <time>2017-06-10T10:43:55Z</time>
      </trkpt>
      <trkpt lat="42.78034" lon="1.53087">
        <ele>673.96557340487</ele>
        <time>2017-06-10T10:43:55Z</time>
      </trkpt>
      <trkpt lat="42.78037" lon="1.53095">
        <ele>673.96557340487</ele>
        <time>2017-06-10T10:43:55Z</time>
      </trkpt>
      <trkpt lat="42.78039" lon="1.53101">
        <ele>674.23918644706</ele>
        <time>2017-06-10T10:43:55Z</time>
      </trkpt>
      <trkpt lat="42.78043" lon="1.53105">
        <ele>674.23918644706</ele>
        <time>2017-06-10T10:44:11Z</time>
      </trkpt>
      <trkpt lat="42.78047" lon="1.5311">
        <ele>674.0705574597</ele>
        <time>2017-06-10T10:44:11Z</time>
      </trkpt>
      <trkpt lat="42.7805" lon="1.53117">
        <ele>674.0705574597</ele>
        <time>2017-06-10T10:44:11Z</time>
      </trkpt>
      <trkpt lat="42.78052" lon="1.53124">
        <ele>674.2128308718</ele>
        <time>2017-06-10T10:44:11Z</time>
      </trkpt>
      <trkpt lat="42.78053" lon="1.53127">
        <ele>674.2128308718</ele>
        <time>2017-06-10T10:44:27Z</time>
      </trkpt>
      <trkpt lat="42.78054" lon="1.53132">
        <ele>674.2128308718</ele>
        <time>2017-06-10T10:44:27Z</time>
      </trkpt>
      <trkpt lat="42.78058" lon="1.53135">
        <ele>673.77772760056</ele>
        <time>2017-06-10T10:44:27Z</time>
      </trkpt>
      <trkpt lat="42.78059" lon="1.53139">
        <ele>673.77772760056</ele>
        <time>2017-06-10T10:44:27Z</time>
      </trkpt>
      <trkpt lat="42.7806" lon="1.53144">
        <ele>673.77772760056</ele>
        <time>2017-06-10T10:44:43Z</time>
      </trkpt>
      <trkpt lat="42.78063" lon="1.53155">
        <ele>672.95261560905</ele>
        <time>2017-06-10T10:44:43Z</time>
      </trkpt>
      <trkpt lat="42.78065" lon="1.53162">
        <ele>672.95261560905</ele>
        <time>2017-06-10T10:44:43Z</time>
      </trkpt>
      <trkpt lat="42.78065" lon="1.53167">
        <ele>672.63274444067</ele>
        <time>2017-06-10T10:44:43Z</time>
      </trkpt>
      <trkpt lat="42.78068" lon="1.53171">
        <ele>672.63274444067</ele>
        <time>2017-06-10T10:45:03Z</time>
      </trkpt>
      <trkpt lat="42.78071" lon="1.53172">
        <ele>672.63274444067</ele>
        <time>2017-06-10T10:45:03Z</time>
      </trkpt>
      <trkpt lat="42.78072" lon="1.53177">
        <ele>672.06095224686</ele>
        <time>2017-06-10T10:45:03Z</time>
      </trkpt>
      <trkpt lat="42.78073" lon="1.5318">
        <ele>672.06095224686</ele>
        <time>2017-06-10T10:45:03Z</time>
      </trkpt>
      <trkpt lat="42.78074" lon="1.53186">
        <ele>672.06095224686</ele>
        <time>2017-06-10T10:45:03Z</time>
      </trkpt>
      <trkpt lat="42.78077" lon="1.53191">
        <ele>671.11283889547</ele>
        <time>2017-06-10T10:45:19Z</time>
      </trkpt>
      <trkpt lat="42.78077" lon="1.53197">
        <ele>671.11283889547</ele>
        <time>2017-06-10T10:45:19Z</time>
      </trkpt>
      <trkpt lat="42.78077" lon="1.53206">
        <ele>670.10651751791</ele>
        <time>2017-06-10T10:45:19Z</time>
      </trkpt>
      <trkpt lat="42.78078" lon="1.53212">
        <ele>670.10651751791</ele>
        <time>2017-06-10T10:45:19Z</time>
      </trkpt>
      <trkpt lat="42.78079" lon="1.53217">
        <ele>670.10651751791</ele>
        <time>2017-06-10T10:45:39Z</time>
      </trkpt>
      <trkpt lat="42.78078" lon="1.53219">
        <ele>669.48098938825</ele>
        <time>2017-06-10T10:45:39Z</time>
      </trkpt>
      <trkpt lat="42.78082" lon="1.53217">
        <ele>669.48098938825</ele>
        <time>2017-06-10T10:45:39Z</time>
      </trkpt>
      <trkpt lat="42.78083" lon="1.53223">
        <ele>669.48098938825</ele>
        <time>2017-06-10T10:45:39Z</time>
      </trkpt>
      <trkpt lat="42.78083" lon="1.5323">
        <ele>668.77724972826</ele>
        <time>2017-06-10T10:45:39Z</time>
      </trkpt>
      <trkpt lat="42.78082" lon="1.53235">
        <ele>668.77724972826</ele>
        <time>2017-06-10T10:45:55Z</time>
      </trkpt>
      <trkpt lat="42.78083" lon="1.53237">
        <ele>668.77724972826</ele>
        <time>2017-06-10T10:45:55Z</time>
      </trkpt>
      <trkpt lat="42.78081" lon="1.53243">
        <ele>668.57898469564</ele>
        <time>2017-06-10T10:45:55Z</time>
      </trkpt>
      <trkpt lat="42.78072" lon="1.53245">
        <ele>669.28144941246</ele>
        <time>2017-06-10T10:45:55Z</time>
      </trkpt>
      <trkpt lat="42.7807" lon="1.53248">
        <ele>669.28144941246</ele>
        <time>2017-06-10T10:47:35Z</time>
      </trkpt>
      <trkpt lat="42.7807" lon="1.53248">
        <ele>669.28144941246</ele>
        <time>2017-06-10T10:47:35Z</time>
      </trkpt>
      <trkpt lat="42.7807" lon="1.53248">
        <ele>669.28144941246</ele>
        <time>2017-06-10T10:47:35Z</time>
      </trkpt>
      <trkpt lat="42.7807" lon="1.53248">
        <ele>669.28144941246</ele>
        <time>2017-06-10T10:47:35Z</time>
      </trkpt>
      <trkpt lat="42.7807" lon="1.53249">
        <ele>669.28144941246</ele>
        <time>2017-06-10T10:47:35Z</time>
      </trkpt>
      <trkpt lat="42.78073" lon="1.53252">
        <ele>669.28144941246</ele>
        <time>2017-06-10T10:54:47Z</time>
      </trkpt>
      <trkpt lat="42.78073" lon="1.53252">
        <ele>669.28144941246</ele>
        <time>2017-06-10T10:54:47Z</time>
      </trkpt>
      <trkpt lat="42.78073" lon="1.53252">
        <ele>669.28144941246</ele>
        <time>2017-06-10T10:54:47Z</time>
      </trkpt>
      <trkpt lat="42.78073" lon="1.53252">
        <ele>669.28144941246</ele>
        <time>2017-06-10T10:54:47Z</time>
      </trkpt>
      <trkpt lat="42.78074" lon="1.53259">
        <ele>671.24831745814</ele>
        <time>2017-06-10T10:54:47Z</time>
      </trkpt>
      <trkpt lat="42.78077" lon="1.53263">
        <ele>671.24831745814</ele>
        <time>2017-06-10T10:55:03Z</time>
      </trkpt>
      <trkpt lat="42.7808" lon="1.53267">
        <ele>673.08365561365</ele>
        <time>2017-06-10T10:55:03Z</time>
      </trkpt>
      <trkpt lat="42.78083" lon="1.53273">
        <ele>673.08365561365</ele>
        <time>2017-06-10T10:55:03Z</time>
      </trkpt>
      <trkpt lat="42.78088" lon="1.5328">
        <ele>675.07966990252</ele>
        <time>2017-06-10T10:55:03Z</time>
      </trkpt>
      <trkpt lat="42.78092" lon="1.53292">
        <ele>677.36255882429</ele>
        <time>2017-06-10T10:55:55Z</time>
      </trkpt>
      <trkpt lat="42.78092" lon="1.53292">
        <ele>677.36255882429</ele>
        <time>2017-06-10T10:55:55Z</time>
      </trkpt>
      <trkpt lat="42.78094" lon="1.53292">
        <ele>677.36255882429</ele>
        <time>2017-06-10T10:55:55Z</time>
      </trkpt>
      <trkpt lat="42.78098" lon="1.53292">
        <ele>677.36255882429</ele>
        <time>2017-06-10T10:55:55Z</time>
      </trkpt>
      <trkpt lat="42.78101" lon="1.53295">
        <ele>680.19259494239</ele>
        <time>2017-06-10T10:55:55Z</time>
      </trkpt>
      <trkpt lat="42.78115" lon="1.53295">
        <ele>683.08889726321</ele>
        <time>2017-06-10T10:56:43Z</time>
      </trkpt>
      <trkpt lat="42.78115" lon="1.53295">
        <ele>683.08889726321</ele>
        <time>2017-06-10T10:56:43Z</time>
      </trkpt>
      <trkpt lat="42.78115" lon="1.53295">
        <ele>683.08889726321</ele>
        <time>2017-06-10T10:56:43Z</time>
      </trkpt>
      <trkpt lat="42.78115" lon="1.53295">
        <ele>683.08889726321</ele>
        <time>2017-06-10T10:56:43Z</time>
      </trkpt>
      <trkpt lat="42.78119" lon="1.53296">
        <ele>683.08889726321</ele>
        <time>2017-06-10T10:56:43Z</time>
      </trkpt>
      <trkpt lat="42.78122" lon="1.533">
        <ele>683.08889726321</ele>
        <time>2017-06-10T10:56:59Z</time>
      </trkpt>
      <trkpt lat="42.78125" lon="1.53305">
        <ele>686.18224473739</ele>
        <time>2017-06-10T10:56:59Z</time>
      </trkpt>
      <trkpt lat="42.78134" lon="1.53311">
        <ele>688.72868405584</ele>
        <time>2017-06-10T10:56:59Z</time>
      </trkpt>
      <trkpt lat="42.78141" lon="1.53312">
        <ele>688.72868405584</ele>
        <time>2017-06-10T10:56:59Z</time>
      </trkpt>
      <trkpt lat="42.78149" lon="1.53319">
        <ele>691.76989319747</ele>
        <time>2017-06-10T10:57:47Z</time>
      </trkpt>
      <trkpt lat="42.78149" lon="1.53319">
        <ele>691.76989319747</ele>
        <time>2017-06-10T10:57:47Z</time>
      </trkpt>
      <trkpt lat="42.78149" lon="1.5332">
        <ele>691.76989319747</ele>
        <time>2017-06-10T10:57:47Z</time>
      </trkpt>
      <trkpt lat="42.78153" lon="1.53321">
        <ele>691.76989319747</ele>
        <time>2017-06-10T10:57:47Z</time>
      </trkpt>
      <trkpt lat="42.78156" lon="1.53322">
        <ele>691.76989319747</ele>
        <time>2017-06-10T10:57:47Z</time>
      </trkpt>
      <trkpt lat="42.78173" lon="1.53321">
        <ele>694.82865867259</ele>
        <time>2017-06-10T10:58:23Z</time>
      </trkpt>
      <trkpt lat="42.78173" lon="1.53322">
        <ele>694.82865867259</ele>
        <time>2017-06-10T10:58:23Z</time>
      </trkpt>
      <trkpt lat="42.78175" lon="1.53324">
        <ele>694.82865867259</ele>
        <time>2017-06-10T10:58:23Z</time>
      </trkpt>
      <trkpt lat="42.78177" lon="1.53329">
        <ele>694.82865867259</ele>
        <time>2017-06-10T10:58:23Z</time>
      </trkpt>
      <trkpt lat="42.78181" lon="1.53332">
        <ele>697.75113999498</ele>
        <time>2017-06-10T10:58:23Z</time>
      </trkpt>
      <trkpt lat="42.78184" lon="1.53338">
        <ele>697.75113999498</ele>
        <time>2017-06-10T10:58:39Z</time>
      </trkpt>
      <trkpt lat="42.78186" lon="1.53343">
        <ele>700.68355987754</ele>
        <time>2017-06-10T10:58:39Z</time>
      </trkpt>
      <trkpt lat="42.78188" lon="1.53346">
        <ele>700.68355987754</ele>
        <time>2017-06-10T10:58:39Z</time>
      </trkpt>
      <trkpt lat="42.78192" lon="1.53347">
        <ele>700.68355987754</ele>
        <time>2017-06-10T10:58:39Z</time>
      </trkpt>
      <trkpt lat="42.78193" lon="1.53353">
        <ele>703.7615418468</ele>
        <time>2017-06-10T10:59:59Z</time>
      </trkpt>
      <trkpt lat="42.78194" lon="1.53353">
        <ele>703.7615418468</ele>
        <time>2017-06-10T10:59:59Z</time>
      </trkpt>
      <trkpt lat="42.782" lon="1.53356">
        <ele>703.7615418468</ele>
        <time>2017-06-10T10:59:59Z</time>
      </trkpt>
      <trkpt lat="42.78203" lon="1.53356">
        <ele>706.96640854613</ele>
        <time>2017-06-10T10:59:59Z</time>
      </trkpt>
      <trkpt lat="42.78205" lon="1.53355">
        <ele>706.96640854613</ele>
        <time>2017-06-10T10:59:59Z</time>
      </trkpt>
      <trkpt lat="42.78207" lon="1.53346">
        <ele>706.96640854613</ele>
        <time>2017-06-10T11:01:59Z</time>
      </trkpt>
      <trkpt lat="42.7821" lon="1.53355">
        <ele>710.85713622386</ele>
        <time>2017-06-10T11:01:59Z</time>
      </trkpt>
      <trkpt lat="42.78212" lon="1.53369">
        <ele>714.07647298706</ele>
        <time>2017-06-10T11:01:59Z</time>
      </trkpt>
      <trkpt lat="42.78211" lon="1.53384">
        <ele>718.53941411128</ele>
        <time>2017-06-10T11:01:59Z</time>
      </trkpt>
      <trkpt lat="42.78212" lon="1.5339">
        <ele>718.53941411128</ele>
        <time>2017-06-10T11:01:59Z</time>
      </trkpt>
      <trkpt lat="42.78213" lon="1.53388">
        <ele>718.53941411128</ele>
        <time>2017-06-10T11:02:59Z</time>
      </trkpt>
      <trkpt lat="42.78218" lon="1.53392">
        <ele>723.27890747237</ele>
        <time>2017-06-10T11:02:59Z</time>
      </trkpt>
      <trkpt lat="42.78224" lon="1.53393">
        <ele>723.27890747237</ele>
        <time>2017-06-10T11:02:59Z</time>
      </trkpt>
      <trkpt lat="42.78229" lon="1.53394">
        <ele>726.96607035585</ele>
        <time>2017-06-10T11:02:59Z</time>
      </trkpt>
      <trkpt lat="42.78239" lon="1.53397">
        <ele>729.95806322224</ele>
        <time>2017-06-10T11:02:59Z</time>
      </trkpt>
      <trkpt lat="42.78244" lon="1.53399">
        <ele>729.95806322224</ele>
        <time>2017-06-10T11:04:03Z</time>
      </trkpt>
      <trkpt lat="42.78245" lon="1.53396">
        <ele>729.95806322224</ele>
        <time>2017-06-10T11:04:03Z</time>
      </trkpt>
      <trkpt lat="42.78248" lon="1.53389">
        <ele>733.02035013155</ele>
        <time>2017-06-10T11:04:03Z</time>
      </trkpt>
      <trkpt lat="42.78252" lon="1.53382">
        <ele>733.02035013155</ele>
        <time>2017-06-10T11:04:03Z</time>
      </trkpt>
      <trkpt lat="42.78257" lon="1.53374">
        <ele>737.15045137406</ele>
        <time>2017-06-10T11:04:03Z</time>
      </trkpt>
      <trkpt lat="42.78261" lon="1.53368">
        <ele>737.15045137406</ele>
        <time>2017-06-10T11:04:19Z</time>
      </trkpt>
      <trkpt lat="42.78264" lon="1.53363">
        <ele>741.10821077638</ele>
        <time>2017-06-10T11:04:19Z</time>
      </trkpt>
      <trkpt lat="42.78266" lon="1.53355">
        <ele>741.10821077638</ele>
        <time>2017-06-10T11:04:19Z</time>
      </trkpt>
      <trkpt lat="42.78266" lon="1.5335">
        <ele>745.9069919463</ele>
        <time>2017-06-10T11:04:19Z</time>
      </trkpt>
      <trkpt lat="42.78269" lon="1.53348">
        <ele>745.9069919463</ele>
        <time>2017-06-10T11:04:51Z</time>
      </trkpt>
      <trkpt lat="42.7827" lon="1.53346">
        <ele>745.9069919463</ele>
        <time>2017-06-10T11:04:51Z</time>
      </trkpt>
      <trkpt lat="42.7827" lon="1.53344">
        <ele>745.9069919463</ele>
        <time>2017-06-10T11:04:51Z</time>
      </trkpt>
      <trkpt lat="42.7827" lon="1.53339">
        <ele>751.90718891815</ele>
        <time>2017-06-10T11:04:51Z</time>
      </trkpt>
      <trkpt lat="42.78271" lon="1.53334">
        <ele>751.90718891815</ele>
        <time>2017-06-10T11:04:51Z</time>
      </trkpt>
      <trkpt lat="42.78274" lon="1.53328">
        <ele>757.99852591097</ele>
        <time>2017-06-10T11:05:07Z</time>
      </trkpt>
      <trkpt lat="42.78275" lon="1.53322">
        <ele>757.99852591097</ele>
        <time>2017-06-10T11:05:07Z</time>
      </trkpt>
      <trkpt lat="42.78277" lon="1.53321">
        <ele>757.99852591097</ele>
        <time>2017-06-10T11:05:07Z</time>
      </trkpt>
      <trkpt lat="42.78282" lon="1.53319">
        <ele>763.29644130954</ele>
        <time>2017-06-10T11:05:07Z</time>
      </trkpt>
      <trkpt lat="42.78289" lon="1.53317">
        <ele>763.29644130954</ele>
        <time>2017-06-10T11:05:27Z</time>
      </trkpt>
      <trkpt lat="42.78291" lon="1.53321">
        <ele>767.70444421295</ele>
        <time>2017-06-10T11:05:27Z</time>
      </trkpt>
      <trkpt lat="42.78289" lon="1.53324">
        <ele>767.70444421295</ele>
        <time>2017-06-10T11:05:27Z</time>
      </trkpt>
      <trkpt lat="42.7829" lon="1.53328">
        <ele>767.70444421295</ele>
        <time>2017-06-10T11:05:27Z</time>
      </trkpt>
      <trkpt lat="42.78291" lon="1.53332">
        <ele>770.27127632387</ele>
        <time>2017-06-10T11:05:27Z</time>
      </trkpt>
      <trkpt lat="42.78295" lon="1.53343">
        <ele>770.27127632387</ele>
        <time>2017-06-10T11:06:11Z</time>
      </trkpt>
      <trkpt lat="42.78296" lon="1.53344">
        <ele>770.26514304604</ele>
        <time>2017-06-10T11:06:11Z</time>
      </trkpt>
      <trkpt lat="42.78296" lon="1.53344">
        <ele>770.26514304604</ele>
        <time>2017-06-10T11:06:11Z</time>
      </trkpt>
      <trkpt lat="42.78296" lon="1.53346">
        <ele>770.26514304604</ele>
        <time>2017-06-10T11:06:11Z</time>
      </trkpt>
      <trkpt lat="42.78296" lon="1.53355">
        <ele>770.26514304604</ele>
        <time>2017-06-10T11:06:11Z</time>
      </trkpt>
      <trkpt lat="42.78298" lon="1.53363">
        <ele>771.05063070103</ele>
        <time>2017-06-10T11:06:27Z</time>
      </trkpt>
      <trkpt lat="42.78303" lon="1.53375">
        <ele>769.83465184821</ele>
        <time>2017-06-10T11:06:27Z</time>
      </trkpt>
      <trkpt lat="42.78304" lon="1.53384">
        <ele>769.83465184821</ele>
        <time>2017-06-10T11:06:27Z</time>
      </trkpt>
      <trkpt lat="42.78304" lon="1.53392">
        <ele>768.93492268307</ele>
        <time>2017-06-10T11:06:27Z</time>
      </trkpt>
      <trkpt lat="42.78305" lon="1.53397">
        <ele>768.93492268307</ele>
        <time>2017-06-10T11:06:43Z</time>
      </trkpt>
      <trkpt lat="42.78308" lon="1.53404">
        <ele>767.76009393756</ele>
        <time>2017-06-10T11:06:43Z</time>
      </trkpt>
      <trkpt lat="42.78305" lon="1.53412">
        <ele>767.76009393756</ele>
        <time>2017-06-10T11:06:43Z</time>
      </trkpt>
      <trkpt lat="42.78306" lon="1.53421">
        <ele>767.06018249239</ele>
        <time>2017-06-10T11:06:43Z</time>
      </trkpt>
      <trkpt lat="42.78307" lon="1.53427">
        <ele>767.06018249239</ele>
        <time>2017-06-10T11:06:59Z</time>
      </trkpt>
      <trkpt lat="42.78306" lon="1.53432">
        <ele>767.06018249239</ele>
        <time>2017-06-10T11:06:59Z</time>
      </trkpt>
      <trkpt lat="42.78307" lon="1.53439">
        <ele>766.66422665275</ele>
        <time>2017-06-10T11:06:59Z</time>
      </trkpt>
      <trkpt lat="42.78308" lon="1.53445">
        <ele>766.66422665275</ele>
        <time>2017-06-10T11:06:59Z</time>
      </trkpt>
      <trkpt lat="42.78309" lon="1.53451">
        <ele>766.41305405576</ele>
        <time>2017-06-10T11:07:15Z</time>
      </trkpt>
      <trkpt lat="42.78308" lon="1.53457">
        <ele>766.41305405576</ele>
        <time>2017-06-10T11:07:15Z</time>
      </trkpt>
      <trkpt lat="42.78308" lon="1.53461">
        <ele>766.41305405576</ele>
        <time>2017-06-10T11:07:15Z</time>
      </trkpt>
      <trkpt lat="42.78309" lon="1.53465">
        <ele>766.73527826188</ele>
        <time>2017-06-10T11:07:15Z</time>
      </trkpt>
      <trkpt lat="42.78308" lon="1.5347">
        <ele>766.73527826188</ele>
        <time>2017-06-10T11:07:31Z</time>
      </trkpt>
      <trkpt lat="42.78308" lon="1.53475">
        <ele>766.73527826188</ele>
        <time>2017-06-10T11:07:31Z</time>
      </trkpt>
      <trkpt lat="42.78307" lon="1.5348">
        <ele>768.31467357982</ele>
        <time>2017-06-10T11:07:31Z</time>
      </trkpt>
      <trkpt lat="42.78307" lon="1.53484">
        <ele>768.31467357982</ele>
        <time>2017-06-10T11:07:31Z</time>
      </trkpt>
      <trkpt lat="42.78309" lon="1.53488">
        <ele>768.31467357982</ele>
        <time>2017-06-10T11:07:59Z</time>
      </trkpt>
      <trkpt lat="42.78308" lon="1.53491">
        <ele>768.31467357982</ele>
        <time>2017-06-10T11:07:59Z</time>
      </trkpt>
      <trkpt lat="42.78308" lon="1.53493">
        <ele>770.77249705189</ele>
        <time>2017-06-10T11:07:59Z</time>
      </trkpt>
      <trkpt lat="42.78311" lon="1.53496">
        <ele>770.77249705189</ele>
        <time>2017-06-10T11:07:59Z</time>
      </trkpt>
      <trkpt lat="42.78313" lon="1.53501">
        <ele>770.77249705189</ele>
        <time>2017-06-10T11:07:59Z</time>
      </trkpt>
      <trkpt lat="42.78319" lon="1.53502">
        <ele>775.0523755209</ele>
        <time>2017-06-10T11:12:11Z</time>
      </trkpt>
      <trkpt lat="42.78319" lon="1.53502">
        <ele>775.0523755209</ele>
        <time>2017-06-10T11:12:11Z</time>
      </trkpt>
      <trkpt lat="42.78321" lon="1.53504">
        <ele>775.0523755209</ele>
        <time>2017-06-10T11:12:11Z</time>
      </trkpt>
      <trkpt lat="42.78323" lon="1.5351">
        <ele>775.0523755209</ele>
        <time>2017-06-10T11:12:11Z</time>
      </trkpt>
      <trkpt lat="42.78325" lon="1.53517">
        <ele>780.00596429322</ele>
        <time>2017-06-10T11:12:11Z</time>
      </trkpt>
      <trkpt lat="42.78331" lon="1.5352">
        <ele>780.00596429322</ele>
        <time>2017-06-10T11:12:27Z</time>
      </trkpt>
      <trkpt lat="42.78336" lon="1.53522">
        <ele>785.14385588094</ele>
        <time>2017-06-10T11:12:27Z</time>
      </trkpt>
      <trkpt lat="42.78341" lon="1.53522">
        <ele>785.14385588094</ele>
        <time>2017-06-10T11:12:27Z</time>
      </trkpt>
      <trkpt lat="42.78344" lon="1.53525">
        <ele>790.58856514686</ele>
        <time>2017-06-10T11:12:27Z</time>
      </trkpt>
      <trkpt lat="42.78351" lon="1.53529">
        <ele>790.58856514686</ele>
        <time>2017-06-10T11:12:43Z</time>
      </trkpt>
      <trkpt lat="42.78359" lon="1.53532">
        <ele>795.87636506061</ele>
        <time>2017-06-10T11:12:43Z</time>
      </trkpt>
      <trkpt lat="42.78363" lon="1.53534">
        <ele>795.87636506061</ele>
        <time>2017-06-10T11:12:43Z</time>
      </trkpt>
      <trkpt lat="42.78369" lon="1.53534">
        <ele>800.86633925912</ele>
        <time>2017-06-10T11:12:43Z</time>
      </trkpt>
      <trkpt lat="42.78372" lon="1.53538">
        <ele>800.86633925912</ele>
        <time>2017-06-10T11:12:59Z</time>
      </trkpt>
      <trkpt lat="42.78378" lon="1.5354">
        <ele>804.99652462193</ele>
        <time>2017-06-10T11:12:59Z</time>
      </trkpt>
      <trkpt lat="42.7838" lon="1.53539">
        <ele>804.99652462193</ele>
        <time>2017-06-10T11:12:59Z</time>
      </trkpt>
      <trkpt lat="42.78382" lon="1.5354">
        <ele>804.99652462193</ele>
        <time>2017-06-10T11:12:59Z</time>
      </trkpt>
      <trkpt lat="42.78382" lon="1.53541">
        <ele>804.99652462193</ele>
        <time>2017-06-10T11:13:27Z</time>
      </trkpt>
      <trkpt lat="42.78382" lon="1.53541">
        <ele>804.99652462193</ele>
        <time>2017-06-10T11:13:27Z</time>
      </trkpt>
      <trkpt lat="42.78382" lon="1.53541">
        <ele>804.99652462193</ele>
        <time>2017-06-10T11:13:27Z</time>
      </trkpt>
      <trkpt lat="42.78385" lon="1.53545">
        <ele>804.99652462193</ele>
        <time>2017-06-10T11:13:27Z</time>
      </trkpt>
      <trkpt lat="42.7839" lon="1.53549">
        <ele>808.61343054687</ele>
        <time>2017-06-10T11:13:27Z</time>
      </trkpt>
      <trkpt lat="42.78396" lon="1.53551">
        <ele>808.61343054687</ele>
        <time>2017-06-10T11:13:43Z</time>
      </trkpt>
      <trkpt lat="42.78404" lon="1.53549">
        <ele>810.59855743467</ele>
        <time>2017-06-10T11:13:43Z</time>
      </trkpt>
      <trkpt lat="42.7841" lon="1.53554">
        <ele>810.59855743467</ele>
        <time>2017-06-10T11:13:43Z</time>
      </trkpt>
      <trkpt lat="42.78415" lon="1.53558">
        <ele>811.64959611167</ele>
        <time>2017-06-10T11:13:43Z</time>
      </trkpt>
      <trkpt lat="42.78421" lon="1.53563">
        <ele>811.64959611167</ele>
        <time>2017-06-10T11:13:59Z</time>
      </trkpt>
      <trkpt lat="42.78427" lon="1.53567">
        <ele>812.70393305448</ele>
        <time>2017-06-10T11:13:59Z</time>
      </trkpt>
      <trkpt lat="42.78434" lon="1.5357">
        <ele>812.70393305448</ele>
        <time>2017-06-10T11:13:59Z</time>
      </trkpt>
      <trkpt lat="42.78442" lon="1.5358">
        <ele>814.48606555556</ele>
        <time>2017-06-10T11:13:59Z</time>
      </trkpt>
      <trkpt lat="42.78445" lon="1.53583">
        <ele>814.48606555556</ele>
        <time>2017-06-10T11:14:15Z</time>
      </trkpt>
      <trkpt lat="42.78449" lon="1.53587">
        <ele>814.48606555556</ele>
        <time>2017-06-10T11:14:15Z</time>
      </trkpt>
      <trkpt lat="42.78451" lon="1.53586">
        <ele>816.80063699461</ele>
        <time>2017-06-10T11:14:15Z</time>
      </trkpt>
      <trkpt lat="42.78455" lon="1.53588">
        <ele>816.80063699461</ele>
        <time>2017-06-10T11:14:15Z</time>
      </trkpt>
      <trkpt lat="42.78459" lon="1.53591">
        <ele>816.80063699461</ele>
        <time>2017-06-10T11:14:31Z</time>
      </trkpt>
      <trkpt lat="42.78462" lon="1.5359">
        <ele>819.4652111024</ele>
        <time>2017-06-10T11:14:31Z</time>
      </trkpt>
      <trkpt lat="42.78466" lon="1.53591">
        <ele>819.4652111024</ele>
        <time>2017-06-10T11:14:31Z</time>
      </trkpt>
      <trkpt lat="42.78472" lon="1.53589">
        <ele>820.86871187022</ele>
        <time>2017-06-10T11:14:31Z</time>
      </trkpt>
      <trkpt lat="42.78477" lon="1.53585">
        <ele>820.86871187022</ele>
        <time>2017-06-10T11:15:11Z</time>
      </trkpt>
      <trkpt lat="42.78477" lon="1.53585">
        <ele>820.86871187022</ele>
        <time>2017-06-10T11:15:11Z</time>
      </trkpt>
      <trkpt lat="42.78477" lon="1.53585">
        <ele>820.86871187022</ele>
        <time>2017-06-10T11:15:11Z</time>
      </trkpt>
      <trkpt lat="42.78479" lon="1.53585">
        <ele>820.86871187022</ele>
        <time>2017-06-10T11:15:11Z</time>
      </trkpt>
      <trkpt lat="42.78484" lon="1.53588">
        <ele>822.11599319418</ele>
        <time>2017-06-10T11:15:11Z</time>
      </trkpt>
      <trkpt lat="42.7849" lon="1.53592">
        <ele>822.11599319418</ele>
        <time>2017-06-10T11:15:27Z</time>
      </trkpt>
      <trkpt lat="42.78494" lon="1.53595">
        <ele>823.65477328659</ele>
        <time>2017-06-10T11:15:27Z</time>
      </trkpt>
      <trkpt lat="42.78499" lon="1.53598">
        <ele>823.65477328659</ele>
        <time>2017-06-10T11:15:27Z</time>
      </trkpt>
      <trkpt lat="42.78503" lon="1.53601">
        <ele>825.32264053488</ele>
        <time>2017-06-10T11:15:27Z</time>
      </trkpt>
      <trkpt lat="42.78507" lon="1.53606">
        <ele>825.32264053488</ele>
        <time>2017-06-10T11:15:51Z</time>
      </trkpt>
      <trkpt lat="42.7851" lon="1.53606">
        <ele>825.32264053488</ele>
        <time>2017-06-10T11:15:51Z</time>
      </trkpt>
      <trkpt lat="42.78512" lon="1.53609">
        <ele>826.68053924453</ele>
        <time>2017-06-10T11:15:51Z</time>
      </trkpt>
      <trkpt lat="42.78512" lon="1.5361">
        <ele>826.68053924453</ele>
        <time>2017-06-10T11:15:51Z</time>
      </trkpt>
      <trkpt lat="42.78513" lon="1.5361">
        <ele>826.68053924453</ele>
        <time>2017-06-10T11:15:51Z</time>
      </trkpt>
      <trkpt lat="42.78513" lon="1.53611">
        <ele>826.68053924453</ele>
        <time>2017-06-10T11:16:15Z</time>
      </trkpt>
      <trkpt lat="42.78513" lon="1.53611">
        <ele>826.68053924453</ele>
        <time>2017-06-10T11:16:15Z</time>
      </trkpt>
      <trkpt lat="42.78513" lon="1.53611">
        <ele>826.68053924453</ele>
        <time>2017-06-10T11:16:15Z</time>
      </trkpt>
      <trkpt lat="42.7852" lon="1.53614">
        <ele>827.46664505869</ele>
        <time>2017-06-10T11:16:15Z</time>
      </trkpt>
      <trkpt lat="42.78527" lon="1.53619">
        <ele>827.46664505869</ele>
        <time>2017-06-10T11:16:15Z</time>
      </trkpt>
      <trkpt lat="42.78533" lon="1.53625">
        <ele>829.16929285614</ele>
        <time>2017-06-10T11:16:31Z</time>
      </trkpt>
      <trkpt lat="42.78537" lon="1.5363">
        <ele>829.16929285614</ele>
        <time>2017-06-10T11:16:31Z</time>
      </trkpt>
      <trkpt lat="42.78541" lon="1.53629">
        <ele>831.00322489787</ele>
        <time>2017-06-10T11:16:31Z</time>
      </trkpt>
      <trkpt lat="42.78544" lon="1.53627">
        <ele>831.00322489787</ele>
        <time>2017-06-10T11:16:31Z</time>
      </trkpt>
      <trkpt lat="42.78545" lon="1.53629">
        <ele>831.00322489787</ele>
        <time>2017-06-10T11:17:15Z</time>
      </trkpt>
      <trkpt lat="42.78545" lon="1.53629">
        <ele>831.00322489787</ele>
        <time>2017-06-10T11:17:15Z</time>
      </trkpt>
      <trkpt lat="42.78545" lon="1.53629">
        <ele>831.00322489787</ele>
        <time>2017-06-10T11:17:15Z</time>
      </trkpt>
      <trkpt lat="42.78546" lon="1.53631">
        <ele>831.00322489787</ele>
        <time>2017-06-10T11:17:15Z</time>
      </trkpt>
      <trkpt lat="42.78551" lon="1.53637">
        <ele>832.52869159634</ele>
        <time>2017-06-10T11:17:15Z</time>
      </trkpt>
      <trkpt lat="42.78555" lon="1.53647">
        <ele>832.52869159634</ele>
        <time>2017-06-10T11:17:31Z</time>
      </trkpt>
      <trkpt lat="42.78556" lon="1.53659">
        <ele>834.49196502281</ele>
        <time>2017-06-10T11:17:31Z</time>
      </trkpt>
      <trkpt lat="42.78558" lon="1.53664">
        <ele>834.49196502281</ele>
        <time>2017-06-10T11:17:31Z</time>
      </trkpt>
      <trkpt lat="42.78561" lon="1.53668">
        <ele>834.49196502281</ele>
        <time>2017-06-10T11:17:31Z</time>
      </trkpt>
      <trkpt lat="42.78564" lon="1.5367">
        <ele>836.57444940694</ele>
        <time>2017-06-10T11:17:47Z</time>
      </trkpt>
      <trkpt lat="42.78568" lon="1.53672">
        <ele>836.57444940694</ele>
        <time>2017-06-10T11:17:47Z</time>
      </trkpt>
      <trkpt lat="42.78573" lon="1.53674">
        <ele>838.04824008506</ele>
        <time>2017-06-10T11:17:47Z</time>
      </trkpt>
      <trkpt lat="42.78575" lon="1.53673">
        <ele>838.04824008506</ele>
        <time>2017-06-10T11:17:47Z</time>
      </trkpt>
      <trkpt lat="42.78576" lon="1.53671">
        <ele>838.04824008506</ele>
        <time>2017-06-10T11:18:03Z</time>
      </trkpt>
      <trkpt lat="42.78578" lon="1.53672">
        <ele>838.04824008506</ele>
        <time>2017-06-10T11:18:03Z</time>
      </trkpt>
      <trkpt lat="42.78581" lon="1.53675">
        <ele>838.67289488809</ele>
        <time>2017-06-10T11:18:03Z</time>
      </trkpt>
      <trkpt lat="42.78583" lon="1.53681">
        <ele>838.67289488809</ele>
        <time>2017-06-10T11:18:03Z</time>
      </trkpt>
      <trkpt lat="42.78584" lon="1.53687">
        <ele>839.09262688666</ele>
        <time>2017-06-10T11:18:19Z</time>
      </trkpt>
      <trkpt lat="42.78586" lon="1.53691">
        <ele>839.09262688666</ele>
        <time>2017-06-10T11:18:19Z</time>
      </trkpt>
      <trkpt lat="42.78588" lon="1.53696">
        <ele>839.09262688666</ele>
        <time>2017-06-10T11:18:19Z</time>
      </trkpt>
      <trkpt lat="42.7859" lon="1.53699">
        <ele>839.04016715093</ele>
        <time>2017-06-10T11:18:19Z</time>
      </trkpt>
      <trkpt lat="42.78591" lon="1.53706">
        <ele>839.04016715093</ele>
        <time>2017-06-10T11:18:35Z</time>
      </trkpt>
      <trkpt lat="42.78592" lon="1.53713">
        <ele>838.98968187743</ele>
        <time>2017-06-10T11:18:35Z</time>
      </trkpt>
      <trkpt lat="42.78592" lon="1.5372">
        <ele>838.98968187743</ele>
        <time>2017-06-10T11:18:35Z</time>
      </trkpt>
      <trkpt lat="42.78592" lon="1.53726">
        <ele>839.38040800762</ele>
        <time>2017-06-10T11:18:35Z</time>
      </trkpt>
      <trkpt lat="42.78595" lon="1.5373">
        <ele>839.38040800762</ele>
        <time>2017-06-10T11:18:51Z</time>
      </trkpt>
      <trkpt lat="42.78598" lon="1.53735">
        <ele>839.38040800762</ele>
        <time>2017-06-10T11:18:51Z</time>
      </trkpt>
      <trkpt lat="42.78602" lon="1.53739">
        <ele>840.32975321929</ele>
        <time>2017-06-10T11:18:51Z</time>
      </trkpt>
      <trkpt lat="42.78605" lon="1.53742">
        <ele>840.32975321929</ele>
        <time>2017-06-10T11:18:51Z</time>
      </trkpt>
      <trkpt lat="42.78607" lon="1.53745">
        <ele>840.32975321929</ele>
        <time>2017-06-10T11:19:07Z</time>
      </trkpt>
      <trkpt lat="42.78611" lon="1.53749">
        <ele>840.93604235263</ele>
        <time>2017-06-10T11:19:07Z</time>
      </trkpt>
      <trkpt lat="42.78614" lon="1.53754">
        <ele>840.93604235263</ele>
        <time>2017-06-10T11:19:07Z</time>
      </trkpt>
      <trkpt lat="42.78618" lon="1.53759">
        <ele>841.51756844654</ele>
        <time>2017-06-10T11:19:07Z</time>
      </trkpt>
      <trkpt lat="42.78621" lon="1.53764">
        <ele>841.51756844654</ele>
        <time>2017-06-10T11:19:23Z</time>
      </trkpt>
      <trkpt lat="42.78625" lon="1.53768">
        <ele>841.93685330262</ele>
        <time>2017-06-10T11:19:23Z</time>
      </trkpt>
      <trkpt lat="42.78628" lon="1.53772">
        <ele>841.93685330262</ele>
        <time>2017-06-10T11:19:23Z</time>
      </trkpt>
      <trkpt lat="42.78629" lon="1.53773">
        <ele>841.93685330262</ele>
        <time>2017-06-10T11:19:23Z</time>
      </trkpt>
      <trkpt lat="42.7863" lon="1.5377">
        <ele>841.93685330262</ele>
        <time>2017-06-10T11:20:39Z</time>
      </trkpt>
      <trkpt lat="42.78628" lon="1.53765">
        <ele>842.35506472785</ele>
        <time>2017-06-10T11:20:39Z</time>
      </trkpt>
      <trkpt lat="42.78626" lon="1.53758">
        <ele>842.35506472785</ele>
        <time>2017-06-10T11:20:39Z</time>
      </trkpt>
      <trkpt lat="42.78626" lon="1.53751">
        <ele>842.92139895329</ele>
        <time>2017-06-10T11:20:39Z</time>
      </trkpt>
      <trkpt lat="42.78624" lon="1.53745">
        <ele>842.92139895329</ele>
        <time>2017-06-10T11:20:39Z</time>
      </trkpt>
      <trkpt lat="42.78622" lon="1.5374">
        <ele>843.62942644674</ele>
        <time>2017-06-10T11:20:55Z</time>
      </trkpt>
      <trkpt lat="42.78621" lon="1.53734">
        <ele>843.62942644674</ele>
        <time>2017-06-10T11:20:55Z</time>
      </trkpt>
      <trkpt lat="42.78618" lon="1.53729">
        <ele>844.04031636192</ele>
        <time>2017-06-10T11:20:55Z</time>
      </trkpt>
      <trkpt lat="42.78617" lon="1.53722">
        <ele>844.04031636192</ele>
        <time>2017-06-10T11:20:55Z</time>
      </trkpt>
      <trkpt lat="42.78618" lon="1.53717">
        <ele>844.04031636192</ele>
        <time>2017-06-10T11:21:11Z</time>
      </trkpt>
      <trkpt lat="42.78618" lon="1.53714">
        <ele>843.171715592</ele>
        <time>2017-06-10T11:21:11Z</time>
      </trkpt>
      <trkpt lat="42.78618" lon="1.53709">
        <ele>843.171715592</ele>
        <time>2017-06-10T11:21:11Z</time>
      </trkpt>
      <trkpt lat="42.78617" lon="1.53703">
        <ele>843.171715592</ele>
        <time>2017-06-10T11:21:11Z</time>
      </trkpt>
      <trkpt lat="42.78625" lon="1.53697">
        <ele>843.43142903303</ele>
        <time>2017-06-10T11:21:43Z</time>
      </trkpt>
      <trkpt lat="42.78626" lon="1.53699">
        <ele>843.43142903303</ele>
        <time>2017-06-10T11:21:43Z</time>
      </trkpt>
      <trkpt lat="42.78627" lon="1.53705">
        <ele>843.43142903303</ele>
        <time>2017-06-10T11:21:43Z</time>
      </trkpt>
      <trkpt lat="42.78628" lon="1.53711">
        <ele>843.87661918095</ele>
        <time>2017-06-10T11:21:43Z</time>
      </trkpt>
      <trkpt lat="42.7863" lon="1.53718">
        <ele>843.87661918095</ele>
        <time>2017-06-10T11:21:43Z</time>
      </trkpt>
      <trkpt lat="42.78632" lon="1.53724">
        <ele>844.78591921314</ele>
        <time>2017-06-10T11:21:59Z</time>
      </trkpt>
      <trkpt lat="42.78635" lon="1.53728">
        <ele>844.78591921314</ele>
        <time>2017-06-10T11:21:59Z</time>
      </trkpt>
      <trkpt lat="42.78639" lon="1.53732">
        <ele>844.78591921314</ele>
        <time>2017-06-10T11:21:59Z</time>
      </trkpt>
      <trkpt lat="42.78641" lon="1.53738">
        <ele>845.98369964948</ele>
        <time>2017-06-10T11:21:59Z</time>
      </trkpt>
      <trkpt lat="42.78643" lon="1.53744">
        <ele>845.98369964948</ele>
        <time>2017-06-10T11:22:15Z</time>
      </trkpt>
      <trkpt lat="42.78646" lon="1.53749">
        <ele>847.59449087366</ele>
        <time>2017-06-10T11:22:15Z</time>
      </trkpt>
      <trkpt lat="42.78649" lon="1.53752">
        <ele>847.59449087366</ele>
        <time>2017-06-10T11:22:15Z</time>
      </trkpt>
      <trkpt lat="42.78652" lon="1.53757">
        <ele>847.59449087366</ele>
        <time>2017-06-10T11:22:15Z</time>
      </trkpt>
      <trkpt lat="42.78656" lon="1.5376">
        <ele>849.30003516074</ele>
        <time>2017-06-10T11:22:31Z</time>
      </trkpt>
      <trkpt lat="42.7866" lon="1.53762">
        <ele>849.30003516074</ele>
        <time>2017-06-10T11:22:31Z</time>
      </trkpt>
      <trkpt lat="42.78664" lon="1.53764">
        <ele>849.30003516074</ele>
        <time>2017-06-10T11:22:31Z</time>
      </trkpt>
      <trkpt lat="42.78668" lon="1.53766">
        <ele>851.09327130876</ele>
        <time>2017-06-10T11:22:31Z</time>
      </trkpt>
      <trkpt lat="42.78671" lon="1.53769">
        <ele>851.09327130876</ele>
        <time>2017-06-10T11:22:47Z</time>
      </trkpt>
      <trkpt lat="42.78676" lon="1.5377">
        <ele>851.09327130876</ele>
        <time>2017-06-10T11:22:47Z</time>
      </trkpt>
      <trkpt lat="42.78683" lon="1.53771">
        <ele>852.67905940458</ele>
        <time>2017-06-10T11:22:47Z</time>
      </trkpt>
      <trkpt lat="42.78691" lon="1.53773">
        <ele>852.67905940458</ele>
        <time>2017-06-10T11:22:47Z</time>
      </trkpt>
      <trkpt lat="42.78696" lon="1.53774">
        <ele>853.92851400752</ele>
        <time>2017-06-10T11:23:03Z</time>
      </trkpt>
      <trkpt lat="42.787" lon="1.53777">
        <ele>853.92851400752</ele>
        <time>2017-06-10T11:23:03Z</time>
      </trkpt>
      <trkpt lat="42.78703" lon="1.53781">
        <ele>853.92851400752</ele>
        <time>2017-06-10T11:23:03Z</time>
      </trkpt>
      <trkpt lat="42.78707" lon="1.53786">
        <ele>855.87594082342</ele>
        <time>2017-06-10T11:23:03Z</time>
      </trkpt>
      <trkpt lat="42.78709" lon="1.53793">
        <ele>855.87594082342</ele>
        <time>2017-06-10T11:23:23Z</time>
      </trkpt>
      <trkpt lat="42.7871" lon="1.53795">
        <ele>855.87594082342</ele>
        <time>2017-06-10T11:23:23Z</time>
      </trkpt>
      <trkpt lat="42.78711" lon="1.53795">
        <ele>855.87594082342</ele>
        <time>2017-06-10T11:23:23Z</time>
      </trkpt>
      <trkpt lat="42.78715" lon="1.53798">
        <ele>857.60416238538</ele>
        <time>2017-06-10T11:23:23Z</time>
      </trkpt>
      <trkpt lat="42.78718" lon="1.53802">
        <ele>857.60416238538</ele>
        <time>2017-06-10T11:23:23Z</time>
      </trkpt>
      <trkpt lat="42.7872" lon="1.53806">
        <ele>857.60416238538</ele>
        <time>2017-06-10T11:23:39Z</time>
      </trkpt>
      <trkpt lat="42.78723" lon="1.5381">
        <ele>858.98445505773</ele>
        <time>2017-06-10T11:23:39Z</time>
      </trkpt>
      <trkpt lat="42.78727" lon="1.53815">
        <ele>858.98445505773</ele>
        <time>2017-06-10T11:23:39Z</time>
      </trkpt>
      <trkpt lat="42.7873" lon="1.5382">
        <ele>860.04255347647</ele>
        <time>2017-06-10T11:23:39Z</time>
      </trkpt>
      <trkpt lat="42.78733" lon="1.53825">
        <ele>860.04255347647</ele>
        <time>2017-06-10T11:23:55Z</time>
      </trkpt>
      <trkpt lat="42.78735" lon="1.53829">
        <ele>860.04255347647</ele>
        <time>2017-06-10T11:23:55Z</time>
      </trkpt>
      <trkpt lat="42.78735" lon="1.53835">
        <ele>860.51490383709</ele>
        <time>2017-06-10T11:23:55Z</time>
      </trkpt>
      <trkpt lat="42.78738" lon="1.5384">
        <ele>860.51490383709</ele>
        <time>2017-06-10T11:23:55Z</time>
      </trkpt>
      <trkpt lat="42.78749" lon="1.53844">
        <ele>860.73532354435</ele>
        <time>2017-06-10T11:28:55Z</time>
      </trkpt>
      <trkpt lat="42.78749" lon="1.53844">
        <ele>860.73532354435</ele>
        <time>2017-06-10T11:28:55Z</time>
      </trkpt>
      <trkpt lat="42.78749" lon="1.53844">
        <ele>860.73532354435</ele>
        <time>2017-06-10T11:28:55Z</time>
      </trkpt>
      <trkpt lat="42.78749" lon="1.53843">
        <ele>860.73532354435</ele>
        <time>2017-06-10T11:28:55Z</time>
      </trkpt>
      <trkpt lat="42.7875" lon="1.53842">
        <ele>860.73532354435</ele>
        <time>2017-06-10T11:28:55Z</time>
      </trkpt>
      <trkpt lat="42.78754" lon="1.53841">
        <ele>860.73532354435</ele>
        <time>2017-06-10T11:31:43Z</time>
      </trkpt>
      <trkpt lat="42.78754" lon="1.5384">
        <ele>860.73532354435</ele>
        <time>2017-06-10T11:31:43Z</time>
      </trkpt>
      <trkpt lat="42.78753" lon="1.53838">
        <ele>860.73532354435</ele>
        <time>2017-06-10T11:31:43Z</time>
      </trkpt>
      <trkpt lat="42.78749" lon="1.53833">
        <ele>860.29318030986</ele>
        <time>2017-06-10T11:31:43Z</time>
      </trkpt>
      <trkpt lat="42.78746" lon="1.53829">
        <ele>860.29318030986</ele>
        <time>2017-06-10T11:31:43Z</time>
      </trkpt>
      <trkpt lat="42.78742" lon="1.53826">
        <ele>860.29318030986</ele>
        <time>2017-06-10T11:31:59Z</time>
      </trkpt>
      <trkpt lat="42.78741" lon="1.53822">
        <ele>860.53911788395</ele>
        <time>2017-06-10T11:32:00Z</time>
      </trkpt>
      <trkpt lat="42.78738" lon="1.53818">
        <ele>860.53911788395</ele>
        <time>2017-06-10T11:32:00Z</time>
      </trkpt>
      <trkpt lat="42.78737" lon="1.53813">
        <ele>860.53911788395</ele>
        <time>2017-06-10T11:32:00Z</time>
      </trkpt>
      <trkpt lat="42.78732" lon="1.53808">
        <ele>861.13732442969</ele>
        <time>2017-06-10T11:32:15Z</time>
      </trkpt>
      <trkpt lat="42.78728" lon="1.53804">
        <ele>861.13732442969</ele>
        <time>2017-06-10T11:32:15Z</time>
      </trkpt>
      <trkpt lat="42.78725" lon="1.538">
        <ele>862.35202639241</ele>
        <time>2017-06-10T11:32:15Z</time>
      </trkpt>
      <trkpt lat="42.78722" lon="1.53795">
        <ele>862.35202639241</ele>
        <time>2017-06-10T11:32:15Z</time>
      </trkpt>
      <trkpt lat="42.78722" lon="1.53789">
        <ele>863.70566925132</ele>
        <time>2017-06-10T11:32:31Z</time>
      </trkpt>
      <trkpt lat="42.78719" lon="1.53784">
        <ele>863.70566925132</ele>
        <time>2017-06-10T11:32:31Z</time>
      </trkpt>
      <trkpt lat="42.78715" lon="1.53779">
        <ele>865.47586460579</ele>
        <time>2017-06-10T11:32:31Z</time>
      </trkpt>
      <trkpt lat="42.78712" lon="1.53774">
        <ele>865.47586460579</ele>
        <time>2017-06-10T11:32:31Z</time>
      </trkpt>
      <trkpt lat="42.78708" lon="1.5377">
        <ele>867.77447861919</ele>
        <time>2017-06-10T11:32:47Z</time>
      </trkpt>
      <trkpt lat="42.78705" lon="1.53764">
        <ele>867.77447861919</ele>
        <time>2017-06-10T11:32:47Z</time>
      </trkpt>
      <trkpt lat="42.78704" lon="1.53759">
        <ele>867.77447861919</ele>
        <time>2017-06-10T11:32:47Z</time>
      </trkpt>
      <trkpt lat="42.78704" lon="1.53754">
        <ele>869.83894807645</ele>
        <time>2017-06-10T11:32:47Z</time>
      </trkpt>
      <trkpt lat="42.78709" lon="1.53746">
        <ele>869.83894807645</ele>
        <time>2017-06-10T11:33:15Z</time>
      </trkpt>
      <trkpt lat="42.78709" lon="1.53745">
        <ele>869.83894807645</ele>
        <time>2017-06-10T11:33:15Z</time>
      </trkpt>
      <trkpt lat="42.78711" lon="1.53745">
        <ele>871.82799988669</ele>
        <time>2017-06-10T11:33:15Z</time>
      </trkpt>
      <trkpt lat="42.78713" lon="1.53744">
        <ele>871.82799988669</ele>
        <time>2017-06-10T11:33:15Z</time>
      </trkpt>
      <trkpt lat="42.78716" lon="1.53744">
        <ele>871.82799988669</ele>
        <time>2017-06-10T11:33:15Z</time>
      </trkpt>
      <trkpt lat="42.78721" lon="1.53746">
        <ele>873.16831597383</ele>
        <time>2017-06-10T11:33:43Z</time>
      </trkpt>
      <trkpt lat="42.7872" lon="1.53744">
        <ele>873.16831597383</ele>
        <time>2017-06-10T11:33:43Z</time>
      </trkpt>
      <trkpt lat="42.78718" lon="1.53742">
        <ele>873.16831597383</ele>
        <time>2017-06-10T11:33:43Z</time>
      </trkpt>
      <trkpt lat="42.78715" lon="1.53739">
        <ele>873.16831597383</ele>
        <time>2017-06-10T11:33:43Z</time>
      </trkpt>
      <trkpt lat="42.78712" lon="1.53737">
        <ele>875.20392838606</ele>
        <time>2017-06-10T11:33:43Z</time>
      </trkpt>
      <trkpt lat="42.78709" lon="1.53734">
        <ele>875.20392838606</ele>
        <time>2017-06-10T11:34:00Z</time>
      </trkpt>
      <trkpt lat="42.78705" lon="1.5373">
        <ele>875.20392838606</ele>
        <time>2017-06-10T11:34:00Z</time>
      </trkpt>
      <trkpt lat="42.78703" lon="1.53728">
        <ele>877.59294273118</ele>
        <time>2017-06-10T11:34:00Z</time>
      </trkpt>
      <trkpt lat="42.78702" lon="1.53725">
        <ele>877.59294273118</ele>
        <time>2017-06-10T11:34:00Z</time>
      </trkpt>
      <trkpt lat="42.78698" lon="1.53721">
        <ele>877.59294273118</ele>
        <time>2017-06-10T11:34:24Z</time>
      </trkpt>
      <trkpt lat="42.78696" lon="1.53721">
        <ele>879.44113080079</ele>
        <time>2017-06-10T11:34:24Z</time>
      </trkpt>
      <trkpt lat="42.78695" lon="1.53721">
        <ele>879.44113080079</ele>
        <time>2017-06-10T11:34:24Z</time>
      </trkpt>
      <trkpt lat="42.78695" lon="1.53718">
        <ele>879.44113080079</ele>
        <time>2017-06-10T11:34:24Z</time>
      </trkpt>
      <trkpt lat="42.78693" lon="1.53714">
        <ele>879.44113080079</ele>
        <time>2017-06-10T11:34:24Z</time>
      </trkpt>
      <trkpt lat="42.78691" lon="1.53708">
        <ele>880.78613215274</ele>
        <time>2017-06-10T11:34:51Z</time>
      </trkpt>
      <trkpt lat="42.78691" lon="1.53707">
        <ele>880.78613215274</ele>
        <time>2017-06-10T11:34:51Z</time>
      </trkpt>
      <trkpt lat="42.78689" lon="1.53704">
        <ele>880.78613215274</ele>
        <time>2017-06-10T11:34:51Z</time>
      </trkpt>
      <trkpt lat="42.78688" lon="1.53702">
        <ele>880.78613215274</ele>
        <time>2017-06-10T11:34:51Z</time>
      </trkpt>
      <trkpt lat="42.78687" lon="1.53699">
        <ele>880.78613215274</ele>
        <time>2017-06-10T11:34:51Z</time>
      </trkpt>
      <trkpt lat="42.78682" lon="1.53696">
        <ele>881.80834422313</ele>
        <time>2017-06-10T11:35:07Z</time>
      </trkpt>
      <trkpt lat="42.78679" lon="1.5369">
        <ele>881.80834422313</ele>
        <time>2017-06-10T11:35:07Z</time>
      </trkpt>
      <trkpt lat="42.78676" lon="1.53682">
        <ele>883.25226705051</ele>
        <time>2017-06-10T11:35:07Z</time>
      </trkpt>
      <trkpt lat="42.78674" lon="1.53675">
        <ele>883.25226705051</ele>
        <time>2017-06-10T11:35:07Z</time>
      </trkpt>
      <trkpt lat="42.78672" lon="1.53669">
        <ele>884.22130979783</ele>
        <time>2017-06-10T11:35:23Z</time>
      </trkpt>
      <trkpt lat="42.78671" lon="1.53662">
        <ele>884.22130979783</ele>
        <time>2017-06-10T11:35:23Z</time>
      </trkpt>
      <trkpt lat="42.78669" lon="1.53656">
        <ele>884.31841434244</ele>
        <time>2017-06-10T11:35:23Z</time>
      </trkpt>
      <trkpt lat="42.78666" lon="1.53651">
        <ele>884.31841434244</ele>
        <time>2017-06-10T11:35:23Z</time>
      </trkpt>
      <trkpt lat="42.78662" lon="1.53645">
        <ele>884.47513770932</ele>
        <time>2017-06-10T11:35:40Z</time>
      </trkpt>
      <trkpt lat="42.78659" lon="1.53639">
        <ele>884.47513770932</ele>
        <time>2017-06-10T11:35:40Z</time>
      </trkpt>
      <trkpt lat="42.78656" lon="1.53634">
        <ele>884.54565576773</ele>
        <time>2017-06-10T11:35:40Z</time>
      </trkpt>
      <trkpt lat="42.78654" lon="1.53628">
        <ele>884.54565576773</ele>
        <time>2017-06-10T11:35:40Z</time>
      </trkpt>
      <trkpt lat="42.7865" lon="1.53623">
        <ele>885.11564392672</ele>
        <time>2017-06-10T11:35:55Z</time>
      </trkpt>
      <trkpt lat="42.78647" lon="1.53619">
        <ele>885.11564392672</ele>
        <time>2017-06-10T11:35:55Z</time>
      </trkpt>
      <trkpt lat="42.78643" lon="1.53616">
        <ele>885.86166985105</ele>
        <time>2017-06-10T11:35:55Z</time>
      </trkpt>
      <trkpt lat="42.78639" lon="1.53612">
        <ele>885.86166985105</ele>
        <time>2017-06-10T11:35:55Z</time>
      </trkpt>
      <trkpt lat="42.78636" lon="1.53606">
        <ele>886.05121157717</ele>
        <time>2017-06-10T11:36:12Z</time>
      </trkpt>
      <trkpt lat="42.78634" lon="1.53604">
        <ele>886.05121157717</ele>
        <time>2017-06-10T11:36:12Z</time>
      </trkpt>
      <trkpt lat="42.78632" lon="1.536">
        <ele>886.05121157717</ele>
        <time>2017-06-10T11:36:12Z</time>
      </trkpt>
      <trkpt lat="42.78628" lon="1.53594">
        <ele>886.88053944407</ele>
        <time>2017-06-10T11:36:12Z</time>
      </trkpt>
      <trkpt lat="42.78625" lon="1.53588">
        <ele>886.88053944407</ele>
        <time>2017-06-10T11:36:27Z</time>
      </trkpt>
      <trkpt lat="42.78624" lon="1.53583">
        <ele>887.00633393573</ele>
        <time>2017-06-10T11:36:27Z</time>
      </trkpt>
      <trkpt lat="42.78623" lon="1.53581">
        <ele>887.00633393573</ele>
        <time>2017-06-10T11:36:27Z</time>
      </trkpt>
      <trkpt lat="42.78619" lon="1.53577">
        <ele>887.00633393573</ele>
        <time>2017-06-10T11:36:27Z</time>
      </trkpt>
      <trkpt lat="42.78616" lon="1.53575">
        <ele>887.34756508713</ele>
        <time>2017-06-10T11:36:56Z</time>
      </trkpt>
      <trkpt lat="42.78616" lon="1.53571">
        <ele>887.34756508713</ele>
        <time>2017-06-10T11:36:56Z</time>
      </trkpt>
      <trkpt lat="42.78616" lon="1.53566">
        <ele>887.34756508713</ele>
        <time>2017-06-10T11:36:56Z</time>
      </trkpt>
      <trkpt lat="42.78614" lon="1.53562">
        <ele>887.16983339431</ele>
        <time>2017-06-10T11:36:56Z</time>
      </trkpt>
      <trkpt lat="42.78613" lon="1.5356">
        <ele>887.16983339431</ele>
        <time>2017-06-10T11:36:56Z</time>
      </trkpt>
      <trkpt lat="42.78612" lon="1.53559">
        <ele>887.16983339431</ele>
        <time>2017-06-10T11:37:15Z</time>
      </trkpt>
      <trkpt lat="42.78612" lon="1.53558">
        <ele>887.16983339431</ele>
        <time>2017-06-10T11:37:15Z</time>
      </trkpt>
      <trkpt lat="42.7861" lon="1.53556">
        <ele>887.16983339431</ele>
        <time>2017-06-10T11:37:16Z</time>
      </trkpt>
      <trkpt lat="42.78607" lon="1.53551">
        <ele>887.95577291265</ele>
        <time>2017-06-10T11:37:16Z</time>
      </trkpt>
      <trkpt lat="42.78606" lon="1.53547">
        <ele>887.95577291265</ele>
        <time>2017-06-10T11:37:16Z</time>
      </trkpt>
      <trkpt lat="42.78605" lon="1.53545">
        <ele>887.95577291265</ele>
        <time>2017-06-10T11:37:31Z</time>
      </trkpt>
      <trkpt lat="42.78602" lon="1.53541">
        <ele>887.95577291265</ele>
        <time>2017-06-10T11:37:31Z</time>
      </trkpt>
      <trkpt lat="42.78601" lon="1.53537">
        <ele>888.91469240496</ele>
        <time>2017-06-10T11:37:31Z</time>
      </trkpt>
      <trkpt lat="42.786" lon="1.53534">
        <ele>888.91469240496</ele>
        <time>2017-06-10T11:37:31Z</time>
      </trkpt>
      <trkpt lat="42.78599" lon="1.53532">
        <ele>888.91469240496</ele>
        <time>2017-06-10T11:37:47Z</time>
      </trkpt>
      <trkpt lat="42.78599" lon="1.53514">
        <ele>890.0340133624</ele>
        <time>2017-06-10T11:37:47Z</time>
      </trkpt>
      <trkpt lat="42.78593" lon="1.53495">
        <ele>891.15747998079</ele>
        <time>2017-06-10T11:37:48Z</time>
      </trkpt>
      <trkpt lat="42.78592" lon="1.53489">
        <ele>891.15747998079</ele>
        <time>2017-06-10T11:37:48Z</time>
      </trkpt>
      <trkpt lat="42.7859" lon="1.53485">
        <ele>891.15747998079</ele>
        <time>2017-06-10T11:38:03Z</time>
      </trkpt>
      <trkpt lat="42.78588" lon="1.53482">
        <ele>891.4197091877</ele>
        <time>2017-06-10T11:38:03Z</time>
      </trkpt>
      <trkpt lat="42.78586" lon="1.53476">
        <ele>891.4197091877</ele>
        <time>2017-06-10T11:38:03Z</time>
      </trkpt>
      <trkpt lat="42.78585" lon="1.53473">
        <ele>891.4197091877</ele>
        <time>2017-06-10T11:38:03Z</time>
      </trkpt>
      <trkpt lat="42.78584" lon="1.53474">
        <ele>891.4197091877</ele>
        <time>2017-06-10T11:38:36Z</time>
      </trkpt>
      <trkpt lat="42.78584" lon="1.53474">
        <ele>891.4197091877</ele>
        <time>2017-06-10T11:38:36Z</time>
      </trkpt>
      <trkpt lat="42.78582" lon="1.53473">
        <ele>891.60649018114</ele>
        <time>2017-06-10T11:38:36Z</time>
      </trkpt>
      <trkpt lat="42.78577" lon="1.5347">
        <ele>891.60649018114</ele>
        <time>2017-06-10T11:38:36Z</time>
      </trkpt>
      <trkpt lat="42.78572" lon="1.53466">
        <ele>891.29317240689</ele>
        <time>2017-06-10T11:38:36Z</time>
      </trkpt>
      <trkpt lat="42.78566" lon="1.53463">
        <ele>891.29317240689</ele>
        <time>2017-06-10T11:38:51Z</time>
      </trkpt>
      <trkpt lat="42.7856" lon="1.53461">
        <ele>891.2405504761</ele>
        <time>2017-06-10T11:38:51Z</time>
      </trkpt>
      <trkpt lat="42.78557" lon="1.53461">
        <ele>891.2405504761</ele>
        <time>2017-06-10T11:38:51Z</time>
      </trkpt>
      <trkpt lat="42.78555" lon="1.5346">
        <ele>891.2405504761</ele>
        <time>2017-06-10T11:38:51Z</time>
      </trkpt>
      <trkpt lat="42.78554" lon="1.5346">
        <ele>891.2405504761</ele>
        <time>2017-06-10T11:39:15Z</time>
      </trkpt>
      <trkpt lat="42.78554" lon="1.5346">
        <ele>891.2405504761</ele>
        <time>2017-06-10T11:39:15Z</time>
      </trkpt>
      <trkpt lat="42.78553" lon="1.53456">
        <ele>891.14397539511</ele>
        <time>2017-06-10T11:39:15Z</time>
      </trkpt>
      <trkpt lat="42.78552" lon="1.53454">
        <ele>891.14397539511</ele>
        <time>2017-06-10T11:39:15Z</time>
      </trkpt>
      <trkpt lat="42.78552" lon="1.53448">
        <ele>891.14397539511</ele>
        <time>2017-06-10T11:39:15Z</time>
      </trkpt>
      <trkpt lat="42.78549" lon="1.53446">
        <ele>891.58591713702</ele>
        <time>2017-06-10T11:39:43Z</time>
      </trkpt>
      <trkpt lat="42.78549" lon="1.53446">
        <ele>891.58591713702</ele>
        <time>2017-06-10T11:39:43Z</time>
      </trkpt>
      <trkpt lat="42.78549" lon="1.53443">
        <ele>891.58591713702</ele>
        <time>2017-06-10T11:39:43Z</time>
      </trkpt>
      <trkpt lat="42.78548" lon="1.53437">
        <ele>891.58591713702</ele>
        <time>2017-06-10T11:39:43Z</time>
      </trkpt>
      <trkpt lat="42.78546" lon="1.53431">
        <ele>892.3839380442</ele>
        <time>2017-06-10T11:39:43Z</time>
      </trkpt>
      <trkpt lat="42.78543" lon="1.53428">
        <ele>892.3839380442</ele>
        <time>2017-06-10T11:39:59Z</time>
      </trkpt>
      <trkpt lat="42.78541" lon="1.53423">
        <ele>892.3839380442</ele>
        <time>2017-06-10T11:39:59Z</time>
      </trkpt>
      <trkpt lat="42.78538" lon="1.5342">
        <ele>893.22383870137</ele>
        <time>2017-06-10T11:39:59Z</time>
      </trkpt>
      <trkpt lat="42.78538" lon="1.53417">
        <ele>893.22383870137</ele>
        <time>2017-06-10T11:39:59Z</time>
      </trkpt>
      <trkpt lat="42.78537" lon="1.53413">
        <ele>893.22383870137</ele>
        <time>2017-06-10T11:40:23Z</time>
      </trkpt>
      <trkpt lat="42.78536" lon="1.53412">
        <ele>893.22383870137</ele>
        <time>2017-06-10T11:40:24Z</time>
      </trkpt>
      <trkpt lat="42.78536" lon="1.53412">
        <ele>893.22383870137</ele>
        <time>2017-06-10T11:40:24Z</time>
      </trkpt>
      <trkpt lat="42.78534" lon="1.53408">
        <ele>895.11133371943</ele>
        <time>2017-06-10T11:40:24Z</time>
      </trkpt>
      <trkpt lat="42.7853" lon="1.53402">
        <ele>895.11133371943</ele>
        <time>2017-06-10T11:40:24Z</time>
      </trkpt>
      <trkpt lat="42.78524" lon="1.53397">
        <ele>896.66949693367</ele>
        <time>2017-06-10T11:40:47Z</time>
      </trkpt>
      <trkpt lat="42.78524" lon="1.53395">
        <ele>896.66949693367</ele>
        <time>2017-06-10T11:40:47Z</time>
      </trkpt>
      <trkpt lat="42.78525" lon="1.53392">
        <ele>896.66949693367</ele>
        <time>2017-06-10T11:40:48Z</time>
      </trkpt>
      <trkpt lat="42.78526" lon="1.53387">
        <ele>896.66949693367</ele>
        <time>2017-06-10T11:40:48Z</time>
      </trkpt>
      <trkpt lat="42.78526" lon="1.53382">
        <ele>898.64099496018</ele>
        <time>2017-06-10T11:40:48Z</time>
      </trkpt>
      <trkpt lat="42.78524" lon="1.53377">
        <ele>898.64099496018</ele>
        <time>2017-06-10T11:41:03Z</time>
      </trkpt>
      <trkpt lat="42.78524" lon="1.53372">
        <ele>898.64099496018</ele>
        <time>2017-06-10T11:41:03Z</time>
      </trkpt>
      <trkpt lat="42.78525" lon="1.53367">
        <ele>900.84808680577</ele>
        <time>2017-06-10T11:41:03Z</time>
      </trkpt>
      <trkpt lat="42.78526" lon="1.53363">
        <ele>900.84808680577</ele>
        <time>2017-06-10T11:41:03Z</time>
      </trkpt>
      <trkpt lat="42.78524" lon="1.53352">
        <ele>903.12541380362</ele>
        <time>2017-06-10T11:41:39Z</time>
      </trkpt>
      <trkpt lat="42.78525" lon="1.53351">
        <ele>903.12541380362</ele>
        <time>2017-06-10T11:41:39Z</time>
      </trkpt>
      <trkpt lat="42.78527" lon="1.53349">
        <ele>903.12541380362</ele>
        <time>2017-06-10T11:41:39Z</time>
      </trkpt>
      <trkpt lat="42.78528" lon="1.53347">
        <ele>903.12541380362</ele>
        <time>2017-06-10T11:41:39Z</time>
      </trkpt>
      <trkpt lat="42.78528" lon="1.53345">
        <ele>903.12541380362</ele>
        <time>2017-06-10T11:41:39Z</time>
      </trkpt>
      <trkpt lat="42.78528" lon="1.53344">
        <ele>903.12541380362</ele>
        <time>2017-06-10T11:42:04Z</time>
      </trkpt>
      <trkpt lat="42.78528" lon="1.53343">
        <ele>903.12541380362</ele>
        <time>2017-06-10T11:42:04Z</time>
      </trkpt>
      <trkpt lat="42.78528" lon="1.53339">
        <ele>906.76067974236</ele>
        <time>2017-06-10T11:42:04Z</time>
      </trkpt>
      <trkpt lat="42.78527" lon="1.53332">
        <ele>906.76067974236</ele>
        <time>2017-06-10T11:42:04Z</time>
      </trkpt>
      <trkpt lat="42.78528" lon="1.5333">
        <ele>906.76067974236</ele>
        <time>2017-06-10T11:42:04Z</time>
      </trkpt>
      <trkpt lat="42.78529" lon="1.53327">
        <ele>910.49331213326</ele>
        <time>2017-06-10T11:42:19Z</time>
      </trkpt>
      <trkpt lat="42.78531" lon="1.53322">
        <ele>910.49331213326</ele>
        <time>2017-06-10T11:42:19Z</time>
      </trkpt>
      <trkpt lat="42.78533" lon="1.53316">
        <ele>912.72276544133</ele>
        <time>2017-06-10T11:42:19Z</time>
      </trkpt>
      <trkpt lat="42.78537" lon="1.5331">
        <ele>912.72276544133</ele>
        <time>2017-06-10T11:42:19Z</time>
      </trkpt>
      <trkpt lat="42.78541" lon="1.53305">
        <ele>914.13200031023</ele>
        <time>2017-06-10T11:42:35Z</time>
      </trkpt>
      <trkpt lat="42.78537" lon="1.53298">
        <ele>914.13200031023</ele>
        <time>2017-06-10T11:42:35Z</time>
      </trkpt>
      <trkpt lat="42.78537" lon="1.53291">
        <ele>915.35616545716</ele>
        <time>2017-06-10T11:42:36Z</time>
      </trkpt>
      <trkpt lat="42.78534" lon="1.53285">
        <ele>915.35616545716</ele>
        <time>2017-06-10T11:42:36Z</time>
      </trkpt>
      <trkpt lat="42.78535" lon="1.53281">
        <ele>915.35616545716</ele>
        <time>2017-06-10T11:42:51Z</time>
      </trkpt>
      <trkpt lat="42.78537" lon="1.53276">
        <ele>916.40788772424</ele>
        <time>2017-06-10T11:42:51Z</time>
      </trkpt>
      <trkpt lat="42.78537" lon="1.53271">
        <ele>916.40788772424</ele>
        <time>2017-06-10T11:42:51Z</time>
      </trkpt>
      <trkpt lat="42.78538" lon="1.53268">
        <ele>916.40788772424</ele>
        <time>2017-06-10T11:42:51Z</time>
      </trkpt>
      <trkpt lat="42.78539" lon="1.53267">
        <ele>916.40788772424</ele>
        <time>2017-06-10T11:43:07Z</time>
      </trkpt>
      <trkpt lat="42.78543" lon="1.53261">
        <ele>918.59641335032</ele>
        <time>2017-06-10T11:43:07Z</time>
      </trkpt>
      <trkpt lat="42.78551" lon="1.53254">
        <ele>921.11413081908</ele>
        <time>2017-06-10T11:43:07Z</time>
      </trkpt>
      <trkpt lat="42.78554" lon="1.53248">
        <ele>921.11413081908</ele>
        <time>2017-06-10T11:43:07Z</time>
      </trkpt>
      <trkpt lat="42.78555" lon="1.53238">
        <ele>923.93245554318</ele>
        <time>2017-06-10T11:43:39Z</time>
      </trkpt>
      <trkpt lat="42.78555" lon="1.53238">
        <ele>923.93245554318</ele>
        <time>2017-06-10T11:43:39Z</time>
      </trkpt>
      <trkpt lat="42.78555" lon="1.53238">
        <ele>923.93245554318</ele>
        <time>2017-06-10T11:43:39Z</time>
      </trkpt>
      <trkpt lat="42.78557" lon="1.53235">
        <ele>923.93245554318</ele>
        <time>2017-06-10T11:43:39Z</time>
      </trkpt>
      <trkpt lat="42.78562" lon="1.53229">
        <ele>927.0241342573</ele>
        <time>2017-06-10T11:43:39Z</time>
      </trkpt>
      <trkpt lat="42.78562" lon="1.53225">
        <ele>927.0241342573</ele>
        <time>2017-06-10T11:43:56Z</time>
      </trkpt>
      <trkpt lat="42.78563" lon="1.53221">
        <ele>927.0241342573</ele>
        <time>2017-06-10T11:43:56Z</time>
      </trkpt>
      <trkpt lat="42.78566" lon="1.53215">
        <ele>929.35445351495</ele>
        <time>2017-06-10T11:43:56Z</time>
      </trkpt>
      <trkpt lat="42.78566" lon="1.53214">
        <ele>929.35445351495</ele>
        <time>2017-06-10T11:43:56Z</time>
      </trkpt>
      <trkpt lat="42.78561" lon="1.53206">
        <ele>929.35445351495</ele>
        <time>2017-06-10T11:44:55Z</time>
      </trkpt>
      <trkpt lat="42.78561" lon="1.53206">
        <ele>929.35445351495</ele>
        <time>2017-06-10T11:44:55Z</time>
      </trkpt>
      <trkpt lat="42.78561" lon="1.53206">
        <ele>929.35445351495</ele>
        <time>2017-06-10T11:44:55Z</time>
      </trkpt>
      <trkpt lat="42.78559" lon="1.53204">
        <ele>932.56093821696</ele>
        <time>2017-06-10T11:44:55Z</time>
      </trkpt>
      <trkpt lat="42.78556" lon="1.53203">
        <ele>932.56093821696</ele>
        <time>2017-06-10T11:44:55Z</time>
      </trkpt>
      <trkpt lat="42.78556" lon="1.53193">
        <ele>934.26746054654</ele>
        <time>2017-06-10T11:46:40Z</time>
      </trkpt>
      <trkpt lat="42.78554" lon="1.53188">
        <ele>934.26746054654</ele>
        <time>2017-06-10T11:46:40Z</time>
      </trkpt>
      <trkpt lat="42.7855" lon="1.53185">
        <ele>936.31186512158</ele>
        <time>2017-06-10T11:46:40Z</time>
      </trkpt>
      <trkpt lat="42.78547" lon="1.53181">
        <ele>936.31186512158</ele>
        <time>2017-06-10T11:46:40Z</time>
      </trkpt>
      <trkpt lat="42.78545" lon="1.53176">
        <ele>936.31186512158</ele>
        <time>2017-06-10T11:46:40Z</time>
      </trkpt>
      <trkpt lat="42.78543" lon="1.53171">
        <ele>937.94625625098</ele>
        <time>2017-06-10T11:46:55Z</time>
      </trkpt>
      <trkpt lat="42.78542" lon="1.53166">
        <ele>937.94625625098</ele>
        <time>2017-06-10T11:46:55Z</time>
      </trkpt>
      <trkpt lat="42.78539" lon="1.53162">
        <ele>937.94625625098</ele>
        <time>2017-06-10T11:46:55Z</time>
      </trkpt>
      <trkpt lat="42.78537" lon="1.53158">
        <ele>938.62304160544</ele>
        <time>2017-06-10T11:46:55Z</time>
      </trkpt>
      <trkpt lat="42.7853" lon="1.53148">
        <ele>940.14341719386</ele>
        <time>2017-06-10T11:47:27Z</time>
      </trkpt>
      <trkpt lat="42.7853" lon="1.53148">
        <ele>940.14341719386</ele>
        <time>2017-06-10T11:47:27Z</time>
      </trkpt>
      <trkpt lat="42.78531" lon="1.53147">
        <ele>940.14341719386</ele>
        <time>2017-06-10T11:47:27Z</time>
      </trkpt>
      <trkpt lat="42.78531" lon="1.53146">
        <ele>940.14341719386</ele>
        <time>2017-06-10T11:47:27Z</time>
      </trkpt>
      <trkpt lat="42.7853" lon="1.53145">
        <ele>940.14341719386</ele>
        <time>2017-06-10T11:47:27Z</time>
      </trkpt>
      <trkpt lat="42.78528" lon="1.53139">
        <ele>940.14341719386</ele>
        <time>2017-06-10T11:47:43Z</time>
      </trkpt>
      <trkpt lat="42.78523" lon="1.53134">
        <ele>941.8682112341</ele>
        <time>2017-06-10T11:47:44Z</time>
      </trkpt>
      <trkpt lat="42.7852" lon="1.5313">
        <ele>941.8682112341</ele>
        <time>2017-06-10T11:47:44Z</time>
      </trkpt>
      <trkpt lat="42.78518" lon="1.53126">
        <ele>941.8682112341</ele>
        <time>2017-06-10T11:47:44Z</time>
      </trkpt>
      <trkpt lat="42.78518" lon="1.53119">
        <ele>943.92527464135</ele>
        <time>2017-06-10T11:48:07Z</time>
      </trkpt>
      <trkpt lat="42.78517" lon="1.53116">
        <ele>943.92527464135</ele>
        <time>2017-06-10T11:48:07Z</time>
      </trkpt>
      <trkpt lat="42.78517" lon="1.53113">
        <ele>943.92527464135</ele>
        <time>2017-06-10T11:48:08Z</time>
      </trkpt>
      <trkpt lat="42.78517" lon="1.5311">
        <ele>943.92527464135</ele>
        <time>2017-06-10T11:48:08Z</time>
      </trkpt>
      <trkpt lat="42.78515" lon="1.53106">
        <ele>946.28810717666</ele>
        <time>2017-06-10T11:48:08Z</time>
      </trkpt>
      <trkpt lat="42.78516" lon="1.531">
        <ele>946.28810717666</ele>
        <time>2017-06-10T11:48:23Z</time>
      </trkpt>
      <trkpt lat="42.78516" lon="1.53095">
        <ele>946.28810717666</ele>
        <time>2017-06-10T11:48:23Z</time>
      </trkpt>
      <trkpt lat="42.78515" lon="1.53089">
        <ele>948.35493579611</ele>
        <time>2017-06-10T11:48:23Z</time>
      </trkpt>
      <trkpt lat="42.78515" lon="1.53087">
        <ele>948.35493579611</ele>
        <time>2017-06-10T11:48:23Z</time>
      </trkpt>
      <trkpt lat="42.78514" lon="1.5308">
        <ele>948.35493579611</ele>
        <time>2017-06-10T11:49:11Z</time>
      </trkpt>
      <trkpt lat="42.78514" lon="1.5308">
        <ele>948.35493579611</ele>
        <time>2017-06-10T11:49:11Z</time>
      </trkpt>
      <trkpt lat="42.78514" lon="1.5308">
        <ele>948.35493579611</ele>
        <time>2017-06-10T11:49:11Z</time>
      </trkpt>
      <trkpt lat="42.78512" lon="1.53076">
        <ele>950.5778850696</ele>
        <time>2017-06-10T11:49:11Z</time>
      </trkpt>
      <trkpt lat="42.78508" lon="1.53066">
        <ele>950.5778850696</ele>
        <time>2017-06-10T11:49:11Z</time>
      </trkpt>
      <trkpt lat="42.78507" lon="1.53058">
        <ele>952.65495651304</ele>
        <time>2017-06-10T11:49:28Z</time>
      </trkpt>
      <trkpt lat="42.78503" lon="1.53052">
        <ele>952.65495651304</ele>
        <time>2017-06-10T11:49:28Z</time>
      </trkpt>
      <trkpt lat="42.78499" lon="1.53048">
        <ele>955.31560827417</ele>
        <time>2017-06-10T11:49:28Z</time>
      </trkpt>
      <trkpt lat="42.78495" lon="1.53045">
        <ele>955.31560827417</ele>
        <time>2017-06-10T11:49:28Z</time>
      </trkpt>
      <trkpt lat="42.78489" lon="1.53043">
        <ele>958.36949522038</ele>
        <time>2017-06-10T11:49:55Z</time>
      </trkpt>
      <trkpt lat="42.78488" lon="1.53041">
        <ele>958.36949522038</ele>
        <time>2017-06-10T11:49:55Z</time>
      </trkpt>
      <trkpt lat="42.78486" lon="1.5304">
        <ele>958.36949522038</ele>
        <time>2017-06-10T11:49:55Z</time>
      </trkpt>
      <trkpt lat="42.78484" lon="1.53039">
        <ele>958.36949522038</ele>
        <time>2017-06-10T11:49:55Z</time>
      </trkpt>
      <trkpt lat="42.78481" lon="1.53036">
        <ele>961.06279587393</ele>
        <time>2017-06-10T11:49:55Z</time>
      </trkpt>
      <trkpt lat="42.78478" lon="1.53035">
        <ele>961.06279587393</ele>
        <time>2017-06-10T11:50:15Z</time>
      </trkpt>
      <trkpt lat="42.78474" lon="1.53033">
        <ele>961.06279587393</ele>
        <time>2017-06-10T11:50:15Z</time>
      </trkpt>
      <trkpt lat="42.78473" lon="1.53029">
        <ele>964.13927999885</ele>
        <time>2017-06-10T11:50:15Z</time>
      </trkpt>
      <trkpt lat="42.78472" lon="1.53026">
        <ele>964.13927999885</ele>
        <time>2017-06-10T11:50:15Z</time>
      </trkpt>
      <trkpt lat="42.78472" lon="1.53025">
        <ele>964.13927999885</ele>
        <time>2017-06-10T11:50:15Z</time>
      </trkpt>
      <trkpt lat="42.78477" lon="1.53023">
        <ele>964.13927999885</ele>
        <time>2017-06-10T11:50:47Z</time>
      </trkpt>
      <trkpt lat="42.78478" lon="1.53023">
        <ele>964.13927999885</ele>
        <time>2017-06-10T11:50:47Z</time>
      </trkpt>
      <trkpt lat="42.78478" lon="1.53023">
        <ele>964.13927999885</ele>
        <time>2017-06-10T11:50:47Z</time>
      </trkpt>
      <trkpt lat="42.78479" lon="1.53024">
        <ele>967.85477057352</ele>
        <time>2017-06-10T11:50:47Z</time>
      </trkpt>
      <trkpt lat="42.78484" lon="1.53026">
        <ele>967.85477057352</ele>
        <time>2017-06-10T11:50:47Z</time>
      </trkpt>
      <trkpt lat="42.78488" lon="1.53026">
        <ele>971.4358320394</ele>
        <time>2017-06-10T11:51:04Z</time>
      </trkpt>
      <trkpt lat="42.78494" lon="1.53027">
        <ele>971.4358320394</ele>
        <time>2017-06-10T11:51:04Z</time>
      </trkpt>
      <trkpt lat="42.785" lon="1.53029">
        <ele>975.89566933566</ele>
        <time>2017-06-10T11:51:04Z</time>
      </trkpt>
      <trkpt lat="42.78503" lon="1.5303">
        <ele>975.89566933566</ele>
        <time>2017-06-10T11:51:04Z</time>
      </trkpt>
      <trkpt lat="42.78505" lon="1.5303">
        <ele>975.89566933566</ele>
        <time>2017-06-10T11:51:23Z</time>
      </trkpt>
      <trkpt lat="42.78504" lon="1.53027">
        <ele>975.89566933566</ele>
        <time>2017-06-10T11:51:23Z</time>
      </trkpt>
      <trkpt lat="42.78504" lon="1.53025">
        <ele>979.86493662469</ele>
        <time>2017-06-10T11:51:23Z</time>
      </trkpt>
      <trkpt lat="42.78502" lon="1.53022">
        <ele>979.86493662469</ele>
        <time>2017-06-10T11:51:23Z</time>
      </trkpt>
      <trkpt lat="42.78501" lon="1.53017">
        <ele>979.86493662469</ele>
        <time>2017-06-10T11:51:23Z</time>
      </trkpt>
      <trkpt lat="42.78499" lon="1.53012">
        <ele>982.65283072466</ele>
        <time>2017-06-10T11:51:40Z</time>
      </trkpt>
      <trkpt lat="42.78498" lon="1.53008">
        <ele>982.65283072466</ele>
        <time>2017-06-10T11:51:40Z</time>
      </trkpt>
      <trkpt lat="42.78496" lon="1.53004">
        <ele>982.65283072466</ele>
        <time>2017-06-10T11:51:40Z</time>
      </trkpt>
      <trkpt lat="42.78493" lon="1.53">
        <ele>985.49619014814</ele>
        <time>2017-06-10T11:51:40Z</time>
      </trkpt>
      <trkpt lat="42.78485" lon="1.52996">
        <ele>985.49619014814</ele>
        <time>2017-06-10T11:52:07Z</time>
      </trkpt>
      <trkpt lat="42.78484" lon="1.52997">
        <ele>988.82042478732</ele>
        <time>2017-06-10T11:52:07Z</time>
      </trkpt>
      <trkpt lat="42.78483" lon="1.52996">
        <ele>988.82042478732</ele>
        <time>2017-06-10T11:52:07Z</time>
      </trkpt>
      <trkpt lat="42.78482" lon="1.52995">
        <ele>988.82042478732</ele>
        <time>2017-06-10T11:52:07Z</time>
      </trkpt>
      <trkpt lat="42.7848" lon="1.5299">
        <ele>988.82042478732</ele>
        <time>2017-06-10T11:52:07Z</time>
      </trkpt>
      <trkpt lat="42.78474" lon="1.52984">
        <ele>992.00970784398</ele>
        <time>2017-06-10T11:52:24Z</time>
      </trkpt>
      <trkpt lat="42.7847" lon="1.52979">
        <ele>992.00970784398</ele>
        <time>2017-06-10T11:52:24Z</time>
      </trkpt>
      <trkpt lat="42.78467" lon="1.52975">
        <ele>994.20574558255</ele>
        <time>2017-06-10T11:52:24Z</time>
      </trkpt>
      <trkpt lat="42.78464" lon="1.52969">
        <ele>994.20574558255</ele>
        <time>2017-06-10T11:52:24Z</time>
      </trkpt>
      <trkpt lat="42.78462" lon="1.52964">
        <ele>995.7691040295</ele>
        <time>2017-06-10T11:52:39Z</time>
      </trkpt>
      <trkpt lat="42.78459" lon="1.5296">
        <ele>995.7691040295</ele>
        <time>2017-06-10T11:52:39Z</time>
      </trkpt>
      <trkpt lat="42.78455" lon="1.52959">
        <ele>995.7691040295</ele>
        <time>2017-06-10T11:52:39Z</time>
      </trkpt>
      <trkpt lat="42.78451" lon="1.52954">
        <ele>998.04454402451</ele>
        <time>2017-06-10T11:52:39Z</time>
      </trkpt>
      <trkpt lat="42.78448" lon="1.52951">
        <ele>998.04454402451</ele>
        <time>2017-06-10T11:52:56Z</time>
      </trkpt>
      <trkpt lat="42.78444" lon="1.52946">
        <ele>1000.5468305865</ele>
        <time>2017-06-10T11:52:56Z</time>
      </trkpt>
      <trkpt lat="42.78443" lon="1.5294">
        <ele>1000.5468305865</ele>
        <time>2017-06-10T11:52:56Z</time>
      </trkpt>
      <trkpt lat="42.7844" lon="1.52936">
        <ele>1000.5468305865</ele>
        <time>2017-06-10T11:52:56Z</time>
      </trkpt>
      <trkpt lat="42.78439" lon="1.52932">
        <ele>1002.1052928112</ele>
        <time>2017-06-10T11:53:11Z</time>
      </trkpt>
      <trkpt lat="42.78439" lon="1.52927">
        <ele>1002.1052928112</ele>
        <time>2017-06-10T11:53:11Z</time>
      </trkpt>
      <trkpt lat="42.78438" lon="1.52921">
        <ele>1002.1052928112</ele>
        <time>2017-06-10T11:53:11Z</time>
      </trkpt>
      <trkpt lat="42.78437" lon="1.52917">
        <ele>1002.6467821654</ele>
        <time>2017-06-10T11:53:11Z</time>
      </trkpt>
      <trkpt lat="42.78437" lon="1.52916">
        <ele>1002.6467821654</ele>
        <time>2017-06-10T11:53:51Z</time>
      </trkpt>
      <trkpt lat="42.78438" lon="1.52917">
        <ele>1002.6467821654</ele>
        <time>2017-06-10T11:53:52Z</time>
      </trkpt>
      <trkpt lat="42.78442" lon="1.52919">
        <ele>1002.6467821654</ele>
        <time>2017-06-10T11:53:52Z</time>
      </trkpt>
      <trkpt lat="42.78445" lon="1.5292">
        <ele>1002.6467821654</ele>
        <time>2017-06-10T11:53:52Z</time>
      </trkpt>
      <trkpt lat="42.78448" lon="1.52923">
        <ele>1004.8445784082</ele>
        <time>2017-06-10T11:53:52Z</time>
      </trkpt>
      <trkpt lat="42.78452" lon="1.52926">
        <ele>1004.8445784082</ele>
        <time>2017-06-10T11:54:11Z</time>
      </trkpt>
      <trkpt lat="42.78456" lon="1.52929">
        <ele>1004.8445784082</ele>
        <time>2017-06-10T11:54:11Z</time>
      </trkpt>
      <trkpt lat="42.78457" lon="1.5293">
        <ele>1007.8564607761</ele>
        <time>2017-06-10T11:54:11Z</time>
      </trkpt>
      <trkpt lat="42.7846" lon="1.52933">
        <ele>1007.8564607761</ele>
        <time>2017-06-10T11:54:11Z</time>
      </trkpt>
      <trkpt lat="42.78464" lon="1.52935">
        <ele>1007.8564607761</ele>
        <time>2017-06-10T11:54:11Z</time>
      </trkpt>
      <trkpt lat="42.78469" lon="1.52933">
        <ele>1011.1880891769</ele>
        <time>2017-06-10T11:54:43Z</time>
      </trkpt>
      <trkpt lat="42.78471" lon="1.52932">
        <ele>1011.1880891769</ele>
        <time>2017-06-10T11:54:43Z</time>
      </trkpt>
      <trkpt lat="42.78471" lon="1.52932">
        <ele>1011.1880891769</ele>
        <time>2017-06-10T11:54:43Z</time>
      </trkpt>
      <trkpt lat="42.78471" lon="1.52931">
        <ele>1011.1880891769</ele>
        <time>2017-06-10T11:54:43Z</time>
      </trkpt>
      <trkpt lat="42.78471" lon="1.52927">
        <ele>1011.1880891769</ele>
        <time>2017-06-10T11:54:43Z</time>
      </trkpt>
      <trkpt lat="42.7847" lon="1.52924">
        <ele>1011.1880891769</ele>
        <time>2017-06-10T11:55:03Z</time>
      </trkpt>
      <trkpt lat="42.7847" lon="1.52921">
        <ele>1013.9482761305</ele>
        <time>2017-06-10T11:55:03Z</time>
      </trkpt>
      <trkpt lat="42.78469" lon="1.52918">
        <ele>1013.9482761305</ele>
        <time>2017-06-10T11:55:03Z</time>
      </trkpt>
      <trkpt lat="42.78468" lon="1.52914">
        <ele>1013.9482761305</ele>
        <time>2017-06-10T11:55:03Z</time>
      </trkpt>
      <trkpt lat="42.78468" lon="1.5291">
        <ele>1013.9482761305</ele>
        <time>2017-06-10T11:55:03Z</time>
      </trkpt>
      <trkpt lat="42.78468" lon="1.52906">
        <ele>1017.1864184477</ele>
        <time>2017-06-10T11:55:23Z</time>
      </trkpt>
      <trkpt lat="42.78468" lon="1.52903">
        <ele>1017.1864184477</ele>
        <time>2017-06-10T11:55:24Z</time>
      </trkpt>
      <trkpt lat="42.78468" lon="1.529">
        <ele>1017.1864184477</ele>
        <time>2017-06-10T11:55:24Z</time>
      </trkpt>
      <trkpt lat="42.78468" lon="1.52897">
        <ele>1017.1864184477</ele>
        <time>2017-06-10T11:55:24Z</time>
      </trkpt>
      <trkpt lat="42.78466" lon="1.52894">
        <ele>1020.2883326803</ele>
        <time>2017-06-10T11:55:24Z</time>
      </trkpt>
      <trkpt lat="42.78464" lon="1.52889">
        <ele>1020.2883326803</ele>
        <time>2017-06-10T11:55:47Z</time>
      </trkpt>
      <trkpt lat="42.78464" lon="1.52886">
        <ele>1020.2883326803</ele>
        <time>2017-06-10T11:55:48Z</time>
      </trkpt>
      <trkpt lat="42.78463" lon="1.52883">
        <ele>1020.2883326803</ele>
        <time>2017-06-10T11:55:48Z</time>
      </trkpt>
      <trkpt lat="42.78462" lon="1.52881">
        <ele>1022.2530723298</ele>
        <time>2017-06-10T11:55:48Z</time>
      </trkpt>
      <trkpt lat="42.78462" lon="1.52879">
        <ele>1022.2530723298</ele>
        <time>2017-06-10T11:55:48Z</time>
      </trkpt>
      <trkpt lat="42.78461" lon="1.52876">
        <ele>1022.2530723298</ele>
        <time>2017-06-10T11:56:03Z</time>
      </trkpt>
      <trkpt lat="42.7846" lon="1.52873">
        <ele>1022.2530723298</ele>
        <time>2017-06-10T11:56:03Z</time>
      </trkpt>
      <trkpt lat="42.78458" lon="1.5287">
        <ele>1024.0299230159</ele>
        <time>2017-06-10T11:56:03Z</time>
      </trkpt>
      <trkpt lat="42.78456" lon="1.52865">
        <ele>1024.0299230159</ele>
        <time>2017-06-10T11:56:03Z</time>
      </trkpt>
      <trkpt lat="42.78454" lon="1.52859">
        <ele>1024.0299230159</ele>
        <time>2017-06-10T11:56:19Z</time>
      </trkpt>
      <trkpt lat="42.78453" lon="1.52855">
        <ele>1026.4990275489</ele>
        <time>2017-06-10T11:56:19Z</time>
      </trkpt>
      <trkpt lat="42.78452" lon="1.5285">
        <ele>1026.4990275489</ele>
        <time>2017-06-10T11:56:19Z</time>
      </trkpt>
      <trkpt lat="42.78451" lon="1.52845">
        <ele>1026.4990275489</ele>
        <time>2017-06-10T11:56:19Z</time>
      </trkpt>
      <trkpt lat="42.7845" lon="1.52837">
        <ele>1029.3211016977</ele>
        <time>2017-06-10T11:56:43Z</time>
      </trkpt>
      <trkpt lat="42.78449" lon="1.52837">
        <ele>1029.3211016977</ele>
        <time>2017-06-10T11:56:43Z</time>
      </trkpt>
      <trkpt lat="42.78449" lon="1.52836">
        <ele>1029.3211016977</ele>
        <time>2017-06-10T11:56:44Z</time>
      </trkpt>
      <trkpt lat="42.78448" lon="1.52832">
        <ele>1029.3211016977</ele>
        <time>2017-06-10T11:56:44Z</time>
      </trkpt>
      <trkpt lat="42.78447" lon="1.52825">
        <ele>1032.1808489269</ele>
        <time>2017-06-10T11:56:44Z</time>
      </trkpt>
      <trkpt lat="42.78446" lon="1.52817">
        <ele>1032.1808489269</ele>
        <time>2017-06-10T12:07:07Z</time>
      </trkpt>
      <trkpt lat="42.78446" lon="1.52816">
        <ele>1032.1808489269</ele>
        <time>2017-06-10T12:07:07Z</time>
      </trkpt>
      <trkpt lat="42.78446" lon="1.52812">
        <ele>1035.5066367386</ele>
        <time>2017-06-10T12:07:07Z</time>
      </trkpt>
      <trkpt lat="42.78446" lon="1.52809">
        <ele>1035.5066367386</ele>
        <time>2017-06-10T12:07:07Z</time>
      </trkpt>
      <trkpt lat="42.78446" lon="1.52807">
        <ele>1035.5066367386</ele>
        <time>2017-06-10T12:07:07Z</time>
      </trkpt>
      <trkpt lat="42.78444" lon="1.52806">
        <ele>1035.5066367386</ele>
        <time>2017-06-10T12:07:23Z</time>
      </trkpt>
      <trkpt lat="42.78444" lon="1.528">
        <ele>1037.8206635574</ele>
        <time>2017-06-10T12:07:23Z</time>
      </trkpt>
      <trkpt lat="42.78443" lon="1.52796">
        <ele>1037.8206635574</ele>
        <time>2017-06-10T12:07:23Z</time>
      </trkpt>
      <trkpt lat="42.78442" lon="1.52792">
        <ele>1037.8206635574</ele>
        <time>2017-06-10T12:07:23Z</time>
      </trkpt>
      <trkpt lat="42.78441" lon="1.52788">
        <ele>1039.7741301318</ele>
        <time>2017-06-10T12:07:43Z</time>
      </trkpt>
      <trkpt lat="42.7844" lon="1.52784">
        <ele>1039.7741301318</ele>
        <time>2017-06-10T12:07:43Z</time>
      </trkpt>
      <trkpt lat="42.78439" lon="1.52781">
        <ele>1039.7741301318</ele>
        <time>2017-06-10T12:07:43Z</time>
      </trkpt>
      <trkpt lat="42.78437" lon="1.52779">
        <ele>1039.7741301318</ele>
        <time>2017-06-10T12:07:43Z</time>
      </trkpt>
      <trkpt lat="42.78436" lon="1.52776">
        <ele>1039.9538982994</ele>
        <time>2017-06-10T12:07:43Z</time>
      </trkpt>
      <trkpt lat="42.78433" lon="1.52774">
        <ele>1039.9538982994</ele>
        <time>2017-06-10T12:07:59Z</time>
      </trkpt>
      <trkpt lat="42.78431" lon="1.5277">
        <ele>1039.9538982994</ele>
        <time>2017-06-10T12:07:59Z</time>
      </trkpt>
      <trkpt lat="42.78429" lon="1.52767">
        <ele>1041.6672060636</ele>
        <time>2017-06-10T12:07:59Z</time>
      </trkpt>
      <trkpt lat="42.78428" lon="1.52762">
        <ele>1041.6672060636</ele>
        <time>2017-06-10T12:07:59Z</time>
      </trkpt>
      <trkpt lat="42.78426" lon="1.52759">
        <ele>1041.6672060636</ele>
        <time>2017-06-10T12:08:15Z</time>
      </trkpt>
      <trkpt lat="42.78426" lon="1.52755">
        <ele>1043.074285078</ele>
        <time>2017-06-10T12:08:15Z</time>
      </trkpt>
      <trkpt lat="42.78426" lon="1.5275">
        <ele>1043.074285078</ele>
        <time>2017-06-10T12:08:15Z</time>
      </trkpt>
      <trkpt lat="42.78426" lon="1.52746">
        <ele>1043.074285078</ele>
        <time>2017-06-10T12:08:15Z</time>
      </trkpt>
      <trkpt lat="42.78428" lon="1.52742">
        <ele>1041.8949361488</ele>
        <time>2017-06-10T12:08:31Z</time>
      </trkpt>
      <trkpt lat="42.78426" lon="1.52736">
        <ele>1041.8949361488</ele>
        <time>2017-06-10T12:08:32Z</time>
      </trkpt>
      <trkpt lat="42.78424" lon="1.52731">
        <ele>1041.8949361488</ele>
        <time>2017-06-10T12:08:32Z</time>
      </trkpt>
      <trkpt lat="42.78421" lon="1.52727">
        <ele>1039.7705941609</ele>
        <time>2017-06-10T12:08:32Z</time>
      </trkpt>
      <trkpt lat="42.78418" lon="1.52723">
        <ele>1039.7705941609</ele>
        <time>2017-06-10T12:08:47Z</time>
      </trkpt>
      <trkpt lat="42.78416" lon="1.52719">
        <ele>1039.7705941609</ele>
        <time>2017-06-10T12:08:47Z</time>
      </trkpt>
      <trkpt lat="42.78412" lon="1.52714">
        <ele>1038.5129519423</ele>
        <time>2017-06-10T12:08:47Z</time>
      </trkpt>
      <trkpt lat="42.78409" lon="1.5271">
        <ele>1038.5129519423</ele>
        <time>2017-06-10T12:08:47Z</time>
      </trkpt>
      <trkpt lat="42.78408" lon="1.52708">
        <ele>1038.5129519423</ele>
        <time>2017-06-10T12:09:07Z</time>
      </trkpt>
      <trkpt lat="42.78407" lon="1.52706">
        <ele>1038.5129519423</ele>
        <time>2017-06-10T12:09:07Z</time>
      </trkpt>
      <trkpt lat="42.78406" lon="1.52703">
        <ele>1037.7805661086</ele>
        <time>2017-06-10T12:09:07Z</time>
      </trkpt>
      <trkpt lat="42.78405" lon="1.52698">
        <ele>1037.7805661086</ele>
        <time>2017-06-10T12:09:08Z</time>
      </trkpt>
      <trkpt lat="42.78406" lon="1.52694">
        <ele>1037.7805661086</ele>
        <time>2017-06-10T12:09:08Z</time>
      </trkpt>
      <trkpt lat="42.78406" lon="1.52689">
        <ele>1037.1114014688</ele>
        <time>2017-06-10T12:09:23Z</time>
      </trkpt>
      <trkpt lat="42.78406" lon="1.52686">
        <ele>1037.1114014688</ele>
        <time>2017-06-10T12:09:23Z</time>
      </trkpt>
      <trkpt lat="42.78404" lon="1.52681">
        <ele>1037.1114014688</ele>
        <time>2017-06-10T12:09:23Z</time>
      </trkpt>
      <trkpt lat="42.78403" lon="1.52677">
        <ele>1035.644739243</ele>
        <time>2017-06-10T12:09:23Z</time>
      </trkpt>
      <trkpt lat="42.78401" lon="1.52671">
        <ele>1035.644739243</ele>
        <time>2017-06-10T12:09:40Z</time>
      </trkpt>
      <trkpt lat="42.78397" lon="1.52664">
        <ele>1034.6027485396</ele>
        <time>2017-06-10T12:09:40Z</time>
      </trkpt>
      <trkpt lat="42.78396" lon="1.52661">
        <ele>1034.6027485396</ele>
        <time>2017-06-10T12:09:40Z</time>
      </trkpt>
      <trkpt lat="42.78395" lon="1.52657">
        <ele>1034.6027485396</ele>
        <time>2017-06-10T12:09:40Z</time>
      </trkpt>
      <trkpt lat="42.78394" lon="1.52649">
        <ele>1032.8106955019</ele>
        <time>2017-06-10T12:09:55Z</time>
      </trkpt>
      <trkpt lat="42.78394" lon="1.52642">
        <ele>1032.8106955019</ele>
        <time>2017-06-10T12:09:55Z</time>
      </trkpt>
      <trkpt lat="42.78394" lon="1.52636">
        <ele>1030.91140707</ele>
        <time>2017-06-10T12:09:55Z</time>
      </trkpt>
      <trkpt lat="42.78394" lon="1.52631">
        <ele>1030.91140707</ele>
        <time>2017-06-10T12:09:55Z</time>
      </trkpt>
      <trkpt lat="42.78393" lon="1.52626">
        <ele>1030.91140707</ele>
        <time>2017-06-10T12:10:11Z</time>
      </trkpt>
      <trkpt lat="42.78393" lon="1.5262">
        <ele>1029.3564867713</ele>
        <time>2017-06-10T12:10:12Z</time>
      </trkpt>
      <trkpt lat="42.78394" lon="1.52616">
        <ele>1029.3564867713</ele>
        <time>2017-06-10T12:10:12Z</time>
      </trkpt>
      <trkpt lat="42.78392" lon="1.5261">
        <ele>1029.3564867713</ele>
        <time>2017-06-10T12:10:12Z</time>
      </trkpt>
      <trkpt lat="42.78391" lon="1.52604">
        <ele>1027.6985215448</ele>
        <time>2017-06-10T12:10:39Z</time>
      </trkpt>
      <trkpt lat="42.78391" lon="1.52603">
        <ele>1027.6985215448</ele>
        <time>2017-06-10T12:10:39Z</time>
      </trkpt>
      <trkpt lat="42.78391" lon="1.52602">
        <ele>1027.6985215448</ele>
        <time>2017-06-10T12:10:39Z</time>
      </trkpt>
      <trkpt lat="42.78391" lon="1.52598">
        <ele>1027.6985215448</ele>
        <time>2017-06-10T12:10:39Z</time>
      </trkpt>
      <trkpt lat="42.7839" lon="1.52592">
        <ele>1027.6985215448</ele>
        <time>2017-06-10T12:10:39Z</time>
      </trkpt>
      <trkpt lat="42.7839" lon="1.52588">
        <ele>1024.802470801</ele>
        <time>2017-06-10T12:10:55Z</time>
      </trkpt>
      <trkpt lat="42.78389" lon="1.52582">
        <ele>1024.802470801</ele>
        <time>2017-06-10T12:10:55Z</time>
      </trkpt>
      <trkpt lat="42.78389" lon="1.52576">
        <ele>1021.7815686763</ele>
        <time>2017-06-10T12:10:56Z</time>
      </trkpt>
      <trkpt lat="42.78389" lon="1.52571">
        <ele>1021.7815686763</ele>
        <time>2017-06-10T12:10:56Z</time>
      </trkpt>
      <trkpt lat="42.7839" lon="1.52567">
        <ele>1021.7815686763</ele>
        <time>2017-06-10T12:11:11Z</time>
      </trkpt>
      <trkpt lat="42.78391" lon="1.52561">
        <ele>1017.7939115412</ele>
        <time>2017-06-10T12:11:11Z</time>
      </trkpt>
      <trkpt lat="42.78391" lon="1.52555">
        <ele>1017.7939115412</ele>
        <time>2017-06-10T12:11:11Z</time>
      </trkpt>
      <trkpt lat="42.78391" lon="1.52551">
        <ele>1017.7939115412</ele>
        <time>2017-06-10T12:11:11Z</time>
      </trkpt>
      <trkpt lat="42.78392" lon="1.52546">
        <ele>1014.3676460874</ele>
        <time>2017-06-10T12:11:27Z</time>
      </trkpt>
      <trkpt lat="42.78392" lon="1.5254">
        <ele>1014.3676460874</ele>
        <time>2017-06-10T12:11:28Z</time>
      </trkpt>
      <trkpt lat="42.78391" lon="1.5253">
        <ele>1012.1962260909</ele>
        <time>2017-06-10T12:11:28Z</time>
      </trkpt>
      <trkpt lat="42.78392" lon="1.52523">
        <ele>1012.1962260909</ele>
        <time>2017-06-10T12:11:28Z</time>
      </trkpt>
      <trkpt lat="42.78392" lon="1.52516">
        <ele>1010.3331004645</ele>
        <time>2017-06-10T12:11:43Z</time>
      </trkpt>
      <trkpt lat="42.78391" lon="1.52507">
        <ele>1010.3331004645</ele>
        <time>2017-06-10T12:11:43Z</time>
      </trkpt>
      <trkpt lat="42.78387" lon="1.52499">
        <ele>1009.3411677265</ele>
        <time>2017-06-10T12:11:43Z</time>
      </trkpt>
      <trkpt lat="42.78385" lon="1.52493">
        <ele>1009.3411677265</ele>
        <time>2017-06-10T12:11:43Z</time>
      </trkpt>
      <trkpt lat="42.78384" lon="1.52488">
        <ele>1009.3411677265</ele>
        <time>2017-06-10T12:12:03Z</time>
      </trkpt>
      <trkpt lat="42.78384" lon="1.52485">
        <ele>1008.2980877943</ele>
        <time>2017-06-10T12:12:04Z</time>
      </trkpt>
      <trkpt lat="42.78384" lon="1.52481">
        <ele>1008.2980877943</ele>
        <time>2017-06-10T12:12:04Z</time>
      </trkpt>
      <trkpt lat="42.78383" lon="1.52477">
        <ele>1008.2980877943</ele>
        <time>2017-06-10T12:12:04Z</time>
      </trkpt>
      <trkpt lat="42.78383" lon="1.52475">
        <ele>1008.2980877943</ele>
        <time>2017-06-10T12:12:04Z</time>
      </trkpt>
      <trkpt lat="42.78382" lon="1.52472">
        <ele>1008.2225354292</ele>
        <time>2017-06-10T12:12:19Z</time>
      </trkpt>
      <trkpt lat="42.78382" lon="1.52467">
        <ele>1008.2225354292</ele>
        <time>2017-06-10T12:12:19Z</time>
      </trkpt>
      <trkpt lat="42.78382" lon="1.52462">
        <ele>1008.2225354292</ele>
        <time>2017-06-10T12:12:19Z</time>
      </trkpt>
      <trkpt lat="42.78382" lon="1.52457">
        <ele>1007.893652069</ele>
        <time>2017-06-10T12:12:19Z</time>
      </trkpt>
      <trkpt lat="42.78381" lon="1.52452">
        <ele>1007.893652069</ele>
        <time>2017-06-10T12:12:35Z</time>
      </trkpt>
      <trkpt lat="42.78379" lon="1.52447">
        <ele>1007.893652069</ele>
        <time>2017-06-10T12:12:36Z</time>
      </trkpt>
      <trkpt lat="42.78378" lon="1.52443">
        <ele>1007.6217758403</ele>
        <time>2017-06-10T12:12:36Z</time>
      </trkpt>
      <trkpt lat="42.78377" lon="1.52438">
        <ele>1007.6217758403</ele>
        <time>2017-06-10T12:12:36Z</time>
      </trkpt>
      <trkpt lat="42.78376" lon="1.52433">
        <ele>1007.6217758403</ele>
        <time>2017-06-10T12:12:51Z</time>
      </trkpt>
      <trkpt lat="42.78375" lon="1.52427">
        <ele>1006.8293232679</ele>
        <time>2017-06-10T12:12:51Z</time>
      </trkpt>
      <trkpt lat="42.78373" lon="1.52423">
        <ele>1006.8293232679</ele>
        <time>2017-06-10T12:12:51Z</time>
      </trkpt>
      <trkpt lat="42.78371" lon="1.52418">
        <ele>1006.8293232679</ele>
        <time>2017-06-10T12:12:51Z</time>
      </trkpt>
      <trkpt lat="42.78367" lon="1.52413">
        <ele>1007.2880956071</ele>
        <time>2017-06-10T12:13:08Z</time>
      </trkpt>
      <trkpt lat="42.78365" lon="1.52407">
        <ele>1007.2880956071</ele>
        <time>2017-06-10T12:13:08Z</time>
      </trkpt>
      <trkpt lat="42.78363" lon="1.52403">
        <ele>1007.2880956071</ele>
        <time>2017-06-10T12:13:08Z</time>
      </trkpt>
      <trkpt lat="42.78363" lon="1.524">
        <ele>1008.6184048488</ele>
        <time>2017-06-10T12:13:08Z</time>
      </trkpt>
      <trkpt lat="42.78361" lon="1.52393">
        <ele>1008.6184048488</ele>
        <time>2017-06-10T12:13:31Z</time>
      </trkpt>
      <trkpt lat="42.7836" lon="1.52391">
        <ele>1008.6184048488</ele>
        <time>2017-06-10T12:13:31Z</time>
      </trkpt>
      <trkpt lat="42.7836" lon="1.52389">
        <ele>1008.6184048488</ele>
        <time>2017-06-10T12:13:31Z</time>
      </trkpt>
      <trkpt lat="42.7836" lon="1.52385">
        <ele>1009.4569815342</ele>
        <time>2017-06-10T12:13:31Z</time>
      </trkpt>
      <trkpt lat="42.7836" lon="1.52381">
        <ele>1009.4569815342</ele>
        <time>2017-06-10T12:13:32Z</time>
      </trkpt>
      <trkpt lat="42.78358" lon="1.52374">
        <ele>1009.4569815342</ele>
        <time>2017-06-10T12:13:47Z</time>
      </trkpt>
      <trkpt lat="42.78357" lon="1.52366">
        <ele>1009.5506272065</ele>
        <time>2017-06-10T12:13:47Z</time>
      </trkpt>
      <trkpt lat="42.78356" lon="1.5236">
        <ele>1009.5506272065</ele>
        <time>2017-06-10T12:13:47Z</time>
      </trkpt>
      <trkpt lat="42.78355" lon="1.52353">
        <ele>1010.2518444199</ele>
        <time>2017-06-10T12:13:47Z</time>
      </trkpt>
      <trkpt lat="42.78354" lon="1.52346">
        <ele>1010.2518444199</ele>
        <time>2017-06-10T12:14:03Z</time>
      </trkpt>
      <trkpt lat="42.78353" lon="1.52339">
        <ele>1010.9384394923</ele>
        <time>2017-06-10T12:14:04Z</time>
      </trkpt>
      <trkpt lat="42.78352" lon="1.52332">
        <ele>1010.9384394923</ele>
        <time>2017-06-10T12:14:04Z</time>
      </trkpt>
      <trkpt lat="42.78352" lon="1.52325">
        <ele>1011.0337891015</ele>
        <time>2017-06-10T12:14:04Z</time>
      </trkpt>
      <trkpt lat="42.78351" lon="1.52319">
        <ele>1011.0337891015</ele>
        <time>2017-06-10T12:14:19Z</time>
      </trkpt>
      <trkpt lat="42.78351" lon="1.52315">
        <ele>1011.0337891015</ele>
        <time>2017-06-10T12:14:19Z</time>
      </trkpt>
      <trkpt lat="42.78349" lon="1.52311">
        <ele>1011.0139029407</ele>
        <time>2017-06-10T12:14:19Z</time>
      </trkpt>
      <trkpt lat="42.78347" lon="1.52306">
        <ele>1011.0139029407</ele>
        <time>2017-06-10T12:14:19Z</time>
      </trkpt>
      <trkpt lat="42.78343" lon="1.523">
        <ele>1011.0317754111</ele>
        <time>2017-06-10T12:14:35Z</time>
      </trkpt>
      <trkpt lat="42.78341" lon="1.52295">
        <ele>1011.0317754111</ele>
        <time>2017-06-10T12:14:35Z</time>
      </trkpt>
      <trkpt lat="42.78338" lon="1.5229">
        <ele>1010.7965847246</ele>
        <time>2017-06-10T12:14:35Z</time>
      </trkpt>
      <trkpt lat="42.78336" lon="1.52285">
        <ele>1010.7965847246</ele>
        <time>2017-06-10T12:14:35Z</time>
      </trkpt>
      <trkpt lat="42.78333" lon="1.52281">
        <ele>1010.7965847246</ele>
        <time>2017-06-10T12:14:55Z</time>
      </trkpt>
      <trkpt lat="42.78331" lon="1.52276">
        <ele>1010.7600101359</ele>
        <time>2017-06-10T12:14:55Z</time>
      </trkpt>
      <trkpt lat="42.78331" lon="1.52274">
        <ele>1010.7600101359</ele>
        <time>2017-06-10T12:14:55Z</time>
      </trkpt>
      <trkpt lat="42.78331" lon="1.52271">
        <ele>1010.7600101359</ele>
        <time>2017-06-10T12:14:55Z</time>
      </trkpt>
      <trkpt lat="42.7833" lon="1.52269">
        <ele>1010.7600101359</ele>
        <time>2017-06-10T12:14:55Z</time>
      </trkpt>
      <trkpt lat="42.78327" lon="1.52264">
        <ele>1009.7546497148</ele>
        <time>2017-06-10T12:15:23Z</time>
      </trkpt>
      <trkpt lat="42.78327" lon="1.52262">
        <ele>1009.7546497148</ele>
        <time>2017-06-10T12:15:23Z</time>
      </trkpt>
      <trkpt lat="42.78327" lon="1.5226">
        <ele>1009.7546497148</ele>
        <time>2017-06-10T12:15:23Z</time>
      </trkpt>
      <trkpt lat="42.78326" lon="1.52259">
        <ele>1009.7546497148</ele>
        <time>2017-06-10T12:15:23Z</time>
      </trkpt>
      <trkpt lat="42.78327" lon="1.52256">
        <ele>1009.7546497148</ele>
        <time>2017-06-10T12:15:23Z</time>
      </trkpt>
      <trkpt lat="42.78328" lon="1.52252">
        <ele>1007.7102368884</ele>
        <time>2017-06-10T12:15:39Z</time>
      </trkpt>
      <trkpt lat="42.78328" lon="1.52247">
        <ele>1007.7102368884</ele>
        <time>2017-06-10T12:15:39Z</time>
      </trkpt>
      <trkpt lat="42.78327" lon="1.52241">
        <ele>1007.7102368884</ele>
        <time>2017-06-10T12:15:39Z</time>
      </trkpt>
      <trkpt lat="42.78326" lon="1.52238">
        <ele>1004.9967974202</ele>
        <time>2017-06-10T12:15:39Z</time>
      </trkpt>
      <trkpt lat="42.78325" lon="1.52232">
        <ele>1004.9967974202</ele>
        <time>2017-06-10T12:15:55Z</time>
      </trkpt>
      <trkpt lat="42.78323" lon="1.52228">
        <ele>1004.9967974202</ele>
        <time>2017-06-10T12:15:55Z</time>
      </trkpt>
      <trkpt lat="42.78321" lon="1.52224">
        <ele>1003.1118201837</ele>
        <time>2017-06-10T12:15:55Z</time>
      </trkpt>
      <trkpt lat="42.78319" lon="1.5222">
        <ele>1003.1118201837</ele>
        <time>2017-06-10T12:15:55Z</time>
      </trkpt>
      <trkpt lat="42.78318" lon="1.52218">
        <ele>1003.1118201837</ele>
        <time>2017-06-10T12:16:19Z</time>
      </trkpt>
      <trkpt lat="42.78318" lon="1.52218">
        <ele>1003.1118201837</ele>
        <time>2017-06-10T12:16:19Z</time>
      </trkpt>
      <trkpt lat="42.78319" lon="1.52215">
        <ele>1003.1118201837</ele>
        <time>2017-06-10T12:16:19Z</time>
      </trkpt>
      <trkpt lat="42.7832" lon="1.5221">
        <ele>1000.846336059</ele>
        <time>2017-06-10T12:16:19Z</time>
      </trkpt>
      <trkpt lat="42.7832" lon="1.52205">
        <ele>1000.846336059</ele>
        <time>2017-06-10T12:16:19Z</time>
      </trkpt>
      <trkpt lat="42.7832" lon="1.522">
        <ele>1000.846336059</ele>
        <time>2017-06-10T12:16:35Z</time>
      </trkpt>
      <trkpt lat="42.78319" lon="1.52193">
        <ele>998.81045193527</ele>
        <time>2017-06-10T12:16:35Z</time>
      </trkpt>
      <trkpt lat="42.78319" lon="1.52187">
        <ele>998.81045193527</ele>
        <time>2017-06-10T12:16:35Z</time>
      </trkpt>
      <trkpt lat="42.78317" lon="1.52182">
        <ele>998.81045193527</ele>
        <time>2017-06-10T12:16:35Z</time>
      </trkpt>
      <trkpt lat="42.78316" lon="1.52177">
        <ele>996.27166947059</ele>
        <time>2017-06-10T12:16:51Z</time>
      </trkpt>
      <trkpt lat="42.78314" lon="1.52171">
        <ele>996.27166947059</ele>
        <time>2017-06-10T12:16:51Z</time>
      </trkpt>
      <trkpt lat="42.78313" lon="1.52166">
        <ele>996.27166947059</ele>
        <time>2017-06-10T12:16:51Z</time>
      </trkpt>
      <trkpt lat="42.78312" lon="1.52161">
        <ele>993.56133949045</ele>
        <time>2017-06-10T12:16:51Z</time>
      </trkpt>
      <trkpt lat="42.7831" lon="1.52157">
        <ele>993.56133949045</ele>
        <time>2017-06-10T12:17:07Z</time>
      </trkpt>
      <trkpt lat="42.78309" lon="1.52154">
        <ele>993.56133949045</ele>
        <time>2017-06-10T12:17:07Z</time>
      </trkpt>
      <trkpt lat="42.78308" lon="1.52149">
        <ele>990.9867982496</ele>
        <time>2017-06-10T12:17:07Z</time>
      </trkpt>
      <trkpt lat="42.78307" lon="1.52145">
        <ele>990.9867982496</ele>
        <time>2017-06-10T12:17:07Z</time>
      </trkpt>
      <trkpt lat="42.78305" lon="1.52141">
        <ele>990.9867982496</ele>
        <time>2017-06-10T12:17:23Z</time>
      </trkpt>
      <trkpt lat="42.78303" lon="1.52134">
        <ele>988.54404104239</ele>
        <time>2017-06-10T12:17:23Z</time>
      </trkpt>
      <trkpt lat="42.78301" lon="1.52128">
        <ele>988.54404104239</ele>
        <time>2017-06-10T12:17:23Z</time>
      </trkpt>
      <trkpt lat="42.783" lon="1.5212">
        <ele>986.94937839177</ele>
        <time>2017-06-10T12:17:23Z</time>
      </trkpt>
      <trkpt lat="42.78298" lon="1.52115">
        <ele>986.94937839177</ele>
        <time>2017-06-10T12:17:39Z</time>
      </trkpt>
      <trkpt lat="42.78296" lon="1.52109">
        <ele>986.94937839177</ele>
        <time>2017-06-10T12:17:39Z</time>
      </trkpt>
      <trkpt lat="42.78293" lon="1.52103">
        <ele>986.57573473756</ele>
        <time>2017-06-10T12:17:39Z</time>
      </trkpt>
      <trkpt lat="42.78291" lon="1.52096">
        <ele>986.57573473756</ele>
        <time>2017-06-10T12:17:39Z</time>
      </trkpt>
      <trkpt lat="42.78287" lon="1.52088">
        <ele>986.17983123535</ele>
        <time>2017-06-10T12:17:55Z</time>
      </trkpt>
      <trkpt lat="42.78284" lon="1.52081">
        <ele>986.17983123535</ele>
        <time>2017-06-10T12:17:55Z</time>
      </trkpt>
      <trkpt lat="42.78282" lon="1.52074">
        <ele>985.90663141985</ele>
        <time>2017-06-10T12:17:55Z</time>
      </trkpt>
      <trkpt lat="42.78279" lon="1.52065">
        <ele>985.90663141985</ele>
        <time>2017-06-10T12:17:55Z</time>
      </trkpt>
      <trkpt lat="42.78277" lon="1.52059">
        <ele>986.1781905367</ele>
        <time>2017-06-10T12:18:15Z</time>
      </trkpt>
      <trkpt lat="42.78277" lon="1.52056">
        <ele>986.1781905367</ele>
        <time>2017-06-10T12:18:15Z</time>
      </trkpt>
      <trkpt lat="42.78277" lon="1.52053">
        <ele>986.1781905367</ele>
        <time>2017-06-10T12:18:15Z</time>
      </trkpt>
      <trkpt lat="42.78277" lon="1.5205">
        <ele>986.1781905367</ele>
        <time>2017-06-10T12:18:16Z</time>
      </trkpt>
      <trkpt lat="42.78275" lon="1.52045">
        <ele>986.51924295344</ele>
        <time>2017-06-10T12:18:16Z</time>
      </trkpt>
      <trkpt lat="42.78274" lon="1.52041">
        <ele>986.51924295344</ele>
        <time>2017-06-10T12:18:31Z</time>
      </trkpt>
      <trkpt lat="42.78273" lon="1.52034">
        <ele>986.51924295344</ele>
        <time>2017-06-10T12:18:31Z</time>
      </trkpt>
      <trkpt lat="42.78272" lon="1.52028">
        <ele>986.63324617907</ele>
        <time>2017-06-10T12:18:31Z</time>
      </trkpt>
      <trkpt lat="42.78271" lon="1.52022">
        <ele>986.63324617907</ele>
        <time>2017-06-10T12:18:31Z</time>
      </trkpt>
      <trkpt lat="42.78269" lon="1.52015">
        <ele>987.11065644665</ele>
        <time>2017-06-10T12:18:47Z</time>
      </trkpt>
      <trkpt lat="42.78266" lon="1.52007">
        <ele>987.11065644665</ele>
        <time>2017-06-10T12:18:47Z</time>
      </trkpt>
      <trkpt lat="42.78264" lon="1.52">
        <ele>987.77690804968</ele>
        <time>2017-06-10T12:18:47Z</time>
      </trkpt>
      <trkpt lat="42.78263" lon="1.51994">
        <ele>987.77690804968</ele>
        <time>2017-06-10T12:18:47Z</time>
      </trkpt>
      <trkpt lat="42.78261" lon="1.51988">
        <ele>988.32556211703</ele>
        <time>2017-06-10T12:19:03Z</time>
      </trkpt>
      <trkpt lat="42.78261" lon="1.51984">
        <ele>988.32556211703</ele>
        <time>2017-06-10T12:19:03Z</time>
      </trkpt>
      <trkpt lat="42.78261" lon="1.5198">
        <ele>988.32556211703</ele>
        <time>2017-06-10T12:19:03Z</time>
      </trkpt>
      <trkpt lat="42.78261" lon="1.51975">
        <ele>988.04064571528</ele>
        <time>2017-06-10T12:19:03Z</time>
      </trkpt>
      <trkpt lat="42.78262" lon="1.5197">
        <ele>988.04064571528</ele>
        <time>2017-06-10T12:19:19Z</time>
      </trkpt>
      <trkpt lat="42.78262" lon="1.51964">
        <ele>988.04064571528</ele>
        <time>2017-06-10T12:19:19Z</time>
      </trkpt>
      <trkpt lat="42.78264" lon="1.51958">
        <ele>986.83753405568</ele>
        <time>2017-06-10T12:19:19Z</time>
      </trkpt>
      <trkpt lat="42.78266" lon="1.51953">
        <ele>986.83753405568</ele>
        <time>2017-06-10T12:19:19Z</time>
      </trkpt>
      <trkpt lat="42.78266" lon="1.51947">
        <ele>986.83753405568</ele>
        <time>2017-06-10T12:19:39Z</time>
      </trkpt>
      <trkpt lat="42.78266" lon="1.51945">
        <ele>987.3784876496</ele>
        <time>2017-06-10T12:19:40Z</time>
      </trkpt>
      <trkpt lat="42.78269" lon="1.51945">
        <ele>987.3784876496</ele>
        <time>2017-06-10T12:19:40Z</time>
      </trkpt>
      <trkpt lat="42.78274" lon="1.51943">
        <ele>987.3784876496</ele>
        <time>2017-06-10T12:19:40Z</time>
      </trkpt>
      <trkpt lat="42.78278" lon="1.5194">
        <ele>986.93729203091</ele>
        <time>2017-06-10T12:19:40Z</time>
      </trkpt>
      <trkpt lat="42.7828" lon="1.51933">
        <ele>986.93729203091</ele>
        <time>2017-06-10T12:19:55Z</time>
      </trkpt>
      <trkpt lat="42.78283" lon="1.51927">
        <ele>985.29652407462</ele>
        <time>2017-06-10T12:19:55Z</time>
      </trkpt>
      <trkpt lat="42.78285" lon="1.51923">
        <ele>985.29652407462</ele>
        <time>2017-06-10T12:19:55Z</time>
      </trkpt>
      <trkpt lat="42.78285" lon="1.51915">
        <ele>983.41097980778</ele>
        <time>2017-06-10T12:19:55Z</time>
      </trkpt>
      <trkpt lat="42.78285" lon="1.51907">
        <ele>983.41097980778</ele>
        <time>2017-06-10T12:20:11Z</time>
      </trkpt>
      <trkpt lat="42.78285" lon="1.51899">
        <ele>982.88655332507</ele>
        <time>2017-06-10T12:20:12Z</time>
      </trkpt>
      <trkpt lat="42.78286" lon="1.51893">
        <ele>982.88655332507</ele>
        <time>2017-06-10T12:20:12Z</time>
      </trkpt>
      <trkpt lat="42.78287" lon="1.51886">
        <ele>982.90156787684</ele>
        <time>2017-06-10T12:20:12Z</time>
      </trkpt>
      <trkpt lat="42.78288" lon="1.5188">
        <ele>982.90156787684</ele>
        <time>2017-06-10T12:20:27Z</time>
      </trkpt>
      <trkpt lat="42.7829" lon="1.51875">
        <ele>982.69318842421</ele>
        <time>2017-06-10T12:20:27Z</time>
      </trkpt>
      <trkpt lat="42.78292" lon="1.51871">
        <ele>982.69318842421</ele>
        <time>2017-06-10T12:20:27Z</time>
      </trkpt>
      <trkpt lat="42.78294" lon="1.51866">
        <ele>982.69318842421</ele>
        <time>2017-06-10T12:20:27Z</time>
      </trkpt>
      <trkpt lat="42.78295" lon="1.51862">
        <ele>982.4199100788</ele>
        <time>2017-06-10T12:20:43Z</time>
      </trkpt>
      <trkpt lat="42.78297" lon="1.51858">
        <ele>982.4199100788</ele>
        <time>2017-06-10T12:20:43Z</time>
      </trkpt>
      <trkpt lat="42.78298" lon="1.51853">
        <ele>982.4199100788</ele>
        <time>2017-06-10T12:20:43Z</time>
      </trkpt>
      <trkpt lat="42.78299" lon="1.51847">
        <ele>982.51699510464</ele>
        <time>2017-06-10T12:20:44Z</time>
      </trkpt>
      <trkpt lat="42.783" lon="1.51841">
        <ele>982.51699510464</ele>
        <time>2017-06-10T12:20:59Z</time>
      </trkpt>
      <trkpt lat="42.78301" lon="1.51833">
        <ele>983.09848369304</ele>
        <time>2017-06-10T12:20:59Z</time>
      </trkpt>
      <trkpt lat="42.78303" lon="1.51827">
        <ele>983.09848369304</ele>
        <time>2017-06-10T12:20:59Z</time>
      </trkpt>
      <trkpt lat="42.78304" lon="1.51822">
        <ele>983.09848369304</ele>
        <time>2017-06-10T12:20:59Z</time>
      </trkpt>
      <trkpt lat="42.78305" lon="1.5182">
        <ele>983.98047934224</ele>
        <time>2017-06-10T12:21:15Z</time>
      </trkpt>
      <trkpt lat="42.78306" lon="1.51816">
        <ele>983.98047934224</ele>
        <time>2017-06-10T12:21:16Z</time>
      </trkpt>
      <trkpt lat="42.78304" lon="1.5181">
        <ele>983.98047934224</ele>
        <time>2017-06-10T12:21:16Z</time>
      </trkpt>
      <trkpt lat="42.78301" lon="1.51805">
        <ele>985.1358948166</ele>
        <time>2017-06-10T12:21:16Z</time>
      </trkpt>
      <trkpt lat="42.78298" lon="1.51801">
        <ele>985.1358948166</ele>
        <time>2017-06-10T12:21:35Z</time>
      </trkpt>
      <trkpt lat="42.78296" lon="1.51798">
        <ele>985.1358948166</ele>
        <time>2017-06-10T12:21:35Z</time>
      </trkpt>
      <trkpt lat="42.78294" lon="1.51795">
        <ele>986.68302158958</ele>
        <time>2017-06-10T12:21:35Z</time>
      </trkpt>
      <trkpt lat="42.78294" lon="1.51792">
        <ele>986.68302158958</ele>
        <time>2017-06-10T12:21:35Z</time>
      </trkpt>
      <trkpt lat="42.78292" lon="1.51788">
        <ele>986.68302158958</ele>
        <time>2017-06-10T12:21:35Z</time>
      </trkpt>
      <trkpt lat="42.78291" lon="1.51786">
        <ele>986.68302158958</ele>
        <time>2017-06-10T12:21:55Z</time>
      </trkpt>
      <trkpt lat="42.7829" lon="1.51784">
        <ele>986.68302158958</ele>
        <time>2017-06-10T12:21:55Z</time>
      </trkpt>
      <trkpt lat="42.7829" lon="1.51782">
        <ele>988.00986500748</ele>
        <time>2017-06-10T12:21:55Z</time>
      </trkpt>
      <trkpt lat="42.78289" lon="1.51776">
        <ele>988.00986500748</ele>
        <time>2017-06-10T12:21:55Z</time>
      </trkpt>
      <trkpt lat="42.78289" lon="1.51771">
        <ele>988.00986500748</ele>
        <time>2017-06-10T12:21:55Z</time>
      </trkpt>
      <trkpt lat="42.78288" lon="1.51768">
        <ele>989.41474417428</ele>
        <time>2017-06-10T12:22:11Z</time>
      </trkpt>
      <trkpt lat="42.7829" lon="1.51762">
        <ele>989.41474417428</ele>
        <time>2017-06-10T12:22:12Z</time>
      </trkpt>
      <trkpt lat="42.7829" lon="1.51753">
        <ele>989.15637111152</ele>
        <time>2017-06-10T12:22:12Z</time>
      </trkpt>
      <trkpt lat="42.7829" lon="1.51749">
        <ele>989.15637111152</ele>
        <time>2017-06-10T12:22:12Z</time>
      </trkpt>
      <trkpt lat="42.78289" lon="1.51745">
        <ele>989.15637111152</ele>
        <time>2017-06-10T12:22:27Z</time>
      </trkpt>
      <trkpt lat="42.78289" lon="1.51742">
        <ele>989.15637111152</ele>
        <time>2017-06-10T12:22:27Z</time>
      </trkpt>
      <trkpt lat="42.78289" lon="1.51737">
        <ele>989.80535310999</ele>
        <time>2017-06-10T12:22:27Z</time>
      </trkpt>
      <trkpt lat="42.78287" lon="1.51731">
        <ele>989.80535310999</ele>
        <time>2017-06-10T12:22:27Z</time>
      </trkpt>
      <trkpt lat="42.78288" lon="1.51728">
        <ele>989.80535310999</ele>
        <time>2017-06-10T12:22:47Z</time>
      </trkpt>
      <trkpt lat="42.78289" lon="1.51725">
        <ele>988.6971201286</ele>
        <time>2017-06-10T12:22:47Z</time>
      </trkpt>
      <trkpt lat="42.7829" lon="1.51719">
        <ele>988.6971201286</ele>
        <time>2017-06-10T12:22:47Z</time>
      </trkpt>
      <trkpt lat="42.78291" lon="1.51717">
        <ele>988.6971201286</ele>
        <time>2017-06-10T12:22:47Z</time>
      </trkpt>
      <trkpt lat="42.78291" lon="1.51709">
        <ele>986.97064013537</ele>
        <time>2017-06-10T12:22:47Z</time>
      </trkpt>
      <trkpt lat="42.7829" lon="1.51699">
        <ele>986.97064013537</ele>
        <time>2017-06-10T12:23:03Z</time>
      </trkpt>
      <trkpt lat="42.78289" lon="1.51692">
        <ele>984.96247523725</ele>
        <time>2017-06-10T12:23:03Z</time>
      </trkpt>
      <trkpt lat="42.78288" lon="1.51688">
        <ele>984.96247523725</ele>
        <time>2017-06-10T12:23:03Z</time>
      </trkpt>
      <trkpt lat="42.7829" lon="1.51681">
        <ele>984.96247523725</ele>
        <time>2017-06-10T12:23:03Z</time>
      </trkpt>
      <trkpt lat="42.78289" lon="1.51673">
        <ele>983.12943746544</ele>
        <time>2017-06-10T12:23:19Z</time>
      </trkpt>
      <trkpt lat="42.78288" lon="1.51665">
        <ele>983.12943746544</ele>
        <time>2017-06-10T12:23:19Z</time>
      </trkpt>
      <trkpt lat="42.78288" lon="1.51659">
        <ele>981.60612619323</ele>
        <time>2017-06-10T12:23:19Z</time>
      </trkpt>
      <trkpt lat="42.78286" lon="1.51651">
        <ele>981.60612619323</ele>
        <time>2017-06-10T12:23:19Z</time>
      </trkpt>
      <trkpt lat="42.78286" lon="1.51644">
        <ele>979.93998368876</ele>
        <time>2017-06-10T12:23:35Z</time>
      </trkpt>
      <trkpt lat="42.78287" lon="1.51639">
        <ele>979.93998368876</ele>
        <time>2017-06-10T12:23:35Z</time>
      </trkpt>
      <trkpt lat="42.78285" lon="1.51631">
        <ele>978.576796357</ele>
        <time>2017-06-10T12:23:35Z</time>
      </trkpt>
      <trkpt lat="42.78284" lon="1.51623">
        <ele>978.576796357</ele>
        <time>2017-06-10T12:23:35Z</time>
      </trkpt>
      <trkpt lat="42.78283" lon="1.51615">
        <ele>977.92877619435</ele>
        <time>2017-06-10T12:23:53Z</time>
      </trkpt>
      <trkpt lat="42.78283" lon="1.51609">
        <ele>977.92877619435</ele>
        <time>2017-06-10T12:23:53Z</time>
      </trkpt>
      <trkpt lat="42.78282" lon="1.51602">
        <ele>977.79942020063</ele>
        <time>2017-06-10T12:23:53Z</time>
      </trkpt>
      <trkpt lat="42.78282" lon="1.51594">
        <ele>977.79942020063</ele>
        <time>2017-06-10T12:23:53Z</time>
      </trkpt>
      <trkpt lat="42.78283" lon="1.51586">
        <ele>976.85232846026</ele>
        <time>2017-06-10T12:24:07Z</time>
      </trkpt>
      <trkpt lat="42.78284" lon="1.5158">
        <ele>976.85232846026</ele>
        <time>2017-06-10T12:24:07Z</time>
      </trkpt>
      <trkpt lat="42.78285" lon="1.51578">
        <ele>976.85232846026</ele>
        <time>2017-06-10T12:24:07Z</time>
      </trkpt>
      <trkpt lat="42.78285" lon="1.5157">
        <ele>976.73380115201</ele>
        <time>2017-06-10T12:24:07Z</time>
      </trkpt>
      <trkpt lat="42.78286" lon="1.51562">
        <ele>976.73380115201</ele>
        <time>2017-06-10T12:24:24Z</time>
      </trkpt>
      <trkpt lat="42.78288" lon="1.51555">
        <ele>976.80522295325</ele>
        <time>2017-06-10T12:24:24Z</time>
      </trkpt>
      <trkpt lat="42.7829" lon="1.5155">
        <ele>976.80522295325</ele>
        <time>2017-06-10T12:24:24Z</time>
      </trkpt>
      <trkpt lat="42.78292" lon="1.51546">
        <ele>976.80522295325</ele>
        <time>2017-06-10T12:24:24Z</time>
      </trkpt>
      <trkpt lat="42.78294" lon="1.5154">
        <ele>976.76259463219</ele>
        <time>2017-06-10T12:24:39Z</time>
      </trkpt>
      <trkpt lat="42.78297" lon="1.51535">
        <ele>976.76259463219</ele>
        <time>2017-06-10T12:24:39Z</time>
      </trkpt>
      <trkpt lat="42.78299" lon="1.51531">
        <ele>976.76259463219</ele>
        <time>2017-06-10T12:24:39Z</time>
      </trkpt>
      <trkpt lat="42.78301" lon="1.51525">
        <ele>977.76569861715</ele>
        <time>2017-06-10T12:24:39Z</time>
      </trkpt>
      <trkpt lat="42.78304" lon="1.51518">
        <ele>977.76569861715</ele>
        <time>2017-06-10T12:24:59Z</time>
      </trkpt>
      <trkpt lat="42.78305" lon="1.51513">
        <ele>978.29220986606</ele>
        <time>2017-06-10T12:24:59Z</time>
      </trkpt>
      <trkpt lat="42.78306" lon="1.5151">
        <ele>978.29220986606</ele>
        <time>2017-06-10T12:24:59Z</time>
      </trkpt>
      <trkpt lat="42.78308" lon="1.51508">
        <ele>978.29220986606</ele>
        <time>2017-06-10T12:24:59Z</time>
      </trkpt>
      <trkpt lat="42.78309" lon="1.51506">
        <ele>978.29220986606</ele>
        <time>2017-06-10T12:24:59Z</time>
      </trkpt>
      <trkpt lat="42.78311" lon="1.51503">
        <ele>979.38289093066</ele>
        <time>2017-06-10T12:25:15Z</time>
      </trkpt>
      <trkpt lat="42.78314" lon="1.515">
        <ele>979.38289093066</ele>
        <time>2017-06-10T12:25:15Z</time>
      </trkpt>
      <trkpt lat="42.78315" lon="1.51496">
        <ele>979.38289093066</ele>
        <time>2017-06-10T12:25:15Z</time>
      </trkpt>
      <trkpt lat="42.78318" lon="1.51492">
        <ele>980.41528529496</ele>
        <time>2017-06-10T12:25:15Z</time>
      </trkpt>
      <trkpt lat="42.7832" lon="1.51488">
        <ele>980.41528529496</ele>
        <time>2017-06-10T12:25:44Z</time>
      </trkpt>
      <trkpt lat="42.7832" lon="1.51487">
        <ele>980.41528529496</ele>
        <time>2017-06-10T12:25:44Z</time>
      </trkpt>
      <trkpt lat="42.78321" lon="1.51482">
        <ele>980.41528529496</ele>
        <time>2017-06-10T12:25:44Z</time>
      </trkpt>
      <trkpt lat="42.78321" lon="1.51478">
        <ele>983.11865637891</ele>
        <time>2017-06-10T12:25:44Z</time>
      </trkpt>
      <trkpt lat="42.78322" lon="1.51478">
        <ele>983.11865637891</ele>
        <time>2017-06-10T12:25:44Z</time>
      </trkpt>
      <trkpt lat="42.78319" lon="1.51473">
        <ele>983.11865637891</ele>
        <time>2017-06-10T12:28:11Z</time>
      </trkpt>
      <trkpt lat="42.7832" lon="1.51473">
        <ele>983.11865637891</ele>
        <time>2017-06-10T12:28:11Z</time>
      </trkpt>
      <trkpt lat="42.78319" lon="1.51472">
        <ele>983.11865637891</ele>
        <time>2017-06-10T12:28:12Z</time>
      </trkpt>
      <trkpt lat="42.78317" lon="1.51467">
        <ele>988.9465098281</ele>
        <time>2017-06-10T12:28:12Z</time>
      </trkpt>
      <trkpt lat="42.78314" lon="1.51464">
        <ele>988.9465098281</ele>
        <time>2017-06-10T12:28:12Z</time>
      </trkpt>
      <trkpt lat="42.78311" lon="1.51463">
        <ele>988.9465098281</ele>
        <time>2017-06-10T12:28:31Z</time>
      </trkpt>
      <trkpt lat="42.78309" lon="1.51462">
        <ele>993.47246102678</ele>
        <time>2017-06-10T12:28:32Z</time>
      </trkpt>
      <trkpt lat="42.78307" lon="1.51458">
        <ele>993.47246102678</ele>
        <time>2017-06-10T12:28:32Z</time>
      </trkpt>
      <trkpt lat="42.78306" lon="1.51453">
        <ele>993.47246102678</ele>
        <time>2017-06-10T12:28:32Z</time>
      </trkpt>
      <trkpt lat="42.78303" lon="1.51448">
        <ele>996.92239484649</ele>
        <time>2017-06-10T12:28:32Z</time>
      </trkpt>
      <trkpt lat="42.78296" lon="1.51434">
        <ele>998.35588056179</ele>
        <time>2017-06-10T12:30:31Z</time>
      </trkpt>
      <trkpt lat="42.78296" lon="1.51433">
        <ele>998.35588056179</ele>
        <time>2017-06-10T12:30:32Z</time>
      </trkpt>
      <trkpt lat="42.78295" lon="1.5143">
        <ele>998.35588056179</ele>
        <time>2017-06-10T12:30:32Z</time>
      </trkpt>
      <trkpt lat="42.78293" lon="1.51426">
        <ele>998.35588056179</ele>
        <time>2017-06-10T12:30:32Z</time>
      </trkpt>
      <trkpt lat="42.78289" lon="1.51421">
        <ele>999.35728550968</ele>
        <time>2017-06-10T12:30:32Z</time>
      </trkpt>
      <trkpt lat="42.78286" lon="1.51415">
        <ele>999.35728550968</ele>
        <time>2017-06-10T12:30:47Z</time>
      </trkpt>
      <trkpt lat="42.78285" lon="1.5141">
        <ele>1000.0989783293</ele>
        <time>2017-06-10T12:30:47Z</time>
      </trkpt>
      <trkpt lat="42.78283" lon="1.51406">
        <ele>1000.0989783293</ele>
        <time>2017-06-10T12:30:47Z</time>
      </trkpt>
      <trkpt lat="42.78283" lon="1.51402">
        <ele>1000.0989783293</ele>
        <time>2017-06-10T12:30:47Z</time>
      </trkpt>
      <trkpt lat="42.78283" lon="1.51398">
        <ele>1000.5974593983</ele>
        <time>2017-06-10T12:31:07Z</time>
      </trkpt>
      <trkpt lat="42.78282" lon="1.51395">
        <ele>1000.5974593983</ele>
        <time>2017-06-10T12:31:07Z</time>
      </trkpt>
      <trkpt lat="42.78282" lon="1.51391">
        <ele>1000.5974593983</ele>
        <time>2017-06-10T12:31:07Z</time>
      </trkpt>
      <trkpt lat="42.78281" lon="1.51387">
        <ele>1000.5974593983</ele>
        <time>2017-06-10T12:31:07Z</time>
      </trkpt>
      <trkpt lat="42.78281" lon="1.51383">
        <ele>1000.4365361115</ele>
        <time>2017-06-10T12:31:07Z</time>
      </trkpt>
      <trkpt lat="42.78279" lon="1.51377">
        <ele>1000.4365361115</ele>
        <time>2017-06-10T12:31:23Z</time>
      </trkpt>
      <trkpt lat="42.78277" lon="1.51371">
        <ele>1000.3854901872</ele>
        <time>2017-06-10T12:31:23Z</time>
      </trkpt>
      <trkpt lat="42.78273" lon="1.51364">
        <ele>1000.3854901872</ele>
        <time>2017-06-10T12:31:23Z</time>
      </trkpt>
      <trkpt lat="42.7827" lon="1.51359">
        <ele>1001.1569371225</ele>
        <time>2017-06-10T12:31:23Z</time>
      </trkpt>
      <trkpt lat="42.7827" lon="1.5135">
        <ele>1001.1569371225</ele>
        <time>2017-06-10T12:32:03Z</time>
      </trkpt>
      <trkpt lat="42.78269" lon="1.5135">
        <ele>1001.1569371225</ele>
        <time>2017-06-10T12:32:03Z</time>
      </trkpt>
      <trkpt lat="42.78268" lon="1.51348">
        <ele>1001.1569371225</ele>
        <time>2017-06-10T12:32:03Z</time>
      </trkpt>
      <trkpt lat="42.78268" lon="1.51344">
        <ele>1000.8149778284</ele>
        <time>2017-06-10T12:32:03Z</time>
      </trkpt>
      <trkpt lat="42.78267" lon="1.5134">
        <ele>1000.8149778284</ele>
        <time>2017-06-10T12:32:03Z</time>
      </trkpt>
      <trkpt lat="42.78265" lon="1.51336">
        <ele>1000.8149778284</ele>
        <time>2017-06-10T12:32:19Z</time>
      </trkpt>
      <trkpt lat="42.78264" lon="1.5133">
        <ele>1000.3072895815</ele>
        <time>2017-06-10T12:32:19Z</time>
      </trkpt>
      <trkpt lat="42.78262" lon="1.51327">
        <ele>1000.3072895815</ele>
        <time>2017-06-10T12:32:19Z</time>
      </trkpt>
      <trkpt lat="42.78262" lon="1.51324">
        <ele>1000.3072895815</ele>
        <time>2017-06-10T12:32:19Z</time>
      </trkpt>
      <trkpt lat="42.7826" lon="1.5132">
        <ele>1000.3072895815</ele>
        <time>2017-06-10T12:32:43Z</time>
      </trkpt>
      <trkpt lat="42.7826" lon="1.51319">
        <ele>1000.3072895815</ele>
        <time>2017-06-10T12:32:44Z</time>
      </trkpt>
      <trkpt lat="42.7826" lon="1.51319">
        <ele>999.93607353425</ele>
        <time>2017-06-10T12:32:44Z</time>
      </trkpt>
      <trkpt lat="42.7826" lon="1.51315">
        <ele>999.93607353425</ele>
        <time>2017-06-10T12:32:44Z</time>
      </trkpt>
      <trkpt lat="42.78261" lon="1.51309">
        <ele>999.93607353425</ele>
        <time>2017-06-10T12:32:44Z</time>
      </trkpt>
      <trkpt lat="42.78262" lon="1.51301">
        <ele>998.25171955229</ele>
        <time>2017-06-10T12:32:59Z</time>
      </trkpt>
      <trkpt lat="42.78261" lon="1.51294">
        <ele>998.25171955229</ele>
        <time>2017-06-10T12:32:59Z</time>
      </trkpt>
      <trkpt lat="42.78259" lon="1.51286">
        <ele>997.22943489567</ele>
        <time>2017-06-10T12:32:59Z</time>
      </trkpt>
      <trkpt lat="42.78258" lon="1.51279">
        <ele>997.22943489567</ele>
        <time>2017-06-10T12:32:59Z</time>
      </trkpt>
      <trkpt lat="42.78257" lon="1.51273">
        <ele>996.5358777578</ele>
        <time>2017-06-10T12:33:16Z</time>
      </trkpt>
      <trkpt lat="42.78255" lon="1.51266">
        <ele>996.5358777578</ele>
        <time>2017-06-10T12:33:16Z</time>
      </trkpt>
      <trkpt lat="42.78255" lon="1.51262">
        <ele>996.5358777578</ele>
        <time>2017-06-10T12:33:16Z</time>
      </trkpt>
      <trkpt lat="42.78255" lon="1.51257">
        <ele>996.58188600998</ele>
        <time>2017-06-10T12:33:16Z</time>
      </trkpt>
      <trkpt lat="42.78256" lon="1.51251">
        <ele>996.58188600998</ele>
        <time>2017-06-10T12:33:31Z</time>
      </trkpt>
      <trkpt lat="42.78255" lon="1.51244">
        <ele>996.88142304378</ele>
        <time>2017-06-10T12:33:31Z</time>
      </trkpt>
      <trkpt lat="42.78255" lon="1.51238">
        <ele>996.88142304378</ele>
        <time>2017-06-10T12:33:31Z</time>
      </trkpt>
      <trkpt lat="42.78255" lon="1.51233">
        <ele>996.88142304378</ele>
        <time>2017-06-10T12:33:31Z</time>
      </trkpt>
      <trkpt lat="42.78255" lon="1.51227">
        <ele>996.55114989446</ele>
        <time>2017-06-10T12:33:47Z</time>
      </trkpt>
      <trkpt lat="42.78254" lon="1.5122">
        <ele>996.55114989446</ele>
        <time>2017-06-10T12:33:47Z</time>
      </trkpt>
      <trkpt lat="42.78252" lon="1.51217">
        <ele>996.55114989446</ele>
        <time>2017-06-10T12:33:47Z</time>
      </trkpt>
      <trkpt lat="42.78252" lon="1.51214">
        <ele>996.79197311068</ele>
        <time>2017-06-10T12:33:47Z</time>
      </trkpt>
      <trkpt lat="42.78249" lon="1.51204">
        <ele>996.79197311068</ele>
        <time>2017-06-10T12:34:11Z</time>
      </trkpt>
      <trkpt lat="42.78249" lon="1.51201">
        <ele>997.27389655236</ele>
        <time>2017-06-10T12:34:12Z</time>
      </trkpt>
      <trkpt lat="42.78248" lon="1.51199">
        <ele>997.27389655236</ele>
        <time>2017-06-10T12:34:12Z</time>
      </trkpt>
      <trkpt lat="42.78247" lon="1.51197">
        <ele>997.27389655236</ele>
        <time>2017-06-10T12:34:12Z</time>
      </trkpt>
      <trkpt lat="42.78247" lon="1.51196">
        <ele>997.27389655236</ele>
        <time>2017-06-10T12:34:12Z</time>
      </trkpt>
      <trkpt lat="42.78247" lon="1.51194">
        <ele>997.27389655236</ele>
        <time>2017-06-10T12:34:27Z</time>
      </trkpt>
      <trkpt lat="42.78246" lon="1.51189">
        <ele>998.2669604939</ele>
        <time>2017-06-10T12:34:27Z</time>
      </trkpt>
      <trkpt lat="42.78244" lon="1.51186">
        <ele>998.2669604939</ele>
        <time>2017-06-10T12:34:27Z</time>
      </trkpt>
      <trkpt lat="42.78242" lon="1.51182">
        <ele>998.2669604939</ele>
        <time>2017-06-10T12:34:27Z</time>
      </trkpt>
      <trkpt lat="42.78242" lon="1.51181">
        <ele>998.2669604939</ele>
        <time>2017-06-10T12:34:47Z</time>
      </trkpt>
      <trkpt lat="42.7824" lon="1.51176">
        <ele>999.44351611976</ele>
        <time>2017-06-10T12:34:47Z</time>
      </trkpt>
      <trkpt lat="42.78239" lon="1.51173">
        <ele>999.44351611976</ele>
        <time>2017-06-10T12:34:47Z</time>
      </trkpt>
      <trkpt lat="42.78238" lon="1.51171">
        <ele>999.44351611976</ele>
        <time>2017-06-10T12:34:47Z</time>
      </trkpt>
      <trkpt lat="42.78238" lon="1.51166">
        <ele>999.44351611976</ele>
        <time>2017-06-10T12:34:47Z</time>
      </trkpt>
      <trkpt lat="42.78238" lon="1.51159">
        <ele>999.49071729207</ele>
        <time>2017-06-10T12:35:03Z</time>
      </trkpt>
      <trkpt lat="42.78238" lon="1.5115">
        <ele>999.49071729207</ele>
        <time>2017-06-10T12:35:03Z</time>
      </trkpt>
      <trkpt lat="42.78238" lon="1.51142">
        <ele>998.63646408788</ele>
        <time>2017-06-10T12:35:03Z</time>
      </trkpt>
      <trkpt lat="42.78239" lon="1.51135">
        <ele>998.63646408788</ele>
        <time>2017-06-10T12:35:03Z</time>
      </trkpt>
      <trkpt lat="42.78238" lon="1.51126">
        <ele>997.23857603096</ele>
        <time>2017-06-10T12:35:19Z</time>
      </trkpt>
      <trkpt lat="42.78238" lon="1.5112">
        <ele>997.23857603096</ele>
        <time>2017-06-10T12:35:20Z</time>
      </trkpt>
      <trkpt lat="42.78237" lon="1.51113">
        <ele>996.35068112189</ele>
        <time>2017-06-10T12:35:20Z</time>
      </trkpt>
      <trkpt lat="42.78234" lon="1.51107">
        <ele>996.35068112189</ele>
        <time>2017-06-10T12:35:20Z</time>
      </trkpt>
      <trkpt lat="42.78232" lon="1.511">
        <ele>996.37113626839</ele>
        <time>2017-06-10T12:35:35Z</time>
      </trkpt>
      <trkpt lat="42.78228" lon="1.51097">
        <ele>996.37113626839</ele>
        <time>2017-06-10T12:35:35Z</time>
      </trkpt>
      <trkpt lat="42.78229" lon="1.51092">
        <ele>996.37113626839</ele>
        <time>2017-06-10T12:35:35Z</time>
      </trkpt>
      <trkpt lat="42.78228" lon="1.51085">
        <ele>995.07247801537</ele>
        <time>2017-06-10T12:35:35Z</time>
      </trkpt>
      <trkpt lat="42.78227" lon="1.5108">
        <ele>995.07247801537</ele>
        <time>2017-06-10T12:35:52Z</time>
      </trkpt>
      <trkpt lat="42.78226" lon="1.51072">
        <ele>994.14144442379</ele>
        <time>2017-06-10T12:35:52Z</time>
      </trkpt>
      <trkpt lat="42.78224" lon="1.51066">
        <ele>994.14144442379</ele>
        <time>2017-06-10T12:35:52Z</time>
      </trkpt>
      <trkpt lat="42.78223" lon="1.51062">
        <ele>994.14144442379</ele>
        <time>2017-06-10T12:35:52Z</time>
      </trkpt>
      <trkpt lat="42.7822" lon="1.51057">
        <ele>993.98692170867</ele>
        <time>2017-06-10T12:36:11Z</time>
      </trkpt>
      <trkpt lat="42.78218" lon="1.51054">
        <ele>993.98692170867</ele>
        <time>2017-06-10T12:36:11Z</time>
      </trkpt>
      <trkpt lat="42.78217" lon="1.51051">
        <ele>993.98692170867</ele>
        <time>2017-06-10T12:36:11Z</time>
      </trkpt>
      <trkpt lat="42.78216" lon="1.51046">
        <ele>993.54443865113</ele>
        <time>2017-06-10T12:36:11Z</time>
      </trkpt>
      <trkpt lat="42.78214" lon="1.5104">
        <ele>993.54443865113</ele>
        <time>2017-06-10T12:36:11Z</time>
      </trkpt>
      <trkpt lat="42.78211" lon="1.51035">
        <ele>993.84604829899</ele>
        <time>2017-06-10T12:36:27Z</time>
      </trkpt>
      <trkpt lat="42.78209" lon="1.51029">
        <ele>993.84604829899</ele>
        <time>2017-06-10T12:36:27Z</time>
      </trkpt>
      <trkpt lat="42.78207" lon="1.51022">
        <ele>994.54886565596</ele>
        <time>2017-06-10T12:36:27Z</time>
      </trkpt>
      <trkpt lat="42.78204" lon="1.51021">
        <ele>994.54886565596</ele>
        <time>2017-06-10T12:36:28Z</time>
      </trkpt>
      <trkpt lat="42.782" lon="1.51012">
        <ele>996.19870275449</ele>
        <time>2017-06-10T12:38:23Z</time>
      </trkpt>
      <trkpt lat="42.782" lon="1.51011">
        <ele>996.19870275449</ele>
        <time>2017-06-10T12:38:23Z</time>
      </trkpt>
      <trkpt lat="42.782" lon="1.51011">
        <ele>996.19870275449</ele>
        <time>2017-06-10T12:38:23Z</time>
      </trkpt>
      <trkpt lat="42.78199" lon="1.51011">
        <ele>996.19870275449</ele>
        <time>2017-06-10T12:38:23Z</time>
      </trkpt>
      <trkpt lat="42.78198" lon="1.5101">
        <ele>996.19870275449</ele>
        <time>2017-06-10T12:38:23Z</time>
      </trkpt>
      <trkpt lat="42.78197" lon="1.51008">
        <ele>996.19870275449</ele>
        <time>2017-06-10T12:38:47Z</time>
      </trkpt>
      <trkpt lat="42.78197" lon="1.51008">
        <ele>996.19870275449</ele>
        <time>2017-06-10T12:38:47Z</time>
      </trkpt>
      <trkpt lat="42.78197" lon="1.51007">
        <ele>996.19870275449</ele>
        <time>2017-06-10T12:38:47Z</time>
      </trkpt>
      <trkpt lat="42.78196" lon="1.51003">
        <ele>996.19870275449</ele>
        <time>2017-06-10T12:38:47Z</time>
      </trkpt>
      <trkpt lat="42.78196" lon="1.50996">
        <ele>997.71337082293</ele>
        <time>2017-06-10T12:38:47Z</time>
      </trkpt>
      <trkpt lat="42.78195" lon="1.5099">
        <ele>997.71337082293</ele>
        <time>2017-06-10T12:39:04Z</time>
      </trkpt>
      <trkpt lat="42.78195" lon="1.50984">
        <ele>998.95520698027</ele>
        <time>2017-06-10T12:39:04Z</time>
      </trkpt>
      <trkpt lat="42.78193" lon="1.50979">
        <ele>998.95520698027</ele>
        <time>2017-06-10T12:39:04Z</time>
      </trkpt>
      <trkpt lat="42.78191" lon="1.50974">
        <ele>998.95520698027</ele>
        <time>2017-06-10T12:39:04Z</time>
      </trkpt>
      <trkpt lat="42.7819" lon="1.50969">
        <ele>1000.517975672</ele>
        <time>2017-06-10T12:39:39Z</time>
      </trkpt>
      <trkpt lat="42.78189" lon="1.50967">
        <ele>1000.517975672</ele>
        <time>2017-06-10T12:39:39Z</time>
      </trkpt>
      <trkpt lat="42.78187" lon="1.50961">
        <ele>1000.517975672</ele>
        <time>2017-06-10T12:39:39Z</time>
      </trkpt>
      <trkpt lat="42.78185" lon="1.5096">
        <ele>1000.517975672</ele>
        <time>2017-06-10T12:39:39Z</time>
      </trkpt>
      <trkpt lat="42.78184" lon="1.50959">
        <ele>1002.0862607639</ele>
        <time>2017-06-10T12:39:39Z</time>
      </trkpt>
      <trkpt lat="42.78183" lon="1.50955">
        <ele>1002.0862607639</ele>
        <time>2017-06-10T12:39:55Z</time>
      </trkpt>
      <trkpt lat="42.78184" lon="1.5095">
        <ele>1002.0862607639</ele>
        <time>2017-06-10T12:39:55Z</time>
      </trkpt>
      <trkpt lat="42.78183" lon="1.50946">
        <ele>1002.9354804296</ele>
        <time>2017-06-10T12:39:55Z</time>
      </trkpt>
      <trkpt lat="42.78181" lon="1.5094">
        <ele>1002.9354804296</ele>
        <time>2017-06-10T12:39:55Z</time>
      </trkpt>
      <trkpt lat="42.78179" lon="1.50932">
        <ele>1002.9727609384</ele>
        <time>2017-06-10T12:40:23Z</time>
      </trkpt>
      <trkpt lat="42.78178" lon="1.50931">
        <ele>1002.9727609384</ele>
        <time>2017-06-10T12:40:24Z</time>
      </trkpt>
      <trkpt lat="42.78178" lon="1.50931">
        <ele>1002.9727609384</ele>
        <time>2017-06-10T12:40:24Z</time>
      </trkpt>
      <trkpt lat="42.78178" lon="1.50928">
        <ele>1002.9727609384</ele>
        <time>2017-06-10T12:40:24Z</time>
      </trkpt>
      <trkpt lat="42.78176" lon="1.50924">
        <ele>1002.9727609384</ele>
        <time>2017-06-10T12:40:24Z</time>
      </trkpt>
      <trkpt lat="42.78174" lon="1.50921">
        <ele>1002.979017824</ele>
        <time>2017-06-10T12:40:39Z</time>
      </trkpt>
      <trkpt lat="42.78172" lon="1.50918">
        <ele>1002.979017824</ele>
        <time>2017-06-10T12:40:39Z</time>
      </trkpt>
      <trkpt lat="42.78168" lon="1.50916">
        <ele>1002.979017824</ele>
        <time>2017-06-10T12:40:39Z</time>
      </trkpt>
      <trkpt lat="42.78164" lon="1.50914">
        <ele>1002.8132425977</ele>
        <time>2017-06-10T12:40:39Z</time>
      </trkpt>
      <trkpt lat="42.78163" lon="1.50911">
        <ele>1002.8132425977</ele>
        <time>2017-06-10T12:41:11Z</time>
      </trkpt>
      <trkpt lat="42.78163" lon="1.50909">
        <ele>1002.8132425977</ele>
        <time>2017-06-10T12:41:11Z</time>
      </trkpt>
      <trkpt lat="42.78163" lon="1.50904">
        <ele>1002.8132425977</ele>
        <time>2017-06-10T12:41:11Z</time>
      </trkpt>
      <trkpt lat="42.7816" lon="1.50899">
        <ele>1004.3628451699</ele>
        <time>2017-06-10T12:41:11Z</time>
      </trkpt>
      <trkpt lat="42.78157" lon="1.50894">
        <ele>1004.3628451699</ele>
        <time>2017-06-10T12:41:11Z</time>
      </trkpt>
      <trkpt lat="42.78155" lon="1.50888">
        <ele>1004.7602373019</ele>
        <time>2017-06-10T12:41:28Z</time>
      </trkpt>
      <trkpt lat="42.78156" lon="1.50882">
        <ele>1004.7602373019</ele>
        <time>2017-06-10T12:41:28Z</time>
      </trkpt>
      <trkpt lat="42.78156" lon="1.50877">
        <ele>1004.7602373019</ele>
        <time>2017-06-10T12:41:28Z</time>
      </trkpt>
      <trkpt lat="42.78155" lon="1.50872">
        <ele>1003.8016211538</ele>
        <time>2017-06-10T12:41:28Z</time>
      </trkpt>
      <trkpt lat="42.78155" lon="1.50868">
        <ele>1003.8016211538</ele>
        <time>2017-06-10T12:41:43Z</time>
      </trkpt>
      <trkpt lat="42.78156" lon="1.50864">
        <ele>1003.8016211538</ele>
        <time>2017-06-10T12:41:43Z</time>
      </trkpt>
      <trkpt lat="42.78157" lon="1.50859">
        <ele>1002.3107646487</ele>
        <time>2017-06-10T12:41:43Z</time>
      </trkpt>
      <trkpt lat="42.78158" lon="1.50854">
        <ele>1002.3107646487</ele>
        <time>2017-06-10T12:41:43Z</time>
      </trkpt>
      <trkpt lat="42.78159" lon="1.50849">
        <ele>1002.3107646487</ele>
        <time>2017-06-10T12:41:59Z</time>
      </trkpt>
      <trkpt lat="42.78162" lon="1.50846">
        <ele>1001.0524210267</ele>
        <time>2017-06-10T12:41:59Z</time>
      </trkpt>
      <trkpt lat="42.78164" lon="1.50842">
        <ele>1001.0524210267</ele>
        <time>2017-06-10T12:41:59Z</time>
      </trkpt>
      <trkpt lat="42.78165" lon="1.50838">
        <ele>1001.0524210267</ele>
        <time>2017-06-10T12:41:59Z</time>
      </trkpt>
      <trkpt lat="42.78165" lon="1.50833">
        <ele>1000.013951694</ele>
        <time>2017-06-10T12:42:19Z</time>
      </trkpt>
      <trkpt lat="42.78165" lon="1.50832">
        <ele>1000.013951694</ele>
        <time>2017-06-10T12:42:19Z</time>
      </trkpt>
      <trkpt lat="42.78166" lon="1.50828">
        <ele>1000.013951694</ele>
        <time>2017-06-10T12:42:19Z</time>
      </trkpt>
      <trkpt lat="42.78166" lon="1.50822">
        <ele>1000.013951694</ele>
        <time>2017-06-10T12:42:19Z</time>
      </trkpt>
      <trkpt lat="42.78166" lon="1.50816">
        <ele>999.47123504434</ele>
        <time>2017-06-10T12:42:19Z</time>
      </trkpt>
      <trkpt lat="42.78163" lon="1.50802">
        <ele>998.95791038001</ele>
        <time>2017-06-10T12:42:59Z</time>
      </trkpt>
      <trkpt lat="42.78163" lon="1.50802">
        <ele>998.95791038001</ele>
        <time>2017-06-10T12:42:59Z</time>
      </trkpt>
      <trkpt lat="42.78163" lon="1.50802">
        <ele>998.95791038001</ele>
        <time>2017-06-10T12:42:59Z</time>
      </trkpt>
      <trkpt lat="42.78163" lon="1.50801">
        <ele>998.95791038001</ele>
        <time>2017-06-10T12:42:59Z</time>
      </trkpt>
      <trkpt lat="42.78163" lon="1.50798">
        <ele>998.95791038001</ele>
        <time>2017-06-10T12:42:59Z</time>
      </trkpt>
      <trkpt lat="42.78162" lon="1.50793">
        <ele>998.95791038001</ele>
        <time>2017-06-10T12:44:11Z</time>
      </trkpt>
      <trkpt lat="42.78162" lon="1.5079">
        <ele>998.61820436818</ele>
        <time>2017-06-10T12:44:11Z</time>
      </trkpt>
      <trkpt lat="42.78162" lon="1.50787">
        <ele>998.61820436818</ele>
        <time>2017-06-10T12:44:11Z</time>
      </trkpt>
      <trkpt lat="42.78162" lon="1.50786">
        <ele>998.61820436818</ele>
        <time>2017-06-10T12:44:11Z</time>
      </trkpt>
      <trkpt lat="42.78161" lon="1.50784">
        <ele>998.61820436818</ele>
        <time>2017-06-10T12:44:11Z</time>
      </trkpt>
      <trkpt lat="42.78159" lon="1.50782">
        <ele>998.61820436818</ele>
        <time>2017-06-10T12:44:59Z</time>
      </trkpt>
      <trkpt lat="42.78159" lon="1.50782">
        <ele>998.61820436818</ele>
        <time>2017-06-10T12:44:59Z</time>
      </trkpt>
      <trkpt lat="42.78159" lon="1.50782">
        <ele>998.61820436818</ele>
        <time>2017-06-10T12:44:59Z</time>
      </trkpt>
      <trkpt lat="42.78155" lon="1.50781">
        <ele>998.87344718363</ele>
        <time>2017-06-10T12:44:59Z</time>
      </trkpt>
      <trkpt lat="42.7815" lon="1.50781">
        <ele>998.87344718363</ele>
        <time>2017-06-10T12:44:59Z</time>
      </trkpt>
      <trkpt lat="42.78149" lon="1.50767">
        <ele>998.38297579695</ele>
        <time>2017-06-10T12:45:31Z</time>
      </trkpt>
      <trkpt lat="42.78148" lon="1.50767">
        <ele>998.38297579695</ele>
        <time>2017-06-10T12:45:31Z</time>
      </trkpt>
      <trkpt lat="42.78148" lon="1.50767">
        <ele>998.38297579695</ele>
        <time>2017-06-10T12:45:31Z</time>
      </trkpt>
      <trkpt lat="42.78148" lon="1.50763">
        <ele>998.38297579695</ele>
        <time>2017-06-10T12:45:31Z</time>
      </trkpt>
      <trkpt lat="42.78148" lon="1.50758">
        <ele>998.38297579695</ele>
        <time>2017-06-10T12:45:31Z</time>
      </trkpt>
      <trkpt lat="42.78144" lon="1.50742">
        <ele>997.34777299106</ele>
        <time>2017-06-10T12:45:59Z</time>
      </trkpt>
      <trkpt lat="42.78144" lon="1.50741">
        <ele>997.34777299106</ele>
        <time>2017-06-10T12:45:59Z</time>
      </trkpt>
      <trkpt lat="42.78144" lon="1.5074">
        <ele>997.34777299106</ele>
        <time>2017-06-10T12:45:59Z</time>
      </trkpt>
      <trkpt lat="42.78145" lon="1.50738">
        <ele>997.34777299106</ele>
        <time>2017-06-10T12:45:59Z</time>
      </trkpt>
      <trkpt lat="42.78146" lon="1.50732">
        <ele>997.34777299106</ele>
        <time>2017-06-10T12:45:59Z</time>
      </trkpt>
      <trkpt lat="42.78148" lon="1.50727">
        <ele>996.53198542722</ele>
        <time>2017-06-10T12:46:15Z</time>
      </trkpt>
      <trkpt lat="42.78149" lon="1.50723">
        <ele>996.53198542722</ele>
        <time>2017-06-10T12:46:15Z</time>
      </trkpt>
      <trkpt lat="42.78151" lon="1.50719">
        <ele>996.53198542722</ele>
        <time>2017-06-10T12:46:15Z</time>
      </trkpt>
      <trkpt lat="42.78152" lon="1.50715">
        <ele>995.7782948586</ele>
        <time>2017-06-10T12:46:15Z</time>
      </trkpt>
      <trkpt lat="42.78153" lon="1.50711">
        <ele>995.7782948586</ele>
        <time>2017-06-10T12:46:35Z</time>
      </trkpt>
      <trkpt lat="42.78154" lon="1.5071">
        <ele>995.7782948586</ele>
        <time>2017-06-10T12:46:35Z</time>
      </trkpt>
      <trkpt lat="42.78155" lon="1.50708">
        <ele>995.7782948586</ele>
        <time>2017-06-10T12:46:35Z</time>
      </trkpt>
      <trkpt lat="42.78157" lon="1.50704">
        <ele>995.51715734023</ele>
        <time>2017-06-10T12:46:35Z</time>
      </trkpt>
      <trkpt lat="42.78157" lon="1.507">
        <ele>995.51715734023</ele>
        <time>2017-06-10T12:46:35Z</time>
      </trkpt>
      <trkpt lat="42.78157" lon="1.50698">
        <ele>995.51715734023</ele>
        <time>2017-06-10T12:46:55Z</time>
      </trkpt>
      <trkpt lat="42.78157" lon="1.50696">
        <ele>995.51715734023</ele>
        <time>2017-06-10T12:46:55Z</time>
      </trkpt>
      <trkpt lat="42.78156" lon="1.50692">
        <ele>995.85774906979</ele>
        <time>2017-06-10T12:46:55Z</time>
      </trkpt>
      <trkpt lat="42.78156" lon="1.50687">
        <ele>995.85774906979</ele>
        <time>2017-06-10T12:46:55Z</time>
      </trkpt>
      <trkpt lat="42.78156" lon="1.50683">
        <ele>995.85774906979</ele>
        <time>2017-06-10T12:46:56Z</time>
      </trkpt>
      <trkpt lat="42.78157" lon="1.5068">
        <ele>995.85774906979</ele>
        <time>2017-06-10T12:47:11Z</time>
      </trkpt>
      <trkpt lat="42.78159" lon="1.50677">
        <ele>995.45837104195</ele>
        <time>2017-06-10T12:47:11Z</time>
      </trkpt>
      <trkpt lat="42.78161" lon="1.50675">
        <ele>995.45837104195</ele>
        <time>2017-06-10T12:47:11Z</time>
      </trkpt>
      <trkpt lat="42.78164" lon="1.50673">
        <ele>995.45837104195</ele>
        <time>2017-06-10T12:47:11Z</time>
      </trkpt>
      <trkpt lat="42.78167" lon="1.50669">
        <ele>995.09546217562</ele>
        <time>2017-06-10T12:47:31Z</time>
      </trkpt>
      <trkpt lat="42.78169" lon="1.50667">
        <ele>995.09546217562</ele>
        <time>2017-06-10T12:47:31Z</time>
      </trkpt>
      <trkpt lat="42.7817" lon="1.50661">
        <ele>995.09546217562</ele>
        <time>2017-06-10T12:47:31Z</time>
      </trkpt>
      <trkpt lat="42.78171" lon="1.50659">
        <ele>995.09546217562</ele>
        <time>2017-06-10T12:47:31Z</time>
      </trkpt>
      <trkpt lat="42.78171" lon="1.50657">
        <ele>995.92060456831</ele>
        <time>2017-06-10T12:47:31Z</time>
      </trkpt>
      <trkpt lat="42.78169" lon="1.5065">
        <ele>995.92060456831</ele>
        <time>2017-06-10T12:47:59Z</time>
      </trkpt>
      <trkpt lat="42.78168" lon="1.50647">
        <ele>995.92060456831</ele>
        <time>2017-06-10T12:48:00Z</time>
      </trkpt>
      <trkpt lat="42.78167" lon="1.50647">
        <ele>995.92060456831</ele>
        <time>2017-06-10T12:48:00Z</time>
      </trkpt>
      <trkpt lat="42.78168" lon="1.50645">
        <ele>997.70040713355</ele>
        <time>2017-06-10T12:48:00Z</time>
      </trkpt>
      <trkpt lat="42.78165" lon="1.50641">
        <ele>997.70040713355</ele>
        <time>2017-06-10T12:48:00Z</time>
      </trkpt>
      <trkpt lat="42.78162" lon="1.50635">
        <ele>998.34246143896</ele>
        <time>2017-06-10T12:48:15Z</time>
      </trkpt>
      <trkpt lat="42.78159" lon="1.50628">
        <ele>998.34246143896</ele>
        <time>2017-06-10T12:48:15Z</time>
      </trkpt>
      <trkpt lat="42.78157" lon="1.50621">
        <ele>997.64055961447</ele>
        <time>2017-06-10T12:48:15Z</time>
      </trkpt>
      <trkpt lat="42.78158" lon="1.50614">
        <ele>997.64055961447</ele>
        <time>2017-06-10T12:48:15Z</time>
      </trkpt>
      <trkpt lat="42.78157" lon="1.5061">
        <ele>997.64055961447</ele>
        <time>2017-06-10T12:48:35Z</time>
      </trkpt>
      <trkpt lat="42.78156" lon="1.50605">
        <ele>998.14549947409</ele>
        <time>2017-06-10T12:48:35Z</time>
      </trkpt>
      <trkpt lat="42.78153" lon="1.50602">
        <ele>998.14549947409</ele>
        <time>2017-06-10T12:48:35Z</time>
      </trkpt>
      <trkpt lat="42.78153" lon="1.506">
        <ele>998.14549947409</ele>
        <time>2017-06-10T12:48:35Z</time>
      </trkpt>
      <trkpt lat="42.78152" lon="1.50596">
        <ele>998.14549947409</ele>
        <time>2017-06-10T12:48:35Z</time>
      </trkpt>
      <trkpt lat="42.7815" lon="1.50591">
        <ele>998.90273724364</ele>
        <time>2017-06-10T12:48:52Z</time>
      </trkpt>
      <trkpt lat="42.7815" lon="1.50586">
        <ele>998.90273724364</ele>
        <time>2017-06-10T12:48:52Z</time>
      </trkpt>
      <trkpt lat="42.78147" lon="1.5058">
        <ele>998.90273724364</ele>
        <time>2017-06-10T12:48:52Z</time>
      </trkpt>
      <trkpt lat="42.78145" lon="1.50574">
        <ele>999.17123653163</ele>
        <time>2017-06-10T12:48:52Z</time>
      </trkpt>
      <trkpt lat="42.78143" lon="1.5057">
        <ele>999.17123653163</ele>
        <time>2017-06-10T12:49:07Z</time>
      </trkpt>
      <trkpt lat="42.78142" lon="1.50565">
        <ele>999.17123653163</ele>
        <time>2017-06-10T12:49:07Z</time>
      </trkpt>
      <trkpt lat="42.78139" lon="1.5056">
        <ele>999.99508996483</ele>
        <time>2017-06-10T12:49:07Z</time>
      </trkpt>
      <trkpt lat="42.78137" lon="1.50557">
        <ele>999.99508996483</ele>
        <time>2017-06-10T12:49:07Z</time>
      </trkpt>
      <trkpt lat="42.78135" lon="1.50552">
        <ele>999.99508996483</ele>
        <time>2017-06-10T12:49:23Z</time>
      </trkpt>
      <trkpt lat="42.78133" lon="1.50546">
        <ele>999.60201310502</ele>
        <time>2017-06-10T12:49:23Z</time>
      </trkpt>
      <trkpt lat="42.78131" lon="1.50541">
        <ele>999.60201310502</ele>
        <time>2017-06-10T12:49:23Z</time>
      </trkpt>
      <trkpt lat="42.78131" lon="1.50537">
        <ele>999.60201310502</ele>
        <time>2017-06-10T12:49:23Z</time>
      </trkpt>
      <trkpt lat="42.7813" lon="1.50532">
        <ele>999.66787764953</ele>
        <time>2017-06-10T12:49:39Z</time>
      </trkpt>
      <trkpt lat="42.78129" lon="1.50526">
        <ele>999.66787764953</ele>
        <time>2017-06-10T12:49:39Z</time>
      </trkpt>
      <trkpt lat="42.78128" lon="1.50521">
        <ele>999.66787764953</ele>
        <time>2017-06-10T12:49:39Z</time>
      </trkpt>
      <trkpt lat="42.78125" lon="1.50515">
        <ele>999.29426453372</ele>
        <time>2017-06-10T12:49:39Z</time>
      </trkpt>
      <trkpt lat="42.78124" lon="1.50509">
        <ele>999.29426453372</ele>
        <time>2017-06-10T12:49:55Z</time>
      </trkpt>
      <trkpt lat="42.78124" lon="1.50503">
        <ele>999.29426453372</ele>
        <time>2017-06-10T12:49:55Z</time>
      </trkpt>
      <trkpt lat="42.78123" lon="1.50497">
        <ele>998.22642268968</ele>
        <time>2017-06-10T12:49:55Z</time>
      </trkpt>
      <trkpt lat="42.78122" lon="1.50491">
        <ele>998.22642268968</ele>
        <time>2017-06-10T12:49:55Z</time>
      </trkpt>
      <trkpt lat="42.78122" lon="1.50486">
        <ele>998.22642268968</ele>
        <time>2017-06-10T12:50:11Z</time>
      </trkpt>
      <trkpt lat="42.78122" lon="1.50482">
        <ele>997.52725234048</ele>
        <time>2017-06-10T12:50:11Z</time>
      </trkpt>
      <trkpt lat="42.78122" lon="1.50478">
        <ele>997.52725234048</ele>
        <time>2017-06-10T12:50:11Z</time>
      </trkpt>
      <trkpt lat="42.78121" lon="1.50474">
        <ele>997.52725234048</ele>
        <time>2017-06-10T12:50:12Z</time>
      </trkpt>
      <trkpt lat="42.7812" lon="1.50467">
        <ele>996.30707820494</ele>
        <time>2017-06-10T12:50:27Z</time>
      </trkpt>
      <trkpt lat="42.78122" lon="1.50462">
        <ele>996.30707820494</ele>
        <time>2017-06-10T12:50:27Z</time>
      </trkpt>
      <trkpt lat="42.78124" lon="1.50458">
        <ele>996.30707820494</ele>
        <time>2017-06-10T12:50:27Z</time>
      </trkpt>
      <trkpt lat="42.78124" lon="1.50453">
        <ele>995.47235323301</ele>
        <time>2017-06-10T12:50:27Z</time>
      </trkpt>
      <trkpt lat="42.78124" lon="1.50447">
        <ele>995.47235323301</ele>
        <time>2017-06-10T12:50:43Z</time>
      </trkpt>
      <trkpt lat="42.78123" lon="1.5044">
        <ele>995.71772343305</ele>
        <time>2017-06-10T12:50:43Z</time>
      </trkpt>
      <trkpt lat="42.78123" lon="1.50434">
        <ele>995.71772343305</ele>
        <time>2017-06-10T12:50:43Z</time>
      </trkpt>
      <trkpt lat="42.78125" lon="1.50428">
        <ele>995.52207882192</ele>
        <time>2017-06-10T12:50:43Z</time>
      </trkpt>
      <trkpt lat="42.78125" lon="1.50422">
        <ele>995.52207882192</ele>
        <time>2017-06-10T12:50:59Z</time>
      </trkpt>
      <trkpt lat="42.78126" lon="1.50419">
        <ele>995.52207882192</ele>
        <time>2017-06-10T12:50:59Z</time>
      </trkpt>
      <trkpt lat="42.78129" lon="1.50415">
        <ele>995.78303446042</ele>
        <time>2017-06-10T12:50:59Z</time>
      </trkpt>
      <trkpt lat="42.78132" lon="1.50409">
        <ele>995.78303446042</ele>
        <time>2017-06-10T12:50:59Z</time>
      </trkpt>
      <trkpt lat="42.78134" lon="1.50405">
        <ele>995.78303446042</ele>
        <time>2017-06-10T12:51:15Z</time>
      </trkpt>
      <trkpt lat="42.78134" lon="1.50404">
        <ele>996.46629141481</ele>
        <time>2017-06-10T12:51:16Z</time>
      </trkpt>
      <trkpt lat="42.78138" lon="1.50398">
        <ele>996.46629141481</ele>
        <time>2017-06-10T12:51:16Z</time>
      </trkpt>
      <trkpt lat="42.78142" lon="1.50396">
        <ele>997.82708612266</ele>
        <time>2017-06-10T12:51:16Z</time>
      </trkpt>
      <trkpt lat="42.78147" lon="1.50395">
        <ele>997.82708612266</ele>
        <time>2017-06-10T12:51:31Z</time>
      </trkpt>
      <trkpt lat="42.78152" lon="1.50394">
        <ele>998.80298944181</ele>
        <time>2017-06-10T12:51:31Z</time>
      </trkpt>
      <trkpt lat="42.78155" lon="1.50394">
        <ele>998.80298944181</ele>
        <time>2017-06-10T12:51:31Z</time>
      </trkpt>
      <trkpt lat="42.78158" lon="1.50395">
        <ele>998.80298944181</ele>
        <time>2017-06-10T12:51:31Z</time>
      </trkpt>
      <trkpt lat="42.78164" lon="1.5039">
        <ele>1002.0134744066</ele>
        <time>2017-06-10T12:52:55Z</time>
      </trkpt>
      <trkpt lat="42.78164" lon="1.50389">
        <ele>1002.0134744066</ele>
        <time>2017-06-10T12:52:55Z</time>
      </trkpt>
      <trkpt lat="42.78164" lon="1.50389">
        <ele>1002.0134744066</ele>
        <time>2017-06-10T12:52:55Z</time>
      </trkpt>
      <trkpt lat="42.78164" lon="1.50387">
        <ele>1002.0134744066</ele>
        <time>2017-06-10T12:52:55Z</time>
      </trkpt>
      <trkpt lat="42.78163" lon="1.50383">
        <ele>1002.0134744066</ele>
        <time>2017-06-10T12:52:55Z</time>
      </trkpt>
      <trkpt lat="42.78162" lon="1.50378">
        <ele>1002.0134744066</ele>
        <time>2017-06-10T12:53:11Z</time>
      </trkpt>
      <trkpt lat="42.78162" lon="1.50373">
        <ele>1004.9795541097</ele>
        <time>2017-06-10T12:53:11Z</time>
      </trkpt>
      <trkpt lat="42.7816" lon="1.5037">
        <ele>1004.9795541097</ele>
        <time>2017-06-10T12:53:11Z</time>
      </trkpt>
      <trkpt lat="42.78159" lon="1.50366">
        <ele>1004.9795541097</ele>
        <time>2017-06-10T12:53:11Z</time>
      </trkpt>
      <trkpt lat="42.78154" lon="1.5037">
        <ele>1009.4401794567</ele>
        <time>2017-06-10T13:07:03Z</time>
      </trkpt>
      <trkpt lat="42.78154" lon="1.50371">
        <ele>1009.4401794567</ele>
        <time>2017-06-10T13:07:04Z</time>
      </trkpt>
      <trkpt lat="42.78154" lon="1.50372">
        <ele>1009.4401794567</ele>
        <time>2017-06-10T13:07:04Z</time>
      </trkpt>
      <trkpt lat="42.78154" lon="1.50373">
        <ele>1009.4401794567</ele>
        <time>2017-06-10T13:07:04Z</time>
      </trkpt>
      <trkpt lat="42.78154" lon="1.50373">
        <ele>1009.4401794567</ele>
        <time>2017-06-10T13:07:04Z</time>
      </trkpt>
      <trkpt lat="42.78156" lon="1.50363">
        <ele>1012.3908660255</ele>
        <time>2017-06-10T13:17:23Z</time>
      </trkpt>
      <trkpt lat="42.78156" lon="1.50362">
        <ele>1012.3908660255</ele>
        <time>2017-06-10T13:17:23Z</time>
      </trkpt>
      <trkpt lat="42.78157" lon="1.50361">
        <ele>1012.3908660255</ele>
        <time>2017-06-10T13:17:23Z</time>
      </trkpt>
      <trkpt lat="42.78157" lon="1.50361">
        <ele>1012.3908660255</ele>
        <time>2017-06-10T13:17:23Z</time>
      </trkpt>
      <trkpt lat="42.78159" lon="1.50357">
        <ele>1012.3908660255</ele>
        <time>2017-06-10T13:17:23Z</time>
      </trkpt>
      <trkpt lat="42.78161" lon="1.50352">
        <ele>1013.5020405365</ele>
        <time>2017-06-10T13:17:39Z</time>
      </trkpt>
      <trkpt lat="42.78162" lon="1.50344">
        <ele>1013.5020405365</ele>
        <time>2017-06-10T13:17:39Z</time>
      </trkpt>
      <trkpt lat="42.78164" lon="1.50341">
        <ele>1013.5020405365</ele>
        <time>2017-06-10T13:17:39Z</time>
      </trkpt>
      <trkpt lat="42.78165" lon="1.50341">
        <ele>1014.3470389937</ele>
        <time>2017-06-10T13:17:39Z</time>
      </trkpt>
      <trkpt lat="42.78166" lon="1.5034">
        <ele>1014.3470389937</ele>
        <time>2017-06-10T13:18:47Z</time>
      </trkpt>
      <trkpt lat="42.78165" lon="1.50345">
        <ele>1014.3470389937</ele>
        <time>2017-06-10T13:18:47Z</time>
      </trkpt>
      <trkpt lat="42.78163" lon="1.50346">
        <ele>1014.3470389937</ele>
        <time>2017-06-10T13:18:47Z</time>
      </trkpt>
      <trkpt lat="42.78162" lon="1.50348">
        <ele>1014.3470389937</ele>
        <time>2017-06-10T13:18:47Z</time>
      </trkpt>
      <trkpt lat="42.7816" lon="1.50352">
        <ele>1016.3844723848</ele>
        <time>2017-06-10T13:18:47Z</time>
      </trkpt>
      <trkpt lat="42.78165" lon="1.50355">
        <ele>1016.3844723848</ele>
        <time>2017-06-10T13:30:07Z</time>
      </trkpt>
      <trkpt lat="42.78166" lon="1.50355">
        <ele>1016.3844723848</ele>
        <time>2017-06-10T13:30:07Z</time>
      </trkpt>
      <trkpt lat="42.78166" lon="1.50353">
        <ele>1016.3844723848</ele>
        <time>2017-06-10T13:30:07Z</time>
      </trkpt>
      <trkpt lat="42.78167" lon="1.50353">
        <ele>1016.3844723848</ele>
        <time>2017-06-10T13:30:07Z</time>
      </trkpt>
      <trkpt lat="42.78168" lon="1.50352">
        <ele>1016.3844723848</ele>
        <time>2017-06-10T13:30:07Z</time>
      </trkpt>
      <trkpt lat="42.78168" lon="1.50352">
        <ele>1016.4951182686</ele>
        <time>2017-06-10T13:36:51Z</time>
      </trkpt>
      <trkpt lat="42.78165" lon="1.5035">
        <ele>1016.4951182686</ele>
        <time>2017-06-10T13:36:51Z</time>
      </trkpt>
      <trkpt lat="42.78162" lon="1.50345">
        <ele>1016.4951182686</ele>
        <time>2017-06-10T13:36:51Z</time>
      </trkpt>
      <trkpt lat="42.78158" lon="1.50342">
        <ele>1015.108954775</ele>
        <time>2017-06-10T13:36:51Z</time>
      </trkpt>
      <trkpt lat="42.78152" lon="1.50339">
        <ele>1015.108954775</ele>
        <time>2017-06-10T13:36:51Z</time>
      </trkpt>
      <trkpt lat="42.78147" lon="1.50336">
        <ele>1014.2138908345</ele>
        <time>2017-06-10T13:37:08Z</time>
      </trkpt>
      <trkpt lat="42.78143" lon="1.50331">
        <ele>1014.2138908345</ele>
        <time>2017-06-10T13:37:08Z</time>
      </trkpt>
      <trkpt lat="42.78142" lon="1.50321">
        <ele>1012.6241745547</ele>
        <time>2017-06-10T13:37:08Z</time>
      </trkpt>
      <trkpt lat="42.78141" lon="1.50312">
        <ele>1012.6241745547</ele>
        <time>2017-06-10T13:37:08Z</time>
      </trkpt>
      <trkpt lat="42.78138" lon="1.50309">
        <ele>1011.693062607</ele>
        <time>2017-06-10T13:37:23Z</time>
      </trkpt>
      <trkpt lat="42.78134" lon="1.50304">
        <ele>1011.693062607</ele>
        <time>2017-06-10T13:37:23Z</time>
      </trkpt>
      <trkpt lat="42.78132" lon="1.503">
        <ele>1011.693062607</ele>
        <time>2017-06-10T13:37:23Z</time>
      </trkpt>
      <trkpt lat="42.78132" lon="1.50296">
        <ele>1010.3668235693</ele>
        <time>2017-06-10T13:37:23Z</time>
      </trkpt>
      <trkpt lat="42.7813" lon="1.50292">
        <ele>1010.3668235693</ele>
        <time>2017-06-10T13:37:40Z</time>
      </trkpt>
      <trkpt lat="42.78132" lon="1.50286">
        <ele>1010.3668235693</ele>
        <time>2017-06-10T13:37:40Z</time>
      </trkpt>
      <trkpt lat="42.78132" lon="1.50281">
        <ele>1009.5437181049</ele>
        <time>2017-06-10T13:37:40Z</time>
      </trkpt>
      <trkpt lat="42.78132" lon="1.50276">
        <ele>1009.5437181049</ele>
        <time>2017-06-10T13:37:40Z</time>
      </trkpt>
      <trkpt lat="42.78124" lon="1.50269">
        <ele>1008.6135155871</ele>
        <time>2017-06-10T13:38:27Z</time>
      </trkpt>
      <trkpt lat="42.78124" lon="1.50269">
        <ele>1008.6135155871</ele>
        <time>2017-06-10T13:38:27Z</time>
      </trkpt>
      <trkpt lat="42.78124" lon="1.50269">
        <ele>1008.6135155871</ele>
        <time>2017-06-10T13:38:27Z</time>
      </trkpt>
      <trkpt lat="42.78124" lon="1.50268">
        <ele>1008.6135155871</ele>
        <time>2017-06-10T13:38:27Z</time>
      </trkpt>
      <trkpt lat="42.78121" lon="1.50261">
        <ele>1008.6135155871</ele>
        <time>2017-06-10T13:38:27Z</time>
      </trkpt>
      <trkpt lat="42.78115" lon="1.50253">
        <ele>1007.7316740213</ele>
        <time>2017-06-10T13:38:43Z</time>
      </trkpt>
      <trkpt lat="42.78108" lon="1.50244">
        <ele>1006.4656446361</ele>
        <time>2017-06-10T13:38:43Z</time>
      </trkpt>
      <trkpt lat="42.78105" lon="1.50235">
        <ele>1006.4656446361</ele>
        <time>2017-06-10T13:38:43Z</time>
      </trkpt>
      <trkpt lat="42.78101" lon="1.50226">
        <ele>1004.4157124486</ele>
        <time>2017-06-10T13:38:43Z</time>
      </trkpt>
      <trkpt lat="42.78098" lon="1.50219">
        <ele>1004.4157124486</ele>
        <time>2017-06-10T13:38:59Z</time>
      </trkpt>
      <trkpt lat="42.78097" lon="1.50215">
        <ele>1001.6460248131</ele>
        <time>2017-06-10T13:38:59Z</time>
      </trkpt>
      <trkpt lat="42.78095" lon="1.50211">
        <ele>1001.6460248131</ele>
        <time>2017-06-10T13:38:59Z</time>
      </trkpt>
      <trkpt lat="42.78094" lon="1.50205">
        <ele>1001.6460248131</ele>
        <time>2017-06-10T13:38:59Z</time>
      </trkpt>
      <trkpt lat="42.78093" lon="1.50197">
        <ele>999.94732237022</ele>
        <time>2017-06-10T13:39:15Z</time>
      </trkpt>
      <trkpt lat="42.78091" lon="1.50189">
        <ele>999.94732237022</ele>
        <time>2017-06-10T13:39:15Z</time>
      </trkpt>
      <trkpt lat="42.7809" lon="1.50183">
        <ele>998.52584219837</ele>
        <time>2017-06-10T13:39:15Z</time>
      </trkpt>
      <trkpt lat="42.78088" lon="1.50178">
        <ele>998.52584219837</ele>
        <time>2017-06-10T13:39:15Z</time>
      </trkpt>
      <trkpt lat="42.78085" lon="1.50173">
        <ele>998.52584219837</ele>
        <time>2017-06-10T13:39:31Z</time>
      </trkpt>
      <trkpt lat="42.78086" lon="1.50168">
        <ele>997.22172183361</ele>
        <time>2017-06-10T13:39:31Z</time>
      </trkpt>
      <trkpt lat="42.78085" lon="1.50163">
        <ele>997.22172183361</ele>
        <time>2017-06-10T13:39:31Z</time>
      </trkpt>
      <trkpt lat="42.78083" lon="1.50159">
        <ele>997.22172183361</ele>
        <time>2017-06-10T13:39:31Z</time>
      </trkpt>
      <trkpt lat="42.78083" lon="1.50158">
        <ele>997.22172183361</ele>
        <time>2017-06-10T13:39:55Z</time>
      </trkpt>
      <trkpt lat="42.78082" lon="1.50157">
        <ele>995.59820402439</ele>
        <time>2017-06-10T13:39:55Z</time>
      </trkpt>
      <trkpt lat="42.78081" lon="1.50155">
        <ele>995.59820402439</ele>
        <time>2017-06-10T13:39:55Z</time>
      </trkpt>
      <trkpt lat="42.78081" lon="1.50148">
        <ele>995.59820402439</ele>
        <time>2017-06-10T13:39:55Z</time>
      </trkpt>
      <trkpt lat="42.78078" lon="1.50142">
        <ele>993.53963855213</ele>
        <time>2017-06-10T13:39:55Z</time>
      </trkpt>
      <trkpt lat="42.78074" lon="1.50136">
        <ele>993.53963855213</ele>
        <time>2017-06-10T13:40:11Z</time>
      </trkpt>
      <trkpt lat="42.78072" lon="1.50127">
        <ele>992.09287810076</ele>
        <time>2017-06-10T13:40:11Z</time>
      </trkpt>
      <trkpt lat="42.7807" lon="1.5012">
        <ele>992.09287810076</ele>
        <time>2017-06-10T13:40:11Z</time>
      </trkpt>
      <trkpt lat="42.7807" lon="1.50113">
        <ele>990.49671423744</ele>
        <time>2017-06-10T13:40:11Z</time>
      </trkpt>
      <trkpt lat="42.78068" lon="1.50106">
        <ele>990.49671423744</ele>
        <time>2017-06-10T13:40:27Z</time>
      </trkpt>
      <trkpt lat="42.78066" lon="1.50099">
        <ele>989.34316065755</ele>
        <time>2017-06-10T13:40:27Z</time>
      </trkpt>
      <trkpt lat="42.78066" lon="1.50092">
        <ele>989.34316065755</ele>
        <time>2017-06-10T13:40:27Z</time>
      </trkpt>
      <trkpt lat="42.78066" lon="1.50086">
        <ele>988.3147141612</ele>
        <time>2017-06-10T13:40:27Z</time>
      </trkpt>
      <trkpt lat="42.78065" lon="1.50082">
        <ele>988.3147141612</ele>
        <time>2017-06-10T13:40:43Z</time>
      </trkpt>
      <trkpt lat="42.78062" lon="1.50077">
        <ele>988.3147141612</ele>
        <time>2017-06-10T13:40:43Z</time>
      </trkpt>
      <trkpt lat="42.78061" lon="1.50071">
        <ele>986.82850020545</ele>
        <time>2017-06-10T13:40:43Z</time>
      </trkpt>
      <trkpt lat="42.7806" lon="1.50065">
        <ele>986.82850020545</ele>
        <time>2017-06-10T13:40:43Z</time>
      </trkpt>
      <trkpt lat="42.7806" lon="1.50058">
        <ele>985.49851249081</ele>
        <time>2017-06-10T13:40:59Z</time>
      </trkpt>
      <trkpt lat="42.7806" lon="1.50052">
        <ele>985.49851249081</ele>
        <time>2017-06-10T13:40:59Z</time>
      </trkpt>
      <trkpt lat="42.7806" lon="1.50046">
        <ele>984.60485773174</ele>
        <time>2017-06-10T13:40:59Z</time>
      </trkpt>
      <trkpt lat="42.78062" lon="1.50042">
        <ele>984.60485773174</ele>
        <time>2017-06-10T13:40:59Z</time>
      </trkpt>
      <trkpt lat="42.78058" lon="1.50038">
        <ele>984.60485773174</ele>
        <time>2017-06-10T13:41:15Z</time>
      </trkpt>
      <trkpt lat="42.78057" lon="1.50035">
        <ele>983.97338694018</ele>
        <time>2017-06-10T13:41:15Z</time>
      </trkpt>
      <trkpt lat="42.78055" lon="1.50031">
        <ele>983.97338694018</ele>
        <time>2017-06-10T13:41:15Z</time>
      </trkpt>
      <trkpt lat="42.78056" lon="1.50025">
        <ele>983.97338694018</ele>
        <time>2017-06-10T13:41:15Z</time>
      </trkpt>
      <trkpt lat="42.78054" lon="1.50021">
        <ele>982.72133222389</ele>
        <time>2017-06-10T13:41:31Z</time>
      </trkpt>
      <trkpt lat="42.78053" lon="1.50017">
        <ele>982.72133222389</ele>
        <time>2017-06-10T13:41:31Z</time>
      </trkpt>
      <trkpt lat="42.78051" lon="1.50013">
        <ele>982.72133222389</ele>
        <time>2017-06-10T13:41:31Z</time>
      </trkpt>
      <trkpt lat="42.78049" lon="1.50007">
        <ele>981.6176191555</ele>
        <time>2017-06-10T13:41:31Z</time>
      </trkpt>
      <trkpt lat="42.78047" lon="1.50004">
        <ele>981.6176191555</ele>
        <time>2017-06-10T13:41:47Z</time>
      </trkpt>
      <trkpt lat="42.78042" lon="1.50003">
        <ele>981.6176191555</ele>
        <time>2017-06-10T13:41:47Z</time>
      </trkpt>
      <trkpt lat="42.78038" lon="1.50003">
        <ele>981.37415869471</ele>
        <time>2017-06-10T13:41:47Z</time>
      </trkpt>
      <trkpt lat="42.78036" lon="1.5">
        <ele>981.37415869471</ele>
        <time>2017-06-10T13:41:47Z</time>
      </trkpt>
      <trkpt lat="42.78035" lon="1.49997">
        <ele>981.37415869471</ele>
        <time>2017-06-10T13:42:03Z</time>
      </trkpt>
      <trkpt lat="42.78031" lon="1.4999">
        <ele>980.34226313919</ele>
        <time>2017-06-10T13:42:03Z</time>
      </trkpt>
      <trkpt lat="42.78028" lon="1.49988">
        <ele>980.34226313919</ele>
        <time>2017-06-10T13:42:03Z</time>
      </trkpt>
      <trkpt lat="42.78027" lon="1.49984">
        <ele>980.34226313919</ele>
        <time>2017-06-10T13:42:03Z</time>
      </trkpt>
      <trkpt lat="42.78024" lon="1.49978">
        <ele>978.14934905609</ele>
        <time>2017-06-10T13:42:19Z</time>
      </trkpt>
      <trkpt lat="42.78023" lon="1.49971">
        <ele>978.14934905609</ele>
        <time>2017-06-10T13:42:20Z</time>
      </trkpt>
      <trkpt lat="42.78022" lon="1.49964">
        <ele>976.47090913855</ele>
        <time>2017-06-10T13:42:20Z</time>
      </trkpt>
      <trkpt lat="42.7802" lon="1.49958">
        <ele>976.47090913855</ele>
        <time>2017-06-10T13:42:20Z</time>
      </trkpt>
      <trkpt lat="42.78015" lon="1.49954">
        <ele>975.70491703627</ele>
        <time>2017-06-10T13:42:35Z</time>
      </trkpt>
      <trkpt lat="42.78012" lon="1.49948">
        <ele>975.70491703627</ele>
        <time>2017-06-10T13:42:35Z</time>
      </trkpt>
      <trkpt lat="42.78008" lon="1.49942">
        <ele>975.20866869345</ele>
        <time>2017-06-10T13:42:35Z</time>
      </trkpt>
      <trkpt lat="42.78006" lon="1.4994">
        <ele>975.20866869345</ele>
        <time>2017-06-10T13:42:35Z</time>
      </trkpt>
      <trkpt lat="42.78004" lon="1.49938">
        <ele>975.20866869345</ele>
        <time>2017-06-10T13:42:59Z</time>
      </trkpt>
      <trkpt lat="42.78004" lon="1.49938">
        <ele>975.20866869345</ele>
        <time>2017-06-10T13:42:59Z</time>
      </trkpt>
      <trkpt lat="42.78004" lon="1.49938">
        <ele>975.20866869345</ele>
        <time>2017-06-10T13:42:59Z</time>
      </trkpt>
      <trkpt lat="42.78" lon="1.49933">
        <ele>975.10637032932</ele>
        <time>2017-06-10T13:42:59Z</time>
      </trkpt>
      <trkpt lat="42.77994" lon="1.4993">
        <ele>975.10637032932</ele>
        <time>2017-06-10T13:42:59Z</time>
      </trkpt>
      <trkpt lat="42.77989" lon="1.49925">
        <ele>975.80012819153</ele>
        <time>2017-06-10T13:43:15Z</time>
      </trkpt>
      <trkpt lat="42.77988" lon="1.49923">
        <ele>975.80012819153</ele>
        <time>2017-06-10T13:43:15Z</time>
      </trkpt>
      <trkpt lat="42.77984" lon="1.4992">
        <ele>975.80012819153</ele>
        <time>2017-06-10T13:43:15Z</time>
      </trkpt>
      <trkpt lat="42.77979" lon="1.49917">
        <ele>975.93086060426</ele>
        <time>2017-06-10T13:43:15Z</time>
      </trkpt>
      <trkpt lat="42.77976" lon="1.49913">
        <ele>975.93086060426</ele>
        <time>2017-06-10T13:43:35Z</time>
      </trkpt>
      <trkpt lat="42.77973" lon="1.4991">
        <ele>975.93086060426</ele>
        <time>2017-06-10T13:43:35Z</time>
      </trkpt>
      <trkpt lat="42.77971" lon="1.49909">
        <ele>975.3937208315</ele>
        <time>2017-06-10T13:43:35Z</time>
      </trkpt>
      <trkpt lat="42.77969" lon="1.49907">
        <ele>975.3937208315</ele>
        <time>2017-06-10T13:43:35Z</time>
      </trkpt>
      <trkpt lat="42.77965" lon="1.49905">
        <ele>975.3937208315</ele>
        <time>2017-06-10T13:43:35Z</time>
      </trkpt>
      <trkpt lat="42.77961" lon="1.49905">
        <ele>974.81393278489</ele>
        <time>2017-06-10T13:43:52Z</time>
      </trkpt>
      <trkpt lat="42.77958" lon="1.49904">
        <ele>974.81393278489</ele>
        <time>2017-06-10T13:43:52Z</time>
      </trkpt>
      <trkpt lat="42.77955" lon="1.49904">
        <ele>974.81393278489</ele>
        <time>2017-06-10T13:43:52Z</time>
      </trkpt>
      <trkpt lat="42.7795" lon="1.49904">
        <ele>974.62674856715</ele>
        <time>2017-06-10T13:43:52Z</time>
      </trkpt>
      <trkpt lat="42.77947" lon="1.49903">
        <ele>974.62674856715</ele>
        <time>2017-06-10T13:44:12Z</time>
      </trkpt>
      <trkpt lat="42.77946" lon="1.49902">
        <ele>974.62674856715</ele>
        <time>2017-06-10T13:44:12Z</time>
      </trkpt>
      <trkpt lat="42.77945" lon="1.49898">
        <ele>974.62674856715</ele>
        <time>2017-06-10T13:44:12Z</time>
      </trkpt>
      <trkpt lat="42.77943" lon="1.49894">
        <ele>972.78440798753</ele>
        <time>2017-06-10T13:44:12Z</time>
      </trkpt>
      <trkpt lat="42.7794" lon="1.49892">
        <ele>972.78440798753</ele>
        <time>2017-06-10T13:44:12Z</time>
      </trkpt>
      <trkpt lat="42.77938" lon="1.49891">
        <ele>972.78440798753</ele>
        <time>2017-06-10T13:44:31Z</time>
      </trkpt>
      <trkpt lat="42.77935" lon="1.49892">
        <ele>972.78440798753</ele>
        <time>2017-06-10T13:44:31Z</time>
      </trkpt>
      <trkpt lat="42.77932" lon="1.49891">
        <ele>971.28517708885</ele>
        <time>2017-06-10T13:44:31Z</time>
      </trkpt>
      <trkpt lat="42.7793" lon="1.4989">
        <ele>971.28517708885</ele>
        <time>2017-06-10T13:44:31Z</time>
      </trkpt>
      <trkpt lat="42.77928" lon="1.49889">
        <ele>971.28517708885</ele>
        <time>2017-06-10T13:44:31Z</time>
      </trkpt>
      <trkpt lat="42.77927" lon="1.49887">
        <ele>971.28517708885</ele>
        <time>2017-06-10T13:45:12Z</time>
      </trkpt>
      <trkpt lat="42.77927" lon="1.49887">
        <ele>971.28517708885</ele>
        <time>2017-06-10T13:45:12Z</time>
      </trkpt>
      <trkpt lat="42.77927" lon="1.49885">
        <ele>971.28517708885</ele>
        <time>2017-06-10T13:45:12Z</time>
      </trkpt>
      <trkpt lat="42.77926" lon="1.49881">
        <ele>970.68252304865</ele>
        <time>2017-06-10T13:45:12Z</time>
      </trkpt>
      <trkpt lat="42.77923" lon="1.49871">
        <ele>970.68252304865</ele>
        <time>2017-06-10T13:45:12Z</time>
      </trkpt>
      <trkpt lat="42.77922" lon="1.49868">
        <ele>969.90147347805</ele>
        <time>2017-06-10T13:45:27Z</time>
      </trkpt>
      <trkpt lat="42.7792" lon="1.49863">
        <ele>969.90147347805</ele>
        <time>2017-06-10T13:45:27Z</time>
      </trkpt>
      <trkpt lat="42.7792" lon="1.49861">
        <ele>969.90147347805</ele>
        <time>2017-06-10T13:45:27Z</time>
      </trkpt>
      <trkpt lat="42.77916" lon="1.49854">
        <ele>968.23470022928</ele>
        <time>2017-06-10T13:45:27Z</time>
      </trkpt>
      <trkpt lat="42.77909" lon="1.49848">
        <ele>968.23470022928</ele>
        <time>2017-06-10T13:45:43Z</time>
      </trkpt>
      <trkpt lat="42.779" lon="1.49838">
        <ele>967.33505413557</ele>
        <time>2017-06-10T13:45:43Z</time>
      </trkpt>
      <trkpt lat="42.77892" lon="1.49833">
        <ele>967.33505413557</ele>
        <time>2017-06-10T13:45:44Z</time>
      </trkpt>
      <trkpt lat="42.77883" lon="1.4983">
        <ele>966.71421760182</ele>
        <time>2017-06-10T13:45:44Z</time>
      </trkpt>
      <trkpt lat="42.77876" lon="1.49827">
        <ele>966.71421760182</ele>
        <time>2017-06-10T13:45:59Z</time>
      </trkpt>
      <trkpt lat="42.7787" lon="1.49826">
        <ele>966.92770102673</ele>
        <time>2017-06-10T13:45:59Z</time>
      </trkpt>
      <trkpt lat="42.77867" lon="1.49826">
        <ele>966.92770102673</ele>
        <time>2017-06-10T13:45:59Z</time>
      </trkpt>
      <trkpt lat="42.77862" lon="1.49824">
        <ele>966.92770102673</ele>
        <time>2017-06-10T13:45:59Z</time>
      </trkpt>
      <trkpt lat="42.77856" lon="1.49822">
        <ele>966.18205192456</ele>
        <time>2017-06-10T13:46:16Z</time>
      </trkpt>
      <trkpt lat="42.77851" lon="1.4982">
        <ele>966.18205192456</ele>
        <time>2017-06-10T13:46:16Z</time>
      </trkpt>
      <trkpt lat="42.77849" lon="1.49818">
        <ele>966.18205192456</ele>
        <time>2017-06-10T13:46:16Z</time>
      </trkpt>
      <trkpt lat="42.77848" lon="1.49816">
        <ele>965.55633575486</ele>
        <time>2017-06-10T13:46:16Z</time>
      </trkpt>
      <trkpt lat="42.77845" lon="1.49817">
        <ele>965.55633575486</ele>
        <time>2017-06-10T13:46:31Z</time>
      </trkpt>
      <trkpt lat="42.77842" lon="1.49815">
        <ele>965.55633575486</ele>
        <time>2017-06-10T13:46:31Z</time>
      </trkpt>
      <trkpt lat="42.77837" lon="1.49814">
        <ele>964.32065344005</ele>
        <time>2017-06-10T13:46:31Z</time>
      </trkpt>
      <trkpt lat="42.77834" lon="1.49814">
        <ele>964.32065344005</ele>
        <time>2017-06-10T13:46:31Z</time>
      </trkpt>
      <trkpt lat="42.77832" lon="1.49813">
        <ele>964.32065344005</ele>
        <time>2017-06-10T13:46:51Z</time>
      </trkpt>
      <trkpt lat="42.77831" lon="1.49812">
        <ele>964.32065344005</ele>
        <time>2017-06-10T13:46:51Z</time>
      </trkpt>
      <trkpt lat="42.77831" lon="1.49812">
        <ele>964.32065344005</ele>
        <time>2017-06-10T13:46:51Z</time>
      </trkpt>
      <trkpt lat="42.77828" lon="1.49813">
        <ele>964.32065344005</ele>
        <time>2017-06-10T13:46:51Z</time>
      </trkpt>
      <trkpt lat="42.7782" lon="1.49812">
        <ele>963.09741159925</ele>
        <time>2017-06-10T13:46:51Z</time>
      </trkpt>
      <trkpt lat="42.77814" lon="1.49811">
        <ele>963.09741159925</ele>
        <time>2017-06-10T13:47:07Z</time>
      </trkpt>
      <trkpt lat="42.77806" lon="1.49811">
        <ele>962.17501487308</ele>
        <time>2017-06-10T13:47:07Z</time>
      </trkpt>
      <trkpt lat="42.77799" lon="1.49809">
        <ele>962.17501487308</ele>
        <time>2017-06-10T13:47:07Z</time>
      </trkpt>
      <trkpt lat="42.77793" lon="1.49807">
        <ele>961.38748168003</ele>
        <time>2017-06-10T13:47:07Z</time>
      </trkpt>
      <trkpt lat="42.77787" lon="1.49805">
        <ele>961.38748168003</ele>
        <time>2017-06-10T13:47:24Z</time>
      </trkpt>
      <trkpt lat="42.77781" lon="1.49804">
        <ele>961.44529118569</ele>
        <time>2017-06-10T13:47:24Z</time>
      </trkpt>
      <trkpt lat="42.77777" lon="1.49804">
        <ele>961.44529118569</ele>
        <time>2017-06-10T13:47:24Z</time>
      </trkpt>
      <trkpt lat="42.77774" lon="1.49804">
        <ele>961.44529118569</ele>
        <time>2017-06-10T13:47:24Z</time>
      </trkpt>
      <trkpt lat="42.77773" lon="1.49803">
        <ele>961.44529118569</ele>
        <time>2017-06-10T13:47:39Z</time>
      </trkpt>
      <trkpt lat="42.77771" lon="1.49801">
        <ele>961.1308969419</ele>
        <time>2017-06-10T13:47:39Z</time>
      </trkpt>
      <trkpt lat="42.77767" lon="1.49799">
        <ele>961.1308969419</ele>
        <time>2017-06-10T13:47:39Z</time>
      </trkpt>
      <trkpt lat="42.77763" lon="1.49797">
        <ele>960.03777865982</ele>
        <time>2017-06-10T13:47:39Z</time>
      </trkpt>
      <trkpt lat="42.77758" lon="1.49794">
        <ele>960.03777865982</ele>
        <time>2017-06-10T13:47:55Z</time>
      </trkpt>
      <trkpt lat="42.77755" lon="1.4979">
        <ele>960.03777865982</ele>
        <time>2017-06-10T13:47:56Z</time>
      </trkpt>
      <trkpt lat="42.77754" lon="1.49785">
        <ele>958.51200776078</ele>
        <time>2017-06-10T13:47:56Z</time>
      </trkpt>
      <trkpt lat="42.7775" lon="1.49785">
        <ele>958.51200776078</ele>
        <time>2017-06-10T13:47:56Z</time>
      </trkpt>
      <trkpt lat="42.77749" lon="1.49784">
        <ele>958.51200776078</ele>
        <time>2017-06-10T13:48:15Z</time>
      </trkpt>
      <trkpt lat="42.77749" lon="1.49784">
        <ele>958.51200776078</ele>
        <time>2017-06-10T13:48:15Z</time>
      </trkpt>
      <trkpt lat="42.77747" lon="1.49782">
        <ele>958.51200776078</ele>
        <time>2017-06-10T13:48:15Z</time>
      </trkpt>
      <trkpt lat="42.77744" lon="1.4978">
        <ele>956.87543627714</ele>
        <time>2017-06-10T13:48:16Z</time>
      </trkpt>
      <trkpt lat="42.7774" lon="1.49777">
        <ele>956.87543627714</ele>
        <time>2017-06-10T13:48:16Z</time>
      </trkpt>
      <trkpt lat="42.77737" lon="1.49774">
        <ele>956.87543627714</ele>
        <time>2017-06-10T13:48:31Z</time>
      </trkpt>
      <trkpt lat="42.77734" lon="1.49769">
        <ele>954.56190233629</ele>
        <time>2017-06-10T13:48:31Z</time>
      </trkpt>
      <trkpt lat="42.77732" lon="1.49764">
        <ele>954.56190233629</ele>
        <time>2017-06-10T13:48:31Z</time>
      </trkpt>
      <trkpt lat="42.7773" lon="1.4976">
        <ele>954.56190233629</ele>
        <time>2017-06-10T13:48:31Z</time>
      </trkpt>
      <trkpt lat="42.77728" lon="1.49756">
        <ele>952.05748973019</ele>
        <time>2017-06-10T13:48:47Z</time>
      </trkpt>
      <trkpt lat="42.77727" lon="1.49752">
        <ele>952.05748973019</ele>
        <time>2017-06-10T13:48:48Z</time>
      </trkpt>
      <trkpt lat="42.77723" lon="1.49748">
        <ele>952.05748973019</ele>
        <time>2017-06-10T13:48:48Z</time>
      </trkpt>
      <trkpt lat="42.7772" lon="1.49744">
        <ele>949.6689691309</ele>
        <time>2017-06-10T13:48:48Z</time>
      </trkpt>
      <trkpt lat="42.77716" lon="1.4974">
        <ele>949.6689691309</ele>
        <time>2017-06-10T13:49:07Z</time>
      </trkpt>
      <trkpt lat="42.77714" lon="1.49735">
        <ele>947.68021211189</ele>
        <time>2017-06-10T13:49:07Z</time>
      </trkpt>
      <trkpt lat="42.77711" lon="1.49731">
        <ele>947.68021211189</ele>
        <time>2017-06-10T13:49:07Z</time>
      </trkpt>
      <trkpt lat="42.77711" lon="1.49731">
        <ele>947.68021211189</ele>
        <time>2017-06-10T13:49:07Z</time>
      </trkpt>
      <trkpt lat="42.7771" lon="1.49731">
        <ele>947.68021211189</ele>
        <time>2017-06-10T13:49:07Z</time>
      </trkpt>
      <trkpt lat="42.77709" lon="1.4973">
        <ele>947.68021211189</ele>
        <time>2017-06-10T13:49:27Z</time>
      </trkpt>
      <trkpt lat="42.77708" lon="1.49728">
        <ele>947.68021211189</ele>
        <time>2017-06-10T13:49:27Z</time>
      </trkpt>
      <trkpt lat="42.77706" lon="1.49726">
        <ele>946.20895815571</ele>
        <time>2017-06-10T13:49:27Z</time>
      </trkpt>
      <trkpt lat="42.77705" lon="1.49723">
        <ele>946.20895815571</ele>
        <time>2017-06-10T13:49:27Z</time>
      </trkpt>
      <trkpt lat="42.77704" lon="1.49719">
        <ele>946.20895815571</ele>
        <time>2017-06-10T13:49:27Z</time>
      </trkpt>
      <trkpt lat="42.77702" lon="1.49715">
        <ele>945.36279515381</ele>
        <time>2017-06-10T13:49:51Z</time>
      </trkpt>
      <trkpt lat="42.77701" lon="1.49713">
        <ele>945.36279515381</ele>
        <time>2017-06-10T13:49:51Z</time>
      </trkpt>
      <trkpt lat="42.777" lon="1.49709">
        <ele>945.36279515381</ele>
        <time>2017-06-10T13:49:51Z</time>
      </trkpt>
      <trkpt lat="42.77699" lon="1.49706">
        <ele>945.36279515381</ele>
        <time>2017-06-10T13:49:51Z</time>
      </trkpt>
      <trkpt lat="42.77698" lon="1.49703">
        <ele>945.36279515381</ele>
        <time>2017-06-10T13:49:51Z</time>
      </trkpt>
      <trkpt lat="42.77698" lon="1.49701">
        <ele>944.23082366168</ele>
        <time>2017-06-10T13:50:07Z</time>
      </trkpt>
      <trkpt lat="42.77696" lon="1.49697">
        <ele>944.23082366168</ele>
        <time>2017-06-10T13:50:07Z</time>
      </trkpt>
      <trkpt lat="42.77695" lon="1.49694">
        <ele>944.23082366168</ele>
        <time>2017-06-10T13:50:07Z</time>
      </trkpt>
      <trkpt lat="42.77695" lon="1.49688">
        <ele>942.97858709938</ele>
        <time>2017-06-10T13:50:07Z</time>
      </trkpt>
      <trkpt lat="42.77693" lon="1.49681">
        <ele>942.97858709938</ele>
        <time>2017-06-10T13:50:23Z</time>
      </trkpt>
      <trkpt lat="42.77691" lon="1.49677">
        <ele>941.32742245616</ele>
        <time>2017-06-10T13:50:24Z</time>
      </trkpt>
      <trkpt lat="42.7769" lon="1.49672">
        <ele>941.32742245616</ele>
        <time>2017-06-10T13:50:24Z</time>
      </trkpt>
      <trkpt lat="42.77687" lon="1.49668">
        <ele>941.32742245616</ele>
        <time>2017-06-10T13:50:24Z</time>
      </trkpt>
      <trkpt lat="42.77683" lon="1.49663">
        <ele>939.88487517771</ele>
        <time>2017-06-10T13:50:39Z</time>
      </trkpt>
      <trkpt lat="42.77682" lon="1.49658">
        <ele>939.88487517771</ele>
        <time>2017-06-10T13:50:39Z</time>
      </trkpt>
      <trkpt lat="42.77681" lon="1.49651">
        <ele>939.21322918566</ele>
        <time>2017-06-10T13:50:39Z</time>
      </trkpt>
      <trkpt lat="42.77681" lon="1.49646">
        <ele>939.21322918566</ele>
        <time>2017-06-10T13:50:39Z</time>
      </trkpt>
      <trkpt lat="42.77681" lon="1.49641">
        <ele>939.21322918566</ele>
        <time>2017-06-10T13:50:59Z</time>
      </trkpt>
      <trkpt lat="42.77681" lon="1.49638">
        <ele>938.53425610825</ele>
        <time>2017-06-10T13:51:00Z</time>
      </trkpt>
      <trkpt lat="42.77681" lon="1.49633">
        <ele>938.53425610825</ele>
        <time>2017-06-10T13:51:00Z</time>
      </trkpt>
      <trkpt lat="42.77681" lon="1.49629">
        <ele>938.53425610825</ele>
        <time>2017-06-10T13:51:00Z</time>
      </trkpt>
      <trkpt lat="42.77681" lon="1.49625">
        <ele>937.84743163436</ele>
        <time>2017-06-10T13:51:00Z</time>
      </trkpt>
      <trkpt lat="42.77682" lon="1.49621">
        <ele>937.84743163436</ele>
        <time>2017-06-10T13:51:19Z</time>
      </trkpt>
      <trkpt lat="42.77682" lon="1.49617">
        <ele>937.84743163436</ele>
        <time>2017-06-10T13:51:19Z</time>
      </trkpt>
      <trkpt lat="42.77682" lon="1.49615">
        <ele>937.84743163436</ele>
        <time>2017-06-10T13:51:19Z</time>
      </trkpt>
      <trkpt lat="42.7768" lon="1.49611">
        <ele>937.00814529592</ele>
        <time>2017-06-10T13:51:19Z</time>
      </trkpt>
      <trkpt lat="42.77678" lon="1.49607">
        <ele>937.00814529592</ele>
        <time>2017-06-10T13:51:19Z</time>
      </trkpt>
      <trkpt lat="42.7768" lon="1.49603">
        <ele>937.00814529592</ele>
        <time>2017-06-10T13:51:39Z</time>
      </trkpt>
      <trkpt lat="42.77681" lon="1.49599">
        <ele>936.31514108012</ele>
        <time>2017-06-10T13:51:39Z</time>
      </trkpt>
      <trkpt lat="42.77681" lon="1.49596">
        <ele>936.31514108012</ele>
        <time>2017-06-10T13:51:39Z</time>
      </trkpt>
      <trkpt lat="42.7768" lon="1.49592">
        <ele>936.31514108012</ele>
        <time>2017-06-10T13:51:39Z</time>
      </trkpt>
      <trkpt lat="42.77678" lon="1.49589">
        <ele>936.31514108012</ele>
        <time>2017-06-10T13:51:39Z</time>
      </trkpt>
      <trkpt lat="42.77676" lon="1.49586">
        <ele>935.46833766627</ele>
        <time>2017-06-10T13:51:59Z</time>
      </trkpt>
      <trkpt lat="42.77674" lon="1.49582">
        <ele>935.46833766627</ele>
        <time>2017-06-10T13:51:59Z</time>
      </trkpt>
      <trkpt lat="42.77673" lon="1.49579">
        <ele>935.46833766627</ele>
        <time>2017-06-10T13:51:59Z</time>
      </trkpt>
      <trkpt lat="42.77671" lon="1.49576">
        <ele>935.46833766627</ele>
        <time>2017-06-10T13:51:59Z</time>
      </trkpt>
      <trkpt lat="42.77669" lon="1.49572">
        <ele>934.91066509554</ele>
        <time>2017-06-10T13:51:59Z</time>
      </trkpt>
      <trkpt lat="42.77666" lon="1.49566">
        <ele>934.91066509554</ele>
        <time>2017-06-10T13:52:23Z</time>
      </trkpt>
      <trkpt lat="42.77665" lon="1.49564">
        <ele>934.91066509554</ele>
        <time>2017-06-10T13:52:23Z</time>
      </trkpt>
      <trkpt lat="42.77663" lon="1.49563">
        <ele>934.18702275738</ele>
        <time>2017-06-10T13:52:23Z</time>
      </trkpt>
      <trkpt lat="42.77661" lon="1.49562">
        <ele>934.18702275738</ele>
        <time>2017-06-10T13:52:23Z</time>
      </trkpt>
      <trkpt lat="42.77658" lon="1.49561">
        <ele>934.18702275738</ele>
        <time>2017-06-10T13:52:23Z</time>
      </trkpt>
      <trkpt lat="42.77655" lon="1.49559">
        <ele>934.18702275738</ele>
        <time>2017-06-10T13:52:39Z</time>
      </trkpt>
      <trkpt lat="42.77654" lon="1.49554">
        <ele>933.02030678885</ele>
        <time>2017-06-10T13:52:39Z</time>
      </trkpt>
      <trkpt lat="42.77653" lon="1.4955">
        <ele>933.02030678885</ele>
        <time>2017-06-10T13:52:39Z</time>
      </trkpt>
      <trkpt lat="42.77651" lon="1.49544">
        <ele>933.02030678885</ele>
        <time>2017-06-10T13:52:39Z</time>
      </trkpt>
      <trkpt lat="42.7765" lon="1.4954">
        <ele>932.16378235428</ele>
        <time>2017-06-10T13:52:55Z</time>
      </trkpt>
      <trkpt lat="42.77649" lon="1.49537">
        <ele>932.16378235428</ele>
        <time>2017-06-10T13:52:55Z</time>
      </trkpt>
      <trkpt lat="42.77643" lon="1.49535">
        <ele>932.16378235428</ele>
        <time>2017-06-10T13:52:55Z</time>
      </trkpt>
      <trkpt lat="42.77636" lon="1.49533">
        <ele>930.87339241212</ele>
        <time>2017-06-10T13:52:55Z</time>
      </trkpt>
      <trkpt lat="42.77633" lon="1.49529">
        <ele>930.87339241212</ele>
        <time>2017-06-10T13:53:12Z</time>
      </trkpt>
      <trkpt lat="42.77631" lon="1.49526">
        <ele>930.87339241212</ele>
        <time>2017-06-10T13:53:12Z</time>
      </trkpt>
      <trkpt lat="42.77628" lon="1.49523">
        <ele>928.89328223086</ele>
        <time>2017-06-10T13:53:12Z</time>
      </trkpt>
      <trkpt lat="42.77627" lon="1.49519">
        <ele>928.89328223086</ele>
        <time>2017-06-10T13:53:12Z</time>
      </trkpt>
      <trkpt lat="42.77624" lon="1.49516">
        <ele>928.89328223086</ele>
        <time>2017-06-10T13:53:27Z</time>
      </trkpt>
      <trkpt lat="42.77618" lon="1.49513">
        <ele>926.99709678202</ele>
        <time>2017-06-10T13:53:27Z</time>
      </trkpt>
      <trkpt lat="42.77614" lon="1.49509">
        <ele>926.99709678202</ele>
        <time>2017-06-10T13:53:27Z</time>
      </trkpt>
      <trkpt lat="42.77611" lon="1.49505">
        <ele>926.04551509678</ele>
        <time>2017-06-10T13:53:27Z</time>
      </trkpt>
      <trkpt lat="42.77608" lon="1.49501">
        <ele>926.04551509678</ele>
        <time>2017-06-10T13:53:43Z</time>
      </trkpt>
      <trkpt lat="42.77605" lon="1.49498">
        <ele>926.04551509678</ele>
        <time>2017-06-10T13:53:43Z</time>
      </trkpt>
      <trkpt lat="42.77602" lon="1.49497">
        <ele>925.24810635883</ele>
        <time>2017-06-10T13:53:43Z</time>
      </trkpt>
      <trkpt lat="42.77599" lon="1.49493">
        <ele>925.24810635883</ele>
        <time>2017-06-10T13:53:43Z</time>
      </trkpt>
      <trkpt lat="42.77596" lon="1.49491">
        <ele>925.24810635883</ele>
        <time>2017-06-10T13:53:59Z</time>
      </trkpt>
      <trkpt lat="42.77594" lon="1.49487">
        <ele>924.73672677146</ele>
        <time>2017-06-10T13:53:59Z</time>
      </trkpt>
      <trkpt lat="42.77592" lon="1.49484">
        <ele>924.73672677146</ele>
        <time>2017-06-10T13:53:59Z</time>
      </trkpt>
      <trkpt lat="42.7759" lon="1.49481">
        <ele>924.73672677146</ele>
        <time>2017-06-10T13:53:59Z</time>
      </trkpt>
      <trkpt lat="42.77585" lon="1.49478">
        <ele>924.05628985444</ele>
        <time>2017-06-10T13:54:15Z</time>
      </trkpt>
      <trkpt lat="42.77582" lon="1.49474">
        <ele>924.05628985444</ele>
        <time>2017-06-10T13:54:15Z</time>
      </trkpt>
      <trkpt lat="42.7758" lon="1.49471">
        <ele>924.05628985444</ele>
        <time>2017-06-10T13:54:15Z</time>
      </trkpt>
      <trkpt lat="42.77578" lon="1.4947">
        <ele>922.92971892591</ele>
        <time>2017-06-10T13:54:15Z</time>
      </trkpt>
      <trkpt lat="42.77575" lon="1.4947">
        <ele>922.92971892591</ele>
        <time>2017-06-10T13:54:35Z</time>
      </trkpt>
      <trkpt lat="42.77574" lon="1.4947">
        <ele>922.92971892591</ele>
        <time>2017-06-10T13:54:35Z</time>
      </trkpt>
      <trkpt lat="42.77572" lon="1.49468">
        <ele>922.92971892591</ele>
        <time>2017-06-10T13:54:35Z</time>
      </trkpt>
      <trkpt lat="42.77568" lon="1.49468">
        <ele>922.68676420554</ele>
        <time>2017-06-10T13:54:35Z</time>
      </trkpt>
      <trkpt lat="42.77566" lon="1.49466">
        <ele>922.68676420554</ele>
        <time>2017-06-10T13:54:35Z</time>
      </trkpt>
      <trkpt lat="42.77558" lon="1.49461">
        <ele>923.83646429052</ele>
        <time>2017-06-10T13:55:27Z</time>
      </trkpt>
      <trkpt lat="42.77558" lon="1.49461">
        <ele>923.83646429052</ele>
        <time>2017-06-10T13:55:27Z</time>
      </trkpt>
      <trkpt lat="42.77558" lon="1.49461">
        <ele>923.83646429052</ele>
        <time>2017-06-10T13:55:27Z</time>
      </trkpt>
      <trkpt lat="42.7756" lon="1.49457">
        <ele>923.83646429052</ele>
        <time>2017-06-10T13:55:27Z</time>
      </trkpt>
      <trkpt lat="42.77559" lon="1.49453">
        <ele>923.83646429052</ele>
        <time>2017-06-10T13:55:27Z</time>
      </trkpt>
      <trkpt lat="42.77559" lon="1.49447">
        <ele>924.9731268452</ele>
        <time>2017-06-10T13:55:48Z</time>
      </trkpt>
      <trkpt lat="42.7756" lon="1.49442">
        <ele>924.9731268452</ele>
        <time>2017-06-10T13:55:48Z</time>
      </trkpt>
      <trkpt lat="42.77561" lon="1.4944">
        <ele>924.9731268452</ele>
        <time>2017-06-10T13:55:48Z</time>
      </trkpt>
      <trkpt lat="42.77561" lon="1.49437">
        <ele>924.9731268452</ele>
        <time>2017-06-10T13:55:48Z</time>
      </trkpt>
      <trkpt lat="42.77562" lon="1.49433">
        <ele>925.9472735072</ele>
        <time>2017-06-10T13:55:48Z</time>
      </trkpt>
      <trkpt lat="42.77564" lon="1.49423">
        <ele>925.9472735072</ele>
        <time>2017-06-10T13:56:19Z</time>
      </trkpt>
      <trkpt lat="42.77564" lon="1.49421">
        <ele>925.9472735072</ele>
        <time>2017-06-10T13:56:19Z</time>
      </trkpt>
      <trkpt lat="42.77564" lon="1.4942">
        <ele>926.18856912564</ele>
        <time>2017-06-10T13:56:19Z</time>
      </trkpt>
      <trkpt lat="42.77564" lon="1.49417">
        <ele>926.18856912564</ele>
        <time>2017-06-10T13:56:19Z</time>
      </trkpt>
      <trkpt lat="42.77564" lon="1.49415">
        <ele>926.18856912564</ele>
        <time>2017-06-10T13:56:19Z</time>
      </trkpt>
      <trkpt lat="42.77565" lon="1.49407">
        <ele>926.46768455327</ele>
        <time>2017-06-10T13:56:47Z</time>
      </trkpt>
      <trkpt lat="42.77565" lon="1.49406">
        <ele>926.46768455327</ele>
        <time>2017-06-10T13:56:47Z</time>
      </trkpt>
      <trkpt lat="42.77564" lon="1.49403">
        <ele>926.46768455327</ele>
        <time>2017-06-10T13:56:47Z</time>
      </trkpt>
      <trkpt lat="42.77563" lon="1.49402">
        <ele>926.46768455327</ele>
        <time>2017-06-10T13:56:47Z</time>
      </trkpt>
      <trkpt lat="42.77561" lon="1.49399">
        <ele>926.46768455327</ele>
        <time>2017-06-10T13:56:47Z</time>
      </trkpt>
      <trkpt lat="42.7756" lon="1.49395">
        <ele>926.20163322662</ele>
        <time>2017-06-10T13:57:03Z</time>
      </trkpt>
      <trkpt lat="42.77561" lon="1.49389">
        <ele>926.20163322662</ele>
        <time>2017-06-10T13:57:04Z</time>
      </trkpt>
      <trkpt lat="42.77559" lon="1.49385">
        <ele>926.20163322662</ele>
        <time>2017-06-10T13:57:04Z</time>
      </trkpt>
      <trkpt lat="42.77559" lon="1.4938">
        <ele>925.14007277737</ele>
        <time>2017-06-10T13:57:04Z</time>
      </trkpt>
      <trkpt lat="42.77557" lon="1.49374">
        <ele>925.14007277737</ele>
        <time>2017-06-10T13:57:19Z</time>
      </trkpt>
      <trkpt lat="42.77558" lon="1.49369">
        <ele>925.14007277737</ele>
        <time>2017-06-10T13:57:19Z</time>
      </trkpt>
      <trkpt lat="42.77558" lon="1.49362">
        <ele>923.48568240759</ele>
        <time>2017-06-10T13:57:19Z</time>
      </trkpt>
      <trkpt lat="42.77557" lon="1.49354">
        <ele>923.48568240759</ele>
        <time>2017-06-10T13:57:19Z</time>
      </trkpt>
      <trkpt lat="42.77558" lon="1.49348">
        <ele>921.86031178772</ele>
        <time>2017-06-10T13:57:35Z</time>
      </trkpt>
      <trkpt lat="42.77557" lon="1.49342">
        <ele>921.86031178772</ele>
        <time>2017-06-10T13:57:35Z</time>
      </trkpt>
      <trkpt lat="42.77556" lon="1.49334">
        <ele>920.26365921961</ele>
        <time>2017-06-10T13:57:35Z</time>
      </trkpt>
      <trkpt lat="42.77556" lon="1.49326">
        <ele>920.26365921961</ele>
        <time>2017-06-10T13:57:35Z</time>
      </trkpt>
      <trkpt lat="42.77556" lon="1.49317">
        <ele>919.12774535585</ele>
        <time>2017-06-10T13:57:51Z</time>
      </trkpt>
      <trkpt lat="42.77557" lon="1.49309">
        <ele>919.12774535585</ele>
        <time>2017-06-10T13:57:51Z</time>
      </trkpt>
      <trkpt lat="42.77557" lon="1.49303">
        <ele>918.27515767886</ele>
        <time>2017-06-10T13:57:51Z</time>
      </trkpt>
      <trkpt lat="42.77557" lon="1.49297">
        <ele>918.27515767886</ele>
        <time>2017-06-10T13:57:51Z</time>
      </trkpt>
      <trkpt lat="42.77558" lon="1.49292">
        <ele>918.27515767886</ele>
        <time>2017-06-10T13:58:08Z</time>
      </trkpt>
      <trkpt lat="42.77558" lon="1.49286">
        <ele>917.82897909669</ele>
        <time>2017-06-10T13:58:08Z</time>
      </trkpt>
      <trkpt lat="42.77561" lon="1.49281">
        <ele>917.82897909669</ele>
        <time>2017-06-10T13:58:08Z</time>
      </trkpt>
      <trkpt lat="42.77562" lon="1.49274">
        <ele>917.32569898058</ele>
        <time>2017-06-10T13:58:08Z</time>
      </trkpt>
      <trkpt lat="42.77562" lon="1.49268">
        <ele>917.32569898058</ele>
        <time>2017-06-10T13:58:23Z</time>
      </trkpt>
      <trkpt lat="42.77564" lon="1.49262">
        <ele>916.48015907922</ele>
        <time>2017-06-10T13:58:23Z</time>
      </trkpt>
      <trkpt lat="42.77565" lon="1.49257">
        <ele>916.48015907922</ele>
        <time>2017-06-10T13:58:23Z</time>
      </trkpt>
      <trkpt lat="42.77566" lon="1.49251">
        <ele>916.48015907922</ele>
        <time>2017-06-10T13:58:23Z</time>
      </trkpt>
      <trkpt lat="42.77567" lon="1.49246">
        <ele>915.31736200685</ele>
        <time>2017-06-10T13:58:39Z</time>
      </trkpt>
      <trkpt lat="42.77568" lon="1.49241">
        <ele>915.31736200685</ele>
        <time>2017-06-10T13:58:40Z</time>
      </trkpt>
      <trkpt lat="42.77567" lon="1.49236">
        <ele>915.31736200685</ele>
        <time>2017-06-10T13:58:40Z</time>
      </trkpt>
      <trkpt lat="42.77567" lon="1.49232">
        <ele>913.8613923446</ele>
        <time>2017-06-10T13:58:40Z</time>
      </trkpt>
      <trkpt lat="42.77562" lon="1.49224">
        <ele>913.8613923446</ele>
        <time>2017-06-10T13:59:11Z</time>
      </trkpt>
      <trkpt lat="42.77562" lon="1.49224">
        <ele>913.8613923446</ele>
        <time>2017-06-10T13:59:11Z</time>
      </trkpt>
      <trkpt lat="42.77562" lon="1.49224">
        <ele>913.8613923446</ele>
        <time>2017-06-10T13:59:11Z</time>
      </trkpt>
      <trkpt lat="42.7756" lon="1.49222">
        <ele>912.85596921364</ele>
        <time>2017-06-10T13:59:11Z</time>
      </trkpt>
      <trkpt lat="42.77557" lon="1.49218">
        <ele>912.85596921364</ele>
        <time>2017-06-10T13:59:11Z</time>
      </trkpt>
      <trkpt lat="42.77552" lon="1.49215">
        <ele>911.69193531898</ele>
        <time>2017-06-10T13:59:27Z</time>
      </trkpt>
      <trkpt lat="42.77548" lon="1.4921">
        <ele>911.69193531898</ele>
        <time>2017-06-10T13:59:27Z</time>
      </trkpt>
      <trkpt lat="42.77543" lon="1.49204">
        <ele>909.80534218646</ele>
        <time>2017-06-10T13:59:27Z</time>
      </trkpt>
      <trkpt lat="42.77537" lon="1.49199">
        <ele>909.80534218646</ele>
        <time>2017-06-10T13:59:27Z</time>
      </trkpt>
      <trkpt lat="42.77533" lon="1.49194">
        <ele>908.83737423914</ele>
        <time>2017-06-10T13:59:43Z</time>
      </trkpt>
      <trkpt lat="42.77528" lon="1.49191">
        <ele>908.83737423914</ele>
        <time>2017-06-10T13:59:43Z</time>
      </trkpt>
      <trkpt lat="42.77525" lon="1.49187">
        <ele>908.4326412393</ele>
        <time>2017-06-10T13:59:43Z</time>
      </trkpt>
      <trkpt lat="42.77522" lon="1.49184">
        <ele>908.4326412393</ele>
        <time>2017-06-10T13:59:43Z</time>
      </trkpt>
      <trkpt lat="42.7752" lon="1.49179">
        <ele>908.4326412393</ele>
        <time>2017-06-10T13:59:59Z</time>
      </trkpt>
      <trkpt lat="42.77516" lon="1.49175">
        <ele>908.40439753034</ele>
        <time>2017-06-10T13:59:59Z</time>
      </trkpt>
      <trkpt lat="42.77514" lon="1.49169">
        <ele>908.40439753034</ele>
        <time>2017-06-10T13:59:59Z</time>
      </trkpt>
      <trkpt lat="42.77513" lon="1.49163">
        <ele>909.01090214341</ele>
        <time>2017-06-10T13:59:59Z</time>
      </trkpt>
      <trkpt lat="42.77512" lon="1.49157">
        <ele>909.01090214341</ele>
        <time>2017-06-10T14:00:15Z</time>
      </trkpt>
      <trkpt lat="42.77511" lon="1.49152">
        <ele>909.01090214341</ele>
        <time>2017-06-10T14:00:15Z</time>
      </trkpt>
      <trkpt lat="42.77511" lon="1.49146">
        <ele>909.33678741494</ele>
        <time>2017-06-10T14:00:15Z</time>
      </trkpt>
      <trkpt lat="42.7751" lon="1.4914">
        <ele>909.33678741494</ele>
        <time>2017-06-10T14:00:15Z</time>
      </trkpt>
      <trkpt lat="42.77509" lon="1.49134">
        <ele>910.11996143699</ele>
        <time>2017-06-10T14:00:31Z</time>
      </trkpt>
      <trkpt lat="42.77508" lon="1.49128">
        <ele>910.11996143699</ele>
        <time>2017-06-10T14:00:31Z</time>
      </trkpt>
      <trkpt lat="42.77509" lon="1.49122">
        <ele>911.32232098565</ele>
        <time>2017-06-10T14:00:31Z</time>
      </trkpt>
      <trkpt lat="42.77508" lon="1.49116">
        <ele>911.32232098565</ele>
        <time>2017-06-10T14:00:31Z</time>
      </trkpt>
      <trkpt lat="42.77508" lon="1.49114">
        <ele>911.32232098565</ele>
        <time>2017-06-10T14:00:51Z</time>
      </trkpt>
      <trkpt lat="42.77508" lon="1.49114">
        <ele>911.32232098565</ele>
        <time>2017-06-10T14:00:51Z</time>
      </trkpt>
      <trkpt lat="42.77508" lon="1.49113">
        <ele>911.32232098565</ele>
        <time>2017-06-10T14:00:51Z</time>
      </trkpt>
      <trkpt lat="42.7751" lon="1.49108">
        <ele>913.05154288767</ele>
        <time>2017-06-10T14:00:51Z</time>
      </trkpt>
      <trkpt lat="42.77512" lon="1.49102">
        <ele>913.05154288767</ele>
        <time>2017-06-10T14:00:51Z</time>
      </trkpt>
      <trkpt lat="42.77514" lon="1.49096">
        <ele>914.68541905058</ele>
        <time>2017-06-10T14:01:07Z</time>
      </trkpt>
      <trkpt lat="42.77515" lon="1.49088">
        <ele>914.68541905058</ele>
        <time>2017-06-10T14:01:07Z</time>
      </trkpt>
      <trkpt lat="42.77515" lon="1.49083">
        <ele>916.22423344413</ele>
        <time>2017-06-10T14:01:07Z</time>
      </trkpt>
      <trkpt lat="42.77517" lon="1.49078">
        <ele>916.22423344413</ele>
        <time>2017-06-10T14:01:07Z</time>
      </trkpt>
      <trkpt lat="42.77518" lon="1.49071">
        <ele>917.66860266221</ele>
        <time>2017-06-10T14:01:23Z</time>
      </trkpt>
      <trkpt lat="42.7752" lon="1.49068">
        <ele>917.66860266221</ele>
        <time>2017-06-10T14:01:23Z</time>
      </trkpt>
      <trkpt lat="42.7752" lon="1.4906">
        <ele>917.66860266221</ele>
        <time>2017-06-10T14:01:23Z</time>
      </trkpt>
      <trkpt lat="42.77521" lon="1.49052">
        <ele>918.73123956622</ele>
        <time>2017-06-10T14:01:23Z</time>
      </trkpt>
      <trkpt lat="42.77525" lon="1.49045">
        <ele>918.73123956622</ele>
        <time>2017-06-10T14:01:39Z</time>
      </trkpt>
      <trkpt lat="42.77526" lon="1.49038">
        <ele>919.86769663306</ele>
        <time>2017-06-10T14:01:39Z</time>
      </trkpt>
      <trkpt lat="42.77528" lon="1.49031">
        <ele>919.86769663306</ele>
        <time>2017-06-10T14:01:39Z</time>
      </trkpt>
      <trkpt lat="42.7753" lon="1.49024">
        <ele>920.92352671667</ele>
        <time>2017-06-10T14:01:39Z</time>
      </trkpt>
      <trkpt lat="42.77531" lon="1.49016">
        <ele>920.92352671667</ele>
        <time>2017-06-10T14:01:56Z</time>
      </trkpt>
      <trkpt lat="42.77533" lon="1.4901">
        <ele>921.90008821479</ele>
        <time>2017-06-10T14:01:56Z</time>
      </trkpt>
      <trkpt lat="42.77536" lon="1.49004">
        <ele>921.90008821479</ele>
        <time>2017-06-10T14:01:56Z</time>
      </trkpt>
      <trkpt lat="42.77537" lon="1.48997">
        <ele>922.94310038019</ele>
        <time>2017-06-10T14:01:56Z</time>
      </trkpt>
      <trkpt lat="42.77538" lon="1.48989">
        <ele>922.94310038019</ele>
        <time>2017-06-10T14:02:11Z</time>
      </trkpt>
      <trkpt lat="42.77539" lon="1.48983">
        <ele>924.04341128111</ele>
        <time>2017-06-10T14:02:11Z</time>
      </trkpt>
      <trkpt lat="42.77541" lon="1.48977">
        <ele>924.04341128111</ele>
        <time>2017-06-10T14:02:11Z</time>
      </trkpt>
      <trkpt lat="42.77543" lon="1.48972">
        <ele>924.04341128111</ele>
        <time>2017-06-10T14:02:11Z</time>
      </trkpt>
      <trkpt lat="42.77545" lon="1.48968">
        <ele>925.19251447997</ele>
        <time>2017-06-10T14:02:27Z</time>
      </trkpt>
      <trkpt lat="42.77546" lon="1.48963">
        <ele>925.19251447997</ele>
        <time>2017-06-10T14:02:27Z</time>
      </trkpt>
      <trkpt lat="42.77548" lon="1.48958">
        <ele>925.19251447997</ele>
        <time>2017-06-10T14:02:27Z</time>
      </trkpt>
      <trkpt lat="42.7755" lon="1.48951">
        <ele>926.09430537488</ele>
        <time>2017-06-10T14:02:27Z</time>
      </trkpt>
      <trkpt lat="42.77552" lon="1.48944">
        <ele>926.09430537488</ele>
        <time>2017-06-10T14:02:44Z</time>
      </trkpt>
      <trkpt lat="42.77553" lon="1.48939">
        <ele>926.33115028297</ele>
        <time>2017-06-10T14:02:44Z</time>
      </trkpt>
      <trkpt lat="42.77555" lon="1.48934">
        <ele>926.33115028297</ele>
        <time>2017-06-10T14:02:44Z</time>
      </trkpt>
      <trkpt lat="42.77557" lon="1.48927">
        <ele>926.67098494799</ele>
        <time>2017-06-10T14:02:44Z</time>
      </trkpt>
      <trkpt lat="42.77558" lon="1.4892">
        <ele>926.67098494799</ele>
        <time>2017-06-10T14:02:59Z</time>
      </trkpt>
      <trkpt lat="42.77561" lon="1.48917">
        <ele>926.67098494799</ele>
        <time>2017-06-10T14:02:59Z</time>
      </trkpt>
      <trkpt lat="42.77562" lon="1.48913">
        <ele>926.52817533123</ele>
        <time>2017-06-10T14:02:59Z</time>
      </trkpt>
      <trkpt lat="42.77563" lon="1.48908">
        <ele>926.52817533123</ele>
        <time>2017-06-10T14:02:59Z</time>
      </trkpt>
      <trkpt lat="42.77565" lon="1.48904">
        <ele>926.52817533123</ele>
        <time>2017-06-10T14:03:15Z</time>
      </trkpt>
      <trkpt lat="42.77567" lon="1.48897">
        <ele>926.51447692299</ele>
        <time>2017-06-10T14:03:15Z</time>
      </trkpt>
      <trkpt lat="42.7757" lon="1.48893">
        <ele>926.51447692299</ele>
        <time>2017-06-10T14:03:15Z</time>
      </trkpt>
      <trkpt lat="42.77571" lon="1.48888">
        <ele>926.51447692299</ele>
        <time>2017-06-10T14:03:15Z</time>
      </trkpt>
      <trkpt lat="42.77572" lon="1.48882">
        <ele>926.33179514251</ele>
        <time>2017-06-10T14:03:31Z</time>
      </trkpt>
      <trkpt lat="42.77573" lon="1.48875">
        <ele>926.33179514251</ele>
        <time>2017-06-10T14:03:31Z</time>
      </trkpt>
      <trkpt lat="42.77574" lon="1.48869">
        <ele>925.99273954619</ele>
        <time>2017-06-10T14:03:31Z</time>
      </trkpt>
      <trkpt lat="42.77575" lon="1.48858">
        <ele>925.99273954619</ele>
        <time>2017-06-10T14:03:31Z</time>
      </trkpt>
      <trkpt lat="42.77577" lon="1.48847">
        <ele>926.23008974784</ele>
        <time>2017-06-10T14:04:07Z</time>
      </trkpt>
      <trkpt lat="42.77575" lon="1.48852">
        <ele>926.23008974784</ele>
        <time>2017-06-10T14:04:07Z</time>
      </trkpt>
      <trkpt lat="42.77572" lon="1.48857">
        <ele>926.56838403168</ele>
        <time>2017-06-10T14:04:07Z</time>
      </trkpt>
      <trkpt lat="42.7757" lon="1.48861">
        <ele>926.56838403168</ele>
        <time>2017-06-10T14:04:07Z</time>
      </trkpt>
      <trkpt lat="42.7757" lon="1.48862">
        <ele>926.56838403168</ele>
        <time>2017-06-10T14:04:07Z</time>
      </trkpt>
      <trkpt lat="42.7757" lon="1.48864">
        <ele>926.56838403168</ele>
        <time>2017-06-10T14:04:39Z</time>
      </trkpt>
      <trkpt lat="42.7757" lon="1.48864">
        <ele>926.56838403168</ele>
        <time>2017-06-10T14:04:39Z</time>
      </trkpt>
      <trkpt lat="42.77569" lon="1.48866">
        <ele>926.56838403168</ele>
        <time>2017-06-10T14:04:39Z</time>
      </trkpt>
      <trkpt lat="42.77567" lon="1.48871">
        <ele>927.28744944666</ele>
        <time>2017-06-10T14:04:39Z</time>
      </trkpt>
      <trkpt lat="42.77565" lon="1.48877">
        <ele>927.28744944666</ele>
        <time>2017-06-10T14:04:39Z</time>
      </trkpt>
      <trkpt lat="42.77565" lon="1.48884">
        <ele>927.63679533219</ele>
        <time>2017-06-10T14:04:56Z</time>
      </trkpt>
      <trkpt lat="42.77562" lon="1.4889">
        <ele>927.63679533219</ele>
        <time>2017-06-10T14:04:56Z</time>
      </trkpt>
      <trkpt lat="42.7756" lon="1.48893">
        <ele>927.63679533219</ele>
        <time>2017-06-10T14:04:56Z</time>
      </trkpt>
      <trkpt lat="42.77558" lon="1.48897">
        <ele>927.21040129076</ele>
        <time>2017-06-10T14:04:56Z</time>
      </trkpt>
      <trkpt lat="42.7756" lon="1.48901">
        <ele>927.21040129076</ele>
        <time>2017-06-10T14:05:15Z</time>
      </trkpt>
      <trkpt lat="42.77557" lon="1.48906">
        <ele>927.21040129076</ele>
        <time>2017-06-10T14:05:15Z</time>
      </trkpt>
      <trkpt lat="42.77555" lon="1.48907">
        <ele>927.07543623208</ele>
        <time>2017-06-10T14:05:15Z</time>
      </trkpt>
      <trkpt lat="42.77554" lon="1.48909">
        <ele>927.07543623208</ele>
        <time>2017-06-10T14:05:15Z</time>
      </trkpt>
      <trkpt lat="42.77553" lon="1.48914">
        <ele>927.07543623208</ele>
        <time>2017-06-10T14:05:15Z</time>
      </trkpt>
      <trkpt lat="42.77552" lon="1.48918">
        <ele>927.07543623208</ele>
        <time>2017-06-10T14:06:55Z</time>
      </trkpt>
      <trkpt lat="42.77554" lon="1.48912">
        <ele>926.92292682911</ele>
        <time>2017-06-10T14:06:55Z</time>
      </trkpt>
      <trkpt lat="42.77557" lon="1.48906">
        <ele>926.92292682911</ele>
        <time>2017-06-10T14:06:55Z</time>
      </trkpt>
      <trkpt lat="42.7756" lon="1.489">
        <ele>927.04315325957</ele>
        <time>2017-06-10T14:06:55Z</time>
      </trkpt>
      <trkpt lat="42.77564" lon="1.48895">
        <ele>927.04315325957</ele>
        <time>2017-06-10T14:06:55Z</time>
      </trkpt>
      <trkpt lat="42.77565" lon="1.48888">
        <ele>926.98380666389</ele>
        <time>2017-06-10T14:07:11Z</time>
      </trkpt>
      <trkpt lat="42.77567" lon="1.48884">
        <ele>926.98380666389</ele>
        <time>2017-06-10T14:07:11Z</time>
      </trkpt>
      <trkpt lat="42.77571" lon="1.48881">
        <ele>926.98380666389</ele>
        <time>2017-06-10T14:07:11Z</time>
      </trkpt>
      <trkpt lat="42.77573" lon="1.48877">
        <ele>926.18224566262</ele>
        <time>2017-06-10T14:07:11Z</time>
      </trkpt>
      <trkpt lat="42.77574" lon="1.48871">
        <ele>926.18224566262</ele>
        <time>2017-06-10T14:07:27Z</time>
      </trkpt>
      <trkpt lat="42.77576" lon="1.48865">
        <ele>925.99272948005</ele>
        <time>2017-06-10T14:07:27Z</time>
      </trkpt>
      <trkpt lat="42.77579" lon="1.48858">
        <ele>925.99272948005</ele>
        <time>2017-06-10T14:07:27Z</time>
      </trkpt>
      <trkpt lat="42.77581" lon="1.4885">
        <ele>925.50668441237</ele>
        <time>2017-06-10T14:07:27Z</time>
      </trkpt>
      <trkpt lat="42.77585" lon="1.48842">
        <ele>925.50668441237</ele>
        <time>2017-06-10T14:07:51Z</time>
      </trkpt>
      <trkpt lat="42.77585" lon="1.48839">
        <ele>924.60369384127</ele>
        <time>2017-06-10T14:07:51Z</time>
      </trkpt>
      <trkpt lat="42.77586" lon="1.48836">
        <ele>924.60369384127</ele>
        <time>2017-06-10T14:07:51Z</time>
      </trkpt>
      <trkpt lat="42.77585" lon="1.48834">
        <ele>924.60369384127</ele>
        <time>2017-06-10T14:07:51Z</time>
      </trkpt>
      <trkpt lat="42.77585" lon="1.48832">
        <ele>924.60369384127</ele>
        <time>2017-06-10T14:07:51Z</time>
      </trkpt>
      <trkpt lat="42.77585" lon="1.48827">
        <ele>924.182152754</ele>
        <time>2017-06-10T14:08:15Z</time>
      </trkpt>
      <trkpt lat="42.77586" lon="1.48825">
        <ele>924.182152754</ele>
        <time>2017-06-10T14:08:15Z</time>
      </trkpt>
      <trkpt lat="42.77586" lon="1.48822">
        <ele>924.182152754</ele>
        <time>2017-06-10T14:08:15Z</time>
      </trkpt>
      <trkpt lat="42.77587" lon="1.48817">
        <ele>924.182152754</ele>
        <time>2017-06-10T14:08:15Z</time>
      </trkpt>
      <trkpt lat="42.77589" lon="1.4881">
        <ele>923.63200865187</ele>
        <time>2017-06-10T14:08:15Z</time>
      </trkpt>
      <trkpt lat="42.77592" lon="1.48804">
        <ele>923.63200865187</ele>
        <time>2017-06-10T14:08:31Z</time>
      </trkpt>
      <trkpt lat="42.77595" lon="1.48801">
        <ele>922.53249691289</ele>
        <time>2017-06-10T14:08:32Z</time>
      </trkpt>
      <trkpt lat="42.77598" lon="1.48798">
        <ele>922.53249691289</ele>
        <time>2017-06-10T14:08:32Z</time>
      </trkpt>
      <trkpt lat="42.77601" lon="1.48793">
        <ele>921.79229766481</ele>
        <time>2017-06-10T14:08:32Z</time>
      </trkpt>
      <trkpt lat="42.77605" lon="1.48789">
        <ele>921.79229766481</ele>
        <time>2017-06-10T14:08:47Z</time>
      </trkpt>
      <trkpt lat="42.77608" lon="1.48785">
        <ele>920.52298353731</ele>
        <time>2017-06-10T14:08:47Z</time>
      </trkpt>
      <trkpt lat="42.77611" lon="1.48778">
        <ele>920.52298353731</ele>
        <time>2017-06-10T14:08:47Z</time>
      </trkpt>
      <trkpt lat="42.77614" lon="1.48774">
        <ele>919.34396328224</ele>
        <time>2017-06-10T14:08:47Z</time>
      </trkpt>
      <trkpt lat="42.7762" lon="1.48769">
        <ele>919.34396328224</ele>
        <time>2017-06-10T14:09:15Z</time>
      </trkpt>
      <trkpt lat="42.77621" lon="1.48768">
        <ele>919.34396328224</ele>
        <time>2017-06-10T14:09:15Z</time>
      </trkpt>
      <trkpt lat="42.77622" lon="1.48768">
        <ele>919.34396328224</ele>
        <time>2017-06-10T14:09:15Z</time>
      </trkpt>
      <trkpt lat="42.77623" lon="1.48769">
        <ele>918.25241415502</ele>
        <time>2017-06-10T14:09:15Z</time>
      </trkpt>
      <trkpt lat="42.77628" lon="1.48768">
        <ele>918.25241415502</ele>
        <time>2017-06-10T14:09:15Z</time>
      </trkpt>
      <trkpt lat="42.77631" lon="1.48768">
        <ele>918.25241415502</ele>
        <time>2017-06-10T14:09:31Z</time>
      </trkpt>
      <trkpt lat="42.77634" lon="1.48768">
        <ele>917.53365784546</ele>
        <time>2017-06-10T14:09:31Z</time>
      </trkpt>
      <trkpt lat="42.77635" lon="1.48769">
        <ele>917.53365784546</ele>
        <time>2017-06-10T14:09:31Z</time>
      </trkpt>
      <trkpt lat="42.7764" lon="1.48771">
        <ele>917.53365784546</ele>
        <time>2017-06-10T14:09:31Z</time>
      </trkpt>
      <trkpt lat="42.77644" lon="1.48771">
        <ele>917.45096502425</ele>
        <time>2017-06-10T14:09:48Z</time>
      </trkpt>
      <trkpt lat="42.77649" lon="1.48771">
        <ele>917.45096502425</ele>
        <time>2017-06-10T14:09:48Z</time>
      </trkpt>
      <trkpt lat="42.77653" lon="1.4877">
        <ele>917.45096502425</ele>
        <time>2017-06-10T14:09:48Z</time>
      </trkpt>
      <trkpt lat="42.77656" lon="1.48769">
        <ele>917.38176637898</ele>
        <time>2017-06-10T14:09:48Z</time>
      </trkpt>
      <trkpt lat="42.77657" lon="1.48769">
        <ele>917.38176637898</ele>
        <time>2017-06-10T14:10:03Z</time>
      </trkpt>
      <trkpt lat="42.77657" lon="1.48769">
        <ele>917.38176637898</ele>
        <time>2017-06-10T14:10:03Z</time>
      </trkpt>
      <trkpt lat="42.77662" lon="1.48769">
        <ele>917.38176637898</ele>
        <time>2017-06-10T14:10:03Z</time>
      </trkpt>
      <trkpt lat="42.77669" lon="1.48764">
        <ele>917.75791764611</ele>
        <time>2017-06-10T14:10:03Z</time>
      </trkpt>
      <trkpt lat="42.77673" lon="1.48763">
        <ele>917.75791764611</ele>
        <time>2017-06-10T14:10:19Z</time>
      </trkpt>
      <trkpt lat="42.77678" lon="1.48764">
        <ele>918.40181095041</ele>
        <time>2017-06-10T14:10:19Z</time>
      </trkpt>
      <trkpt lat="42.77685" lon="1.48763">
        <ele>918.40181095041</ele>
        <time>2017-06-10T14:10:19Z</time>
      </trkpt>
      <trkpt lat="42.77689" lon="1.48762">
        <ele>919.0039824798</ele>
        <time>2017-06-10T14:10:19Z</time>
      </trkpt>
      <trkpt lat="42.77696" lon="1.48762">
        <ele>919.0039824798</ele>
        <time>2017-06-10T14:10:35Z</time>
      </trkpt>
      <trkpt lat="42.77702" lon="1.48761">
        <ele>918.70133783899</ele>
        <time>2017-06-10T14:10:35Z</time>
      </trkpt>
      <trkpt lat="42.77707" lon="1.48759">
        <ele>918.70133783899</ele>
        <time>2017-06-10T14:10:35Z</time>
      </trkpt>
      <trkpt lat="42.77712" lon="1.48757">
        <ele>917.99369137071</ele>
        <time>2017-06-10T14:10:35Z</time>
      </trkpt>
      <trkpt lat="42.77716" lon="1.48756">
        <ele>917.99369137071</ele>
        <time>2017-06-10T14:10:52Z</time>
      </trkpt>
      <trkpt lat="42.77721" lon="1.48754">
        <ele>917.20113499018</ele>
        <time>2017-06-10T14:10:52Z</time>
      </trkpt>
      <trkpt lat="42.77725" lon="1.48754">
        <ele>917.20113499018</ele>
        <time>2017-06-10T14:10:52Z</time>
      </trkpt>
      <trkpt lat="42.77728" lon="1.48752">
        <ele>917.20113499018</ele>
        <time>2017-06-10T14:10:52Z</time>
      </trkpt>
      <trkpt lat="42.7773" lon="1.4875">
        <ele>917.20113499018</ele>
        <time>2017-06-10T14:11:11Z</time>
      </trkpt>
      <trkpt lat="42.77731" lon="1.48749">
        <ele>916.90867521015</ele>
        <time>2017-06-10T14:11:11Z</time>
      </trkpt>
      <trkpt lat="42.77731" lon="1.48749">
        <ele>916.90867521015</ele>
        <time>2017-06-10T14:11:11Z</time>
      </trkpt>
      <trkpt lat="42.77735" lon="1.48748">
        <ele>916.90867521015</ele>
        <time>2017-06-10T14:11:11Z</time>
      </trkpt>
      <trkpt lat="42.7774" lon="1.48746">
        <ele>916.50401748839</ele>
        <time>2017-06-10T14:11:11Z</time>
      </trkpt>
      <trkpt lat="42.77745" lon="1.48743">
        <ele>916.50401748839</ele>
        <time>2017-06-10T14:11:31Z</time>
      </trkpt>
      <trkpt lat="42.77749" lon="1.4874">
        <ele>916.57301445945</ele>
        <time>2017-06-10T14:11:31Z</time>
      </trkpt>
      <trkpt lat="42.7775" lon="1.48738">
        <ele>916.57301445945</ele>
        <time>2017-06-10T14:11:31Z</time>
      </trkpt>
      <trkpt lat="42.77751" lon="1.48737">
        <ele>916.57301445945</ele>
        <time>2017-06-10T14:11:31Z</time>
      </trkpt>
      <trkpt lat="42.77754" lon="1.48731">
        <ele>916.57301445945</ele>
        <time>2017-06-10T14:11:31Z</time>
      </trkpt>
      <trkpt lat="42.77759" lon="1.48725">
        <ele>916.64834012089</ele>
        <time>2017-06-10T14:11:47Z</time>
      </trkpt>
      <trkpt lat="42.77762" lon="1.48721">
        <ele>916.64834012089</ele>
        <time>2017-06-10T14:11:47Z</time>
      </trkpt>
      <trkpt lat="42.77762" lon="1.48718">
        <ele>916.64834012089</ele>
        <time>2017-06-10T14:11:47Z</time>
      </trkpt>
      <trkpt lat="42.77764" lon="1.48715">
        <ele>916.87339167469</ele>
        <time>2017-06-10T14:11:47Z</time>
      </trkpt>
      <trkpt lat="42.77765" lon="1.48712">
        <ele>916.87339167469</ele>
        <time>2017-06-10T14:12:03Z</time>
      </trkpt>
      <trkpt lat="42.77766" lon="1.48708">
        <ele>916.87339167469</ele>
        <time>2017-06-10T14:12:03Z</time>
      </trkpt>
      <trkpt lat="42.77765" lon="1.48703">
        <ele>916.87339167469</ele>
        <time>2017-06-10T14:12:03Z</time>
      </trkpt>
      <trkpt lat="42.77765" lon="1.48697">
        <ele>916.66002570938</ele>
        <time>2017-06-10T14:12:03Z</time>
      </trkpt>
      <trkpt lat="42.77766" lon="1.48693">
        <ele>916.66002570938</ele>
        <time>2017-06-10T14:12:23Z</time>
      </trkpt>
      <trkpt lat="42.77765" lon="1.48689">
        <ele>916.66002570938</ele>
        <time>2017-06-10T14:12:23Z</time>
      </trkpt>
      <trkpt lat="42.77765" lon="1.48686">
        <ele>916.66002570938</ele>
        <time>2017-06-10T14:12:23Z</time>
      </trkpt>
      <trkpt lat="42.77765" lon="1.48684">
        <ele>916.61739473287</ele>
        <time>2017-06-10T14:12:23Z</time>
      </trkpt>
      <trkpt lat="42.77767" lon="1.48679">
        <ele>916.61739473287</ele>
        <time>2017-06-10T14:12:23Z</time>
      </trkpt>
      <trkpt lat="42.77769" lon="1.48675">
        <ele>916.61739473287</ele>
        <time>2017-06-10T14:12:39Z</time>
      </trkpt>
      <trkpt lat="42.77771" lon="1.48675">
        <ele>915.29184017775</ele>
        <time>2017-06-10T14:12:39Z</time>
      </trkpt>
      <trkpt lat="42.77775" lon="1.48672">
        <ele>915.29184017775</ele>
        <time>2017-06-10T14:12:39Z</time>
      </trkpt>
      <trkpt lat="42.77776" lon="1.48665">
        <ele>915.29184017775</ele>
        <time>2017-06-10T14:12:39Z</time>
      </trkpt>
      <trkpt lat="42.77777" lon="1.48659">
        <ele>913.93405870931</ele>
        <time>2017-06-10T14:12:55Z</time>
      </trkpt>
      <trkpt lat="42.77778" lon="1.48651">
        <ele>913.93405870931</ele>
        <time>2017-06-10T14:12:55Z</time>
      </trkpt>
      <trkpt lat="42.77777" lon="1.48643">
        <ele>912.55003837467</ele>
        <time>2017-06-10T14:12:55Z</time>
      </trkpt>
      <trkpt lat="42.77777" lon="1.48638">
        <ele>912.55003837467</ele>
        <time>2017-06-10T14:12:55Z</time>
      </trkpt>
      <trkpt lat="42.77778" lon="1.48632">
        <ele>912.55003837467</ele>
        <time>2017-06-10T14:13:11Z</time>
      </trkpt>
      <trkpt lat="42.7778" lon="1.48626">
        <ele>911.28947150592</ele>
        <time>2017-06-10T14:13:11Z</time>
      </trkpt>
      <trkpt lat="42.77781" lon="1.48621">
        <ele>911.28947150592</ele>
        <time>2017-06-10T14:13:11Z</time>
      </trkpt>
      <trkpt lat="42.77783" lon="1.48613">
        <ele>910.29066019732</ele>
        <time>2017-06-10T14:13:11Z</time>
      </trkpt>
      <trkpt lat="42.77784" lon="1.48607">
        <ele>910.29066019732</ele>
        <time>2017-06-10T14:13:27Z</time>
      </trkpt>
      <trkpt lat="42.77787" lon="1.48603">
        <ele>909.24862566609</ele>
        <time>2017-06-10T14:13:27Z</time>
      </trkpt>
      <trkpt lat="42.77789" lon="1.48598">
        <ele>909.24862566609</ele>
        <time>2017-06-10T14:13:27Z</time>
      </trkpt>
      <trkpt lat="42.7779" lon="1.48592">
        <ele>909.24862566609</ele>
        <time>2017-06-10T14:13:27Z</time>
      </trkpt>
      <trkpt lat="42.77791" lon="1.48588">
        <ele>908.16907814755</ele>
        <time>2017-06-10T14:13:43Z</time>
      </trkpt>
      <trkpt lat="42.77792" lon="1.48581">
        <ele>908.16907814755</ele>
        <time>2017-06-10T14:13:43Z</time>
      </trkpt>
      <trkpt lat="42.77793" lon="1.48574">
        <ele>907.77790897481</ele>
        <time>2017-06-10T14:13:43Z</time>
      </trkpt>
      <trkpt lat="42.77795" lon="1.48567">
        <ele>907.77790897481</ele>
        <time>2017-06-10T14:13:43Z</time>
      </trkpt>
      <trkpt lat="42.77796" lon="1.48559">
        <ele>907.59280446415</ele>
        <time>2017-06-10T14:13:59Z</time>
      </trkpt>
      <trkpt lat="42.77798" lon="1.48553">
        <ele>907.59280446415</ele>
        <time>2017-06-10T14:13:59Z</time>
      </trkpt>
      <trkpt lat="42.77799" lon="1.48548">
        <ele>907.59280446415</ele>
        <time>2017-06-10T14:13:59Z</time>
      </trkpt>
      <trkpt lat="42.778" lon="1.48545">
        <ele>908.03091164589</ele>
        <time>2017-06-10T14:13:59Z</time>
      </trkpt>
      <trkpt lat="42.77801" lon="1.48539">
        <ele>908.03091164589</ele>
        <time>2017-06-10T14:14:16Z</time>
      </trkpt>
      <trkpt lat="42.77804" lon="1.48535">
        <ele>908.03091164589</ele>
        <time>2017-06-10T14:14:16Z</time>
      </trkpt>
      <trkpt lat="42.77807" lon="1.48531">
        <ele>908.17993110629</ele>
        <time>2017-06-10T14:14:16Z</time>
      </trkpt>
      <trkpt lat="42.77809" lon="1.48525">
        <ele>908.17993110629</ele>
        <time>2017-06-10T14:14:16Z</time>
      </trkpt>
      <trkpt lat="42.7781" lon="1.48519">
        <ele>908.63645579216</ele>
        <time>2017-06-10T14:14:35Z</time>
      </trkpt>
      <trkpt lat="42.7781" lon="1.48516">
        <ele>908.63645579216</ele>
        <time>2017-06-10T14:14:36Z</time>
      </trkpt>
      <trkpt lat="42.77811" lon="1.48514">
        <ele>908.63645579216</ele>
        <time>2017-06-10T14:14:36Z</time>
      </trkpt>
      <trkpt lat="42.77812" lon="1.48509">
        <ele>908.63645579216</ele>
        <time>2017-06-10T14:14:36Z</time>
      </trkpt>
      <trkpt lat="42.77815" lon="1.48505">
        <ele>909.37590717223</ele>
        <time>2017-06-10T14:14:36Z</time>
      </trkpt>
      <trkpt lat="42.77817" lon="1.48502">
        <ele>909.37590717223</ele>
        <time>2017-06-10T14:14:51Z</time>
      </trkpt>
      <trkpt lat="42.7782" lon="1.485">
        <ele>909.37590717223</ele>
        <time>2017-06-10T14:14:51Z</time>
      </trkpt>
      <trkpt lat="42.77822" lon="1.48499">
        <ele>909.37590717223</ele>
        <time>2017-06-10T14:14:51Z</time>
      </trkpt>
      <trkpt lat="42.77822" lon="1.48491">
        <ele>909.22179807163</ele>
        <time>2017-06-10T14:14:51Z</time>
      </trkpt>
      <trkpt lat="42.77822" lon="1.48484">
        <ele>909.22179807163</ele>
        <time>2017-06-10T14:15:07Z</time>
      </trkpt>
      <trkpt lat="42.77824" lon="1.4848">
        <ele>908.95999267943</ele>
        <time>2017-06-10T14:15:08Z</time>
      </trkpt>
      <trkpt lat="42.77824" lon="1.48472">
        <ele>908.95999267943</ele>
        <time>2017-06-10T14:15:08Z</time>
      </trkpt>
      <trkpt lat="42.77824" lon="1.48468">
        <ele>908.95999267943</ele>
        <time>2017-06-10T14:15:08Z</time>
      </trkpt>
      <trkpt lat="42.77825" lon="1.48465">
        <ele>909.31890986126</ele>
        <time>2017-06-10T14:15:23Z</time>
      </trkpt>
      <trkpt lat="42.77828" lon="1.48461">
        <ele>909.31890986126</ele>
        <time>2017-06-10T14:15:23Z</time>
      </trkpt>
      <trkpt lat="42.77831" lon="1.48457">
        <ele>909.31890986126</ele>
        <time>2017-06-10T14:15:23Z</time>
      </trkpt>
      <trkpt lat="42.77832" lon="1.48455">
        <ele>909.24236990388</ele>
        <time>2017-06-10T14:15:23Z</time>
      </trkpt>
      <trkpt lat="42.77833" lon="1.48449">
        <ele>909.24236990388</ele>
        <time>2017-06-10T14:16:07Z</time>
      </trkpt>
      <trkpt lat="42.77834" lon="1.48447">
        <ele>909.24236990388</ele>
        <time>2017-06-10T14:16:07Z</time>
      </trkpt>
      <trkpt lat="42.77836" lon="1.48446">
        <ele>909.24236990388</ele>
        <time>2017-06-10T14:16:07Z</time>
      </trkpt>
      <trkpt lat="42.77836" lon="1.48445">
        <ele>909.24236990388</ele>
        <time>2017-06-10T14:16:07Z</time>
      </trkpt>
      <trkpt lat="42.77839" lon="1.48443">
        <ele>908.47354485426</ele>
        <time>2017-06-10T14:16:07Z</time>
      </trkpt>
      <trkpt lat="42.77843" lon="1.48441">
        <ele>908.47354485426</ele>
        <time>2017-06-10T14:16:23Z</time>
      </trkpt>
      <trkpt lat="42.77847" lon="1.48437">
        <ele>906.9205142544</ele>
        <time>2017-06-10T14:16:23Z</time>
      </trkpt>
      <trkpt lat="42.7785" lon="1.48432">
        <ele>906.9205142544</ele>
        <time>2017-06-10T14:16:23Z</time>
      </trkpt>
      <trkpt lat="42.77851" lon="1.48427">
        <ele>906.9205142544</ele>
        <time>2017-06-10T14:16:23Z</time>
      </trkpt>
      <trkpt lat="42.77852" lon="1.48417">
        <ele>905.50907362439</ele>
        <time>2017-06-10T14:16:51Z</time>
      </trkpt>
      <trkpt lat="42.77852" lon="1.48415">
        <ele>905.50907362439</ele>
        <time>2017-06-10T14:16:52Z</time>
      </trkpt>
      <trkpt lat="42.77851" lon="1.48412">
        <ele>905.50907362439</ele>
        <time>2017-06-10T14:16:52Z</time>
      </trkpt>
      <trkpt lat="42.77851" lon="1.48412">
        <ele>905.50907362439</ele>
        <time>2017-06-10T14:16:52Z</time>
      </trkpt>
      <trkpt lat="42.77849" lon="1.48411">
        <ele>905.50907362439</ele>
        <time>2017-06-10T14:16:52Z</time>
      </trkpt>
      <trkpt lat="42.7785" lon="1.48405">
        <ele>904.08781462488</ele>
        <time>2017-06-10T14:17:07Z</time>
      </trkpt>
      <trkpt lat="42.77852" lon="1.48399">
        <ele>904.08781462488</ele>
        <time>2017-06-10T14:17:07Z</time>
      </trkpt>
      <trkpt lat="42.77855" lon="1.48395">
        <ele>904.08781462488</ele>
        <time>2017-06-10T14:17:07Z</time>
      </trkpt>
      <trkpt lat="42.77856" lon="1.4839">
        <ele>902.66056258587</ele>
        <time>2017-06-10T14:17:07Z</time>
      </trkpt>
      <trkpt lat="42.77849" lon="1.48383">
        <ele>902.66056258587</ele>
        <time>2017-06-10T14:21:27Z</time>
      </trkpt>
      <trkpt lat="42.77847" lon="1.48386">
        <ele>900.51028666387</ele>
        <time>2017-06-10T14:21:27Z</time>
      </trkpt>
      <trkpt lat="42.77844" lon="1.48389">
        <ele>900.51028666387</ele>
        <time>2017-06-10T14:21:27Z</time>
      </trkpt>
      <trkpt lat="42.77841" lon="1.48392">
        <ele>900.51028666387</ele>
        <time>2017-06-10T14:21:27Z</time>
      </trkpt>
      <trkpt lat="42.77837" lon="1.48396">
        <ele>898.84805806905</ele>
        <time>2017-06-10T14:21:27Z</time>
      </trkpt>
      <trkpt lat="42.77835" lon="1.484">
        <ele>898.84805806905</ele>
        <time>2017-06-10T14:21:43Z</time>
      </trkpt>
      <trkpt lat="42.77833" lon="1.48404">
        <ele>898.84805806905</ele>
        <time>2017-06-10T14:21:43Z</time>
      </trkpt>
      <trkpt lat="42.77829" lon="1.48408">
        <ele>897.06522799313</ele>
        <time>2017-06-10T14:21:43Z</time>
      </trkpt>
      <trkpt lat="42.77825" lon="1.48411">
        <ele>897.06522799313</ele>
        <time>2017-06-10T14:21:43Z</time>
      </trkpt>
      <trkpt lat="42.77821" lon="1.48414">
        <ele>897.06522799313</ele>
        <time>2017-06-10T14:21:59Z</time>
      </trkpt>
      <trkpt lat="42.77817" lon="1.48411">
        <ele>896.18336093458</ele>
        <time>2017-06-10T14:21:59Z</time>
      </trkpt>
      <trkpt lat="42.77814" lon="1.48407">
        <ele>896.18336093458</ele>
        <time>2017-06-10T14:21:59Z</time>
      </trkpt>
      <trkpt lat="42.77812" lon="1.48402">
        <ele>896.18336093458</ele>
        <time>2017-06-10T14:21:59Z</time>
      </trkpt>
      <trkpt lat="42.77816" lon="1.48399">
        <ele>895.12883005343</ele>
        <time>2017-06-10T14:22:15Z</time>
      </trkpt>
      <trkpt lat="42.77813" lon="1.48396">
        <ele>895.12883005343</ele>
        <time>2017-06-10T14:22:16Z</time>
      </trkpt>
      <trkpt lat="42.77808" lon="1.48397">
        <ele>895.12883005343</ele>
        <time>2017-06-10T14:22:16Z</time>
      </trkpt>
      <trkpt lat="42.77805" lon="1.48402">
        <ele>895.06896354529</ele>
        <time>2017-06-10T14:22:16Z</time>
      </trkpt>
      <trkpt lat="42.77806" lon="1.48409">
        <ele>895.06896354529</ele>
        <time>2017-06-10T14:22:31Z</time>
      </trkpt>
      <trkpt lat="42.77804" lon="1.48413">
        <ele>894.05614910172</ele>
        <time>2017-06-10T14:22:31Z</time>
      </trkpt>
      <trkpt lat="42.77801" lon="1.48417">
        <ele>894.05614910172</ele>
        <time>2017-06-10T14:22:31Z</time>
      </trkpt>
      <trkpt lat="42.77799" lon="1.48419">
        <ele>894.05614910172</ele>
        <time>2017-06-10T14:22:31Z</time>
      </trkpt>
      <trkpt lat="42.778" lon="1.48421">
        <ele>894.05614910172</ele>
        <time>2017-06-10T14:22:59Z</time>
      </trkpt>
      <trkpt lat="42.778" lon="1.48421">
        <ele>894.05614910172</ele>
        <time>2017-06-10T14:23:00Z</time>
      </trkpt>
      <trkpt lat="42.77798" lon="1.48422">
        <ele>892.30601098826</ele>
        <time>2017-06-10T14:23:00Z</time>
      </trkpt>
      <trkpt lat="42.77795" lon="1.48425">
        <ele>892.30601098826</ele>
        <time>2017-06-10T14:23:00Z</time>
      </trkpt>
      <trkpt lat="42.77791" lon="1.48429">
        <ele>890.88500615279</ele>
        <time>2017-06-10T14:23:00Z</time>
      </trkpt>
      <trkpt lat="42.77789" lon="1.48429">
        <ele>890.88500615279</ele>
        <time>2017-06-10T14:23:19Z</time>
      </trkpt>
      <trkpt lat="42.77788" lon="1.48431">
        <ele>890.88500615279</ele>
        <time>2017-06-10T14:23:19Z</time>
      </trkpt>
      <trkpt lat="42.77786" lon="1.48432">
        <ele>890.88500615279</ele>
        <time>2017-06-10T14:23:19Z</time>
      </trkpt>
      <trkpt lat="42.77784" lon="1.48432">
        <ele>890.88500615279</ele>
        <time>2017-06-10T14:23:19Z</time>
      </trkpt>
      <trkpt lat="42.77781" lon="1.48434">
        <ele>889.77148515314</ele>
        <time>2017-06-10T14:23:19Z</time>
      </trkpt>
      <trkpt lat="42.7778" lon="1.48437">
        <ele>889.77148515314</ele>
        <time>2017-06-10T14:23:43Z</time>
      </trkpt>
      <trkpt lat="42.77778" lon="1.48439">
        <ele>889.77148515314</ele>
        <time>2017-06-10T14:23:44Z</time>
      </trkpt>
      <trkpt lat="42.77777" lon="1.4844">
        <ele>889.77148515314</ele>
        <time>2017-06-10T14:23:44Z</time>
      </trkpt>
      <trkpt lat="42.77774" lon="1.48442">
        <ele>888.80034983669</ele>
        <time>2017-06-10T14:23:44Z</time>
      </trkpt>
      <trkpt lat="42.7777" lon="1.48447">
        <ele>888.80034983669</ele>
        <time>2017-06-10T14:23:44Z</time>
      </trkpt>
      <trkpt lat="42.77767" lon="1.48452">
        <ele>887.24171872414</ele>
        <time>2017-06-10T14:23:59Z</time>
      </trkpt>
      <trkpt lat="42.77764" lon="1.48455">
        <ele>887.24171872414</ele>
        <time>2017-06-10T14:23:59Z</time>
      </trkpt>
      <trkpt lat="42.7776" lon="1.48459">
        <ele>886.00613024415</ele>
        <time>2017-06-10T14:23:59Z</time>
      </trkpt>
      <trkpt lat="42.77757" lon="1.48462">
        <ele>886.00613024415</ele>
        <time>2017-06-10T14:23:59Z</time>
      </trkpt>
      <trkpt lat="42.77755" lon="1.48466">
        <ele>886.00613024415</ele>
        <time>2017-06-10T14:24:15Z</time>
      </trkpt>
      <trkpt lat="42.77751" lon="1.4847">
        <ele>885.07159453319</ele>
        <time>2017-06-10T14:24:15Z</time>
      </trkpt>
      <trkpt lat="42.77748" lon="1.48473">
        <ele>885.07159453319</ele>
        <time>2017-06-10T14:24:15Z</time>
      </trkpt>
      <trkpt lat="42.77745" lon="1.48477">
        <ele>885.07159453319</ele>
        <time>2017-06-10T14:24:15Z</time>
      </trkpt>
      <trkpt lat="42.77741" lon="1.48483">
        <ele>883.55215760481</ele>
        <time>2017-06-10T14:24:31Z</time>
      </trkpt>
      <trkpt lat="42.77737" lon="1.48488">
        <ele>883.55215760481</ele>
        <time>2017-06-10T14:24:31Z</time>
      </trkpt>
      <trkpt lat="42.77734" lon="1.48494">
        <ele>883.07841108167</ele>
        <time>2017-06-10T14:24:31Z</time>
      </trkpt>
      <trkpt lat="42.77733" lon="1.485">
        <ele>883.07841108167</ele>
        <time>2017-06-10T14:24:31Z</time>
      </trkpt>
      <trkpt lat="42.77731" lon="1.48504">
        <ele>883.07841108167</ele>
        <time>2017-06-10T14:24:51Z</time>
      </trkpt>
      <trkpt lat="42.77728" lon="1.48506">
        <ele>881.9877199663</ele>
        <time>2017-06-10T14:24:52Z</time>
      </trkpt>
      <trkpt lat="42.77727" lon="1.48509">
        <ele>881.9877199663</ele>
        <time>2017-06-10T14:24:52Z</time>
      </trkpt>
      <trkpt lat="42.77725" lon="1.48512">
        <ele>881.9877199663</ele>
        <time>2017-06-10T14:24:52Z</time>
      </trkpt>
      <trkpt lat="42.77725" lon="1.48515">
        <ele>881.9877199663</ele>
        <time>2017-06-10T14:24:52Z</time>
      </trkpt>
      <trkpt lat="42.77721" lon="1.4852">
        <ele>879.46180647921</ele>
        <time>2017-06-10T14:25:15Z</time>
      </trkpt>
      <trkpt lat="42.7772" lon="1.48523">
        <ele>879.46180647921</ele>
        <time>2017-06-10T14:25:15Z</time>
      </trkpt>
      <trkpt lat="42.77719" lon="1.48525">
        <ele>879.46180647921</ele>
        <time>2017-06-10T14:25:15Z</time>
      </trkpt>
      <trkpt lat="42.77717" lon="1.48525">
        <ele>879.46180647921</ele>
        <time>2017-06-10T14:25:15Z</time>
      </trkpt>
      <trkpt lat="42.77714" lon="1.48527">
        <ele>875.61112643553</ele>
        <time>2017-06-10T14:25:15Z</time>
      </trkpt>
      <trkpt lat="42.7771" lon="1.48527">
        <ele>875.61112643553</ele>
        <time>2017-06-10T14:25:35Z</time>
      </trkpt>
      <trkpt lat="42.77708" lon="1.48526">
        <ele>875.61112643553</ele>
        <time>2017-06-10T14:25:36Z</time>
      </trkpt>
      <trkpt lat="42.77705" lon="1.48524">
        <ele>875.61112643553</ele>
        <time>2017-06-10T14:25:36Z</time>
      </trkpt>
      <trkpt lat="42.77702" lon="1.48523">
        <ele>873.42388606896</ele>
        <time>2017-06-10T14:25:36Z</time>
      </trkpt>
      <trkpt lat="42.777" lon="1.4852">
        <ele>873.42388606896</ele>
        <time>2017-06-10T14:25:36Z</time>
      </trkpt>
      <trkpt lat="42.77695" lon="1.4852">
        <ele>873.42388606896</ele>
        <time>2017-06-10T14:25:59Z</time>
      </trkpt>
      <trkpt lat="42.77693" lon="1.48519">
        <ele>870.33191433969</ele>
        <time>2017-06-10T14:25:59Z</time>
      </trkpt>
      <trkpt lat="42.7769" lon="1.48519">
        <ele>870.33191433969</ele>
        <time>2017-06-10T14:25:59Z</time>
      </trkpt>
      <trkpt lat="42.7769" lon="1.48519">
        <ele>870.33191433969</ele>
        <time>2017-06-10T14:25:59Z</time>
      </trkpt>
      <trkpt lat="42.77688" lon="1.4852">
        <ele>870.33191433969</ele>
        <time>2017-06-10T14:25:59Z</time>
      </trkpt>
      <trkpt lat="42.77683" lon="1.48521">
        <ele>868.13736230513</ele>
        <time>2017-06-10T14:26:15Z</time>
      </trkpt>
      <trkpt lat="42.77677" lon="1.48523">
        <ele>868.13736230513</ele>
        <time>2017-06-10T14:26:15Z</time>
      </trkpt>
      <trkpt lat="42.77671" lon="1.48525">
        <ele>865.91337301622</ele>
        <time>2017-06-10T14:26:15Z</time>
      </trkpt>
      <trkpt lat="42.77665" lon="1.48528">
        <ele>865.91337301622</ele>
        <time>2017-06-10T14:26:15Z</time>
      </trkpt>
      <trkpt lat="42.77661" lon="1.48536">
        <ele>863.66581570481</ele>
        <time>2017-06-10T14:26:32Z</time>
      </trkpt>
      <trkpt lat="42.77657" lon="1.4854">
        <ele>863.66581570481</ele>
        <time>2017-06-10T14:26:32Z</time>
      </trkpt>
      <trkpt lat="42.77653" lon="1.48545">
        <ele>861.54419214782</ele>
        <time>2017-06-10T14:26:32Z</time>
      </trkpt>
      <trkpt lat="42.77649" lon="1.48548">
        <ele>861.54419214782</ele>
        <time>2017-06-10T14:26:32Z</time>
      </trkpt>
      <trkpt lat="42.77645" lon="1.48555">
        <ele>858.96599640992</ele>
        <time>2017-06-10T14:26:59Z</time>
      </trkpt>
      <trkpt lat="42.77644" lon="1.48557">
        <ele>858.96599640992</ele>
        <time>2017-06-10T14:26:59Z</time>
      </trkpt>
      <trkpt lat="42.77644" lon="1.48557">
        <ele>858.96599640992</ele>
        <time>2017-06-10T14:26:59Z</time>
      </trkpt>
      <trkpt lat="42.77643" lon="1.48559">
        <ele>858.96599640992</ele>
        <time>2017-06-10T14:26:59Z</time>
      </trkpt>
      <trkpt lat="42.77642" lon="1.48564">
        <ele>858.96599640992</ele>
        <time>2017-06-10T14:26:59Z</time>
      </trkpt>
      <trkpt lat="42.7764" lon="1.48569">
        <ele>855.82500757224</ele>
        <time>2017-06-10T14:27:16Z</time>
      </trkpt>
      <trkpt lat="42.77639" lon="1.48574">
        <ele>855.82500757224</ele>
        <time>2017-06-10T14:27:16Z</time>
      </trkpt>
      <trkpt lat="42.77635" lon="1.48581">
        <ele>852.88892955026</ele>
        <time>2017-06-10T14:27:16Z</time>
      </trkpt>
      <trkpt lat="42.77632" lon="1.48583">
        <ele>852.88892955026</ele>
        <time>2017-06-10T14:27:16Z</time>
      </trkpt>
      <trkpt lat="42.77629" lon="1.48585">
        <ele>852.88892955026</ele>
        <time>2017-06-10T14:27:43Z</time>
      </trkpt>
      <trkpt lat="42.77629" lon="1.48585">
        <ele>852.88892955026</ele>
        <time>2017-06-10T14:27:43Z</time>
      </trkpt>
      <trkpt lat="42.77626" lon="1.48585">
        <ele>850.86836906197</ele>
        <time>2017-06-10T14:27:43Z</time>
      </trkpt>
      <trkpt lat="42.77624" lon="1.48586">
        <ele>850.86836906197</ele>
        <time>2017-06-10T14:27:43Z</time>
      </trkpt>
      <trkpt lat="42.7762" lon="1.48586">
        <ele>850.86836906197</ele>
        <time>2017-06-10T14:27:43Z</time>
      </trkpt>
      <trkpt lat="42.77614" lon="1.48589">
        <ele>848.54558796233</ele>
        <time>2017-06-10T14:28:12Z</time>
      </trkpt>
      <trkpt lat="42.77613" lon="1.48589">
        <ele>848.54558796233</ele>
        <time>2017-06-10T14:28:12Z</time>
      </trkpt>
      <trkpt lat="42.77612" lon="1.48589">
        <ele>848.54558796233</ele>
        <time>2017-06-10T14:28:12Z</time>
      </trkpt>
      <trkpt lat="42.77609" lon="1.48589">
        <ele>848.54558796233</ele>
        <time>2017-06-10T14:28:12Z</time>
      </trkpt>
      <trkpt lat="42.77605" lon="1.48588">
        <ele>846.23412969542</ele>
        <time>2017-06-10T14:28:12Z</time>
      </trkpt>
      <trkpt lat="42.77598" lon="1.48589">
        <ele>846.23412969542</ele>
        <time>2017-06-10T14:28:39Z</time>
      </trkpt>
      <trkpt lat="42.77598" lon="1.4859">
        <ele>846.23412969542</ele>
        <time>2017-06-10T14:28:39Z</time>
      </trkpt>
      <trkpt lat="42.77597" lon="1.48589">
        <ele>846.23412969542</ele>
        <time>2017-06-10T14:28:39Z</time>
      </trkpt>
      <trkpt lat="42.77593" lon="1.48589">
        <ele>844.51256480529</ele>
        <time>2017-06-10T14:28:39Z</time>
      </trkpt>
      <trkpt lat="42.77589" lon="1.48589">
        <ele>844.51256480529</ele>
        <time>2017-06-10T14:28:39Z</time>
      </trkpt>
      <trkpt lat="42.77586" lon="1.4859">
        <ele>844.51256480529</ele>
        <time>2017-06-10T14:28:55Z</time>
      </trkpt>
      <trkpt lat="42.7758" lon="1.48588">
        <ele>842.61817921738</ele>
        <time>2017-06-10T14:28:56Z</time>
      </trkpt>
      <trkpt lat="42.77573" lon="1.48587">
        <ele>842.61817921738</ele>
        <time>2017-06-10T14:28:56Z</time>
      </trkpt>
      <trkpt lat="42.77569" lon="1.48589">
        <ele>840.85342641354</ele>
        <time>2017-06-10T14:28:56Z</time>
      </trkpt>
      <trkpt lat="42.77568" lon="1.4859">
        <ele>840.85342641354</ele>
        <time>2017-06-10T14:29:11Z</time>
      </trkpt>
      <trkpt lat="42.77566" lon="1.48593">
        <ele>840.85342641354</ele>
        <time>2017-06-10T14:29:11Z</time>
      </trkpt>
      <trkpt lat="42.77561" lon="1.48596">
        <ele>839.49805990569</ele>
        <time>2017-06-10T14:29:11Z</time>
      </trkpt>
      <trkpt lat="42.77558" lon="1.48597">
        <ele>839.49805990569</ele>
        <time>2017-06-10T14:29:11Z</time>
      </trkpt>
      <trkpt lat="42.77552" lon="1.48598">
        <ele>838.37768976953</ele>
        <time>2017-06-10T14:29:28Z</time>
      </trkpt>
      <trkpt lat="42.77548" lon="1.486">
        <ele>838.37768976953</ele>
        <time>2017-06-10T14:29:28Z</time>
      </trkpt>
      <trkpt lat="42.77546" lon="1.48601">
        <ele>838.37768976953</ele>
        <time>2017-06-10T14:29:28Z</time>
      </trkpt>
      <trkpt lat="42.77542" lon="1.48602">
        <ele>836.60941776855</ele>
        <time>2017-06-10T14:29:28Z</time>
      </trkpt>
      <trkpt lat="42.77538" lon="1.48604">
        <ele>836.60941776855</ele>
        <time>2017-06-10T14:29:43Z</time>
      </trkpt>
      <trkpt lat="42.77534" lon="1.48607">
        <ele>834.81803571428</ele>
        <time>2017-06-10T14:29:43Z</time>
      </trkpt>
      <trkpt lat="42.7753" lon="1.4861">
        <ele>834.81803571428</ele>
        <time>2017-06-10T14:29:43Z</time>
      </trkpt>
      <trkpt lat="42.77525" lon="1.48614">
        <ele>833.58241486876</ele>
        <time>2017-06-10T14:29:43Z</time>
      </trkpt>
      <trkpt lat="42.77521" lon="1.48616">
        <ele>833.58241486876</ele>
        <time>2017-06-10T14:29:59Z</time>
      </trkpt>
      <trkpt lat="42.77518" lon="1.48621">
        <ele>832.14026169383</ele>
        <time>2017-06-10T14:29:59Z</time>
      </trkpt>
      <trkpt lat="42.77516" lon="1.48623">
        <ele>832.14026169383</ele>
        <time>2017-06-10T14:29:59Z</time>
      </trkpt>
      <trkpt lat="42.77514" lon="1.48624">
        <ele>832.14026169383</ele>
        <time>2017-06-10T14:29:59Z</time>
      </trkpt>
      <trkpt lat="42.77513" lon="1.48625">
        <ele>832.14026169383</ele>
        <time>2017-06-10T14:30:19Z</time>
      </trkpt>
      <trkpt lat="42.77513" lon="1.48626">
        <ele>832.14026169383</ele>
        <time>2017-06-10T14:30:19Z</time>
      </trkpt>
      <trkpt lat="42.77513" lon="1.4863">
        <ele>829.78578292009</ele>
        <time>2017-06-10T14:30:19Z</time>
      </trkpt>
      <trkpt lat="42.77511" lon="1.48636">
        <ele>829.78578292009</ele>
        <time>2017-06-10T14:30:19Z</time>
      </trkpt>
      <trkpt lat="42.77508" lon="1.48642">
        <ele>827.74096494959</ele>
        <time>2017-06-10T14:30:19Z</time>
      </trkpt>
      <trkpt lat="42.77504" lon="1.48648">
        <ele>827.74096494959</ele>
        <time>2017-06-10T14:30:36Z</time>
      </trkpt>
      <trkpt lat="42.77498" lon="1.48653">
        <ele>826.12831317646</ele>
        <time>2017-06-10T14:30:36Z</time>
      </trkpt>
      <trkpt lat="42.77494" lon="1.48658">
        <ele>826.12831317646</ele>
        <time>2017-06-10T14:30:36Z</time>
      </trkpt>
      <trkpt lat="42.77491" lon="1.48664">
        <ele>824.33950082205</ele>
        <time>2017-06-10T14:30:36Z</time>
      </trkpt>
      <trkpt lat="42.77489" lon="1.48672">
        <ele>824.33950082205</ele>
        <time>2017-06-10T14:30:51Z</time>
      </trkpt>
      <trkpt lat="42.77486" lon="1.48679">
        <ele>823.25243363086</ele>
        <time>2017-06-10T14:30:51Z</time>
      </trkpt>
      <trkpt lat="42.77483" lon="1.48685">
        <ele>823.25243363086</ele>
        <time>2017-06-10T14:30:51Z</time>
      </trkpt>
      <trkpt lat="42.77483" lon="1.48687">
        <ele>823.25243363086</ele>
        <time>2017-06-10T14:30:51Z</time>
      </trkpt>
      <trkpt lat="42.77479" lon="1.48691">
        <ele>823.96672900619</ele>
        <time>2017-06-10T14:31:15Z</time>
      </trkpt>
      <trkpt lat="42.77479" lon="1.48693">
        <ele>823.96672900619</ele>
        <time>2017-06-10T14:31:15Z</time>
      </trkpt>
      <trkpt lat="42.77478" lon="1.48694">
        <ele>823.96672900619</ele>
        <time>2017-06-10T14:31:15Z</time>
      </trkpt>
      <trkpt lat="42.77478" lon="1.48694">
        <ele>823.96672900619</ele>
        <time>2017-06-10T14:31:15Z</time>
      </trkpt>
      <trkpt lat="42.77476" lon="1.48702">
        <ele>823.96672900619</ele>
        <time>2017-06-10T14:31:15Z</time>
      </trkpt>
      <trkpt lat="42.7747" lon="1.48713">
        <ele>823.74924275307</ele>
        <time>2017-06-10T14:31:39Z</time>
      </trkpt>
      <trkpt lat="42.77469" lon="1.48715">
        <ele>823.74924275307</ele>
        <time>2017-06-10T14:31:39Z</time>
      </trkpt>
      <trkpt lat="42.77469" lon="1.48716">
        <ele>823.74924275307</ele>
        <time>2017-06-10T14:31:39Z</time>
      </trkpt>
      <trkpt lat="42.77469" lon="1.48716">
        <ele>823.74924275307</ele>
        <time>2017-06-10T14:31:39Z</time>
      </trkpt>
      <trkpt lat="42.77466" lon="1.48719">
        <ele>823.74924275307</ele>
        <time>2017-06-10T14:31:39Z</time>
      </trkpt>
      <trkpt lat="42.77462" lon="1.48723">
        <ele>823.67297237227</ele>
        <time>2017-06-10T14:31:55Z</time>
      </trkpt>
      <trkpt lat="42.77459" lon="1.48732">
        <ele>823.67297237227</ele>
        <time>2017-06-10T14:31:55Z</time>
      </trkpt>
      <trkpt lat="42.77455" lon="1.48742">
        <ele>823.57879746153</ele>
        <time>2017-06-10T14:31:55Z</time>
      </trkpt>
      <trkpt lat="42.77448" lon="1.48755">
        <ele>823.89578704286</ele>
        <time>2017-06-10T14:31:55Z</time>
      </trkpt>
      <trkpt lat="42.77445" lon="1.48758">
        <ele>823.89578704286</ele>
        <time>2017-06-10T14:32:11Z</time>
      </trkpt>
      <trkpt lat="42.77441" lon="1.48761">
        <ele>823.89578704286</ele>
        <time>2017-06-10T14:32:11Z</time>
      </trkpt>
      <trkpt lat="42.77436" lon="1.48765">
        <ele>824.29980206452</ele>
        <time>2017-06-10T14:32:11Z</time>
      </trkpt>
      <trkpt lat="42.77431" lon="1.48765">
        <ele>824.29980206452</ele>
        <time>2017-06-10T14:32:11Z</time>
      </trkpt>
      <trkpt lat="42.77424" lon="1.48771">
        <ele>824.77852787463</ele>
        <time>2017-06-10T14:32:27Z</time>
      </trkpt>
      <trkpt lat="42.77421" lon="1.48776">
        <ele>824.77852787463</ele>
        <time>2017-06-10T14:32:27Z</time>
      </trkpt>
      <trkpt lat="42.77415" lon="1.48781">
        <ele>825.0321718942</ele>
        <time>2017-06-10T14:32:27Z</time>
      </trkpt>
      <trkpt lat="42.77412" lon="1.48785">
        <ele>825.0321718942</ele>
        <time>2017-06-10T14:32:28Z</time>
      </trkpt>
      <trkpt lat="42.7741" lon="1.48787">
        <ele>825.0321718942</ele>
        <time>2017-06-10T14:32:43Z</time>
      </trkpt>
      <trkpt lat="42.77406" lon="1.48788">
        <ele>824.35132337116</ele>
        <time>2017-06-10T14:32:43Z</time>
      </trkpt>
      <trkpt lat="42.77402" lon="1.4879">
        <ele>824.35132337116</ele>
        <time>2017-06-10T14:32:43Z</time>
      </trkpt>
      <trkpt lat="42.77398" lon="1.48792">
        <ele>823.66659952899</ele>
        <time>2017-06-10T14:32:43Z</time>
      </trkpt>
      <trkpt lat="42.77391" lon="1.48804">
        <ele>821.67867301994</ele>
        <time>2017-06-10T14:33:15Z</time>
      </trkpt>
      <trkpt lat="42.77391" lon="1.48805">
        <ele>821.67867301994</ele>
        <time>2017-06-10T14:33:15Z</time>
      </trkpt>
      <trkpt lat="42.7739" lon="1.48805">
        <ele>821.67867301994</ele>
        <time>2017-06-10T14:33:15Z</time>
      </trkpt>
      <trkpt lat="42.77388" lon="1.48805">
        <ele>821.67867301994</ele>
        <time>2017-06-10T14:33:15Z</time>
      </trkpt>
      <trkpt lat="42.77385" lon="1.48806">
        <ele>821.67867301994</ele>
        <time>2017-06-10T14:33:15Z</time>
      </trkpt>
      <trkpt lat="42.77379" lon="1.48814">
        <ele>817.33150137979</ele>
        <time>2017-06-10T14:36:35Z</time>
      </trkpt>
      <trkpt lat="42.77378" lon="1.48815">
        <ele>817.33150137979</ele>
        <time>2017-06-10T14:36:35Z</time>
      </trkpt>
      <trkpt lat="42.77377" lon="1.48817">
        <ele>817.33150137979</ele>
        <time>2017-06-10T14:36:35Z</time>
      </trkpt>
      <trkpt lat="42.77378" lon="1.48818">
        <ele>817.33150137979</ele>
        <time>2017-06-10T14:36:35Z</time>
      </trkpt>
      <trkpt lat="42.77378" lon="1.48819">
        <ele>817.33150137979</ele>
        <time>2017-06-10T14:36:35Z</time>
      </trkpt>
      <trkpt lat="42.77381" lon="1.48815">
        <ele>811.52673783195</ele>
        <time>2017-06-10T14:39:11Z</time>
      </trkpt>
      <trkpt lat="42.7738" lon="1.48814">
        <ele>811.52673783195</ele>
        <time>2017-06-10T14:39:11Z</time>
      </trkpt>
      <trkpt lat="42.77381" lon="1.48812">
        <ele>811.52673783195</ele>
        <time>2017-06-10T14:39:11Z</time>
      </trkpt>
      <trkpt lat="42.77382" lon="1.4881">
        <ele>811.52673783195</ele>
        <time>2017-06-10T14:39:11Z</time>
      </trkpt>
      <trkpt lat="42.77382" lon="1.48807">
        <ele>811.52673783195</ele>
        <time>2017-06-10T14:39:11Z</time>
      </trkpt>
      <trkpt lat="42.77384" lon="1.48803">
        <ele>805.53625607862</ele>
        <time>2017-06-10T14:39:35Z</time>
      </trkpt>
      <trkpt lat="42.77384" lon="1.48802">
        <ele>805.53625607862</ele>
        <time>2017-06-10T14:39:35Z</time>
      </trkpt>
      <trkpt lat="42.77385" lon="1.48801">
        <ele>805.53625607862</ele>
        <time>2017-06-10T14:39:35Z</time>
      </trkpt>
      <trkpt lat="42.77388" lon="1.48795">
        <ele>805.53625607862</ele>
        <time>2017-06-10T14:39:35Z</time>
      </trkpt>
      <trkpt lat="42.77395" lon="1.4879">
        <ele>799.53024341345</ele>
        <time>2017-06-10T14:39:35Z</time>
      </trkpt>
      <trkpt lat="42.77401" lon="1.48779">
        <ele>794.53106423456</ele>
        <time>2017-06-10T14:39:51Z</time>
      </trkpt>
      <trkpt lat="42.77399" lon="1.4877">
        <ele>794.53106423456</ele>
        <time>2017-06-10T14:39:51Z</time>
      </trkpt>
      <trkpt lat="42.77398" lon="1.48767">
        <ele>789.75375912392</ele>
        <time>2017-06-10T14:39:51Z</time>
      </trkpt>
      <trkpt lat="42.77396" lon="1.48765">
        <ele>789.75375912392</ele>
        <time>2017-06-10T14:39:51Z</time>
      </trkpt>
      <trkpt lat="42.77395" lon="1.48767">
        <ele>789.75375912392</ele>
        <time>2017-06-10T14:40:07Z</time>
      </trkpt>
      <trkpt lat="42.77393" lon="1.48769">
        <ele>789.75375912392</ele>
        <time>2017-06-10T14:40:07Z</time>
      </trkpt>
      <trkpt lat="42.77387" lon="1.48777">
        <ele>786.48787800754</ele>
        <time>2017-06-10T14:40:07Z</time>
      </trkpt>
      <trkpt lat="42.77382" lon="1.48779">
        <ele>786.48787800754</ele>
        <time>2017-06-10T14:40:07Z</time>
      </trkpt>
      <trkpt lat="42.77373" lon="1.48786">
        <ele>784.48278696557</ele>
        <time>2017-06-10T14:40:31Z</time>
      </trkpt>
      <trkpt lat="42.77373" lon="1.48787">
        <ele>784.48278696557</ele>
        <time>2017-06-10T14:40:31Z</time>
      </trkpt>
      <trkpt lat="42.77372" lon="1.48789">
        <ele>784.48278696557</ele>
        <time>2017-06-10T14:40:31Z</time>
      </trkpt>
      <trkpt lat="42.77372" lon="1.4879">
        <ele>784.48278696557</ele>
        <time>2017-06-10T14:40:31Z</time>
      </trkpt>
      <trkpt lat="42.77371" lon="1.48791">
        <ele>784.48278696557</ele>
        <time>2017-06-10T14:40:31Z</time>
      </trkpt>
      <trkpt lat="42.77367" lon="1.48791">
        <ele>784.48278696557</ele>
        <time>2017-06-10T14:44:51Z</time>
      </trkpt>
      <trkpt lat="42.77368" lon="1.48784">
        <ele>779.89983306056</ele>
        <time>2017-06-10T14:44:51Z</time>
      </trkpt>
      <trkpt lat="42.77367" lon="1.4878">
        <ele>779.89983306056</ele>
        <time>2017-06-10T14:44:51Z</time>
      </trkpt>
      <trkpt lat="42.7737" lon="1.48775">
        <ele>779.89983306056</ele>
        <time>2017-06-10T14:44:51Z</time>
      </trkpt>
      <trkpt lat="42.7737" lon="1.4877">
        <ele>775.53034943719</ele>
        <time>2017-06-10T14:44:51Z</time>
      </trkpt>
      <trkpt lat="42.77371" lon="1.48766">
        <ele>775.53034943719</ele>
        <time>2017-06-10T14:45:07Z</time>
      </trkpt>
      <trkpt lat="42.77375" lon="1.48762">
        <ele>775.53034943719</ele>
        <time>2017-06-10T14:45:07Z</time>
      </trkpt>
      <trkpt lat="42.77379" lon="1.48758">
        <ele>771.22177934067</ele>
        <time>2017-06-10T14:45:07Z</time>
      </trkpt>
      <trkpt lat="42.77384" lon="1.48753">
        <ele>771.22177934067</ele>
        <time>2017-06-10T14:45:07Z</time>
      </trkpt>
      <trkpt lat="42.77388" lon="1.48743">
        <ele>767.26479770806</ele>
        <time>2017-06-10T14:45:23Z</time>
      </trkpt>
      <trkpt lat="42.77393" lon="1.48734">
        <ele>767.26479770806</ele>
        <time>2017-06-10T14:45:24Z</time>
      </trkpt>
      <trkpt lat="42.77395" lon="1.48725">
        <ele>764.21581673455</ele>
        <time>2017-06-10T14:45:24Z</time>
      </trkpt>
      <trkpt lat="42.77396" lon="1.48717">
        <ele>764.21581673455</ele>
        <time>2017-06-10T14:45:24Z</time>
      </trkpt>
      <trkpt lat="42.77394" lon="1.48709">
        <ele>761.72301083385</ele>
        <time>2017-06-10T14:45:39Z</time>
      </trkpt>
      <trkpt lat="42.77393" lon="1.48702">
        <ele>761.72301083385</ele>
        <time>2017-06-10T14:45:39Z</time>
      </trkpt>
      <trkpt lat="42.77393" lon="1.48697">
        <ele>761.72301083385</ele>
        <time>2017-06-10T14:45:39Z</time>
      </trkpt>
      <trkpt lat="42.77395" lon="1.48692">
        <ele>759.31457845011</ele>
        <time>2017-06-10T14:45:39Z</time>
      </trkpt>
      <trkpt lat="42.77396" lon="1.48686">
        <ele>759.31457845011</ele>
        <time>2017-06-10T14:45:55Z</time>
      </trkpt>
      <trkpt lat="42.77396" lon="1.48679">
        <ele>757.99410804667</ele>
        <time>2017-06-10T14:45:56Z</time>
      </trkpt>
      <trkpt lat="42.77396" lon="1.48673">
        <ele>757.99410804667</ele>
        <time>2017-06-10T14:45:56Z</time>
      </trkpt>
      <trkpt lat="42.77399" lon="1.48668">
        <ele>757.10305789329</ele>
        <time>2017-06-10T14:45:56Z</time>
      </trkpt>
      <trkpt lat="42.774" lon="1.48661">
        <ele>757.10305789329</ele>
        <time>2017-06-10T14:46:11Z</time>
      </trkpt>
      <trkpt lat="42.77402" lon="1.48655">
        <ele>756.46227357724</ele>
        <time>2017-06-10T14:46:11Z</time>
      </trkpt>
      <trkpt lat="42.77404" lon="1.48651">
        <ele>756.46227357724</ele>
        <time>2017-06-10T14:46:11Z</time>
      </trkpt>
      <trkpt lat="42.77404" lon="1.48646">
        <ele>756.46227357724</ele>
        <time>2017-06-10T14:46:11Z</time>
      </trkpt>
      <trkpt lat="42.77403" lon="1.4864">
        <ele>755.6167362943</ele>
        <time>2017-06-10T14:46:27Z</time>
      </trkpt>
      <trkpt lat="42.77401" lon="1.48635">
        <ele>755.6167362943</ele>
        <time>2017-06-10T14:46:28Z</time>
      </trkpt>
      <trkpt lat="42.774" lon="1.48629">
        <ele>755.6167362943</ele>
        <time>2017-06-10T14:46:28Z</time>
      </trkpt>
      <trkpt lat="42.77402" lon="1.48623">
        <ele>754.86590110811</ele>
        <time>2017-06-10T14:46:28Z</time>
      </trkpt>
      <trkpt lat="42.77402" lon="1.48619">
        <ele>754.86590110811</ele>
        <time>2017-06-10T14:46:43Z</time>
      </trkpt>
      <trkpt lat="42.77396" lon="1.48614">
        <ele>754.77511972971</ele>
        <time>2017-06-10T14:46:43Z</time>
      </trkpt>
      <trkpt lat="42.77391" lon="1.48615">
        <ele>754.77511972971</ele>
        <time>2017-06-10T14:46:43Z</time>
      </trkpt>
      <trkpt lat="42.77389" lon="1.48613">
        <ele>754.77511972971</ele>
        <time>2017-06-10T14:46:43Z</time>
      </trkpt>
      <trkpt lat="42.77384" lon="1.48614">
        <ele>755.00165240306</ele>
        <time>2017-06-10T14:47:55Z</time>
      </trkpt>
      <trkpt lat="42.77384" lon="1.48614">
        <ele>755.00165240306</ele>
        <time>2017-06-10T14:47:55Z</time>
      </trkpt>
      <trkpt lat="42.77384" lon="1.48615">
        <ele>755.00165240306</ele>
        <time>2017-06-10T14:47:55Z</time>
      </trkpt>
      <trkpt lat="42.77384" lon="1.48615">
        <ele>755.00165240306</ele>
        <time>2017-06-10T14:47:55Z</time>
      </trkpt>
      <trkpt lat="42.7738" lon="1.48621">
        <ele>755.00165240306</ele>
        <time>2017-06-10T14:47:55Z</time>
      </trkpt>
      <trkpt lat="42.77371" lon="1.48626">
        <ele>755.22702437322</ele>
        <time>2017-06-10T14:48:11Z</time>
      </trkpt>
      <trkpt lat="42.77367" lon="1.48635">
        <ele>755.22702437322</ele>
        <time>2017-06-10T14:48:11Z</time>
      </trkpt>
      <trkpt lat="42.77372" lon="1.48644">
        <ele>756.1649369604</ele>
        <time>2017-06-10T14:48:11Z</time>
      </trkpt>
      <trkpt lat="42.77374" lon="1.48647">
        <ele>756.1649369604</ele>
        <time>2017-06-10T14:48:12Z</time>
      </trkpt>
      <trkpt lat="42.77372" lon="1.48647">
        <ele>756.1649369604</ele>
        <time>2017-06-10T14:48:31Z</time>
      </trkpt>
      <trkpt lat="42.7737" lon="1.48648">
        <ele>756.1649369604</ele>
        <time>2017-06-10T14:48:31Z</time>
      </trkpt>
      <trkpt lat="42.77369" lon="1.48648">
        <ele>756.1649369604</ele>
        <time>2017-06-10T14:48:31Z</time>
      </trkpt>
      <trkpt lat="42.77369" lon="1.48648">
        <ele>756.1649369604</ele>
        <time>2017-06-10T14:48:31Z</time>
      </trkpt>
      <trkpt lat="42.77358" lon="1.48647">
        <ele>757.17768662822</ele>
        <time>2017-06-10T14:48:31Z</time>
      </trkpt>
      <trkpt lat="42.77344" lon="1.48647">
        <ele>758.39480712452</ele>
        <time>2017-06-10T14:48:47Z</time>
      </trkpt>
      <trkpt lat="42.77337" lon="1.48648">
        <ele>758.39480712452</ele>
        <time>2017-06-10T14:48:47Z</time>
      </trkpt>
      <trkpt lat="42.7733" lon="1.48649">
        <ele>760.36814765872</ele>
        <time>2017-06-10T14:48:47Z</time>
      </trkpt>
      <trkpt lat="42.77324" lon="1.4865">
        <ele>760.36814765872</ele>
        <time>2017-06-10T14:48:47Z</time>
      </trkpt>
      <trkpt lat="42.77319" lon="1.48652">
        <ele>763.60699560292</ele>
        <time>2017-06-10T14:49:03Z</time>
      </trkpt>
      <trkpt lat="42.77314" lon="1.48652">
        <ele>763.60699560292</ele>
        <time>2017-06-10T14:49:03Z</time>
      </trkpt>
      <trkpt lat="42.77309" lon="1.48654">
        <ele>767.13869192882</ele>
        <time>2017-06-10T14:49:03Z</time>
      </trkpt>
      <trkpt lat="42.77304" lon="1.48656">
        <ele>767.13869192882</ele>
        <time>2017-06-10T14:49:03Z</time>
      </trkpt>
      <trkpt lat="42.773" lon="1.48654">
        <ele>769.91725330624</ele>
        <time>2017-06-10T14:49:19Z</time>
      </trkpt>
      <trkpt lat="42.77296" lon="1.48656">
        <ele>769.91725330624</ele>
        <time>2017-06-10T14:49:20Z</time>
      </trkpt>
      <trkpt lat="42.77292" lon="1.48658">
        <ele>769.91725330624</ele>
        <time>2017-06-10T14:49:20Z</time>
      </trkpt>
      <trkpt lat="42.77288" lon="1.48656">
        <ele>771.55227706315</ele>
        <time>2017-06-10T14:49:20Z</time>
      </trkpt>
      <trkpt lat="42.77285" lon="1.48657">
        <ele>771.55227706315</ele>
        <time>2017-06-10T14:49:35Z</time>
      </trkpt>
      <trkpt lat="42.77281" lon="1.48655">
        <ele>771.55227706315</ele>
        <time>2017-06-10T14:49:35Z</time>
      </trkpt>
      <trkpt lat="42.77278" lon="1.48653">
        <ele>773.12656966499</ele>
        <time>2017-06-10T14:49:35Z</time>
      </trkpt>
      <trkpt lat="42.77274" lon="1.48653">
        <ele>773.12656966499</ele>
        <time>2017-06-10T14:49:35Z</time>
      </trkpt>
      <trkpt lat="42.7727" lon="1.48654">
        <ele>773.12656966499</ele>
        <time>2017-06-10T14:49:51Z</time>
      </trkpt>
      <trkpt lat="42.77265" lon="1.48657">
        <ele>774.92323971949</ele>
        <time>2017-06-10T14:49:51Z</time>
      </trkpt>
      <trkpt lat="42.77262" lon="1.48661">
        <ele>774.92323971949</ele>
        <time>2017-06-10T14:49:51Z</time>
      </trkpt>
      <trkpt lat="42.77258" lon="1.4866">
        <ele>774.92323971949</ele>
        <time>2017-06-10T14:49:51Z</time>
      </trkpt>
      <trkpt lat="42.77264" lon="1.48666">
        <ele>774.03376849142</ele>
        <time>2017-06-10T14:51:47Z</time>
      </trkpt>
      <trkpt lat="42.77263" lon="1.48671">
        <ele>774.03376849142</ele>
        <time>2017-06-10T14:51:47Z</time>
      </trkpt>
      <trkpt lat="42.7726" lon="1.48675">
        <ele>774.03376849142</ele>
        <time>2017-06-10T14:51:47Z</time>
      </trkpt>
      <trkpt lat="42.77256" lon="1.48678">
        <ele>773.8237430292</ele>
        <time>2017-06-10T14:51:47Z</time>
      </trkpt>
      <trkpt lat="42.77254" lon="1.48678">
        <ele>773.8237430292</ele>
        <time>2017-06-10T14:51:47Z</time>
      </trkpt>
      <trkpt lat="42.77253" lon="1.48681">
        <ele>773.8237430292</ele>
        <time>2017-06-10T14:53:43Z</time>
      </trkpt>
      <trkpt lat="42.7725" lon="1.48685">
        <ele>773.95118501684</ele>
        <time>2017-06-10T14:53:43Z</time>
      </trkpt>
      <trkpt lat="42.77246" lon="1.48689">
        <ele>773.95118501684</ele>
        <time>2017-06-10T14:53:43Z</time>
      </trkpt>
      <trkpt lat="42.77243" lon="1.48693">
        <ele>773.95118501684</ele>
        <time>2017-06-10T14:53:43Z</time>
      </trkpt>
      <trkpt lat="42.77237" lon="1.48697">
        <ele>775.10730918257</ele>
        <time>2017-06-10T14:53:43Z</time>
      </trkpt>
      <trkpt lat="42.77231" lon="1.487">
        <ele>775.10730918257</ele>
        <time>2017-06-10T14:53:59Z</time>
      </trkpt>
      <trkpt lat="42.77229" lon="1.48705">
        <ele>776.34468220997</ele>
        <time>2017-06-10T14:53:59Z</time>
      </trkpt>
      <trkpt lat="42.77227" lon="1.48708">
        <ele>776.34468220997</ele>
        <time>2017-06-10T14:53:59Z</time>
      </trkpt>
      <trkpt lat="42.77224" lon="1.48715">
        <ele>776.34468220997</ele>
        <time>2017-06-10T14:53:59Z</time>
      </trkpt>
      <trkpt lat="42.77221" lon="1.48719">
        <ele>777.50603329957</ele>
        <time>2017-06-10T14:54:15Z</time>
      </trkpt>
      <trkpt lat="42.77219" lon="1.48724">
        <ele>777.50603329957</ele>
        <time>2017-06-10T14:54:15Z</time>
      </trkpt>
      <trkpt lat="42.77217" lon="1.48728">
        <ele>777.50603329957</ele>
        <time>2017-06-10T14:54:15Z</time>
      </trkpt>
      <trkpt lat="42.77215" lon="1.48734">
        <ele>778.1578732417</ele>
        <time>2017-06-10T14:54:15Z</time>
      </trkpt>
      <trkpt lat="42.77211" lon="1.48739">
        <ele>778.1578732417</ele>
        <time>2017-06-10T14:54:31Z</time>
      </trkpt>
      <trkpt lat="42.7721" lon="1.48744">
        <ele>777.61200009257</ele>
        <time>2017-06-10T14:54:31Z</time>
      </trkpt>
      <trkpt lat="42.77208" lon="1.48749">
        <ele>777.61200009257</ele>
        <time>2017-06-10T14:54:31Z</time>
      </trkpt>
      <trkpt lat="42.77207" lon="1.48754">
        <ele>777.61200009257</ele>
        <time>2017-06-10T14:54:31Z</time>
      </trkpt>
      <trkpt lat="42.77206" lon="1.48759">
        <ele>776.24313535028</ele>
        <time>2017-06-10T14:54:47Z</time>
      </trkpt>
      <trkpt lat="42.77205" lon="1.48766">
        <ele>776.24313535028</ele>
        <time>2017-06-10T14:54:47Z</time>
      </trkpt>
      <trkpt lat="42.77209" lon="1.48778">
        <ele>775.12155820812</ele>
        <time>2017-06-10T14:54:47Z</time>
      </trkpt>
      <trkpt lat="42.77207" lon="1.48786">
        <ele>775.12155820812</ele>
        <time>2017-06-10T14:54:47Z</time>
      </trkpt>
      <trkpt lat="42.77204" lon="1.48792">
        <ele>774.95021654704</ele>
        <time>2017-06-10T14:55:03Z</time>
      </trkpt>
      <trkpt lat="42.772" lon="1.48796">
        <ele>774.95021654704</ele>
        <time>2017-06-10T14:55:03Z</time>
      </trkpt>
      <trkpt lat="42.77199" lon="1.48804">
        <ele>775.36916985367</ele>
        <time>2017-06-10T14:55:03Z</time>
      </trkpt>
      <trkpt lat="42.772" lon="1.48815">
        <ele>775.36916985367</ele>
        <time>2017-06-10T14:55:03Z</time>
      </trkpt>
      <trkpt lat="42.77197" lon="1.48822">
        <ele>776.33166888801</ele>
        <time>2017-06-10T14:55:19Z</time>
      </trkpt>
      <trkpt lat="42.7719" lon="1.48825">
        <ele>776.33166888801</ele>
        <time>2017-06-10T14:55:19Z</time>
      </trkpt>
      <trkpt lat="42.77185" lon="1.48827">
        <ele>776.64016181194</ele>
        <time>2017-06-10T14:55:19Z</time>
      </trkpt>
      <trkpt lat="42.77179" lon="1.48828">
        <ele>776.64016181194</ele>
        <time>2017-06-10T14:55:19Z</time>
      </trkpt>
      <trkpt lat="42.77174" lon="1.48828">
        <ele>775.90763047499</ele>
        <time>2017-06-10T14:55:35Z</time>
      </trkpt>
      <trkpt lat="42.7717" lon="1.48831">
        <ele>775.90763047499</ele>
        <time>2017-06-10T14:55:35Z</time>
      </trkpt>
      <trkpt lat="42.77167" lon="1.48834">
        <ele>775.90763047499</ele>
        <time>2017-06-10T14:55:35Z</time>
      </trkpt>
      <trkpt lat="42.77163" lon="1.48837">
        <ele>774.78734985183</ele>
        <time>2017-06-10T14:55:35Z</time>
      </trkpt>
      <trkpt lat="42.7716" lon="1.48838">
        <ele>774.78734985183</ele>
        <time>2017-06-10T14:55:51Z</time>
      </trkpt>
      <trkpt lat="42.77157" lon="1.48839">
        <ele>774.78734985183</ele>
        <time>2017-06-10T14:55:51Z</time>
      </trkpt>
      <trkpt lat="42.77154" lon="1.48842">
        <ele>772.58884511485</ele>
        <time>2017-06-10T14:55:51Z</time>
      </trkpt>
      <trkpt lat="42.77149" lon="1.48845">
        <ele>772.58884511485</ele>
        <time>2017-06-10T14:55:51Z</time>
      </trkpt>
      <trkpt lat="42.77146" lon="1.48847">
        <ele>770.4048571702</ele>
        <time>2017-06-10T14:56:07Z</time>
      </trkpt>
      <trkpt lat="42.7714" lon="1.48851">
        <ele>770.4048571702</ele>
        <time>2017-06-10T14:56:07Z</time>
      </trkpt>
      <trkpt lat="42.77136" lon="1.48855">
        <ele>768.38326198879</ele>
        <time>2017-06-10T14:56:07Z</time>
      </trkpt>
      <trkpt lat="42.77133" lon="1.4886">
        <ele>768.38326198879</ele>
        <time>2017-06-10T14:56:07Z</time>
      </trkpt>
      <trkpt lat="42.77132" lon="1.48865">
        <ele>768.38326198879</ele>
        <time>2017-06-10T14:56:23Z</time>
      </trkpt>
      <trkpt lat="42.77131" lon="1.48869">
        <ele>766.37248821333</ele>
        <time>2017-06-10T14:56:23Z</time>
      </trkpt>
      <trkpt lat="42.77129" lon="1.48876">
        <ele>766.37248821333</ele>
        <time>2017-06-10T14:56:23Z</time>
      </trkpt>
      <trkpt lat="42.77129" lon="1.48882">
        <ele>764.08802909545</ele>
        <time>2017-06-10T14:56:23Z</time>
      </trkpt>
      <trkpt lat="42.77127" lon="1.48887">
        <ele>764.08802909545</ele>
        <time>2017-06-10T14:56:39Z</time>
      </trkpt>
      <trkpt lat="42.77126" lon="1.48893">
        <ele>764.08802909545</ele>
        <time>2017-06-10T14:56:39Z</time>
      </trkpt>
      <trkpt lat="42.77124" lon="1.48898">
        <ele>761.69943023786</ele>
        <time>2017-06-10T14:56:39Z</time>
      </trkpt>
      <trkpt lat="42.77123" lon="1.48904">
        <ele>761.69943023786</ele>
        <time>2017-06-10T14:56:39Z</time>
      </trkpt>
      <trkpt lat="42.77123" lon="1.48911">
        <ele>758.78766100999</ele>
        <time>2017-06-10T14:56:55Z</time>
      </trkpt>
      <trkpt lat="42.77122" lon="1.48917">
        <ele>758.78766100999</ele>
        <time>2017-06-10T14:56:56Z</time>
      </trkpt>
      <trkpt lat="42.77121" lon="1.48922">
        <ele>755.54239490694</ele>
        <time>2017-06-10T14:56:56Z</time>
      </trkpt>
      <trkpt lat="42.77119" lon="1.48928">
        <ele>755.54239490694</ele>
        <time>2017-06-10T14:56:56Z</time>
      </trkpt>
      <trkpt lat="42.77118" lon="1.48934">
        <ele>755.54239490694</ele>
        <time>2017-06-10T14:57:11Z</time>
      </trkpt>
      <trkpt lat="42.77115" lon="1.4894">
        <ele>752.42851882925</ele>
        <time>2017-06-10T14:57:11Z</time>
      </trkpt>
      <trkpt lat="42.77113" lon="1.48944">
        <ele>752.42851882925</ele>
        <time>2017-06-10T14:57:11Z</time>
      </trkpt>
      <trkpt lat="42.77113" lon="1.48948">
        <ele>752.42851882925</ele>
        <time>2017-06-10T14:57:11Z</time>
      </trkpt>
      <trkpt lat="42.77109" lon="1.48952">
        <ele>748.86758935726</ele>
        <time>2017-06-10T14:57:28Z</time>
      </trkpt>
      <trkpt lat="42.77106" lon="1.48955">
        <ele>748.86758935726</ele>
        <time>2017-06-10T14:57:28Z</time>
      </trkpt>
      <trkpt lat="42.77103" lon="1.48961">
        <ele>745.91007794514</ele>
        <time>2017-06-10T14:57:28Z</time>
      </trkpt>
      <trkpt lat="42.77102" lon="1.48968">
        <ele>745.91007794514</ele>
        <time>2017-06-10T14:57:28Z</time>
      </trkpt>
      <trkpt lat="42.77099" lon="1.48981">
        <ele>742.94229974828</ele>
        <time>2017-06-10T14:58:07Z</time>
      </trkpt>
      <trkpt lat="42.77099" lon="1.48982">
        <ele>742.94229974828</ele>
        <time>2017-06-10T14:58:07Z</time>
      </trkpt>
      <trkpt lat="42.77098" lon="1.48982">
        <ele>742.94229974828</ele>
        <time>2017-06-10T14:58:07Z</time>
      </trkpt>
      <trkpt lat="42.77098" lon="1.48983">
        <ele>742.94229974828</ele>
        <time>2017-06-10T14:58:07Z</time>
      </trkpt>
      <trkpt lat="42.77096" lon="1.48987">
        <ele>742.94229974828</ele>
        <time>2017-06-10T14:58:07Z</time>
      </trkpt>
      <trkpt lat="42.77095" lon="1.48985">
        <ele>742.94229974828</ele>
        <time>2017-06-10T14:58:48Z</time>
      </trkpt>
      <trkpt lat="42.77091" lon="1.4899">
        <ele>740.26025618795</ele>
        <time>2017-06-10T14:58:48Z</time>
      </trkpt>
      <trkpt lat="42.77088" lon="1.48996">
        <ele>740.26025618795</ele>
        <time>2017-06-10T14:58:48Z</time>
      </trkpt>
      <trkpt lat="42.77085" lon="1.49002">
        <ele>738.56963352025</ele>
        <time>2017-06-10T14:58:48Z</time>
      </trkpt>
      <trkpt lat="42.77083" lon="1.49008">
        <ele>738.56963352025</ele>
        <time>2017-06-10T14:58:48Z</time>
      </trkpt>
      <trkpt lat="42.77082" lon="1.49013">
        <ele>736.79205176533</ele>
        <time>2017-06-10T14:59:03Z</time>
      </trkpt>
      <trkpt lat="42.77079" lon="1.49018">
        <ele>736.79205176533</ele>
        <time>2017-06-10T14:59:03Z</time>
      </trkpt>
      <trkpt lat="42.77075" lon="1.49022">
        <ele>735.08136455759</ele>
        <time>2017-06-10T14:59:03Z</time>
      </trkpt>
      <trkpt lat="42.77073" lon="1.49027">
        <ele>735.08136455759</ele>
        <time>2017-06-10T14:59:03Z</time>
      </trkpt>
      <trkpt lat="42.77068" lon="1.49033">
        <ele>734.15626299141</ele>
        <time>2017-06-10T14:59:20Z</time>
      </trkpt>
      <trkpt lat="42.77064" lon="1.49035">
        <ele>734.15626299141</ele>
        <time>2017-06-10T14:59:20Z</time>
      </trkpt>
      <trkpt lat="42.77061" lon="1.49038">
        <ele>734.15626299141</ele>
        <time>2017-06-10T14:59:20Z</time>
      </trkpt>
      <trkpt lat="42.77058" lon="1.49042">
        <ele>733.38332400235</ele>
        <time>2017-06-10T14:59:20Z</time>
      </trkpt>
      <trkpt lat="42.77053" lon="1.49045">
        <ele>733.38332400235</ele>
        <time>2017-06-10T14:59:35Z</time>
      </trkpt>
      <trkpt lat="42.7705" lon="1.49049">
        <ele>732.4633397149</ele>
        <time>2017-06-10T14:59:35Z</time>
      </trkpt>
      <trkpt lat="42.77046" lon="1.49053">
        <ele>732.4633397149</ele>
        <time>2017-06-10T14:59:35Z</time>
      </trkpt>
      <trkpt lat="42.77043" lon="1.49056">
        <ele>731.98405685503</ele>
        <time>2017-06-10T14:59:35Z</time>
      </trkpt>
      <trkpt lat="42.77039" lon="1.49058">
        <ele>731.98405685503</ele>
        <time>2017-06-10T14:59:51Z</time>
      </trkpt>
      <trkpt lat="42.77035" lon="1.49062">
        <ele>731.98405685503</ele>
        <time>2017-06-10T14:59:51Z</time>
      </trkpt>
      <trkpt lat="42.77031" lon="1.49064">
        <ele>731.62404709421</ele>
        <time>2017-06-10T14:59:51Z</time>
      </trkpt>
      <trkpt lat="42.77027" lon="1.49068">
        <ele>731.62404709421</ele>
        <time>2017-06-10T14:59:51Z</time>
      </trkpt>
      <trkpt lat="42.77024" lon="1.49072">
        <ele>731.22918326732</ele>
        <time>2017-06-10T15:00:08Z</time>
      </trkpt>
      <trkpt lat="42.77021" lon="1.49076">
        <ele>731.22918326732</ele>
        <time>2017-06-10T15:00:08Z</time>
      </trkpt>
      <trkpt lat="42.77017" lon="1.49079">
        <ele>731.22918326732</ele>
        <time>2017-06-10T15:00:08Z</time>
      </trkpt>
      <trkpt lat="42.77014" lon="1.49082">
        <ele>731.08901402563</ele>
        <time>2017-06-10T15:00:08Z</time>
      </trkpt>
      <trkpt lat="42.77011" lon="1.49085">
        <ele>731.08901402563</ele>
        <time>2017-06-10T15:00:23Z</time>
      </trkpt>
      <trkpt lat="42.77009" lon="1.49089">
        <ele>731.08901402563</ele>
        <time>2017-06-10T15:00:23Z</time>
      </trkpt>
      <trkpt lat="42.77009" lon="1.49094">
        <ele>730.17403444473</ele>
        <time>2017-06-10T15:00:23Z</time>
      </trkpt>
      <trkpt lat="42.77007" lon="1.491">
        <ele>730.17403444473</ele>
        <time>2017-06-10T15:00:23Z</time>
      </trkpt>
      <trkpt lat="42.77006" lon="1.49106">
        <ele>729.69414787763</ele>
        <time>2017-06-10T15:00:39Z</time>
      </trkpt>
      <trkpt lat="42.77004" lon="1.49113">
        <ele>729.69414787763</ele>
        <time>2017-06-10T15:00:39Z</time>
      </trkpt>
      <trkpt lat="42.77003" lon="1.4912">
        <ele>729.32799508243</ele>
        <time>2017-06-10T15:00:40Z</time>
      </trkpt>
      <trkpt lat="42.77" lon="1.49125">
        <ele>729.32799508243</ele>
        <time>2017-06-10T15:00:40Z</time>
      </trkpt>
      <trkpt lat="42.76995" lon="1.49129">
        <ele>729.35390582654</ele>
        <time>2017-06-10T15:01:03Z</time>
      </trkpt>
      <trkpt lat="42.76994" lon="1.4913">
        <ele>729.35390582654</ele>
        <time>2017-06-10T15:01:03Z</time>
      </trkpt>
      <trkpt lat="42.76992" lon="1.49133">
        <ele>729.35390582654</ele>
        <time>2017-06-10T15:01:04Z</time>
      </trkpt>
      <trkpt lat="42.76991" lon="1.49137">
        <ele>729.35390582654</ele>
        <time>2017-06-10T15:01:04Z</time>
      </trkpt>
      <trkpt lat="42.76991" lon="1.49146">
        <ele>727.72284727927</ele>
        <time>2017-06-10T15:01:04Z</time>
      </trkpt>
      <trkpt lat="42.76991" lon="1.49154">
        <ele>727.72284727927</ele>
        <time>2017-06-10T15:01:19Z</time>
      </trkpt>
      <trkpt lat="42.7699" lon="1.49162">
        <ele>726.28781260896</ele>
        <time>2017-06-10T15:01:19Z</time>
      </trkpt>
      <trkpt lat="42.7699" lon="1.49169">
        <ele>726.28781260896</ele>
        <time>2017-06-10T15:01:19Z</time>
      </trkpt>
      <trkpt lat="42.76989" lon="1.49174">
        <ele>726.28781260896</ele>
        <time>2017-06-10T15:01:19Z</time>
      </trkpt>
      <trkpt lat="42.76993" lon="1.49181">
        <ele>725.03576054612</ele>
        <time>2017-06-10T15:01:35Z</time>
      </trkpt>
      <trkpt lat="42.76997" lon="1.4919">
        <ele>725.03576054612</ele>
        <time>2017-06-10T15:01:35Z</time>
      </trkpt>
      <trkpt lat="42.76998" lon="1.49197">
        <ele>723.66584161182</ele>
        <time>2017-06-10T15:01:36Z</time>
      </trkpt>
      <trkpt lat="42.76999" lon="1.49202">
        <ele>723.66584161182</ele>
        <time>2017-06-10T15:01:36Z</time>
      </trkpt>
      <trkpt lat="42.77" lon="1.49208">
        <ele>723.66584161182</ele>
        <time>2017-06-10T15:01:51Z</time>
      </trkpt>
      <trkpt lat="42.76999" lon="1.49213">
        <ele>721.89960457742</ele>
        <time>2017-06-10T15:01:51Z</time>
      </trkpt>
      <trkpt lat="42.76997" lon="1.49218">
        <ele>721.89960457742</ele>
        <time>2017-06-10T15:01:51Z</time>
      </trkpt>
      <trkpt lat="42.76996" lon="1.49223">
        <ele>721.89960457742</ele>
        <time>2017-06-10T15:01:51Z</time>
      </trkpt>
      <trkpt lat="42.76996" lon="1.49229">
        <ele>719.76835198499</ele>
        <time>2017-06-10T15:02:07Z</time>
      </trkpt>
      <trkpt lat="42.76998" lon="1.49237">
        <ele>719.76835198499</ele>
        <time>2017-06-10T15:02:07Z</time>
      </trkpt>
      <trkpt lat="42.76999" lon="1.49245">
        <ele>717.73440576459</ele>
        <time>2017-06-10T15:02:08Z</time>
      </trkpt>
      <trkpt lat="42.76997" lon="1.49251">
        <ele>717.73440576459</ele>
        <time>2017-06-10T15:02:08Z</time>
      </trkpt>
      <trkpt lat="42.76995" lon="1.49256">
        <ele>716.08169925042</ele>
        <time>2017-06-10T15:02:23Z</time>
      </trkpt>
      <trkpt lat="42.7699" lon="1.49261">
        <ele>716.08169925042</ele>
        <time>2017-06-10T15:02:23Z</time>
      </trkpt>
      <trkpt lat="42.76986" lon="1.49268">
        <ele>715.5045274588</ele>
        <time>2017-06-10T15:02:23Z</time>
      </trkpt>
      <trkpt lat="42.76984" lon="1.49276">
        <ele>715.5045274588</ele>
        <time>2017-06-10T15:02:23Z</time>
      </trkpt>
      <trkpt lat="42.76982" lon="1.49283">
        <ele>715.77845547431</ele>
        <time>2017-06-10T15:02:39Z</time>
      </trkpt>
      <trkpt lat="42.76979" lon="1.49285">
        <ele>715.77845547431</ele>
        <time>2017-06-10T15:02:40Z</time>
      </trkpt>
      <trkpt lat="42.76978" lon="1.49291">
        <ele>715.77845547431</ele>
        <time>2017-06-10T15:02:40Z</time>
      </trkpt>
      <trkpt lat="42.76977" lon="1.49298">
        <ele>716.26077705557</ele>
        <time>2017-06-10T15:02:40Z</time>
      </trkpt>
      <trkpt lat="42.76977" lon="1.49305">
        <ele>716.26077705557</ele>
        <time>2017-06-10T15:02:55Z</time>
      </trkpt>
      <trkpt lat="42.76976" lon="1.49312">
        <ele>716.93183255109</ele>
        <time>2017-06-10T15:02:55Z</time>
      </trkpt>
      <trkpt lat="42.76973" lon="1.49318">
        <ele>716.93183255109</ele>
        <time>2017-06-10T15:02:55Z</time>
      </trkpt>
      <trkpt lat="42.76972" lon="1.49324">
        <ele>716.90819644039</ele>
        <time>2017-06-10T15:02:55Z</time>
      </trkpt>
      <trkpt lat="42.76972" lon="1.49329">
        <ele>716.90819644039</ele>
        <time>2017-06-10T15:03:11Z</time>
      </trkpt>
      <trkpt lat="42.76972" lon="1.49335">
        <ele>716.90819644039</ele>
        <time>2017-06-10T15:03:12Z</time>
      </trkpt>
      <trkpt lat="42.76972" lon="1.49341">
        <ele>715.66150733426</ele>
        <time>2017-06-10T15:03:12Z</time>
      </trkpt>
      <trkpt lat="42.76971" lon="1.49348">
        <ele>715.66150733426</ele>
        <time>2017-06-10T15:03:12Z</time>
      </trkpt>
      <trkpt lat="42.76968" lon="1.49357">
        <ele>715.44376645261</ele>
        <time>2017-06-10T15:03:59Z</time>
      </trkpt>
      <trkpt lat="42.76968" lon="1.49357">
        <ele>715.44376645261</ele>
        <time>2017-06-10T15:03:59Z</time>
      </trkpt>
      <trkpt lat="42.76967" lon="1.49357">
        <ele>715.44376645261</ele>
        <time>2017-06-10T15:03:59Z</time>
      </trkpt>
      <trkpt lat="42.76968" lon="1.4936">
        <ele>715.44376645261</ele>
        <time>2017-06-10T15:03:59Z</time>
      </trkpt>
      <trkpt lat="42.76965" lon="1.49366">
        <ele>715.44376645261</ele>
        <time>2017-06-10T15:03:59Z</time>
      </trkpt>
      <trkpt lat="42.76962" lon="1.49368">
        <ele>715.45644745268</ele>
        <time>2017-06-10T15:04:19Z</time>
      </trkpt>
      <trkpt lat="42.76961" lon="1.49372">
        <ele>715.45644745268</ele>
        <time>2017-06-10T15:04:19Z</time>
      </trkpt>
      <trkpt lat="42.76958" lon="1.49374">
        <ele>715.45644745268</ele>
        <time>2017-06-10T15:04:19Z</time>
      </trkpt>
      <trkpt lat="42.76955" lon="1.49376">
        <ele>715.5354997547</ele>
        <time>2017-06-10T15:04:19Z</time>
      </trkpt>
      <trkpt lat="42.76954" lon="1.49378">
        <ele>715.5354997547</ele>
        <time>2017-06-10T15:04:19Z</time>
      </trkpt>
      <trkpt lat="42.76951" lon="1.49383">
        <ele>715.5354997547</ele>
        <time>2017-06-10T15:04:35Z</time>
      </trkpt>
      <trkpt lat="42.7695" lon="1.49388">
        <ele>715.67287289948</ele>
        <time>2017-06-10T15:04:35Z</time>
      </trkpt>
      <trkpt lat="42.76947" lon="1.49397">
        <ele>715.67287289948</ele>
        <time>2017-06-10T15:04:35Z</time>
      </trkpt>
      <trkpt lat="42.76944" lon="1.49403">
        <ele>716.5815328775</ele>
        <time>2017-06-10T15:04:35Z</time>
      </trkpt>
      <trkpt lat="42.76943" lon="1.49411">
        <ele>716.5815328775</ele>
        <time>2017-06-10T15:04:51Z</time>
      </trkpt>
      <trkpt lat="42.76943" lon="1.49419">
        <ele>716.7582815909</ele>
        <time>2017-06-10T15:04:51Z</time>
      </trkpt>
      <trkpt lat="42.76942" lon="1.49426">
        <ele>716.7582815909</ele>
        <time>2017-06-10T15:04:52Z</time>
      </trkpt>
      <trkpt lat="42.76938" lon="1.49431">
        <ele>717.11822672829</ele>
        <time>2017-06-10T15:04:52Z</time>
      </trkpt>
      <trkpt lat="42.76938" lon="1.49439">
        <ele>717.11822672829</ele>
        <time>2017-06-10T15:05:07Z</time>
      </trkpt>
      <trkpt lat="42.76937" lon="1.49447">
        <ele>717.78824156971</ele>
        <time>2017-06-10T15:05:07Z</time>
      </trkpt>
      <trkpt lat="42.76935" lon="1.49449">
        <ele>717.78824156971</ele>
        <time>2017-06-10T15:05:07Z</time>
      </trkpt>
      <trkpt lat="42.76932" lon="1.49449">
        <ele>717.78824156971</ele>
        <time>2017-06-10T15:05:07Z</time>
      </trkpt>
      <trkpt lat="42.76928" lon="1.4945">
        <ele>717.73218584974</ele>
        <time>2017-06-10T15:05:23Z</time>
      </trkpt>
      <trkpt lat="42.76926" lon="1.49454">
        <ele>717.73218584974</ele>
        <time>2017-06-10T15:05:24Z</time>
      </trkpt>
      <trkpt lat="42.76925" lon="1.49459">
        <ele>717.73218584974</ele>
        <time>2017-06-10T15:05:24Z</time>
      </trkpt>
      <trkpt lat="42.76928" lon="1.49465">
        <ele>717.00091839384</ele>
        <time>2017-06-10T15:05:24Z</time>
      </trkpt>
      <trkpt lat="42.7693" lon="1.49472">
        <ele>717.00091839384</ele>
        <time>2017-06-10T15:05:39Z</time>
      </trkpt>
      <trkpt lat="42.76931" lon="1.49485">
        <ele>716.50819548488</ele>
        <time>2017-06-10T15:05:39Z</time>
      </trkpt>
      <trkpt lat="42.76932" lon="1.49496">
        <ele>716.50819548488</ele>
        <time>2017-06-10T15:05:39Z</time>
      </trkpt>
      <trkpt lat="42.76934" lon="1.49507">
        <ele>715.65894029796</ele>
        <time>2017-06-10T15:05:39Z</time>
      </trkpt>
      <trkpt lat="42.76934" lon="1.49514">
        <ele>715.65894029796</ele>
        <time>2017-06-10T15:05:55Z</time>
      </trkpt>
      <trkpt lat="42.76932" lon="1.49522">
        <ele>715.05574858874</ele>
        <time>2017-06-10T15:05:56Z</time>
      </trkpt>
      <trkpt lat="42.76931" lon="1.49528">
        <ele>715.05574858874</ele>
        <time>2017-06-10T15:05:56Z</time>
      </trkpt>
      <trkpt lat="42.76932" lon="1.49531">
        <ele>715.05574858874</ele>
        <time>2017-06-10T15:05:56Z</time>
      </trkpt>
      <trkpt lat="42.76929" lon="1.49534">
        <ele>714.82399220636</ele>
        <time>2017-06-10T15:06:11Z</time>
      </trkpt>
      <trkpt lat="42.76926" lon="1.4954">
        <ele>714.82399220636</ele>
        <time>2017-06-10T15:06:11Z</time>
      </trkpt>
      <trkpt lat="42.76924" lon="1.49546">
        <ele>714.93474466835</ele>
        <time>2017-06-10T15:06:11Z</time>
      </trkpt>
      <trkpt lat="42.76921" lon="1.49554">
        <ele>714.93474466835</ele>
        <time>2017-06-10T15:06:11Z</time>
      </trkpt>
      <trkpt lat="42.76917" lon="1.4956">
        <ele>714.92797395406</ele>
        <time>2017-06-10T15:06:27Z</time>
      </trkpt>
      <trkpt lat="42.76916" lon="1.49563">
        <ele>714.92797395406</ele>
        <time>2017-06-10T15:06:27Z</time>
      </trkpt>
      <trkpt lat="42.76917" lon="1.4957">
        <ele>714.92797395406</ele>
        <time>2017-06-10T15:06:27Z</time>
      </trkpt>
      <trkpt lat="42.76918" lon="1.49578">
        <ele>714.52194655658</ele>
        <time>2017-06-10T15:06:27Z</time>
      </trkpt>
      <trkpt lat="42.7692" lon="1.49588">
        <ele>714.52194655658</ele>
        <time>2017-06-10T15:06:43Z</time>
      </trkpt>
      <trkpt lat="42.7692" lon="1.49593">
        <ele>714.46558804081</ele>
        <time>2017-06-10T15:06:43Z</time>
      </trkpt>
      <trkpt lat="42.76922" lon="1.49597">
        <ele>714.46558804081</ele>
        <time>2017-06-10T15:06:44Z</time>
      </trkpt>
      <trkpt lat="42.76924" lon="1.496">
        <ele>714.46558804081</ele>
        <time>2017-06-10T15:06:44Z</time>
      </trkpt>
      <trkpt lat="42.76925" lon="1.49607">
        <ele>714.73133756851</ele>
        <time>2017-06-10T15:06:59Z</time>
      </trkpt>
      <trkpt lat="42.76925" lon="1.49615">
        <ele>714.73133756851</ele>
        <time>2017-06-10T15:06:59Z</time>
      </trkpt>
      <trkpt lat="42.76926" lon="1.49622">
        <ele>715.5810456333</ele>
        <time>2017-06-10T15:06:59Z</time>
      </trkpt>
      <trkpt lat="42.76928" lon="1.49627">
        <ele>715.5810456333</ele>
        <time>2017-06-10T15:06:59Z</time>
      </trkpt>
      <trkpt lat="42.76928" lon="1.49633">
        <ele>715.95875911362</ele>
        <time>2017-06-10T15:07:15Z</time>
      </trkpt>
      <trkpt lat="42.76929" lon="1.4964">
        <ele>715.95875911362</ele>
        <time>2017-06-10T15:07:15Z</time>
      </trkpt>
      <trkpt lat="42.76928" lon="1.49646">
        <ele>716.04038165241</ele>
        <time>2017-06-10T15:07:16Z</time>
      </trkpt>
      <trkpt lat="42.76928" lon="1.49651">
        <ele>716.04038165241</ele>
        <time>2017-06-10T15:07:16Z</time>
      </trkpt>
      <trkpt lat="42.76927" lon="1.49658">
        <ele>716.27802496967</ele>
        <time>2017-06-10T15:07:31Z</time>
      </trkpt>
      <trkpt lat="42.76925" lon="1.49665">
        <ele>716.27802496967</ele>
        <time>2017-06-10T15:07:31Z</time>
      </trkpt>
      <trkpt lat="42.76924" lon="1.49671">
        <ele>716.6578971068</ele>
        <time>2017-06-10T15:07:31Z</time>
      </trkpt>
      <trkpt lat="42.76923" lon="1.49676">
        <ele>716.6578971068</ele>
        <time>2017-06-10T15:07:31Z</time>
      </trkpt>
      <trkpt lat="42.76922" lon="1.49683">
        <ele>716.6578971068</ele>
        <time>2017-06-10T15:07:47Z</time>
      </trkpt>
      <trkpt lat="42.7692" lon="1.4969">
        <ele>717.45512400431</ele>
        <time>2017-06-10T15:07:47Z</time>
      </trkpt>
      <trkpt lat="42.76918" lon="1.49698">
        <ele>717.45512400431</ele>
        <time>2017-06-10T15:07:47Z</time>
      </trkpt>
      <trkpt lat="42.76918" lon="1.49706">
        <ele>718.63531235664</ele>
        <time>2017-06-10T15:07:47Z</time>
      </trkpt>
      <trkpt lat="42.76927" lon="1.49717">
        <ele>719.58916491831</ele>
        <time>2017-06-10T15:08:47Z</time>
      </trkpt>
      <trkpt lat="42.76927" lon="1.49717">
        <ele>719.58916491831</ele>
        <time>2017-06-10T15:08:47Z</time>
      </trkpt>
      <trkpt lat="42.76927" lon="1.49717">
        <ele>719.58916491831</ele>
        <time>2017-06-10T15:08:47Z</time>
      </trkpt>
      <trkpt lat="42.76928" lon="1.49717">
        <ele>719.58916491831</ele>
        <time>2017-06-10T15:08:47Z</time>
      </trkpt>
      <trkpt lat="42.76928" lon="1.49717">
        <ele>719.58916491831</ele>
        <time>2017-06-10T15:08:47Z</time>
      </trkpt>
      <trkpt lat="42.76925" lon="1.49715">
        <ele>719.58916491831</ele>
        <time>2017-06-10T15:11:55Z</time>
      </trkpt>
      <trkpt lat="42.76925" lon="1.49715">
        <ele>719.58916491831</ele>
        <time>2017-06-10T15:11:55Z</time>
      </trkpt>
      <trkpt lat="42.76923" lon="1.49716">
        <ele>719.58916491831</ele>
        <time>2017-06-10T15:11:55Z</time>
      </trkpt>
      <trkpt lat="42.76923" lon="1.49719">
        <ele>720.32931581459</ele>
        <time>2017-06-10T15:11:56Z</time>
      </trkpt>
      <trkpt lat="42.76921" lon="1.49724">
        <ele>720.32931581459</ele>
        <time>2017-06-10T15:11:56Z</time>
      </trkpt>
      <trkpt lat="42.76919" lon="1.49731">
        <ele>720.32931581459</ele>
        <time>2017-06-10T15:12:11Z</time>
      </trkpt>
      <trkpt lat="42.76917" lon="1.49737">
        <ele>721.15639076319</ele>
        <time>2017-06-10T15:12:11Z</time>
      </trkpt>
      <trkpt lat="42.76916" lon="1.49744">
        <ele>721.15639076319</ele>
        <time>2017-06-10T15:12:11Z</time>
      </trkpt>
      <trkpt lat="42.76913" lon="1.49751">
        <ele>722.63701297439</ele>
        <time>2017-06-10T15:12:11Z</time>
      </trkpt>
      <trkpt lat="42.76909" lon="1.49759">
        <ele>722.63701297439</ele>
        <time>2017-06-10T15:12:27Z</time>
      </trkpt>
      <trkpt lat="42.76906" lon="1.49766">
        <ele>723.7092322833</ele>
        <time>2017-06-10T15:12:28Z</time>
      </trkpt>
      <trkpt lat="42.76902" lon="1.49772">
        <ele>723.7092322833</ele>
        <time>2017-06-10T15:12:28Z</time>
      </trkpt>
      <trkpt lat="42.76898" lon="1.49777">
        <ele>723.96680828129</ele>
        <time>2017-06-10T15:12:28Z</time>
      </trkpt>
      <trkpt lat="42.76896" lon="1.49782">
        <ele>723.96680828129</ele>
        <time>2017-06-10T15:12:43Z</time>
      </trkpt>
      <trkpt lat="42.76893" lon="1.49784">
        <ele>723.96680828129</ele>
        <time>2017-06-10T15:12:43Z</time>
      </trkpt>
      <trkpt lat="42.7689" lon="1.49786">
        <ele>724.76507363291</ele>
        <time>2017-06-10T15:12:43Z</time>
      </trkpt>
      <trkpt lat="42.76886" lon="1.49791">
        <ele>724.76507363291</ele>
        <time>2017-06-10T15:12:43Z</time>
      </trkpt>
      <trkpt lat="42.76882" lon="1.49798">
        <ele>726.63784089823</ele>
        <time>2017-06-10T15:12:59Z</time>
      </trkpt>
      <trkpt lat="42.76881" lon="1.49805">
        <ele>726.63784089823</ele>
        <time>2017-06-10T15:13:00Z</time>
      </trkpt>
      <trkpt lat="42.76881" lon="1.49812">
        <ele>728.63570049245</ele>
        <time>2017-06-10T15:13:00Z</time>
      </trkpt>
      <trkpt lat="42.76881" lon="1.49818">
        <ele>728.63570049245</ele>
        <time>2017-06-10T15:13:00Z</time>
      </trkpt>
      <trkpt lat="42.76881" lon="1.49821">
        <ele>728.63570049245</ele>
        <time>2017-06-10T15:13:15Z</time>
      </trkpt>
      <trkpt lat="42.76879" lon="1.49826">
        <ele>728.72586438516</ele>
        <time>2017-06-10T15:13:15Z</time>
      </trkpt>
      <trkpt lat="42.76876" lon="1.49829">
        <ele>728.72586438516</ele>
        <time>2017-06-10T15:13:15Z</time>
      </trkpt>
      <trkpt lat="42.76873" lon="1.49831">
        <ele>728.72586438516</ele>
        <time>2017-06-10T15:13:15Z</time>
      </trkpt>
      <trkpt lat="42.76871" lon="1.49836">
        <ele>728.3448998333</ele>
        <time>2017-06-10T15:13:31Z</time>
      </trkpt>
      <trkpt lat="42.76869" lon="1.49842">
        <ele>728.3448998333</ele>
        <time>2017-06-10T15:13:31Z</time>
      </trkpt>
      <trkpt lat="42.76865" lon="1.49847">
        <ele>727.6723933156</ele>
        <time>2017-06-10T15:13:31Z</time>
      </trkpt>
      <trkpt lat="42.76861" lon="1.49853">
        <ele>727.6723933156</ele>
        <time>2017-06-10T15:13:31Z</time>
      </trkpt>
      <trkpt lat="42.76857" lon="1.49856">
        <ele>727.30799895895</ele>
        <time>2017-06-10T15:13:51Z</time>
      </trkpt>
      <trkpt lat="42.76855" lon="1.49854">
        <ele>727.30799895895</ele>
        <time>2017-06-10T15:13:51Z</time>
      </trkpt>
      <trkpt lat="42.76853" lon="1.49858">
        <ele>727.30799895895</ele>
        <time>2017-06-10T15:13:51Z</time>
      </trkpt>
      <trkpt lat="42.76852" lon="1.49865">
        <ele>726.36544109828</ele>
        <time>2017-06-10T15:13:51Z</time>
      </trkpt>
      <trkpt lat="42.7685" lon="1.4987">
        <ele>726.36544109828</ele>
        <time>2017-06-10T15:13:51Z</time>
      </trkpt>
      <trkpt lat="42.76847" lon="1.49878">
        <ele>724.74580951564</ele>
        <time>2017-06-10T15:14:15Z</time>
      </trkpt>
      <trkpt lat="42.76846" lon="1.49879">
        <ele>724.74580951564</ele>
        <time>2017-06-10T15:14:15Z</time>
      </trkpt>
      <trkpt lat="42.76844" lon="1.49879">
        <ele>724.74580951564</ele>
        <time>2017-06-10T15:14:15Z</time>
      </trkpt>
      <trkpt lat="42.76841" lon="1.49879">
        <ele>724.74580951564</ele>
        <time>2017-06-10T15:14:15Z</time>
      </trkpt>
      <trkpt lat="42.7684" lon="1.4988">
        <ele>724.74580951564</ele>
        <time>2017-06-10T15:14:15Z</time>
      </trkpt>
      <trkpt lat="42.76835" lon="1.4989">
        <ele>722.93587090266</ele>
        <time>2017-06-10T15:15:19Z</time>
      </trkpt>
      <trkpt lat="42.76835" lon="1.4989">
        <ele>722.93587090266</ele>
        <time>2017-06-10T15:15:19Z</time>
      </trkpt>
      <trkpt lat="42.76835" lon="1.4989">
        <ele>722.93587090266</ele>
        <time>2017-06-10T15:15:19Z</time>
      </trkpt>
      <trkpt lat="42.76835" lon="1.4989">
        <ele>722.93587090266</ele>
        <time>2017-06-10T15:15:19Z</time>
      </trkpt>
      <trkpt lat="42.76835" lon="1.49891">
        <ele>722.93587090266</ele>
        <time>2017-06-10T15:15:19Z</time>
      </trkpt>
    </trkseg>
  </trk>
</gpx>